<?xml version="1.0" encoding="UTF-8" standalone="no" ?>
<gpx xmlns="http://www.topografix.com/GPX/1/1" xmlns:xsi="http://www.w3.org/2001/XMLSchema-instance" xsi:schemaLocation="http://www.topografix.com/GPX/1/1 http://www.topografix.com/GPX/1/1/gpx.xsd" version="1.1" creator="VisuGPX - https://www.visugpx.com">
  <metadata>
    <name>Champagnat Cyclisme sur route</name>
  </metadata>
  <trk>
    <name><![CDATA[Champagnat Cyclisme sur route_1]]></name>
    <trkseg>
      <trkpt lat="46.48264" lon="5.36831">
        <ele>268.8</ele>
        <time>2022-03-10T13:18:01Z</time>
      </trkpt>
      <trkpt lat="46.48255" lon="5.36821">
        <ele>268</ele>
        <time>2022-03-10T13:18:02Z</time>
      </trkpt>
      <trkpt lat="46.48245" lon="5.36812">
        <ele>266.4</ele>
        <time>2022-03-10T13:18:03Z</time>
      </trkpt>
      <trkpt lat="46.48225" lon="5.36796">
        <ele>264.4</ele>
        <time>2022-03-10T13:18:05Z</time>
      </trkpt>
      <trkpt lat="46.48215" lon="5.36787">
        <ele>263.8</ele>
        <time>2022-03-10T13:18:06Z</time>
      </trkpt>
      <trkpt lat="46.48206" lon="5.36779">
        <ele>262.8</ele>
        <time>2022-03-10T13:18:07Z</time>
      </trkpt>
      <trkpt lat="46.48196" lon="5.36771">
        <ele>261.8</ele>
        <time>2022-03-10T13:18:08Z</time>
      </trkpt>
      <trkpt lat="46.48177" lon="5.36756">
        <ele>260.6</ele>
        <time>2022-03-10T13:18:10Z</time>
      </trkpt>
      <trkpt lat="46.48158" lon="5.36741">
        <ele>259.4</ele>
        <time>2022-03-10T13:18:12Z</time>
      </trkpt>
      <trkpt lat="46.48148" lon="5.36733">
        <ele>259</ele>
        <time>2022-03-10T13:18:13Z</time>
      </trkpt>
      <trkpt lat="46.48139" lon="5.36727">
        <ele>258.4</ele>
        <time>2022-03-10T13:18:14Z</time>
      </trkpt>
      <trkpt lat="46.48129" lon="5.36721">
        <ele>258</ele>
        <time>2022-03-10T13:18:15Z</time>
      </trkpt>
      <trkpt lat="46.4812" lon="5.36716">
        <ele>257.2</ele>
        <time>2022-03-10T13:18:16Z</time>
      </trkpt>
      <trkpt lat="46.48109" lon="5.367">
        <ele>256</ele>
        <time>2022-03-10T13:18:18Z</time>
      </trkpt>
      <trkpt lat="46.48111" lon="5.36679">
        <ele>255.2</ele>
        <time>2022-03-10T13:18:20Z</time>
      </trkpt>
      <trkpt lat="46.48117" lon="5.3667">
        <ele>254.2</ele>
        <time>2022-03-10T13:18:21Z</time>
      </trkpt>
      <trkpt lat="46.48125" lon="5.36663">
        <ele>254</ele>
        <time>2022-03-10T13:18:22Z</time>
      </trkpt>
      <trkpt lat="46.48132" lon="5.36656">
        <ele>253</ele>
        <time>2022-03-10T13:18:23Z</time>
      </trkpt>
      <trkpt lat="46.48139" lon="5.3665">
        <ele>251.8</ele>
        <time>2022-03-10T13:18:24Z</time>
      </trkpt>
      <trkpt lat="46.48179" lon="5.36613">
        <ele>250.2</ele>
        <time>2022-03-10T13:18:29Z</time>
      </trkpt>
      <trkpt lat="46.48187" lon="5.36608">
        <ele>250.2</ele>
        <time>2022-03-10T13:18:30Z</time>
      </trkpt>
      <trkpt lat="46.48195" lon="5.36605">
        <ele>250</ele>
        <time>2022-03-10T13:18:31Z</time>
      </trkpt>
      <trkpt lat="46.48211" lon="5.36597">
        <ele>250</ele>
        <time>2022-03-10T13:18:33Z</time>
      </trkpt>
      <trkpt lat="46.48217" lon="5.36589">
        <ele>249.8</ele>
        <time>2022-03-10T13:18:34Z</time>
      </trkpt>
      <trkpt lat="46.48221" lon="5.36579">
        <ele>249.8</ele>
        <time>2022-03-10T13:18:35Z</time>
      </trkpt>
      <trkpt lat="46.48229" lon="5.36559">
        <ele>249.6</ele>
        <time>2022-03-10T13:18:37Z</time>
      </trkpt>
      <trkpt lat="46.48256" lon="5.36528">
        <ele>249</ele>
        <time>2022-03-10T13:18:41Z</time>
      </trkpt>
      <trkpt lat="46.48262" lon="5.36521">
        <ele>248.4</ele>
        <time>2022-03-10T13:18:42Z</time>
      </trkpt>
      <trkpt lat="46.48298" lon="5.36482">
        <ele>247.2</ele>
        <time>2022-03-10T13:18:47Z</time>
      </trkpt>
      <trkpt lat="46.48305" lon="5.36475">
        <ele>247</ele>
        <time>2022-03-10T13:18:48Z</time>
      </trkpt>
      <trkpt lat="46.48341" lon="5.36435">
        <ele>246</ele>
        <time>2022-03-10T13:18:53Z</time>
      </trkpt>
      <trkpt lat="46.48371" lon="5.36402">
        <ele>245</ele>
        <time>2022-03-10T13:18:57Z</time>
      </trkpt>
      <trkpt lat="46.48401" lon="5.36371">
        <ele>243.8</ele>
        <time>2022-03-10T13:19:01Z</time>
      </trkpt>
      <trkpt lat="46.48409" lon="5.36364">
        <ele>243.6</ele>
        <time>2022-03-10T13:19:02Z</time>
      </trkpt>
      <trkpt lat="46.48417" lon="5.36359">
        <ele>243.4</ele>
        <time>2022-03-10T13:19:03Z</time>
      </trkpt>
      <trkpt lat="46.48426" lon="5.36355">
        <ele>243.2</ele>
        <time>2022-03-10T13:19:04Z</time>
      </trkpt>
      <trkpt lat="46.48451" lon="5.36348">
        <ele>242.8</ele>
        <time>2022-03-10T13:19:07Z</time>
      </trkpt>
      <trkpt lat="46.48508" lon="5.36338">
        <ele>242.6</ele>
        <time>2022-03-10T13:19:14Z</time>
      </trkpt>
      <trkpt lat="46.48562" lon="5.3633">
        <ele>242.6</ele>
        <time>2022-03-10T13:19:21Z</time>
      </trkpt>
      <trkpt lat="46.48571" lon="5.36329">
        <ele>242.6</ele>
        <time>2022-03-10T13:19:22Z</time>
      </trkpt>
      <trkpt lat="46.48596" lon="5.36324">
        <ele>241.6</ele>
        <time>2022-03-10T13:19:25Z</time>
      </trkpt>
      <trkpt lat="46.48614" lon="5.36319">
        <ele>241.4</ele>
        <time>2022-03-10T13:19:27Z</time>
      </trkpt>
      <trkpt lat="46.48628" lon="5.36302">
        <ele>240.8</ele>
        <time>2022-03-10T13:19:29Z</time>
      </trkpt>
      <trkpt lat="46.48633" lon="5.3629">
        <ele>240.2</ele>
        <time>2022-03-10T13:19:30Z</time>
      </trkpt>
      <trkpt lat="46.48636" lon="5.36276">
        <ele>240</ele>
        <time>2022-03-10T13:19:31Z</time>
      </trkpt>
      <trkpt lat="46.48638" lon="5.36263">
        <ele>239.4</ele>
        <time>2022-03-10T13:19:32Z</time>
      </trkpt>
      <trkpt lat="46.48639" lon="5.36249">
        <ele>238.8</ele>
        <time>2022-03-10T13:19:33Z</time>
      </trkpt>
      <trkpt lat="46.48643" lon="5.36208">
        <ele>237.6</ele>
        <time>2022-03-10T13:19:36Z</time>
      </trkpt>
      <trkpt lat="46.48646" lon="5.36169">
        <ele>237</ele>
        <time>2022-03-10T13:19:39Z</time>
      </trkpt>
      <trkpt lat="46.48647" lon="5.36156">
        <ele>236.6</ele>
        <time>2022-03-10T13:19:40Z</time>
      </trkpt>
      <trkpt lat="46.48648" lon="5.36144">
        <ele>236.4</ele>
        <time>2022-03-10T13:19:41Z</time>
      </trkpt>
      <trkpt lat="46.48653" lon="5.3612">
        <ele>236</ele>
        <time>2022-03-10T13:19:43Z</time>
      </trkpt>
      <trkpt lat="46.4866" lon="5.36086">
        <ele>235.6</ele>
        <time>2022-03-10T13:19:46Z</time>
      </trkpt>
      <trkpt lat="46.48667" lon="5.36055">
        <ele>235.4</ele>
        <time>2022-03-10T13:19:49Z</time>
      </trkpt>
      <trkpt lat="46.48677" lon="5.36013">
        <ele>235.6</ele>
        <time>2022-03-10T13:19:54Z</time>
      </trkpt>
      <trkpt lat="46.48679" lon="5.36006">
        <ele>235.6</ele>
        <time>2022-03-10T13:19:55Z</time>
      </trkpt>
      <trkpt lat="46.48685" lon="5.35961">
        <ele>236.2</ele>
        <time>2022-03-10T13:20:00Z</time>
      </trkpt>
      <trkpt lat="46.4869" lon="5.35923">
        <ele>236.6</ele>
        <time>2022-03-10T13:20:04Z</time>
      </trkpt>
      <trkpt lat="46.48693" lon="5.35914">
        <ele>236.6</ele>
        <time>2022-03-10T13:20:05Z</time>
      </trkpt>
      <trkpt lat="46.48695" lon="5.35905">
        <ele>236.6</ele>
        <time>2022-03-10T13:20:06Z</time>
      </trkpt>
      <trkpt lat="46.48716" lon="5.35848">
        <ele>236</ele>
        <time>2022-03-10T13:20:12Z</time>
      </trkpt>
      <trkpt lat="46.48728" lon="5.3582">
        <ele>235.6</ele>
        <time>2022-03-10T13:20:15Z</time>
      </trkpt>
      <trkpt lat="46.48739" lon="5.35794">
        <ele>235.4</ele>
        <time>2022-03-10T13:20:18Z</time>
      </trkpt>
      <trkpt lat="46.48759" lon="5.3575">
        <ele>234.6</ele>
        <time>2022-03-10T13:20:23Z</time>
      </trkpt>
      <trkpt lat="46.4877" lon="5.35723">
        <ele>234.2</ele>
        <time>2022-03-10T13:20:26Z</time>
      </trkpt>
      <trkpt lat="46.488" lon="5.35657">
        <ele>233.8</ele>
        <time>2022-03-10T13:20:34Z</time>
      </trkpt>
      <trkpt lat="46.48807" lon="5.35641">
        <ele>233.8</ele>
        <time>2022-03-10T13:20:36Z</time>
      </trkpt>
      <trkpt lat="46.48835" lon="5.35576">
        <ele>234.2</ele>
        <time>2022-03-10T13:20:44Z</time>
      </trkpt>
      <trkpt lat="46.48867" lon="5.35504">
        <ele>234.6</ele>
        <time>2022-03-10T13:20:53Z</time>
      </trkpt>
      <trkpt lat="46.48878" lon="5.35478">
        <ele>234.4</ele>
        <time>2022-03-10T13:20:56Z</time>
      </trkpt>
      <trkpt lat="46.48908" lon="5.35408">
        <ele>234</ele>
        <time>2022-03-10T13:21:04Z</time>
      </trkpt>
      <trkpt lat="46.48912" lon="5.35399">
        <ele>233.8</ele>
        <time>2022-03-10T13:21:05Z</time>
      </trkpt>
      <trkpt lat="46.48927" lon="5.35363">
        <ele>233.6</ele>
        <time>2022-03-10T13:21:09Z</time>
      </trkpt>
      <trkpt lat="46.48952" lon="5.35309">
        <ele>232.8</ele>
        <time>2022-03-10T13:21:15Z</time>
      </trkpt>
      <trkpt lat="46.48975" lon="5.35259">
        <ele>232.6</ele>
        <time>2022-03-10T13:21:21Z</time>
      </trkpt>
      <trkpt lat="46.48985" lon="5.35235">
        <ele>232.2</ele>
        <time>2022-03-10T13:21:24Z</time>
      </trkpt>
      <trkpt lat="46.49009" lon="5.3518">
        <ele>233.2</ele>
        <time>2022-03-10T13:21:31Z</time>
      </trkpt>
      <trkpt lat="46.49023" lon="5.35151">
        <ele>233.6</ele>
        <time>2022-03-10T13:21:35Z</time>
      </trkpt>
      <trkpt lat="46.49032" lon="5.35128">
        <ele>233.6</ele>
        <time>2022-03-10T13:21:38Z</time>
      </trkpt>
      <trkpt lat="46.49036" lon="5.3512">
        <ele>233.8</ele>
        <time>2022-03-10T13:21:39Z</time>
      </trkpt>
      <trkpt lat="46.49041" lon="5.35114">
        <ele>233.8</ele>
        <time>2022-03-10T13:21:40Z</time>
      </trkpt>
      <trkpt lat="46.49058" lon="5.35098">
        <ele>234</ele>
        <time>2022-03-10T13:21:43Z</time>
      </trkpt>
      <trkpt lat="46.49107" lon="5.35056">
        <ele>233.8</ele>
        <time>2022-03-10T13:21:51Z</time>
      </trkpt>
      <trkpt lat="46.4916" lon="5.35012">
        <ele>233.2</ele>
        <time>2022-03-10T13:21:59Z</time>
      </trkpt>
      <trkpt lat="46.49191" lon="5.34982">
        <ele>232.6</ele>
        <time>2022-03-10T13:22:04Z</time>
      </trkpt>
      <trkpt lat="46.49196" lon="5.34975">
        <ele>232.4</ele>
        <time>2022-03-10T13:22:05Z</time>
      </trkpt>
      <trkpt lat="46.49207" lon="5.3496">
        <ele>232.2</ele>
        <time>2022-03-10T13:22:07Z</time>
      </trkpt>
      <trkpt lat="46.49226" lon="5.34931">
        <ele>232</ele>
        <time>2022-03-10T13:22:11Z</time>
      </trkpt>
      <trkpt lat="46.49264" lon="5.34871">
        <ele>231.4</ele>
        <time>2022-03-10T13:22:19Z</time>
      </trkpt>
      <trkpt lat="46.49269" lon="5.34864">
        <ele>231.2</ele>
        <time>2022-03-10T13:22:20Z</time>
      </trkpt>
      <trkpt lat="46.49288" lon="5.34848">
        <ele>231.4</ele>
        <time>2022-03-10T13:22:23Z</time>
      </trkpt>
      <trkpt lat="46.49302" lon="5.3484">
        <ele>231.4</ele>
        <time>2022-03-10T13:22:25Z</time>
      </trkpt>
      <trkpt lat="46.49316" lon="5.34836">
        <ele>231.6</ele>
        <time>2022-03-10T13:22:27Z</time>
      </trkpt>
      <trkpt lat="46.4935" lon="5.34829">
        <ele>231.8</ele>
        <time>2022-03-10T13:22:32Z</time>
      </trkpt>
      <trkpt lat="46.49395" lon="5.34818">
        <ele>231.8</ele>
        <time>2022-03-10T13:22:39Z</time>
      </trkpt>
      <trkpt lat="46.49418" lon="5.34805">
        <ele>232.4</ele>
        <time>2022-03-10T13:22:43Z</time>
      </trkpt>
      <trkpt lat="46.49424" lon="5.348">
        <ele>232.2</ele>
        <time>2022-03-10T13:22:44Z</time>
      </trkpt>
      <trkpt lat="46.49448" lon="5.34777">
        <ele>231.4</ele>
        <time>2022-03-10T13:22:48Z</time>
      </trkpt>
      <trkpt lat="46.49455" lon="5.3477">
        <ele>231.4</ele>
        <time>2022-03-10T13:22:49Z</time>
      </trkpt>
      <trkpt lat="46.49498" lon="5.34722">
        <ele>230.2</ele>
        <time>2022-03-10T13:22:55Z</time>
      </trkpt>
      <trkpt lat="46.49521" lon="5.34695">
        <ele>229.2</ele>
        <time>2022-03-10T13:22:58Z</time>
      </trkpt>
      <trkpt lat="46.49537" lon="5.34676">
        <ele>228</ele>
        <time>2022-03-10T13:23:00Z</time>
      </trkpt>
      <trkpt lat="46.49553" lon="5.34657">
        <ele>227.4</ele>
        <time>2022-03-10T13:23:02Z</time>
      </trkpt>
      <trkpt lat="46.49569" lon="5.34637">
        <ele>226.2</ele>
        <time>2022-03-10T13:23:04Z</time>
      </trkpt>
      <trkpt lat="46.49584" lon="5.34616">
        <ele>225.2</ele>
        <time>2022-03-10T13:23:06Z</time>
      </trkpt>
      <trkpt lat="46.49591" lon="5.34605">
        <ele>224.2</ele>
        <time>2022-03-10T13:23:07Z</time>
      </trkpt>
      <trkpt lat="46.49598" lon="5.34595">
        <ele>223.8</ele>
        <time>2022-03-10T13:23:08Z</time>
      </trkpt>
      <trkpt lat="46.49617" lon="5.34566">
        <ele>222.6</ele>
        <time>2022-03-10T13:23:11Z</time>
      </trkpt>
      <trkpt lat="46.49623" lon="5.34558">
        <ele>222.4</ele>
        <time>2022-03-10T13:23:12Z</time>
      </trkpt>
      <trkpt lat="46.49639" lon="5.34542">
        <ele>221.6</ele>
        <time>2022-03-10T13:23:15Z</time>
      </trkpt>
      <trkpt lat="46.49644" lon="5.3454">
        <ele>221.4</ele>
        <time>2022-03-10T13:23:16Z</time>
      </trkpt>
      <trkpt lat="46.49648" lon="5.34536">
        <ele>221.4</ele>
        <time>2022-03-10T13:23:17Z</time>
      </trkpt>
      <trkpt lat="46.49655" lon="5.34525">
        <ele>221.2</ele>
        <time>2022-03-10T13:23:19Z</time>
      </trkpt>
      <trkpt lat="46.4966" lon="5.34511">
        <ele>221.2</ele>
        <time>2022-03-10T13:23:21Z</time>
      </trkpt>
      <trkpt lat="46.49664" lon="5.34496">
        <ele>221.2</ele>
        <time>2022-03-10T13:23:23Z</time>
      </trkpt>
      <trkpt lat="46.49669" lon="5.34479">
        <ele>221.2</ele>
        <time>2022-03-10T13:23:25Z</time>
      </trkpt>
      <trkpt lat="46.49676" lon="5.34455">
        <ele>221.2</ele>
        <time>2022-03-10T13:23:28Z</time>
      </trkpt>
      <trkpt lat="46.49689" lon="5.34409">
        <ele>222</ele>
        <time>2022-03-10T13:23:34Z</time>
      </trkpt>
      <trkpt lat="46.49698" lon="5.34381">
        <ele>222.6</ele>
        <time>2022-03-10T13:23:38Z</time>
      </trkpt>
      <trkpt lat="46.49704" lon="5.3436">
        <ele>223.2</ele>
        <time>2022-03-10T13:23:41Z</time>
      </trkpt>
      <trkpt lat="46.49708" lon="5.34347">
        <ele>223.6</ele>
        <time>2022-03-10T13:23:43Z</time>
      </trkpt>
      <trkpt lat="46.4971" lon="5.3434">
        <ele>223.8</ele>
        <time>2022-03-10T13:23:44Z</time>
      </trkpt>
      <trkpt lat="46.49715" lon="5.34328">
        <ele>224.2</ele>
        <time>2022-03-10T13:23:46Z</time>
      </trkpt>
      <trkpt lat="46.49718" lon="5.34321">
        <ele>224.4</ele>
        <time>2022-03-10T13:23:47Z</time>
      </trkpt>
      <trkpt lat="46.49721" lon="5.34314">
        <ele>224.6</ele>
        <time>2022-03-10T13:23:48Z</time>
      </trkpt>
      <trkpt lat="46.49726" lon="5.34299">
        <ele>224.8</ele>
        <time>2022-03-10T13:23:50Z</time>
      </trkpt>
      <trkpt lat="46.49736" lon="5.34276">
        <ele>225.2</ele>
        <time>2022-03-10T13:23:53Z</time>
      </trkpt>
      <trkpt lat="46.49755" lon="5.34243">
        <ele>225.4</ele>
        <time>2022-03-10T13:23:58Z</time>
      </trkpt>
      <trkpt lat="46.49782" lon="5.34198">
        <ele>225.8</ele>
        <time>2022-03-10T13:24:05Z</time>
      </trkpt>
      <trkpt lat="46.4979" lon="5.34186">
        <ele>225.8</ele>
        <time>2022-03-10T13:24:07Z</time>
      </trkpt>
      <trkpt lat="46.49793" lon="5.34179">
        <ele>226</ele>
        <time>2022-03-10T13:24:08Z</time>
      </trkpt>
      <trkpt lat="46.49804" lon="5.34161">
        <ele>226</ele>
        <time>2022-03-10T13:24:11Z</time>
      </trkpt>
      <trkpt lat="46.4984" lon="5.34102">
        <ele>226.4</ele>
        <time>2022-03-10T13:24:20Z</time>
      </trkpt>
      <trkpt lat="46.4987" lon="5.34062">
        <ele>226.2</ele>
        <time>2022-03-10T13:24:26Z</time>
      </trkpt>
      <trkpt lat="46.49906" lon="5.34021">
        <ele>225.6</ele>
        <time>2022-03-10T13:24:33Z</time>
      </trkpt>
      <trkpt lat="46.49937" lon="5.33985">
        <ele>226.6</ele>
        <time>2022-03-10T13:24:40Z</time>
      </trkpt>
      <trkpt lat="46.49945" lon="5.33977">
        <ele>226.8</ele>
        <time>2022-03-10T13:24:42Z</time>
      </trkpt>
      <trkpt lat="46.49958" lon="5.33965">
        <ele>227.2</ele>
        <time>2022-03-10T13:24:45Z</time>
      </trkpt>
      <trkpt lat="46.49963" lon="5.33961">
        <ele>227.2</ele>
        <time>2022-03-10T13:24:46Z</time>
      </trkpt>
      <trkpt lat="46.49976" lon="5.33948">
        <ele>227.8</ele>
        <time>2022-03-10T13:24:49Z</time>
      </trkpt>
      <trkpt lat="46.49991" lon="5.33931">
        <ele>228</ele>
        <time>2022-03-10T13:24:52Z</time>
      </trkpt>
      <trkpt lat="46.50018" lon="5.33904">
        <ele>228.4</ele>
        <time>2022-03-10T13:24:57Z</time>
      </trkpt>
      <trkpt lat="46.50051" lon="5.33866">
        <ele>228.6</ele>
        <time>2022-03-10T13:25:03Z</time>
      </trkpt>
      <trkpt lat="46.50088" lon="5.33825">
        <ele>228.2</ele>
        <time>2022-03-10T13:25:09Z</time>
      </trkpt>
      <trkpt lat="46.50134" lon="5.33776">
        <ele>227</ele>
        <time>2022-03-10T13:25:16Z</time>
      </trkpt>
      <trkpt lat="46.5014" lon="5.33768">
        <ele>226.8</ele>
        <time>2022-03-10T13:25:17Z</time>
      </trkpt>
      <trkpt lat="46.50146" lon="5.33761">
        <ele>226.8</ele>
        <time>2022-03-10T13:25:18Z</time>
      </trkpt>
      <trkpt lat="46.50188" lon="5.33715">
        <ele>226.6</ele>
        <time>2022-03-10T13:25:25Z</time>
      </trkpt>
      <trkpt lat="46.50222" lon="5.3368">
        <ele>226.8</ele>
        <time>2022-03-10T13:25:31Z</time>
      </trkpt>
      <trkpt lat="46.50271" lon="5.33628">
        <ele>226.8</ele>
        <time>2022-03-10T13:25:39Z</time>
      </trkpt>
      <trkpt lat="46.50319" lon="5.33576">
        <ele>226</ele>
        <time>2022-03-10T13:25:47Z</time>
      </trkpt>
      <trkpt lat="46.50331" lon="5.33562">
        <ele>225.8</ele>
        <time>2022-03-10T13:25:49Z</time>
      </trkpt>
      <trkpt lat="46.50338" lon="5.33555">
        <ele>225.8</ele>
        <time>2022-03-10T13:25:50Z</time>
      </trkpt>
      <trkpt lat="46.50371" lon="5.33523">
        <ele>225.4</ele>
        <time>2022-03-10T13:25:55Z</time>
      </trkpt>
      <trkpt lat="46.5041" lon="5.33483">
        <ele>225.2</ele>
        <time>2022-03-10T13:26:01Z</time>
      </trkpt>
      <trkpt lat="46.50434" lon="5.33453">
        <ele>224.8</ele>
        <time>2022-03-10T13:26:05Z</time>
      </trkpt>
      <trkpt lat="46.5045" lon="5.33427">
        <ele>223.8</ele>
        <time>2022-03-10T13:26:08Z</time>
      </trkpt>
      <trkpt lat="46.50458" lon="5.33408">
        <ele>223.6</ele>
        <time>2022-03-10T13:26:10Z</time>
      </trkpt>
      <trkpt lat="46.50461" lon="5.33397">
        <ele>223.4</ele>
        <time>2022-03-10T13:26:11Z</time>
      </trkpt>
      <trkpt lat="46.50463" lon="5.33386">
        <ele>223.2</ele>
        <time>2022-03-10T13:26:12Z</time>
      </trkpt>
      <trkpt lat="46.50465" lon="5.33374">
        <ele>223.2</ele>
        <time>2022-03-10T13:26:13Z</time>
      </trkpt>
      <trkpt lat="46.50467" lon="5.33341">
        <ele>223</ele>
        <time>2022-03-10T13:26:16Z</time>
      </trkpt>
      <trkpt lat="46.50469" lon="5.33323">
        <ele>222.8</ele>
        <time>2022-03-10T13:26:18Z</time>
      </trkpt>
      <trkpt lat="46.5047" lon="5.33312">
        <ele>222.8</ele>
        <time>2022-03-10T13:26:19Z</time>
      </trkpt>
      <trkpt lat="46.50471" lon="5.33292">
        <ele>222.8</ele>
        <time>2022-03-10T13:26:21Z</time>
      </trkpt>
      <trkpt lat="46.50472" lon="5.33283">
        <ele>222.8</ele>
        <time>2022-03-10T13:26:22Z</time>
      </trkpt>
      <trkpt lat="46.50474" lon="5.33275">
        <ele>222.8</ele>
        <time>2022-03-10T13:26:23Z</time>
      </trkpt>
      <trkpt lat="46.50476" lon="5.33234">
        <ele>222.8</ele>
        <time>2022-03-10T13:26:27Z</time>
      </trkpt>
      <trkpt lat="46.50477" lon="5.33226">
        <ele>223</ele>
        <time>2022-03-10T13:26:28Z</time>
      </trkpt>
      <trkpt lat="46.50477" lon="5.33188">
        <ele>223.2</ele>
        <time>2022-03-10T13:26:32Z</time>
      </trkpt>
      <trkpt lat="46.50477" lon="5.33144">
        <ele>223.2</ele>
        <time>2022-03-10T13:26:36Z</time>
      </trkpt>
      <trkpt lat="46.50476" lon="5.3308">
        <ele>222.4</ele>
        <time>2022-03-10T13:26:41Z</time>
      </trkpt>
      <trkpt lat="46.50475" lon="5.3304">
        <ele>221.2</ele>
        <time>2022-03-10T13:26:44Z</time>
      </trkpt>
      <trkpt lat="46.50475" lon="5.32999">
        <ele>220.2</ele>
        <time>2022-03-10T13:26:47Z</time>
      </trkpt>
      <trkpt lat="46.50475" lon="5.32984">
        <ele>220</ele>
        <time>2022-03-10T13:26:48Z</time>
      </trkpt>
      <trkpt lat="46.50475" lon="5.32939">
        <ele>218.2</ele>
        <time>2022-03-10T13:26:51Z</time>
      </trkpt>
      <trkpt lat="46.50475" lon="5.32897">
        <ele>216.2</ele>
        <time>2022-03-10T13:26:54Z</time>
      </trkpt>
      <trkpt lat="46.50475" lon="5.32882">
        <ele>215.8</ele>
        <time>2022-03-10T13:26:55Z</time>
      </trkpt>
      <trkpt lat="46.50476" lon="5.32863">
        <ele>215</ele>
        <time>2022-03-10T13:26:56Z</time>
      </trkpt>
      <trkpt lat="46.50476" lon="5.32804">
        <ele>213.4</ele>
        <time>2022-03-10T13:27:00Z</time>
      </trkpt>
      <trkpt lat="46.50477" lon="5.32762">
        <ele>212.2</ele>
        <time>2022-03-10T13:27:03Z</time>
      </trkpt>
      <trkpt lat="46.50477" lon="5.32697">
        <ele>211</ele>
        <time>2022-03-10T13:27:08Z</time>
      </trkpt>
      <trkpt lat="46.50478" lon="5.32659">
        <ele>210.6</ele>
        <time>2022-03-10T13:27:11Z</time>
      </trkpt>
      <trkpt lat="46.50477" lon="5.32586">
        <ele>210</ele>
        <time>2022-03-10T13:27:17Z</time>
      </trkpt>
      <trkpt lat="46.50476" lon="5.32559">
        <ele>209.6</ele>
        <time>2022-03-10T13:27:19Z</time>
      </trkpt>
      <trkpt lat="46.50474" lon="5.32509">
        <ele>208.8</ele>
        <time>2022-03-10T13:27:23Z</time>
      </trkpt>
      <trkpt lat="46.5047" lon="5.32461">
        <ele>208.2</ele>
        <time>2022-03-10T13:27:27Z</time>
      </trkpt>
      <trkpt lat="46.50466" lon="5.32437">
        <ele>207.8</ele>
        <time>2022-03-10T13:27:29Z</time>
      </trkpt>
      <trkpt lat="46.50458" lon="5.32391">
        <ele>207.4</ele>
        <time>2022-03-10T13:27:33Z</time>
      </trkpt>
      <trkpt lat="46.50442" lon="5.32318">
        <ele>207</ele>
        <time>2022-03-10T13:27:40Z</time>
      </trkpt>
      <trkpt lat="46.5044" lon="5.32308">
        <ele>207</ele>
        <time>2022-03-10T13:27:41Z</time>
      </trkpt>
      <trkpt lat="46.50437" lon="5.3229">
        <ele>206.8</ele>
        <time>2022-03-10T13:27:43Z</time>
      </trkpt>
      <trkpt lat="46.50433" lon="5.32246">
        <ele>206.8</ele>
        <time>2022-03-10T13:27:47Z</time>
      </trkpt>
      <trkpt lat="46.50433" lon="5.32156">
        <ele>205.8</ele>
        <time>2022-03-10T13:27:55Z</time>
      </trkpt>
      <trkpt lat="46.50434" lon="5.32144">
        <ele>205.8</ele>
        <time>2022-03-10T13:27:56Z</time>
      </trkpt>
      <trkpt lat="46.50436" lon="5.32062">
        <ele>204.8</ele>
        <time>2022-03-10T13:28:03Z</time>
      </trkpt>
      <trkpt lat="46.50436" lon="5.32052">
        <ele>204.8</ele>
        <time>2022-03-10T13:28:04Z</time>
      </trkpt>
      <trkpt lat="46.50438" lon="5.31969">
        <ele>203.8</ele>
        <time>2022-03-10T13:28:11Z</time>
      </trkpt>
      <trkpt lat="46.50438" lon="5.31957">
        <ele>203.6</ele>
        <time>2022-03-10T13:28:12Z</time>
      </trkpt>
      <trkpt lat="46.50439" lon="5.31935">
        <ele>203.6</ele>
        <time>2022-03-10T13:28:14Z</time>
      </trkpt>
      <trkpt lat="46.50435" lon="5.3186">
        <ele>203.6</ele>
        <time>2022-03-10T13:28:21Z</time>
      </trkpt>
      <trkpt lat="46.50419" lon="5.31786">
        <ele>203.6</ele>
        <time>2022-03-10T13:28:28Z</time>
      </trkpt>
      <trkpt lat="46.50395" lon="5.3172">
        <ele>203</ele>
        <time>2022-03-10T13:28:35Z</time>
      </trkpt>
      <trkpt lat="46.50366" lon="5.31671">
        <ele>202.8</ele>
        <time>2022-03-10T13:28:41Z</time>
      </trkpt>
      <trkpt lat="46.50355" lon="5.31657">
        <ele>202.8</ele>
        <time>2022-03-10T13:28:43Z</time>
      </trkpt>
      <trkpt lat="46.50337" lon="5.31643">
        <ele>202.8</ele>
        <time>2022-03-10T13:28:46Z</time>
      </trkpt>
      <trkpt lat="46.50286" lon="5.31605">
        <ele>202.6</ele>
        <time>2022-03-10T13:28:54Z</time>
      </trkpt>
      <trkpt lat="46.5028" lon="5.31599">
        <ele>202.6</ele>
        <time>2022-03-10T13:28:55Z</time>
      </trkpt>
      <trkpt lat="46.50238" lon="5.31552">
        <ele>202</ele>
        <time>2022-03-10T13:29:03Z</time>
      </trkpt>
      <trkpt lat="46.50216" lon="5.31514">
        <ele>202.4</ele>
        <time>2022-03-10T13:29:09Z</time>
      </trkpt>
      <trkpt lat="46.50198" lon="5.31466">
        <ele>203.8</ele>
        <time>2022-03-10T13:29:17Z</time>
      </trkpt>
      <trkpt lat="46.50194" lon="5.31454">
        <ele>204</ele>
        <time>2022-03-10T13:29:19Z</time>
      </trkpt>
      <trkpt lat="46.50188" lon="5.31431">
        <ele>205</ele>
        <time>2022-03-10T13:29:23Z</time>
      </trkpt>
      <trkpt lat="46.50186" lon="5.31425">
        <ele>205.2</ele>
        <time>2022-03-10T13:29:24Z</time>
      </trkpt>
      <trkpt lat="46.50178" lon="5.31403">
        <ele>206.2</ele>
        <time>2022-03-10T13:29:28Z</time>
      </trkpt>
      <trkpt lat="46.50174" lon="5.31394">
        <ele>206.4</ele>
        <time>2022-03-10T13:29:30Z</time>
      </trkpt>
      <trkpt lat="46.50171" lon="5.31384">
        <ele>206.6</ele>
        <time>2022-03-10T13:29:32Z</time>
      </trkpt>
      <trkpt lat="46.50167" lon="5.31368">
        <ele>207.4</ele>
        <time>2022-03-10T13:29:35Z</time>
      </trkpt>
      <trkpt lat="46.50159" lon="5.31346">
        <ele>208</ele>
        <time>2022-03-10T13:29:39Z</time>
      </trkpt>
      <trkpt lat="46.50155" lon="5.31334">
        <ele>208.6</ele>
        <time>2022-03-10T13:29:41Z</time>
      </trkpt>
      <trkpt lat="46.50141" lon="5.31291">
        <ele>209.6</ele>
        <time>2022-03-10T13:29:48Z</time>
      </trkpt>
      <trkpt lat="46.50132" lon="5.31265">
        <ele>210.2</ele>
        <time>2022-03-10T13:29:52Z</time>
      </trkpt>
      <trkpt lat="46.50124" lon="5.31242">
        <ele>210.2</ele>
        <time>2022-03-10T13:29:55Z</time>
      </trkpt>
      <trkpt lat="46.50104" lon="5.31181">
        <ele>209</ele>
        <time>2022-03-10T13:30:02Z</time>
      </trkpt>
      <trkpt lat="46.50097" lon="5.31162">
        <ele>208.6</ele>
        <time>2022-03-10T13:30:04Z</time>
      </trkpt>
      <trkpt lat="46.50081" lon="5.31115">
        <ele>207.6</ele>
        <time>2022-03-10T13:30:09Z</time>
      </trkpt>
      <trkpt lat="46.50078" lon="5.31106">
        <ele>207.4</ele>
        <time>2022-03-10T13:30:10Z</time>
      </trkpt>
      <trkpt lat="46.50062" lon="5.31059">
        <ele>207.2</ele>
        <time>2022-03-10T13:30:16Z</time>
      </trkpt>
      <trkpt lat="46.5005" lon="5.31024">
        <ele>208.8</ele>
        <time>2022-03-10T13:30:22Z</time>
      </trkpt>
      <trkpt lat="46.50049" lon="5.31018">
        <ele>209</ele>
        <time>2022-03-10T13:30:23Z</time>
      </trkpt>
      <trkpt lat="46.50044" lon="5.31004">
        <ele>209.6</ele>
        <time>2022-03-10T13:30:26Z</time>
      </trkpt>
      <trkpt lat="46.50041" lon="5.30994">
        <ele>210</ele>
        <time>2022-03-10T13:30:28Z</time>
      </trkpt>
      <trkpt lat="46.5003" lon="5.30966">
        <ele>210.8</ele>
        <time>2022-03-10T13:30:34Z</time>
      </trkpt>
      <trkpt lat="46.5002" lon="5.30938">
        <ele>211.8</ele>
        <time>2022-03-10T13:30:40Z</time>
      </trkpt>
      <trkpt lat="46.50015" lon="5.30925">
        <ele>212.8</ele>
        <time>2022-03-10T13:30:43Z</time>
      </trkpt>
      <trkpt lat="46.50005" lon="5.30899">
        <ele>214</ele>
        <time>2022-03-10T13:30:49Z</time>
      </trkpt>
      <trkpt lat="46.50002" lon="5.3089">
        <ele>214.4</ele>
        <time>2022-03-10T13:30:51Z</time>
      </trkpt>
      <trkpt lat="46.49995" lon="5.30872">
        <ele>215.8</ele>
        <time>2022-03-10T13:30:55Z</time>
      </trkpt>
      <trkpt lat="46.4999" lon="5.30857">
        <ele>216.8</ele>
        <time>2022-03-10T13:30:58Z</time>
      </trkpt>
      <trkpt lat="46.49987" lon="5.30847">
        <ele>217</ele>
        <time>2022-03-10T13:31:00Z</time>
      </trkpt>
      <trkpt lat="46.49976" lon="5.30814">
        <ele>218</ele>
        <time>2022-03-10T13:31:06Z</time>
      </trkpt>
      <trkpt lat="46.49973" lon="5.30802">
        <ele>218.4</ele>
        <time>2022-03-10T13:31:08Z</time>
      </trkpt>
      <trkpt lat="46.49966" lon="5.30772">
        <ele>219</ele>
        <time>2022-03-10T13:31:13Z</time>
      </trkpt>
      <trkpt lat="46.49961" lon="5.30743">
        <ele>219.6</ele>
        <time>2022-03-10T13:31:18Z</time>
      </trkpt>
      <trkpt lat="46.49952" lon="5.30694">
        <ele>219.6</ele>
        <time>2022-03-10T13:31:25Z</time>
      </trkpt>
      <trkpt lat="46.4995" lon="5.30685">
        <ele>219.4</ele>
        <time>2022-03-10T13:31:26Z</time>
      </trkpt>
      <trkpt lat="46.4994" lon="5.30632">
        <ele>218.6</ele>
        <time>2022-03-10T13:31:32Z</time>
      </trkpt>
      <trkpt lat="46.49938" lon="5.30612">
        <ele>218</ele>
        <time>2022-03-10T13:31:34Z</time>
      </trkpt>
      <trkpt lat="46.49935" lon="5.30581">
        <ele>217.2</ele>
        <time>2022-03-10T13:31:37Z</time>
      </trkpt>
      <trkpt lat="46.49935" lon="5.3057">
        <ele>217.2</ele>
        <time>2022-03-10T13:31:38Z</time>
      </trkpt>
      <trkpt lat="46.49935" lon="5.30558">
        <ele>217</ele>
        <time>2022-03-10T13:31:39Z</time>
      </trkpt>
      <trkpt lat="46.49936" lon="5.30547">
        <ele>216.8</ele>
        <time>2022-03-10T13:31:40Z</time>
      </trkpt>
      <trkpt lat="46.49941" lon="5.30525">
        <ele>216.4</ele>
        <time>2022-03-10T13:31:42Z</time>
      </trkpt>
      <trkpt lat="46.49947" lon="5.30501">
        <ele>216.2</ele>
        <time>2022-03-10T13:31:44Z</time>
      </trkpt>
      <trkpt lat="46.49951" lon="5.30491">
        <ele>216</ele>
        <time>2022-03-10T13:31:45Z</time>
      </trkpt>
      <trkpt lat="46.49956" lon="5.3048">
        <ele>215.8</ele>
        <time>2022-03-10T13:31:46Z</time>
      </trkpt>
      <trkpt lat="46.49962" lon="5.30469">
        <ele>215.6</ele>
        <time>2022-03-10T13:31:47Z</time>
      </trkpt>
      <trkpt lat="46.49984" lon="5.30443">
        <ele>214.8</ele>
        <time>2022-03-10T13:31:50Z</time>
      </trkpt>
      <trkpt lat="46.50009" lon="5.30423">
        <ele>213.8</ele>
        <time>2022-03-10T13:31:53Z</time>
      </trkpt>
      <trkpt lat="46.50034" lon="5.30402">
        <ele>212.4</ele>
        <time>2022-03-10T13:31:56Z</time>
      </trkpt>
      <trkpt lat="46.50056" lon="5.30376">
        <ele>211.2</ele>
        <time>2022-03-10T13:31:59Z</time>
      </trkpt>
      <trkpt lat="46.50062" lon="5.30366">
        <ele>211</ele>
        <time>2022-03-10T13:32:00Z</time>
      </trkpt>
      <trkpt lat="46.50079" lon="5.30324">
        <ele>210.8</ele>
        <time>2022-03-10T13:32:04Z</time>
      </trkpt>
      <trkpt lat="46.50088" lon="5.30275">
        <ele>211.6</ele>
        <time>2022-03-10T13:32:09Z</time>
      </trkpt>
      <trkpt lat="46.50089" lon="5.30244">
        <ele>212.4</ele>
        <time>2022-03-10T13:32:12Z</time>
      </trkpt>
      <trkpt lat="46.50089" lon="5.30224">
        <ele>212.6</ele>
        <time>2022-03-10T13:32:14Z</time>
      </trkpt>
      <trkpt lat="46.50091" lon="5.30203">
        <ele>212.8</ele>
        <time>2022-03-10T13:32:16Z</time>
      </trkpt>
      <trkpt lat="46.50092" lon="5.30181">
        <ele>213</ele>
        <time>2022-03-10T13:32:18Z</time>
      </trkpt>
      <trkpt lat="46.50092" lon="5.3015">
        <ele>213.4</ele>
        <time>2022-03-10T13:32:21Z</time>
      </trkpt>
      <trkpt lat="46.50092" lon="5.30139">
        <ele>213.6</ele>
        <time>2022-03-10T13:32:22Z</time>
      </trkpt>
      <trkpt lat="46.50092" lon="5.30062">
        <ele>214.2</ele>
        <time>2022-03-10T13:32:30Z</time>
      </trkpt>
      <trkpt lat="46.50092" lon="5.30053">
        <ele>214.4</ele>
        <time>2022-03-10T13:32:31Z</time>
      </trkpt>
      <trkpt lat="46.50087" lon="5.29999">
        <ele>215.2</ele>
        <time>2022-03-10T13:32:37Z</time>
      </trkpt>
      <trkpt lat="46.50076" lon="5.29953">
        <ele>215.2</ele>
        <time>2022-03-10T13:32:42Z</time>
      </trkpt>
      <trkpt lat="46.50069" lon="5.29935">
        <ele>215.4</ele>
        <time>2022-03-10T13:32:44Z</time>
      </trkpt>
      <trkpt lat="46.50065" lon="5.29928">
        <ele>215.4</ele>
        <time>2022-03-10T13:32:45Z</time>
      </trkpt>
      <trkpt lat="46.50052" lon="5.29905">
        <ele>215.4</ele>
        <time>2022-03-10T13:32:48Z</time>
      </trkpt>
      <trkpt lat="46.50048" lon="5.29899">
        <ele>215.4</ele>
        <time>2022-03-10T13:32:49Z</time>
      </trkpt>
      <trkpt lat="46.50042" lon="5.29893">
        <ele>215.4</ele>
        <time>2022-03-10T13:32:50Z</time>
      </trkpt>
      <trkpt lat="46.50015" lon="5.29865">
        <ele>215</ele>
        <time>2022-03-10T13:32:55Z</time>
      </trkpt>
      <trkpt lat="46.5001" lon="5.29861">
        <ele>214.8</ele>
        <time>2022-03-10T13:32:56Z</time>
      </trkpt>
      <trkpt lat="46.49997" lon="5.29854">
        <ele>214.6</ele>
        <time>2022-03-10T13:32:58Z</time>
      </trkpt>
      <trkpt lat="46.49984" lon="5.29852">
        <ele>214.4</ele>
        <time>2022-03-10T13:33:00Z</time>
      </trkpt>
      <trkpt lat="46.49978" lon="5.29852">
        <ele>214.2</ele>
        <time>2022-03-10T13:33:01Z</time>
      </trkpt>
      <trkpt lat="46.49961" lon="5.29851">
        <ele>214</ele>
        <time>2022-03-10T13:33:04Z</time>
      </trkpt>
      <trkpt lat="46.49945" lon="5.29847">
        <ele>214.2</ele>
        <time>2022-03-10T13:33:07Z</time>
      </trkpt>
      <trkpt lat="46.4991" lon="5.29835">
        <ele>215.2</ele>
        <time>2022-03-10T13:33:14Z</time>
      </trkpt>
      <trkpt lat="46.49901" lon="5.29831">
        <ele>215.4</ele>
        <time>2022-03-10T13:33:16Z</time>
      </trkpt>
      <trkpt lat="46.49879" lon="5.29822">
        <ele>215.6</ele>
        <time>2022-03-10T13:33:21Z</time>
      </trkpt>
      <trkpt lat="46.49875" lon="5.29819">
        <ele>215.6</ele>
        <time>2022-03-10T13:33:22Z</time>
      </trkpt>
      <trkpt lat="46.49871" lon="5.29817">
        <ele>215.8</ele>
        <time>2022-03-10T13:33:23Z</time>
      </trkpt>
      <trkpt lat="46.49853" lon="5.2981">
        <ele>216.2</ele>
        <time>2022-03-10T13:33:27Z</time>
      </trkpt>
      <trkpt lat="46.49845" lon="5.29806">
        <ele>216.4</ele>
        <time>2022-03-10T13:33:29Z</time>
      </trkpt>
      <trkpt lat="46.49818" lon="5.29798">
        <ele>217.2</ele>
        <time>2022-03-10T13:33:35Z</time>
      </trkpt>
      <trkpt lat="46.498" lon="5.29791">
        <ele>217.6</ele>
        <time>2022-03-10T13:33:39Z</time>
      </trkpt>
      <trkpt lat="46.4979" lon="5.29789">
        <ele>217.8</ele>
        <time>2022-03-10T13:33:41Z</time>
      </trkpt>
      <trkpt lat="46.4978" lon="5.29788">
        <ele>217.8</ele>
        <time>2022-03-10T13:33:43Z</time>
      </trkpt>
      <trkpt lat="46.49755" lon="5.29785">
        <ele>217.8</ele>
        <time>2022-03-10T13:33:48Z</time>
      </trkpt>
      <trkpt lat="46.4975" lon="5.29782">
        <ele>217.8</ele>
        <time>2022-03-10T13:33:49Z</time>
      </trkpt>
      <trkpt lat="46.49746" lon="5.29776">
        <ele>217.8</ele>
        <time>2022-03-10T13:33:50Z</time>
      </trkpt>
      <trkpt lat="46.49739" lon="5.29762">
        <ele>217.6</ele>
        <time>2022-03-10T13:33:52Z</time>
      </trkpt>
      <trkpt lat="46.4972" lon="5.29719">
        <ele>217.2</ele>
        <time>2022-03-10T13:33:58Z</time>
      </trkpt>
      <trkpt lat="46.49685" lon="5.29656">
        <ele>217.4</ele>
        <time>2022-03-10T13:34:08Z</time>
      </trkpt>
      <trkpt lat="46.49655" lon="5.29603">
        <ele>218.4</ele>
        <time>2022-03-10T13:34:17Z</time>
      </trkpt>
      <trkpt lat="46.49648" lon="5.29591">
        <ele>218.6</ele>
        <time>2022-03-10T13:34:19Z</time>
      </trkpt>
      <trkpt lat="46.49618" lon="5.29537">
        <ele>218.4</ele>
        <time>2022-03-10T13:34:28Z</time>
      </trkpt>
      <trkpt lat="46.49584" lon="5.29476">
        <ele>218.4</ele>
        <time>2022-03-10T13:34:37Z</time>
      </trkpt>
      <trkpt lat="46.49549" lon="5.29414">
        <ele>218.2</ele>
        <time>2022-03-10T13:34:46Z</time>
      </trkpt>
      <trkpt lat="46.49537" lon="5.29391">
        <ele>217.8</ele>
        <time>2022-03-10T13:34:49Z</time>
      </trkpt>
      <trkpt lat="46.49524" lon="5.29364">
        <ele>217.4</ele>
        <time>2022-03-10T13:34:52Z</time>
      </trkpt>
      <trkpt lat="46.49518" lon="5.29343">
        <ele>216.8</ele>
        <time>2022-03-10T13:34:54Z</time>
      </trkpt>
      <trkpt lat="46.49513" lon="5.29307">
        <ele>215.8</ele>
        <time>2022-03-10T13:34:57Z</time>
      </trkpt>
      <trkpt lat="46.49513" lon="5.29294">
        <ele>215.2</ele>
        <time>2022-03-10T13:34:58Z</time>
      </trkpt>
      <trkpt lat="46.49515" lon="5.29267">
        <ele>214.4</ele>
        <time>2022-03-10T13:35:00Z</time>
      </trkpt>
      <trkpt lat="46.49517" lon="5.29254">
        <ele>214.4</ele>
        <time>2022-03-10T13:35:01Z</time>
      </trkpt>
      <trkpt lat="46.49521" lon="5.2924">
        <ele>214</ele>
        <time>2022-03-10T13:35:02Z</time>
      </trkpt>
      <trkpt lat="46.49525" lon="5.29227">
        <ele>213.8</ele>
        <time>2022-03-10T13:35:03Z</time>
      </trkpt>
      <trkpt lat="46.49531" lon="5.29214">
        <ele>213.4</ele>
        <time>2022-03-10T13:35:04Z</time>
      </trkpt>
      <trkpt lat="46.49537" lon="5.29202">
        <ele>213</ele>
        <time>2022-03-10T13:35:05Z</time>
      </trkpt>
      <trkpt lat="46.49549" lon="5.29176">
        <ele>211.6</ele>
        <time>2022-03-10T13:35:07Z</time>
      </trkpt>
      <trkpt lat="46.49559" lon="5.29149">
        <ele>210</ele>
        <time>2022-03-10T13:35:09Z</time>
      </trkpt>
      <trkpt lat="46.49563" lon="5.29135">
        <ele>209.4</ele>
        <time>2022-03-10T13:35:10Z</time>
      </trkpt>
      <trkpt lat="46.49566" lon="5.2912">
        <ele>208.6</ele>
        <time>2022-03-10T13:35:11Z</time>
      </trkpt>
      <trkpt lat="46.49575" lon="5.29073">
        <ele>207.2</ele>
        <time>2022-03-10T13:35:14Z</time>
      </trkpt>
      <trkpt lat="46.49581" lon="5.29042">
        <ele>205.8</ele>
        <time>2022-03-10T13:35:16Z</time>
      </trkpt>
      <trkpt lat="46.49586" lon="5.29011">
        <ele>204</ele>
        <time>2022-03-10T13:35:18Z</time>
      </trkpt>
      <trkpt lat="46.49589" lon="5.28995">
        <ele>203</ele>
        <time>2022-03-10T13:35:19Z</time>
      </trkpt>
      <trkpt lat="46.49594" lon="5.28964">
        <ele>201.8</ele>
        <time>2022-03-10T13:35:21Z</time>
      </trkpt>
      <trkpt lat="46.496" lon="5.28933">
        <ele>200.4</ele>
        <time>2022-03-10T13:35:23Z</time>
      </trkpt>
      <trkpt lat="46.49609" lon="5.28887">
        <ele>199.2</ele>
        <time>2022-03-10T13:35:26Z</time>
      </trkpt>
      <trkpt lat="46.49614" lon="5.28858">
        <ele>198</ele>
        <time>2022-03-10T13:35:28Z</time>
      </trkpt>
      <trkpt lat="46.49616" lon="5.28844">
        <ele>197.6</ele>
        <time>2022-03-10T13:35:29Z</time>
      </trkpt>
      <trkpt lat="46.49619" lon="5.28831">
        <ele>196.8</ele>
        <time>2022-03-10T13:35:30Z</time>
      </trkpt>
      <trkpt lat="46.49631" lon="5.28766">
        <ele>195.8</ele>
        <time>2022-03-10T13:35:35Z</time>
      </trkpt>
      <trkpt lat="46.49633" lon="5.28753">
        <ele>195.6</ele>
        <time>2022-03-10T13:35:36Z</time>
      </trkpt>
      <trkpt lat="46.49652" lon="5.28674">
        <ele>195.2</ele>
        <time>2022-03-10T13:35:43Z</time>
      </trkpt>
      <trkpt lat="46.49669" lon="5.28602">
        <ele>195.6</ele>
        <time>2022-03-10T13:35:50Z</time>
      </trkpt>
      <trkpt lat="46.49678" lon="5.28557">
        <ele>196.8</ele>
        <time>2022-03-10T13:35:55Z</time>
      </trkpt>
      <trkpt lat="46.4968" lon="5.28547">
        <ele>197</ele>
        <time>2022-03-10T13:35:56Z</time>
      </trkpt>
      <trkpt lat="46.4969" lon="5.28501">
        <ele>197.2</ele>
        <time>2022-03-10T13:36:01Z</time>
      </trkpt>
      <trkpt lat="46.497" lon="5.28419">
        <ele>196.8</ele>
        <time>2022-03-10T13:36:09Z</time>
      </trkpt>
      <trkpt lat="46.49719" lon="5.2834">
        <ele>196.2</ele>
        <time>2022-03-10T13:36:17Z</time>
      </trkpt>
      <trkpt lat="46.49733" lon="5.28292">
        <ele>195.8</ele>
        <time>2022-03-10T13:36:22Z</time>
      </trkpt>
      <trkpt lat="46.49744" lon="5.28243">
        <ele>195.8</ele>
        <time>2022-03-10T13:36:27Z</time>
      </trkpt>
      <trkpt lat="46.49757" lon="5.28163">
        <ele>196</ele>
        <time>2022-03-10T13:36:35Z</time>
      </trkpt>
      <trkpt lat="46.49759" lon="5.28153">
        <ele>196</ele>
        <time>2022-03-10T13:36:36Z</time>
      </trkpt>
      <trkpt lat="46.49769" lon="5.28075">
        <ele>196</ele>
        <time>2022-03-10T13:36:44Z</time>
      </trkpt>
      <trkpt lat="46.49769" lon="5.28065">
        <ele>196</ele>
        <time>2022-03-10T13:36:45Z</time>
      </trkpt>
      <trkpt lat="46.49768" lon="5.27998">
        <ele>196.6</ele>
        <time>2022-03-10T13:36:52Z</time>
      </trkpt>
      <trkpt lat="46.49767" lon="5.27937">
        <ele>197</ele>
        <time>2022-03-10T13:36:59Z</time>
      </trkpt>
      <trkpt lat="46.49767" lon="5.27928">
        <ele>197</ele>
        <time>2022-03-10T13:37:00Z</time>
      </trkpt>
      <trkpt lat="46.49765" lon="5.27863">
        <ele>198</ele>
        <time>2022-03-10T13:37:08Z</time>
      </trkpt>
      <trkpt lat="46.49763" lon="5.27839">
        <ele>198.2</ele>
        <time>2022-03-10T13:37:11Z</time>
      </trkpt>
      <trkpt lat="46.4976" lon="5.27816">
        <ele>198.2</ele>
        <time>2022-03-10T13:37:14Z</time>
      </trkpt>
      <trkpt lat="46.4975" lon="5.27766">
        <ele>199.2</ele>
        <time>2022-03-10T13:37:21Z</time>
      </trkpt>
      <trkpt lat="46.49748" lon="5.27752">
        <ele>199.2</ele>
        <time>2022-03-10T13:37:23Z</time>
      </trkpt>
      <trkpt lat="46.49736" lon="5.27686">
        <ele>199.8</ele>
        <time>2022-03-10T13:37:33Z</time>
      </trkpt>
      <trkpt lat="46.49734" lon="5.27674">
        <ele>200.2</ele>
        <time>2022-03-10T13:37:35Z</time>
      </trkpt>
      <trkpt lat="46.49729" lon="5.27646">
        <ele>201.4</ele>
        <time>2022-03-10T13:37:40Z</time>
      </trkpt>
      <trkpt lat="46.49728" lon="5.2764">
        <ele>201.6</ele>
        <time>2022-03-10T13:37:41Z</time>
      </trkpt>
      <trkpt lat="46.49725" lon="5.27599">
        <ele>202.4</ele>
        <time>2022-03-10T13:37:48Z</time>
      </trkpt>
      <trkpt lat="46.49726" lon="5.27588">
        <ele>202.8</ele>
        <time>2022-03-10T13:37:50Z</time>
      </trkpt>
      <trkpt lat="46.49727" lon="5.27543">
        <ele>203.6</ele>
        <time>2022-03-10T13:37:58Z</time>
      </trkpt>
      <trkpt lat="46.49727" lon="5.27526">
        <ele>204.2</ele>
        <time>2022-03-10T13:38:01Z</time>
      </trkpt>
      <trkpt lat="46.49727" lon="5.27516">
        <ele>204.6</ele>
        <time>2022-03-10T13:38:03Z</time>
      </trkpt>
      <trkpt lat="46.49726" lon="5.27483">
        <ele>206</ele>
        <time>2022-03-10T13:38:09Z</time>
      </trkpt>
      <trkpt lat="46.49725" lon="5.27472">
        <ele>206.4</ele>
        <time>2022-03-10T13:38:11Z</time>
      </trkpt>
      <trkpt lat="46.49725" lon="5.27456">
        <ele>207</ele>
        <time>2022-03-10T13:38:14Z</time>
      </trkpt>
      <trkpt lat="46.49722" lon="5.27435">
        <ele>208.2</ele>
        <time>2022-03-10T13:38:18Z</time>
      </trkpt>
      <trkpt lat="46.49715" lon="5.27411">
        <ele>209.4</ele>
        <time>2022-03-10T13:38:23Z</time>
      </trkpt>
      <trkpt lat="46.49713" lon="5.27407">
        <ele>209.6</ele>
        <time>2022-03-10T13:38:24Z</time>
      </trkpt>
      <trkpt lat="46.49705" lon="5.27389">
        <ele>210.6</ele>
        <time>2022-03-10T13:38:28Z</time>
      </trkpt>
      <trkpt lat="46.49699" lon="5.27375">
        <ele>211.2</ele>
        <time>2022-03-10T13:38:31Z</time>
      </trkpt>
      <trkpt lat="46.49697" lon="5.27371">
        <ele>211.6</ele>
        <time>2022-03-10T13:38:32Z</time>
      </trkpt>
      <trkpt lat="46.49687" lon="5.2735">
        <ele>212.8</ele>
        <time>2022-03-10T13:38:37Z</time>
      </trkpt>
      <trkpt lat="46.49675" lon="5.27326">
        <ele>214</ele>
        <time>2022-03-10T13:38:43Z</time>
      </trkpt>
      <trkpt lat="46.49658" lon="5.27292">
        <ele>215.2</ele>
        <time>2022-03-10T13:38:51Z</time>
      </trkpt>
      <trkpt lat="46.49656" lon="5.27287">
        <ele>215.2</ele>
        <time>2022-03-10T13:38:52Z</time>
      </trkpt>
      <trkpt lat="46.49647" lon="5.2726">
        <ele>216</ele>
        <time>2022-03-10T13:38:58Z</time>
      </trkpt>
      <trkpt lat="46.49642" lon="5.27242">
        <ele>216.8</ele>
        <time>2022-03-10T13:39:02Z</time>
      </trkpt>
      <trkpt lat="46.4964" lon="5.27233">
        <ele>217</ele>
        <time>2022-03-10T13:39:04Z</time>
      </trkpt>
      <trkpt lat="46.49636" lon="5.27198">
        <ele>218.4</ele>
        <time>2022-03-10T13:39:11Z</time>
      </trkpt>
      <trkpt lat="46.49637" lon="5.27156">
        <ele>219.4</ele>
        <time>2022-03-10T13:39:19Z</time>
      </trkpt>
      <trkpt lat="46.49643" lon="5.27128">
        <ele>220</ele>
        <time>2022-03-10T13:39:24Z</time>
      </trkpt>
      <trkpt lat="46.49647" lon="5.27111">
        <ele>220.4</ele>
        <time>2022-03-10T13:39:27Z</time>
      </trkpt>
      <trkpt lat="46.49648" lon="5.27105">
        <ele>220.6</ele>
        <time>2022-03-10T13:39:28Z</time>
      </trkpt>
      <trkpt lat="46.49646" lon="5.27099">
        <ele>220.6</ele>
        <time>2022-03-10T13:39:29Z</time>
      </trkpt>
      <trkpt lat="46.49643" lon="5.27095">
        <ele>220.8</ele>
        <time>2022-03-10T13:39:30Z</time>
      </trkpt>
      <trkpt lat="46.49633" lon="5.27093">
        <ele>220.8</ele>
        <time>2022-03-10T13:39:32Z</time>
      </trkpt>
      <trkpt lat="46.496" lon="5.27098">
        <ele>221</ele>
        <time>2022-03-10T13:39:38Z</time>
      </trkpt>
      <trkpt lat="46.49594" lon="5.27099">
        <ele>221.2</ele>
        <time>2022-03-10T13:39:39Z</time>
      </trkpt>
      <trkpt lat="46.49582" lon="5.27103">
        <ele>221.2</ele>
        <time>2022-03-10T13:39:41Z</time>
      </trkpt>
      <trkpt lat="46.49571" lon="5.27108">
        <ele>221.2</ele>
        <time>2022-03-10T13:39:43Z</time>
      </trkpt>
      <trkpt lat="46.49566" lon="5.27112">
        <ele>221.2</ele>
        <time>2022-03-10T13:39:44Z</time>
      </trkpt>
      <trkpt lat="46.49539" lon="5.27141">
        <ele>221.2</ele>
        <time>2022-03-10T13:39:50Z</time>
      </trkpt>
      <trkpt lat="46.49499" lon="5.27187">
        <ele>221.4</ele>
        <time>2022-03-10T13:39:59Z</time>
      </trkpt>
      <trkpt lat="46.49478" lon="5.27201">
        <ele>221.6</ele>
        <time>2022-03-10T13:40:03Z</time>
      </trkpt>
      <trkpt lat="46.49467" lon="5.27206">
        <ele>221.4</ele>
        <time>2022-03-10T13:40:05Z</time>
      </trkpt>
      <trkpt lat="46.49422" lon="5.2722">
        <ele>221.2</ele>
        <time>2022-03-10T13:40:13Z</time>
      </trkpt>
      <trkpt lat="46.49365" lon="5.27236">
        <ele>221.4</ele>
        <time>2022-03-10T13:40:23Z</time>
      </trkpt>
      <trkpt lat="46.49309" lon="5.2725">
        <ele>221</ele>
        <time>2022-03-10T13:40:33Z</time>
      </trkpt>
      <trkpt lat="46.4926" lon="5.27256">
        <ele>220.4</ele>
        <time>2022-03-10T13:40:42Z</time>
      </trkpt>
      <trkpt lat="46.49232" lon="5.27247">
        <ele>220.8</ele>
        <time>2022-03-10T13:40:47Z</time>
      </trkpt>
      <trkpt lat="46.49194" lon="5.27218">
        <ele>221.4</ele>
        <time>2022-03-10T13:40:55Z</time>
      </trkpt>
      <trkpt lat="46.49141" lon="5.27179">
        <ele>221.6</ele>
        <time>2022-03-10T13:41:06Z</time>
      </trkpt>
      <trkpt lat="46.49127" lon="5.27168">
        <ele>221.6</ele>
        <time>2022-03-10T13:41:09Z</time>
      </trkpt>
      <trkpt lat="46.49118" lon="5.27161">
        <ele>221.6</ele>
        <time>2022-03-10T13:41:11Z</time>
      </trkpt>
      <trkpt lat="46.4909" lon="5.27144">
        <ele>222.6</ele>
        <time>2022-03-10T13:41:17Z</time>
      </trkpt>
      <trkpt lat="46.49085" lon="5.27142">
        <ele>222.6</ele>
        <time>2022-03-10T13:41:18Z</time>
      </trkpt>
      <trkpt lat="46.4905" lon="5.27133">
        <ele>223.2</ele>
        <time>2022-03-10T13:41:25Z</time>
      </trkpt>
      <trkpt lat="46.48994" lon="5.27131">
        <ele>222.8</ele>
        <time>2022-03-10T13:41:36Z</time>
      </trkpt>
      <trkpt lat="46.48989" lon="5.27131">
        <ele>222.8</ele>
        <time>2022-03-10T13:41:37Z</time>
      </trkpt>
      <trkpt lat="46.48941" lon="5.2713">
        <ele>222.8</ele>
        <time>2022-03-10T13:41:47Z</time>
      </trkpt>
      <trkpt lat="46.48895" lon="5.27128">
        <ele>223</ele>
        <time>2022-03-10T13:41:56Z</time>
      </trkpt>
      <trkpt lat="46.4886" lon="5.27128">
        <ele>223</ele>
        <time>2022-03-10T13:42:03Z</time>
      </trkpt>
      <trkpt lat="46.48855" lon="5.2713">
        <ele>223</ele>
        <time>2022-03-10T13:42:04Z</time>
      </trkpt>
      <trkpt lat="46.4885" lon="5.27133">
        <ele>223</ele>
        <time>2022-03-10T13:42:05Z</time>
      </trkpt>
      <trkpt lat="46.48841" lon="5.27141">
        <ele>222.8</ele>
        <time>2022-03-10T13:42:07Z</time>
      </trkpt>
      <trkpt lat="46.48837" lon="5.27146">
        <ele>222.8</ele>
        <time>2022-03-10T13:42:08Z</time>
      </trkpt>
      <trkpt lat="46.48834" lon="5.27152">
        <ele>222.8</ele>
        <time>2022-03-10T13:42:09Z</time>
      </trkpt>
      <trkpt lat="46.48829" lon="5.27166">
        <ele>222.8</ele>
        <time>2022-03-10T13:42:11Z</time>
      </trkpt>
      <trkpt lat="46.48829" lon="5.27174">
        <ele>222.6</ele>
        <time>2022-03-10T13:42:12Z</time>
      </trkpt>
      <trkpt lat="46.48829" lon="5.27183">
        <ele>222.6</ele>
        <time>2022-03-10T13:42:13Z</time>
      </trkpt>
      <trkpt lat="46.48832" lon="5.27227">
        <ele>222.8</ele>
        <time>2022-03-10T13:42:18Z</time>
      </trkpt>
      <trkpt lat="46.48832" lon="5.27236">
        <ele>222.6</ele>
        <time>2022-03-10T13:42:19Z</time>
      </trkpt>
      <trkpt lat="46.48829" lon="5.27256">
        <ele>222.6</ele>
        <time>2022-03-10T13:42:21Z</time>
      </trkpt>
      <trkpt lat="46.48826" lon="5.27265">
        <ele>222.6</ele>
        <time>2022-03-10T13:42:22Z</time>
      </trkpt>
      <trkpt lat="46.48814" lon="5.2729">
        <ele>221.4</ele>
        <time>2022-03-10T13:42:25Z</time>
      </trkpt>
      <trkpt lat="46.48805" lon="5.27306">
        <ele>221</ele>
        <time>2022-03-10T13:42:27Z</time>
      </trkpt>
      <trkpt lat="46.48792" lon="5.27333">
        <ele>220.4</ele>
        <time>2022-03-10T13:42:30Z</time>
      </trkpt>
      <trkpt lat="46.48786" lon="5.27352">
        <ele>219.8</ele>
        <time>2022-03-10T13:42:32Z</time>
      </trkpt>
      <trkpt lat="46.48782" lon="5.27382">
        <ele>219.4</ele>
        <time>2022-03-10T13:42:35Z</time>
      </trkpt>
      <trkpt lat="46.4878" lon="5.27403">
        <ele>219</ele>
        <time>2022-03-10T13:42:37Z</time>
      </trkpt>
      <trkpt lat="46.48775" lon="5.27442">
        <ele>218.2</ele>
        <time>2022-03-10T13:42:41Z</time>
      </trkpt>
      <trkpt lat="46.48771" lon="5.2748">
        <ele>217.4</ele>
        <time>2022-03-10T13:42:45Z</time>
      </trkpt>
      <trkpt lat="46.48767" lon="5.27499">
        <ele>217.2</ele>
        <time>2022-03-10T13:42:47Z</time>
      </trkpt>
      <trkpt lat="46.48764" lon="5.27509">
        <ele>217</ele>
        <time>2022-03-10T13:42:48Z</time>
      </trkpt>
      <trkpt lat="46.48757" lon="5.27528">
        <ele>216.6</ele>
        <time>2022-03-10T13:42:50Z</time>
      </trkpt>
      <trkpt lat="46.48747" lon="5.27547">
        <ele>216</ele>
        <time>2022-03-10T13:42:52Z</time>
      </trkpt>
      <trkpt lat="46.48741" lon="5.27557">
        <ele>215.4</ele>
        <time>2022-03-10T13:42:53Z</time>
      </trkpt>
      <trkpt lat="46.48734" lon="5.27566">
        <ele>215</ele>
        <time>2022-03-10T13:42:54Z</time>
      </trkpt>
      <trkpt lat="46.48727" lon="5.27574">
        <ele>214.6</ele>
        <time>2022-03-10T13:42:55Z</time>
      </trkpt>
      <trkpt lat="46.48719" lon="5.27582">
        <ele>213.6</ele>
        <time>2022-03-10T13:42:56Z</time>
      </trkpt>
      <trkpt lat="46.4871" lon="5.27589">
        <ele>213.2</ele>
        <time>2022-03-10T13:42:57Z</time>
      </trkpt>
      <trkpt lat="46.48701" lon="5.27596">
        <ele>212.8</ele>
        <time>2022-03-10T13:42:58Z</time>
      </trkpt>
      <trkpt lat="46.48682" lon="5.27605">
        <ele>211.8</ele>
        <time>2022-03-10T13:43:00Z</time>
      </trkpt>
      <trkpt lat="46.48661" lon="5.27613">
        <ele>210.4</ele>
        <time>2022-03-10T13:43:02Z</time>
      </trkpt>
      <trkpt lat="46.48651" lon="5.27617">
        <ele>210</ele>
        <time>2022-03-10T13:43:03Z</time>
      </trkpt>
      <trkpt lat="46.4863" lon="5.27625">
        <ele>208.6</ele>
        <time>2022-03-10T13:43:05Z</time>
      </trkpt>
      <trkpt lat="46.48608" lon="5.27633">
        <ele>206.8</ele>
        <time>2022-03-10T13:43:07Z</time>
      </trkpt>
      <trkpt lat="46.48587" lon="5.27641">
        <ele>205.8</ele>
        <time>2022-03-10T13:43:09Z</time>
      </trkpt>
      <trkpt lat="46.48576" lon="5.27645">
        <ele>205.4</ele>
        <time>2022-03-10T13:43:10Z</time>
      </trkpt>
      <trkpt lat="46.48565" lon="5.27649">
        <ele>204.2</ele>
        <time>2022-03-10T13:43:11Z</time>
      </trkpt>
      <trkpt lat="46.48543" lon="5.27657">
        <ele>203</ele>
        <time>2022-03-10T13:43:13Z</time>
      </trkpt>
      <trkpt lat="46.48521" lon="5.2766">
        <ele>201.4</ele>
        <time>2022-03-10T13:43:15Z</time>
      </trkpt>
      <trkpt lat="46.48511" lon="5.2766">
        <ele>200.2</ele>
        <time>2022-03-10T13:43:16Z</time>
      </trkpt>
      <trkpt lat="46.48492" lon="5.2766">
        <ele>199</ele>
        <time>2022-03-10T13:43:18Z</time>
      </trkpt>
      <trkpt lat="46.48474" lon="5.27659">
        <ele>198.6</ele>
        <time>2022-03-10T13:43:20Z</time>
      </trkpt>
      <trkpt lat="46.48466" lon="5.27657">
        <ele>198.4</ele>
        <time>2022-03-10T13:43:21Z</time>
      </trkpt>
      <trkpt lat="46.4845" lon="5.27649">
        <ele>197.8</ele>
        <time>2022-03-10T13:43:23Z</time>
      </trkpt>
      <trkpt lat="46.48425" lon="5.27621">
        <ele>197.6</ele>
        <time>2022-03-10T13:43:27Z</time>
      </trkpt>
      <trkpt lat="46.48414" lon="5.27609">
        <ele>197.4</ele>
        <time>2022-03-10T13:43:29Z</time>
      </trkpt>
      <trkpt lat="46.48402" lon="5.27601">
        <ele>197.4</ele>
        <time>2022-03-10T13:43:31Z</time>
      </trkpt>
      <trkpt lat="46.48396" lon="5.27598">
        <ele>197.4</ele>
        <time>2022-03-10T13:43:32Z</time>
      </trkpt>
      <trkpt lat="46.48377" lon="5.27591">
        <ele>197.4</ele>
        <time>2022-03-10T13:43:35Z</time>
      </trkpt>
      <trkpt lat="46.48371" lon="5.27588">
        <ele>197.4</ele>
        <time>2022-03-10T13:43:36Z</time>
      </trkpt>
      <trkpt lat="46.48333" lon="5.27556">
        <ele>197.2</ele>
        <time>2022-03-10T13:43:43Z</time>
      </trkpt>
      <trkpt lat="46.48305" lon="5.27518">
        <ele>197.2</ele>
        <time>2022-03-10T13:43:49Z</time>
      </trkpt>
      <trkpt lat="46.48288" lon="5.27468">
        <ele>197</ele>
        <time>2022-03-10T13:43:55Z</time>
      </trkpt>
      <trkpt lat="46.48268" lon="5.27399">
        <ele>197</ele>
        <time>2022-03-10T13:44:03Z</time>
      </trkpt>
      <trkpt lat="46.48241" lon="5.27352">
        <ele>197.2</ele>
        <time>2022-03-10T13:44:10Z</time>
      </trkpt>
      <trkpt lat="46.48201" lon="5.27299">
        <ele>198</ele>
        <time>2022-03-10T13:44:19Z</time>
      </trkpt>
      <trkpt lat="46.48161" lon="5.27245">
        <ele>198</ele>
        <time>2022-03-10T13:44:28Z</time>
      </trkpt>
      <trkpt lat="46.48141" lon="5.27202">
        <ele>197.8</ele>
        <time>2022-03-10T13:44:34Z</time>
      </trkpt>
      <trkpt lat="46.48125" lon="5.27167">
        <ele>198</ele>
        <time>2022-03-10T13:44:39Z</time>
      </trkpt>
      <trkpt lat="46.48116" lon="5.27155">
        <ele>198</ele>
        <time>2022-03-10T13:44:41Z</time>
      </trkpt>
      <trkpt lat="46.48107" lon="5.27146">
        <ele>198.2</ele>
        <time>2022-03-10T13:44:43Z</time>
      </trkpt>
      <trkpt lat="46.48087" lon="5.27131">
        <ele>198.8</ele>
        <time>2022-03-10T13:44:47Z</time>
      </trkpt>
      <trkpt lat="46.48077" lon="5.27124">
        <ele>199.2</ele>
        <time>2022-03-10T13:44:49Z</time>
      </trkpt>
      <trkpt lat="46.48034" lon="5.27096">
        <ele>200</ele>
        <time>2022-03-10T13:44:58Z</time>
      </trkpt>
      <trkpt lat="46.47999" lon="5.27072">
        <ele>200.2</ele>
        <time>2022-03-10T13:45:05Z</time>
      </trkpt>
      <trkpt lat="46.47979" lon="5.27058">
        <ele>200.2</ele>
        <time>2022-03-10T13:45:09Z</time>
      </trkpt>
      <trkpt lat="46.47928" lon="5.27023">
        <ele>199.8</ele>
        <time>2022-03-10T13:45:19Z</time>
      </trkpt>
      <trkpt lat="46.47923" lon="5.2702">
        <ele>199.8</ele>
        <time>2022-03-10T13:45:20Z</time>
      </trkpt>
      <trkpt lat="46.47893" lon="5.27">
        <ele>200</ele>
        <time>2022-03-10T13:45:26Z</time>
      </trkpt>
      <trkpt lat="46.47853" lon="5.26974">
        <ele>200.2</ele>
        <time>2022-03-10T13:45:34Z</time>
      </trkpt>
      <trkpt lat="46.47809" lon="5.26954">
        <ele>200.2</ele>
        <time>2022-03-10T13:45:43Z</time>
      </trkpt>
      <trkpt lat="46.47765" lon="5.26928">
        <ele>200.2</ele>
        <time>2022-03-10T13:45:52Z</time>
      </trkpt>
      <trkpt lat="46.47721" lon="5.26887">
        <ele>201.2</ele>
        <time>2022-03-10T13:46:02Z</time>
      </trkpt>
      <trkpt lat="46.47717" lon="5.26882">
        <ele>201.6</ele>
        <time>2022-03-10T13:46:03Z</time>
      </trkpt>
      <trkpt lat="46.4767" lon="5.26839">
        <ele>201.8</ele>
        <time>2022-03-10T13:46:13Z</time>
      </trkpt>
      <trkpt lat="46.47632" lon="5.26808">
        <ele>202</ele>
        <time>2022-03-10T13:46:21Z</time>
      </trkpt>
      <trkpt lat="46.47622" lon="5.26803">
        <ele>202.2</ele>
        <time>2022-03-10T13:46:23Z</time>
      </trkpt>
      <trkpt lat="46.47618" lon="5.26801">
        <ele>202.2</ele>
        <time>2022-03-10T13:46:24Z</time>
      </trkpt>
      <trkpt lat="46.47603" lon="5.26795">
        <ele>202.4</ele>
        <time>2022-03-10T13:46:27Z</time>
      </trkpt>
      <trkpt lat="46.4759" lon="5.26791">
        <ele>202.8</ele>
        <time>2022-03-10T13:46:30Z</time>
      </trkpt>
      <trkpt lat="46.47571" lon="5.26788">
        <ele>203.6</ele>
        <time>2022-03-10T13:46:34Z</time>
      </trkpt>
      <trkpt lat="46.47561" lon="5.26784">
        <ele>204</ele>
        <time>2022-03-10T13:46:36Z</time>
      </trkpt>
      <trkpt lat="46.47543" lon="5.26772">
        <ele>204.2</ele>
        <time>2022-03-10T13:46:40Z</time>
      </trkpt>
      <trkpt lat="46.47523" lon="5.26751">
        <ele>205.2</ele>
        <time>2022-03-10T13:46:45Z</time>
      </trkpt>
      <trkpt lat="46.47516" lon="5.26741">
        <ele>205.4</ele>
        <time>2022-03-10T13:46:47Z</time>
      </trkpt>
      <trkpt lat="46.47507" lon="5.26725">
        <ele>206.2</ele>
        <time>2022-03-10T13:46:50Z</time>
      </trkpt>
      <trkpt lat="46.47505" lon="5.26718">
        <ele>206.4</ele>
        <time>2022-03-10T13:46:51Z</time>
      </trkpt>
      <trkpt lat="46.47501" lon="5.26706">
        <ele>206.6</ele>
        <time>2022-03-10T13:46:53Z</time>
      </trkpt>
      <trkpt lat="46.475" lon="5.26699">
        <ele>206.6</ele>
        <time>2022-03-10T13:46:54Z</time>
      </trkpt>
      <trkpt lat="46.47491" lon="5.26651">
        <ele>206.6</ele>
        <time>2022-03-10T13:47:01Z</time>
      </trkpt>
      <trkpt lat="46.47488" lon="5.26637">
        <ele>207.4</ele>
        <time>2022-03-10T13:47:03Z</time>
      </trkpt>
      <trkpt lat="46.4748" lon="5.26605">
        <ele>207.8</ele>
        <time>2022-03-10T13:47:08Z</time>
      </trkpt>
      <trkpt lat="46.47472" lon="5.26579">
        <ele>208.6</ele>
        <time>2022-03-10T13:47:13Z</time>
      </trkpt>
      <trkpt lat="46.47463" lon="5.2656">
        <ele>209.8</ele>
        <time>2022-03-10T13:47:18Z</time>
      </trkpt>
      <trkpt lat="46.4746" lon="5.26556">
        <ele>210</ele>
        <time>2022-03-10T13:47:19Z</time>
      </trkpt>
      <trkpt lat="46.47453" lon="5.26546">
        <ele>210.8</ele>
        <time>2022-03-10T13:47:22Z</time>
      </trkpt>
      <trkpt lat="46.47439" lon="5.26531">
        <ele>212</ele>
        <time>2022-03-10T13:47:27Z</time>
      </trkpt>
      <trkpt lat="46.47425" lon="5.26518">
        <ele>213.6</ele>
        <time>2022-03-10T13:47:32Z</time>
      </trkpt>
      <trkpt lat="46.4741" lon="5.26509">
        <ele>214.4</ele>
        <time>2022-03-10T13:47:37Z</time>
      </trkpt>
      <trkpt lat="46.47403" lon="5.26506">
        <ele>215</ele>
        <time>2022-03-10T13:47:39Z</time>
      </trkpt>
      <trkpt lat="46.47383" lon="5.26498">
        <ele>216.2</ele>
        <time>2022-03-10T13:47:46Z</time>
      </trkpt>
      <trkpt lat="46.47371" lon="5.26493">
        <ele>217.4</ele>
        <time>2022-03-10T13:47:50Z</time>
      </trkpt>
      <trkpt lat="46.47357" lon="5.26486">
        <ele>218.4</ele>
        <time>2022-03-10T13:47:55Z</time>
      </trkpt>
      <trkpt lat="46.47354" lon="5.26485">
        <ele>218.6</ele>
        <time>2022-03-10T13:47:56Z</time>
      </trkpt>
      <trkpt lat="46.47334" lon="5.26474">
        <ele>219.6</ele>
        <time>2022-03-10T13:48:02Z</time>
      </trkpt>
      <trkpt lat="46.47321" lon="5.26466">
        <ele>220.2</ele>
        <time>2022-03-10T13:48:06Z</time>
      </trkpt>
      <trkpt lat="46.47301" lon="5.26456">
        <ele>220.6</ele>
        <time>2022-03-10T13:48:12Z</time>
      </trkpt>
      <trkpt lat="46.47287" lon="5.2645">
        <ele>221</ele>
        <time>2022-03-10T13:48:16Z</time>
      </trkpt>
      <trkpt lat="46.47277" lon="5.26447">
        <ele>221.6</ele>
        <time>2022-03-10T13:48:19Z</time>
      </trkpt>
      <trkpt lat="46.47245" lon="5.2644">
        <ele>222.6</ele>
        <time>2022-03-10T13:48:27Z</time>
      </trkpt>
      <trkpt lat="46.47241" lon="5.2644">
        <ele>222.8</ele>
        <time>2022-03-10T13:48:28Z</time>
      </trkpt>
      <trkpt lat="46.47208" lon="5.26438">
        <ele>223.4</ele>
        <time>2022-03-10T13:48:36Z</time>
      </trkpt>
      <trkpt lat="46.47169" lon="5.26445">
        <ele>223.8</ele>
        <time>2022-03-10T13:48:44Z</time>
      </trkpt>
      <trkpt lat="46.47134" lon="5.26462">
        <ele>224.2</ele>
        <time>2022-03-10T13:48:51Z</time>
      </trkpt>
      <trkpt lat="46.47081" lon="5.2648">
        <ele>224</ele>
        <time>2022-03-10T13:49:01Z</time>
      </trkpt>
      <trkpt lat="46.47075" lon="5.26482">
        <ele>224</ele>
        <time>2022-03-10T13:49:02Z</time>
      </trkpt>
      <trkpt lat="46.4707" lon="5.26484">
        <ele>223.8</ele>
        <time>2022-03-10T13:49:03Z</time>
      </trkpt>
      <trkpt lat="46.47042" lon="5.26492">
        <ele>223.8</ele>
        <time>2022-03-10T13:49:08Z</time>
      </trkpt>
      <trkpt lat="46.46987" lon="5.26508">
        <ele>223.8</ele>
        <time>2022-03-10T13:49:18Z</time>
      </trkpt>
      <trkpt lat="46.46982" lon="5.2651">
        <ele>223.8</ele>
        <time>2022-03-10T13:49:19Z</time>
      </trkpt>
      <trkpt lat="46.46939" lon="5.26534">
        <ele>223.4</ele>
        <time>2022-03-10T13:49:27Z</time>
      </trkpt>
      <trkpt lat="46.46907" lon="5.26546">
        <ele>224</ele>
        <time>2022-03-10T13:49:33Z</time>
      </trkpt>
      <trkpt lat="46.46896" lon="5.26547">
        <ele>224.2</ele>
        <time>2022-03-10T13:49:35Z</time>
      </trkpt>
      <trkpt lat="46.46864" lon="5.2655">
        <ele>224.4</ele>
        <time>2022-03-10T13:49:41Z</time>
      </trkpt>
      <trkpt lat="46.46819" lon="5.26552">
        <ele>224.4</ele>
        <time>2022-03-10T13:49:48Z</time>
      </trkpt>
      <trkpt lat="46.4677" lon="5.26552">
        <ele>223.6</ele>
        <time>2022-03-10T13:49:55Z</time>
      </trkpt>
      <trkpt lat="46.46719" lon="5.26537">
        <ele>223.6</ele>
        <time>2022-03-10T13:50:03Z</time>
      </trkpt>
      <trkpt lat="46.46662" lon="5.26511">
        <ele>223.2</ele>
        <time>2022-03-10T13:50:12Z</time>
      </trkpt>
      <trkpt lat="46.46656" lon="5.26508">
        <ele>223.2</ele>
        <time>2022-03-10T13:50:13Z</time>
      </trkpt>
      <trkpt lat="46.46612" lon="5.26489">
        <ele>223</ele>
        <time>2022-03-10T13:50:20Z</time>
      </trkpt>
      <trkpt lat="46.46593" lon="5.26481">
        <ele>223</ele>
        <time>2022-03-10T13:50:23Z</time>
      </trkpt>
      <trkpt lat="46.46549" lon="5.26456">
        <ele>223</ele>
        <time>2022-03-10T13:50:31Z</time>
      </trkpt>
      <trkpt lat="46.46516" lon="5.26425">
        <ele>223.2</ele>
        <time>2022-03-10T13:50:38Z</time>
      </trkpt>
      <trkpt lat="46.46489" lon="5.26395">
        <ele>223.4</ele>
        <time>2022-03-10T13:50:44Z</time>
      </trkpt>
      <trkpt lat="46.46458" lon="5.26366">
        <ele>223.8</ele>
        <time>2022-03-10T13:50:51Z</time>
      </trkpt>
      <trkpt lat="46.46427" lon="5.26348">
        <ele>224</ele>
        <time>2022-03-10T13:50:58Z</time>
      </trkpt>
      <trkpt lat="46.46399" lon="5.26337">
        <ele>225</ele>
        <time>2022-03-10T13:51:04Z</time>
      </trkpt>
      <trkpt lat="46.4639" lon="5.26334">
        <ele>225.4</ele>
        <time>2022-03-10T13:51:06Z</time>
      </trkpt>
      <trkpt lat="46.4636" lon="5.26325">
        <ele>226.2</ele>
        <time>2022-03-10T13:51:12Z</time>
      </trkpt>
      <trkpt lat="46.46345" lon="5.26321">
        <ele>226.8</ele>
        <time>2022-03-10T13:51:15Z</time>
      </trkpt>
      <trkpt lat="46.46312" lon="5.26303">
        <ele>226.8</ele>
        <time>2022-03-10T13:51:21Z</time>
      </trkpt>
      <trkpt lat="46.46285" lon="5.26283">
        <ele>226.6</ele>
        <time>2022-03-10T13:51:26Z</time>
      </trkpt>
      <trkpt lat="46.46247" lon="5.26267">
        <ele>226.2</ele>
        <time>2022-03-10T13:51:32Z</time>
      </trkpt>
      <trkpt lat="46.46196" lon="5.26249">
        <ele>225.2</ele>
        <time>2022-03-10T13:51:41Z</time>
      </trkpt>
      <trkpt lat="46.46193" lon="5.26247">
        <ele>225</ele>
        <time>2022-03-10T13:51:42Z</time>
      </trkpt>
      <trkpt lat="46.46189" lon="5.26243">
        <ele>224.6</ele>
        <time>2022-03-10T13:51:44Z</time>
      </trkpt>
      <trkpt lat="46.46175" lon="5.26244">
        <ele>224.2</ele>
        <time>2022-03-10T13:51:48Z</time>
      </trkpt>
      <trkpt lat="46.46171" lon="5.26242">
        <ele>224</ele>
        <time>2022-03-10T13:51:49Z</time>
      </trkpt>
      <trkpt lat="46.46151" lon="5.26229">
        <ele>223.8</ele>
        <time>2022-03-10T13:51:53Z</time>
      </trkpt>
      <trkpt lat="46.46115" lon="5.26209">
        <ele>224.6</ele>
        <time>2022-03-10T13:51:59Z</time>
      </trkpt>
      <trkpt lat="46.46086" lon="5.26193">
        <ele>225.2</ele>
        <time>2022-03-10T13:52:04Z</time>
      </trkpt>
      <trkpt lat="46.46069" lon="5.26184">
        <ele>225.4</ele>
        <time>2022-03-10T13:52:07Z</time>
      </trkpt>
      <trkpt lat="46.4604" lon="5.2617">
        <ele>226</ele>
        <time>2022-03-10T13:52:13Z</time>
      </trkpt>
      <trkpt lat="46.46035" lon="5.26169">
        <ele>226.2</ele>
        <time>2022-03-10T13:52:14Z</time>
      </trkpt>
      <trkpt lat="46.46005" lon="5.26163">
        <ele>226.6</ele>
        <time>2022-03-10T13:52:20Z</time>
      </trkpt>
      <trkpt lat="46.45985" lon="5.26163">
        <ele>227.2</ele>
        <time>2022-03-10T13:52:24Z</time>
      </trkpt>
      <trkpt lat="46.45965" lon="5.26163">
        <ele>227.8</ele>
        <time>2022-03-10T13:52:28Z</time>
      </trkpt>
      <trkpt lat="46.45915" lon="5.26161">
        <ele>228.2</ele>
        <time>2022-03-10T13:52:38Z</time>
      </trkpt>
      <trkpt lat="46.4591" lon="5.26161">
        <ele>228.4</ele>
        <time>2022-03-10T13:52:39Z</time>
      </trkpt>
      <trkpt lat="46.45863" lon="5.26161">
        <ele>229.2</ele>
        <time>2022-03-10T13:52:48Z</time>
      </trkpt>
      <trkpt lat="46.45845" lon="5.26161">
        <ele>229.4</ele>
        <time>2022-03-10T13:52:51Z</time>
      </trkpt>
      <trkpt lat="46.45812" lon="5.26159">
        <ele>229.4</ele>
        <time>2022-03-10T13:52:57Z</time>
      </trkpt>
      <trkpt lat="46.45785" lon="5.2616">
        <ele>228.8</ele>
        <time>2022-03-10T13:53:02Z</time>
      </trkpt>
      <trkpt lat="46.45769" lon="5.26166">
        <ele>228.6</ele>
        <time>2022-03-10T13:53:05Z</time>
      </trkpt>
      <trkpt lat="46.4576" lon="5.26176">
        <ele>228.6</ele>
        <time>2022-03-10T13:53:07Z</time>
      </trkpt>
      <trkpt lat="46.45754" lon="5.26188">
        <ele>228.8</ele>
        <time>2022-03-10T13:53:09Z</time>
      </trkpt>
      <trkpt lat="46.4574" lon="5.26241">
        <ele>229</ele>
        <time>2022-03-10T13:53:16Z</time>
      </trkpt>
      <trkpt lat="46.45721" lon="5.2632">
        <ele>228.8</ele>
        <time>2022-03-10T13:53:26Z</time>
      </trkpt>
      <trkpt lat="46.45715" lon="5.26345">
        <ele>228.6</ele>
        <time>2022-03-10T13:53:29Z</time>
      </trkpt>
      <trkpt lat="46.45707" lon="5.26387">
        <ele>228.2</ele>
        <time>2022-03-10T13:53:34Z</time>
      </trkpt>
      <trkpt lat="46.45695" lon="5.26468">
        <ele>227.6</ele>
        <time>2022-03-10T13:53:43Z</time>
      </trkpt>
      <trkpt lat="46.45694" lon="5.26477">
        <ele>227.6</ele>
        <time>2022-03-10T13:53:44Z</time>
      </trkpt>
      <trkpt lat="46.4568" lon="5.26554">
        <ele>226.8</ele>
        <time>2022-03-10T13:53:52Z</time>
      </trkpt>
      <trkpt lat="46.45673" lon="5.26574">
        <ele>226.2</ele>
        <time>2022-03-10T13:53:54Z</time>
      </trkpt>
      <trkpt lat="46.45659" lon="5.26601">
        <ele>225.6</ele>
        <time>2022-03-10T13:53:57Z</time>
      </trkpt>
      <trkpt lat="46.45648" lon="5.26618">
        <ele>225.2</ele>
        <time>2022-03-10T13:53:59Z</time>
      </trkpt>
      <trkpt lat="46.45635" lon="5.2663">
        <ele>224.4</ele>
        <time>2022-03-10T13:54:01Z</time>
      </trkpt>
      <trkpt lat="46.45619" lon="5.26637">
        <ele>224</ele>
        <time>2022-03-10T13:54:03Z</time>
      </trkpt>
      <trkpt lat="46.45604" lon="5.26641">
        <ele>223.8</ele>
        <time>2022-03-10T13:54:05Z</time>
      </trkpt>
      <trkpt lat="46.45562" lon="5.26648">
        <ele>223.2</ele>
        <time>2022-03-10T13:54:11Z</time>
      </trkpt>
      <trkpt lat="46.45538" lon="5.26642">
        <ele>223</ele>
        <time>2022-03-10T13:54:15Z</time>
      </trkpt>
      <trkpt lat="46.45532" lon="5.2664">
        <ele>223</ele>
        <time>2022-03-10T13:54:16Z</time>
      </trkpt>
      <trkpt lat="46.45498" lon="5.26626">
        <ele>223.2</ele>
        <time>2022-03-10T13:54:22Z</time>
      </trkpt>
      <trkpt lat="46.45461" lon="5.2661">
        <ele>224</ele>
        <time>2022-03-10T13:54:29Z</time>
      </trkpt>
      <trkpt lat="46.45416" lon="5.26585">
        <ele>224.8</ele>
        <time>2022-03-10T13:54:38Z</time>
      </trkpt>
      <trkpt lat="46.45405" lon="5.2658">
        <ele>225</ele>
        <time>2022-03-10T13:54:40Z</time>
      </trkpt>
      <trkpt lat="46.45385" lon="5.26568">
        <ele>225.6</ele>
        <time>2022-03-10T13:54:44Z</time>
      </trkpt>
      <trkpt lat="46.45379" lon="5.26566">
        <ele>225.8</ele>
        <time>2022-03-10T13:54:45Z</time>
      </trkpt>
      <trkpt lat="46.45358" lon="5.26557">
        <ele>226.2</ele>
        <time>2022-03-10T13:54:49Z</time>
      </trkpt>
      <trkpt lat="46.45324" lon="5.26549">
        <ele>226.6</ele>
        <time>2022-03-10T13:54:55Z</time>
      </trkpt>
      <trkpt lat="46.45312" lon="5.26548">
        <ele>226.8</ele>
        <time>2022-03-10T13:54:57Z</time>
      </trkpt>
      <trkpt lat="46.45283" lon="5.2655">
        <ele>226.8</ele>
        <time>2022-03-10T13:55:02Z</time>
      </trkpt>
      <trkpt lat="46.45227" lon="5.26559">
        <ele>226.8</ele>
        <time>2022-03-10T13:55:11Z</time>
      </trkpt>
      <trkpt lat="46.45221" lon="5.26559">
        <ele>226.8</ele>
        <time>2022-03-10T13:55:12Z</time>
      </trkpt>
      <trkpt lat="46.45178" lon="5.2655">
        <ele>226.6</ele>
        <time>2022-03-10T13:55:19Z</time>
      </trkpt>
      <trkpt lat="46.45124" lon="5.26528">
        <ele>227</ele>
        <time>2022-03-10T13:55:28Z</time>
      </trkpt>
      <trkpt lat="46.45108" lon="5.26522">
        <ele>227.2</ele>
        <time>2022-03-10T13:55:31Z</time>
      </trkpt>
      <trkpt lat="46.45086" lon="5.26516">
        <ele>227.6</ele>
        <time>2022-03-10T13:55:35Z</time>
      </trkpt>
      <trkpt lat="46.4508" lon="5.26516">
        <ele>227.6</ele>
        <time>2022-03-10T13:55:36Z</time>
      </trkpt>
      <trkpt lat="46.4502" lon="5.26512">
        <ele>227.6</ele>
        <time>2022-03-10T13:55:46Z</time>
      </trkpt>
      <trkpt lat="46.45013" lon="5.26512">
        <ele>227.6</ele>
        <time>2022-03-10T13:55:47Z</time>
      </trkpt>
      <trkpt lat="46.44976" lon="5.26513">
        <ele>226</ele>
        <time>2022-03-10T13:55:53Z</time>
      </trkpt>
      <trkpt lat="46.44963" lon="5.26514">
        <ele>226</ele>
        <time>2022-03-10T13:55:55Z</time>
      </trkpt>
      <trkpt lat="46.44926" lon="5.2653">
        <ele>225.4</ele>
        <time>2022-03-10T13:56:01Z</time>
      </trkpt>
      <trkpt lat="46.44919" lon="5.26533">
        <ele>225.2</ele>
        <time>2022-03-10T13:56:02Z</time>
      </trkpt>
      <trkpt lat="46.44885" lon="5.26549">
        <ele>225</ele>
        <time>2022-03-10T13:56:08Z</time>
      </trkpt>
      <trkpt lat="46.4488" lon="5.26553">
        <ele>225</ele>
        <time>2022-03-10T13:56:09Z</time>
      </trkpt>
      <trkpt lat="46.44858" lon="5.26575">
        <ele>225.4</ele>
        <time>2022-03-10T13:56:14Z</time>
      </trkpt>
      <trkpt lat="46.4485" lon="5.26586">
        <ele>225.6</ele>
        <time>2022-03-10T13:56:16Z</time>
      </trkpt>
      <trkpt lat="46.44845" lon="5.26597">
        <ele>225.8</ele>
        <time>2022-03-10T13:56:18Z</time>
      </trkpt>
      <trkpt lat="46.44842" lon="5.26603">
        <ele>225.8</ele>
        <time>2022-03-10T13:56:19Z</time>
      </trkpt>
      <trkpt lat="46.44841" lon="5.26609">
        <ele>226</ele>
        <time>2022-03-10T13:56:20Z</time>
      </trkpt>
      <trkpt lat="46.44838" lon="5.26629">
        <ele>226.4</ele>
        <time>2022-03-10T13:56:23Z</time>
      </trkpt>
      <trkpt lat="46.44836" lon="5.26635">
        <ele>226.6</ele>
        <time>2022-03-10T13:56:24Z</time>
      </trkpt>
      <trkpt lat="46.44833" lon="5.26641">
        <ele>226.8</ele>
        <time>2022-03-10T13:56:25Z</time>
      </trkpt>
      <trkpt lat="46.44826" lon="5.26652">
        <ele>227.6</ele>
        <time>2022-03-10T13:56:27Z</time>
      </trkpt>
      <trkpt lat="46.44822" lon="5.26656">
        <ele>227.6</ele>
        <time>2022-03-10T13:56:28Z</time>
      </trkpt>
      <trkpt lat="46.44818" lon="5.26658">
        <ele>227.8</ele>
        <time>2022-03-10T13:56:29Z</time>
      </trkpt>
      <trkpt lat="46.44803" lon="5.26661">
        <ele>228.2</ele>
        <time>2022-03-10T13:56:32Z</time>
      </trkpt>
      <trkpt lat="46.44797" lon="5.26662">
        <ele>228.4</ele>
        <time>2022-03-10T13:56:33Z</time>
      </trkpt>
      <trkpt lat="46.44787" lon="5.26667">
        <ele>228.4</ele>
        <time>2022-03-10T13:56:35Z</time>
      </trkpt>
      <trkpt lat="46.44776" lon="5.26675">
        <ele>228.6</ele>
        <time>2022-03-10T13:56:37Z</time>
      </trkpt>
      <trkpt lat="46.4477" lon="5.2668">
        <ele>228.6</ele>
        <time>2022-03-10T13:56:38Z</time>
      </trkpt>
      <trkpt lat="46.44742" lon="5.26694">
        <ele>228.6</ele>
        <time>2022-03-10T13:56:42Z</time>
      </trkpt>
      <trkpt lat="46.4471" lon="5.26704">
        <ele>227.6</ele>
        <time>2022-03-10T13:56:46Z</time>
      </trkpt>
      <trkpt lat="46.44701" lon="5.26705">
        <ele>226.8</ele>
        <time>2022-03-10T13:56:47Z</time>
      </trkpt>
      <trkpt lat="46.44692" lon="5.26705">
        <ele>226.4</ele>
        <time>2022-03-10T13:56:48Z</time>
      </trkpt>
      <trkpt lat="46.44676" lon="5.26701">
        <ele>225.6</ele>
        <time>2022-03-10T13:56:50Z</time>
      </trkpt>
      <trkpt lat="46.44668" lon="5.26697">
        <ele>225</ele>
        <time>2022-03-10T13:56:51Z</time>
      </trkpt>
      <trkpt lat="46.44639" lon="5.26679">
        <ele>224</ele>
        <time>2022-03-10T13:56:55Z</time>
      </trkpt>
      <trkpt lat="46.44632" lon="5.26675">
        <ele>224</ele>
        <time>2022-03-10T13:56:56Z</time>
      </trkpt>
      <trkpt lat="46.44597" lon="5.26651">
        <ele>224</ele>
        <time>2022-03-10T13:57:02Z</time>
      </trkpt>
      <trkpt lat="46.44574" lon="5.26639">
        <ele>224.8</ele>
        <time>2022-03-10T13:57:07Z</time>
      </trkpt>
      <trkpt lat="46.4457" lon="5.26638">
        <ele>225.4</ele>
        <time>2022-03-10T13:57:08Z</time>
      </trkpt>
      <trkpt lat="46.44565" lon="5.26637">
        <ele>225.6</ele>
        <time>2022-03-10T13:57:09Z</time>
      </trkpt>
      <trkpt lat="46.44554" lon="5.26637">
        <ele>226.2</ele>
        <time>2022-03-10T13:57:11Z</time>
      </trkpt>
      <trkpt lat="46.44543" lon="5.2664">
        <ele>226.6</ele>
        <time>2022-03-10T13:57:13Z</time>
      </trkpt>
      <trkpt lat="46.44516" lon="5.26656">
        <ele>227.2</ele>
        <time>2022-03-10T13:57:18Z</time>
      </trkpt>
      <trkpt lat="46.44495" lon="5.26683">
        <ele>227.2</ele>
        <time>2022-03-10T13:57:22Z</time>
      </trkpt>
      <trkpt lat="46.44475" lon="5.26706">
        <ele>226.6</ele>
        <time>2022-03-10T13:57:25Z</time>
      </trkpt>
      <trkpt lat="46.44459" lon="5.26717">
        <ele>226</ele>
        <time>2022-03-10T13:57:27Z</time>
      </trkpt>
      <trkpt lat="46.44451" lon="5.2672">
        <ele>225.6</ele>
        <time>2022-03-10T13:57:28Z</time>
      </trkpt>
      <trkpt lat="46.44434" lon="5.26724">
        <ele>224.6</ele>
        <time>2022-03-10T13:57:30Z</time>
      </trkpt>
      <trkpt lat="46.44417" lon="5.26729">
        <ele>223.4</ele>
        <time>2022-03-10T13:57:32Z</time>
      </trkpt>
      <trkpt lat="46.44391" lon="5.26737">
        <ele>222.6</ele>
        <time>2022-03-10T13:57:35Z</time>
      </trkpt>
      <trkpt lat="46.44382" lon="5.26741">
        <ele>222</ele>
        <time>2022-03-10T13:57:36Z</time>
      </trkpt>
      <trkpt lat="46.44374" lon="5.26748">
        <ele>221.6</ele>
        <time>2022-03-10T13:57:37Z</time>
      </trkpt>
      <trkpt lat="46.44367" lon="5.26756">
        <ele>220.8</ele>
        <time>2022-03-10T13:57:38Z</time>
      </trkpt>
      <trkpt lat="46.44361" lon="5.26767">
        <ele>220.4</ele>
        <time>2022-03-10T13:57:39Z</time>
      </trkpt>
      <trkpt lat="46.44356" lon="5.26778">
        <ele>220.2</ele>
        <time>2022-03-10T13:57:40Z</time>
      </trkpt>
      <trkpt lat="46.44351" lon="5.2679">
        <ele>219.6</ele>
        <time>2022-03-10T13:57:41Z</time>
      </trkpt>
      <trkpt lat="46.44346" lon="5.26801">
        <ele>219.6</ele>
        <time>2022-03-10T13:57:42Z</time>
      </trkpt>
      <trkpt lat="46.44333" lon="5.26817">
        <ele>218.6</ele>
        <time>2022-03-10T13:57:44Z</time>
      </trkpt>
      <trkpt lat="46.44325" lon="5.26822">
        <ele>218.4</ele>
        <time>2022-03-10T13:57:45Z</time>
      </trkpt>
      <trkpt lat="46.44317" lon="5.26825">
        <ele>218.2</ele>
        <time>2022-03-10T13:57:46Z</time>
      </trkpt>
      <trkpt lat="46.4431" lon="5.26827">
        <ele>218</ele>
        <time>2022-03-10T13:57:47Z</time>
      </trkpt>
      <trkpt lat="46.44278" lon="5.26836">
        <ele>217.4</ele>
        <time>2022-03-10T13:57:51Z</time>
      </trkpt>
      <trkpt lat="46.44255" lon="5.26847">
        <ele>216.6</ele>
        <time>2022-03-10T13:57:54Z</time>
      </trkpt>
      <trkpt lat="46.44248" lon="5.26852">
        <ele>216.2</ele>
        <time>2022-03-10T13:57:55Z</time>
      </trkpt>
      <trkpt lat="46.44215" lon="5.26876">
        <ele>214.8</ele>
        <time>2022-03-10T13:57:59Z</time>
      </trkpt>
      <trkpt lat="46.44192" lon="5.26899">
        <ele>213.6</ele>
        <time>2022-03-10T13:58:02Z</time>
      </trkpt>
      <trkpt lat="46.44185" lon="5.26909">
        <ele>213.4</ele>
        <time>2022-03-10T13:58:03Z</time>
      </trkpt>
      <trkpt lat="46.44178" lon="5.26918">
        <ele>212.8</ele>
        <time>2022-03-10T13:58:04Z</time>
      </trkpt>
      <trkpt lat="46.4417" lon="5.26926">
        <ele>212.2</ele>
        <time>2022-03-10T13:58:05Z</time>
      </trkpt>
      <trkpt lat="46.44161" lon="5.26931">
        <ele>211.2</ele>
        <time>2022-03-10T13:58:06Z</time>
      </trkpt>
      <trkpt lat="46.44152" lon="5.26933">
        <ele>210.8</ele>
        <time>2022-03-10T13:58:07Z</time>
      </trkpt>
      <trkpt lat="46.44143" lon="5.26931">
        <ele>210.2</ele>
        <time>2022-03-10T13:58:08Z</time>
      </trkpt>
      <trkpt lat="46.44135" lon="5.26928">
        <ele>209.4</ele>
        <time>2022-03-10T13:58:09Z</time>
      </trkpt>
      <trkpt lat="46.44127" lon="5.26923">
        <ele>209</ele>
        <time>2022-03-10T13:58:10Z</time>
      </trkpt>
      <trkpt lat="46.44113" lon="5.26909">
        <ele>208.2</ele>
        <time>2022-03-10T13:58:12Z</time>
      </trkpt>
      <trkpt lat="46.44075" lon="5.2687">
        <ele>207.2</ele>
        <time>2022-03-10T13:58:18Z</time>
      </trkpt>
      <trkpt lat="46.44069" lon="5.26865">
        <ele>207.2</ele>
        <time>2022-03-10T13:58:19Z</time>
      </trkpt>
      <trkpt lat="46.44036" lon="5.26834">
        <ele>207.4</ele>
        <time>2022-03-10T13:58:25Z</time>
      </trkpt>
      <trkpt lat="46.44004" lon="5.26804">
        <ele>208</ele>
        <time>2022-03-10T13:58:32Z</time>
      </trkpt>
      <trkpt lat="46.43985" lon="5.26789">
        <ele>208.4</ele>
        <time>2022-03-10T13:58:36Z</time>
      </trkpt>
      <trkpt lat="46.43974" lon="5.26787">
        <ele>208.6</ele>
        <time>2022-03-10T13:58:38Z</time>
      </trkpt>
      <trkpt lat="46.43965" lon="5.26786">
        <ele>208.8</ele>
        <time>2022-03-10T13:58:40Z</time>
      </trkpt>
      <trkpt lat="46.43955" lon="5.26781">
        <ele>209.2</ele>
        <time>2022-03-10T13:58:42Z</time>
      </trkpt>
      <trkpt lat="46.43951" lon="5.26777">
        <ele>209.6</ele>
        <time>2022-03-10T13:58:43Z</time>
      </trkpt>
      <trkpt lat="46.43943" lon="5.26766">
        <ele>209.8</ele>
        <time>2022-03-10T13:58:45Z</time>
      </trkpt>
      <trkpt lat="46.43933" lon="5.26761">
        <ele>209.8</ele>
        <time>2022-03-10T13:58:47Z</time>
      </trkpt>
      <trkpt lat="46.43922" lon="5.26761">
        <ele>209.8</ele>
        <time>2022-03-10T13:58:49Z</time>
      </trkpt>
      <trkpt lat="46.43917" lon="5.26763">
        <ele>210</ele>
        <time>2022-03-10T13:58:50Z</time>
      </trkpt>
      <trkpt lat="46.43912" lon="5.26767">
        <ele>210</ele>
        <time>2022-03-10T13:58:51Z</time>
      </trkpt>
      <trkpt lat="46.43904" lon="5.2678">
        <ele>210</ele>
        <time>2022-03-10T13:58:53Z</time>
      </trkpt>
      <trkpt lat="46.43901" lon="5.26786">
        <ele>210</ele>
        <time>2022-03-10T13:58:54Z</time>
      </trkpt>
      <trkpt lat="46.43895" lon="5.26799">
        <ele>209.8</ele>
        <time>2022-03-10T13:58:56Z</time>
      </trkpt>
      <trkpt lat="46.43886" lon="5.26808">
        <ele>209.8</ele>
        <time>2022-03-10T13:58:58Z</time>
      </trkpt>
      <trkpt lat="46.43869" lon="5.26825">
        <ele>210</ele>
        <time>2022-03-10T13:59:02Z</time>
      </trkpt>
      <trkpt lat="46.43866" lon="5.26831">
        <ele>210</ele>
        <time>2022-03-10T13:59:03Z</time>
      </trkpt>
      <trkpt lat="46.43864" lon="5.26837">
        <ele>210.2</ele>
        <time>2022-03-10T13:59:04Z</time>
      </trkpt>
      <trkpt lat="46.43862" lon="5.26851">
        <ele>210.4</ele>
        <time>2022-03-10T13:59:06Z</time>
      </trkpt>
      <trkpt lat="46.43862" lon="5.26858">
        <ele>210.4</ele>
        <time>2022-03-10T13:59:07Z</time>
      </trkpt>
      <trkpt lat="46.43862" lon="5.26873">
        <ele>210.6</ele>
        <time>2022-03-10T13:59:09Z</time>
      </trkpt>
      <trkpt lat="46.43861" lon="5.26888">
        <ele>210.8</ele>
        <time>2022-03-10T13:59:11Z</time>
      </trkpt>
      <trkpt lat="46.43857" lon="5.2691">
        <ele>211.2</ele>
        <time>2022-03-10T13:59:14Z</time>
      </trkpt>
      <trkpt lat="46.43854" lon="5.26925">
        <ele>211.8</ele>
        <time>2022-03-10T13:59:16Z</time>
      </trkpt>
      <trkpt lat="46.43849" lon="5.26939">
        <ele>212</ele>
        <time>2022-03-10T13:59:18Z</time>
      </trkpt>
      <trkpt lat="46.43845" lon="5.26946">
        <ele>212</ele>
        <time>2022-03-10T13:59:19Z</time>
      </trkpt>
      <trkpt lat="46.43837" lon="5.26959">
        <ele>212</ele>
        <time>2022-03-10T13:59:21Z</time>
      </trkpt>
      <trkpt lat="46.43822" lon="5.26976">
        <ele>212</ele>
        <time>2022-03-10T13:59:24Z</time>
      </trkpt>
      <trkpt lat="46.43809" lon="5.26984">
        <ele>212</ele>
        <time>2022-03-10T13:59:26Z</time>
      </trkpt>
      <trkpt lat="46.43795" lon="5.26989">
        <ele>211.6</ele>
        <time>2022-03-10T13:59:28Z</time>
      </trkpt>
      <trkpt lat="46.43768" lon="5.26987">
        <ele>211.2</ele>
        <time>2022-03-10T13:59:32Z</time>
      </trkpt>
      <trkpt lat="46.43733" lon="5.26974">
        <ele>211</ele>
        <time>2022-03-10T13:59:38Z</time>
      </trkpt>
      <trkpt lat="46.43691" lon="5.26958">
        <ele>211.2</ele>
        <time>2022-03-10T13:59:46Z</time>
      </trkpt>
      <trkpt lat="46.43644" lon="5.26941">
        <ele>211.2</ele>
        <time>2022-03-10T13:59:55Z</time>
      </trkpt>
      <trkpt lat="46.43587" lon="5.2692">
        <ele>211.6</ele>
        <time>2022-03-10T14:00:06Z</time>
      </trkpt>
      <trkpt lat="46.43542" lon="5.26909">
        <ele>212.2</ele>
        <time>2022-03-10T14:00:15Z</time>
      </trkpt>
      <trkpt lat="46.43496" lon="5.26901">
        <ele>212.4</ele>
        <time>2022-03-10T14:00:24Z</time>
      </trkpt>
      <trkpt lat="46.4345" lon="5.26892">
        <ele>213</ele>
        <time>2022-03-10T14:00:33Z</time>
      </trkpt>
      <trkpt lat="46.43446" lon="5.26891">
        <ele>213.2</ele>
        <time>2022-03-10T14:00:34Z</time>
      </trkpt>
      <trkpt lat="46.43404" lon="5.26882">
        <ele>214</ele>
        <time>2022-03-10T14:00:43Z</time>
      </trkpt>
      <trkpt lat="46.434" lon="5.2688">
        <ele>214.2</ele>
        <time>2022-03-10T14:00:44Z</time>
      </trkpt>
      <trkpt lat="46.43362" lon="5.26873">
        <ele>215</ele>
        <time>2022-03-10T14:00:52Z</time>
      </trkpt>
      <trkpt lat="46.43339" lon="5.26871">
        <ele>215.4</ele>
        <time>2022-03-10T14:00:57Z</time>
      </trkpt>
      <trkpt lat="46.43319" lon="5.2687">
        <ele>215.6</ele>
        <time>2022-03-10T14:01:01Z</time>
      </trkpt>
      <trkpt lat="46.43279" lon="5.26871">
        <ele>215.6</ele>
        <time>2022-03-10T14:01:09Z</time>
      </trkpt>
      <trkpt lat="46.43221" lon="5.26871">
        <ele>216.4</ele>
        <time>2022-03-10T14:01:20Z</time>
      </trkpt>
      <trkpt lat="46.43196" lon="5.26867">
        <ele>216.6</ele>
        <time>2022-03-10T14:01:25Z</time>
      </trkpt>
      <trkpt lat="46.43181" lon="5.26864">
        <ele>216.8</ele>
        <time>2022-03-10T14:01:28Z</time>
      </trkpt>
      <trkpt lat="46.43157" lon="5.26857">
        <ele>217.4</ele>
        <time>2022-03-10T14:01:34Z</time>
      </trkpt>
      <trkpt lat="46.43149" lon="5.26855">
        <ele>217.6</ele>
        <time>2022-03-10T14:01:36Z</time>
      </trkpt>
      <trkpt lat="46.43124" lon="5.2685">
        <ele>218.4</ele>
        <time>2022-03-10T14:01:43Z</time>
      </trkpt>
      <trkpt lat="46.4312" lon="5.26849">
        <ele>218.6</ele>
        <time>2022-03-10T14:01:44Z</time>
      </trkpt>
      <trkpt lat="46.43106" lon="5.26844">
        <ele>219.6</ele>
        <time>2022-03-10T14:01:48Z</time>
      </trkpt>
      <trkpt lat="46.43088" lon="5.26838">
        <ele>220.8</ele>
        <time>2022-03-10T14:01:53Z</time>
      </trkpt>
      <trkpt lat="46.43074" lon="5.26837">
        <ele>222</ele>
        <time>2022-03-10T14:01:57Z</time>
      </trkpt>
      <trkpt lat="46.4306" lon="5.26836">
        <ele>223</ele>
        <time>2022-03-10T14:02:01Z</time>
      </trkpt>
      <trkpt lat="46.43057" lon="5.26836">
        <ele>223</ele>
        <time>2022-03-10T14:02:02Z</time>
      </trkpt>
      <trkpt lat="46.4304" lon="5.26836">
        <ele>224.4</ele>
        <time>2022-03-10T14:02:07Z</time>
      </trkpt>
      <trkpt lat="46.4303" lon="5.26835">
        <ele>224.8</ele>
        <time>2022-03-10T14:02:10Z</time>
      </trkpt>
      <trkpt lat="46.43024" lon="5.26835">
        <ele>225.4</ele>
        <time>2022-03-10T14:02:12Z</time>
      </trkpt>
      <trkpt lat="46.43" lon="5.26837">
        <ele>226.4</ele>
        <time>2022-03-10T14:02:19Z</time>
      </trkpt>
      <trkpt lat="46.42996" lon="5.26838">
        <ele>226.6</ele>
        <time>2022-03-10T14:02:20Z</time>
      </trkpt>
      <trkpt lat="46.42968" lon="5.26842">
        <ele>227.6</ele>
        <time>2022-03-10T14:02:27Z</time>
      </trkpt>
      <trkpt lat="46.42965" lon="5.26842">
        <ele>227.8</ele>
        <time>2022-03-10T14:02:28Z</time>
      </trkpt>
      <trkpt lat="46.42932" lon="5.26847">
        <ele>228.8</ele>
        <time>2022-03-10T14:02:36Z</time>
      </trkpt>
      <trkpt lat="46.42919" lon="5.26848">
        <ele>229</ele>
        <time>2022-03-10T14:02:39Z</time>
      </trkpt>
      <trkpt lat="46.42877" lon="5.26854">
        <ele>229</ele>
        <time>2022-03-10T14:02:48Z</time>
      </trkpt>
      <trkpt lat="46.42831" lon="5.26853">
        <ele>228.4</ele>
        <time>2022-03-10T14:02:56Z</time>
      </trkpt>
      <trkpt lat="46.42792" lon="5.26846">
        <ele>227.6</ele>
        <time>2022-03-10T14:03:02Z</time>
      </trkpt>
      <trkpt lat="46.42778" lon="5.26842">
        <ele>227.2</ele>
        <time>2022-03-10T14:03:04Z</time>
      </trkpt>
      <trkpt lat="46.42755" lon="5.26837">
        <ele>226.6</ele>
        <time>2022-03-10T14:03:07Z</time>
      </trkpt>
      <trkpt lat="46.42731" lon="5.26831">
        <ele>225.8</ele>
        <time>2022-03-10T14:03:10Z</time>
      </trkpt>
      <trkpt lat="46.42723" lon="5.26829">
        <ele>225.2</ele>
        <time>2022-03-10T14:03:11Z</time>
      </trkpt>
      <trkpt lat="46.42688" lon="5.26821">
        <ele>223.8</ele>
        <time>2022-03-10T14:03:15Z</time>
      </trkpt>
      <trkpt lat="46.42661" lon="5.26814">
        <ele>222.2</ele>
        <time>2022-03-10T14:03:18Z</time>
      </trkpt>
      <trkpt lat="46.42634" lon="5.26808">
        <ele>220.6</ele>
        <time>2022-03-10T14:03:21Z</time>
      </trkpt>
      <trkpt lat="46.42615" lon="5.26804">
        <ele>219.4</ele>
        <time>2022-03-10T14:03:23Z</time>
      </trkpt>
      <trkpt lat="46.42596" lon="5.26799">
        <ele>217.8</ele>
        <time>2022-03-10T14:03:25Z</time>
      </trkpt>
      <trkpt lat="46.42567" lon="5.26791">
        <ele>216.2</ele>
        <time>2022-03-10T14:03:28Z</time>
      </trkpt>
      <trkpt lat="46.42548" lon="5.26787">
        <ele>215</ele>
        <time>2022-03-10T14:03:30Z</time>
      </trkpt>
      <trkpt lat="46.42521" lon="5.26781">
        <ele>214</ele>
        <time>2022-03-10T14:03:33Z</time>
      </trkpt>
      <trkpt lat="46.42513" lon="5.26779">
        <ele>213.6</ele>
        <time>2022-03-10T14:03:34Z</time>
      </trkpt>
      <trkpt lat="46.42488" lon="5.26772">
        <ele>213</ele>
        <time>2022-03-10T14:03:37Z</time>
      </trkpt>
      <trkpt lat="46.42467" lon="5.26767">
        <ele>212.8</ele>
        <time>2022-03-10T14:03:40Z</time>
      </trkpt>
      <trkpt lat="46.42436" lon="5.2676">
        <ele>212.6</ele>
        <time>2022-03-10T14:03:45Z</time>
      </trkpt>
      <trkpt lat="46.42394" lon="5.26749">
        <ele>213.4</ele>
        <time>2022-03-10T14:03:52Z</time>
      </trkpt>
      <trkpt lat="46.42359" lon="5.26742">
        <ele>213.8</ele>
        <time>2022-03-10T14:03:58Z</time>
      </trkpt>
      <trkpt lat="46.42348" lon="5.26739">
        <ele>214.2</ele>
        <time>2022-03-10T14:04:00Z</time>
      </trkpt>
      <trkpt lat="46.42308" lon="5.2673">
        <ele>215.2</ele>
        <time>2022-03-10T14:04:07Z</time>
      </trkpt>
      <trkpt lat="46.42297" lon="5.26727">
        <ele>215.4</ele>
        <time>2022-03-10T14:04:09Z</time>
      </trkpt>
      <trkpt lat="46.42261" lon="5.26718">
        <ele>216.2</ele>
        <time>2022-03-10T14:04:16Z</time>
      </trkpt>
      <trkpt lat="46.42256" lon="5.26717">
        <ele>216.4</ele>
        <time>2022-03-10T14:04:17Z</time>
      </trkpt>
      <trkpt lat="46.42241" lon="5.26711">
        <ele>217.8</ele>
        <time>2022-03-10T14:04:20Z</time>
      </trkpt>
      <trkpt lat="46.42221" lon="5.26704">
        <ele>218.6</ele>
        <time>2022-03-10T14:04:24Z</time>
      </trkpt>
      <trkpt lat="46.42206" lon="5.26698">
        <ele>219.2</ele>
        <time>2022-03-10T14:04:27Z</time>
      </trkpt>
      <trkpt lat="46.42179" lon="5.26688">
        <ele>219.8</ele>
        <time>2022-03-10T14:04:32Z</time>
      </trkpt>
      <trkpt lat="46.42156" lon="5.2668">
        <ele>220.2</ele>
        <time>2022-03-10T14:04:36Z</time>
      </trkpt>
      <trkpt lat="46.42133" lon="5.26671">
        <ele>220.4</ele>
        <time>2022-03-10T14:04:40Z</time>
      </trkpt>
      <trkpt lat="46.42085" lon="5.26653">
        <ele>219.2</ele>
        <time>2022-03-10T14:04:48Z</time>
      </trkpt>
      <trkpt lat="46.42071" lon="5.26648">
        <ele>219</ele>
        <time>2022-03-10T14:04:50Z</time>
      </trkpt>
      <trkpt lat="46.42022" lon="5.26629">
        <ele>218.2</ele>
        <time>2022-03-10T14:04:58Z</time>
      </trkpt>
      <trkpt lat="46.4201" lon="5.26624">
        <ele>218.2</ele>
        <time>2022-03-10T14:05:00Z</time>
      </trkpt>
      <trkpt lat="46.41967" lon="5.26608">
        <ele>217.8</ele>
        <time>2022-03-10T14:05:07Z</time>
      </trkpt>
      <trkpt lat="46.4191" lon="5.26586">
        <ele>217.8</ele>
        <time>2022-03-10T14:05:16Z</time>
      </trkpt>
      <trkpt lat="46.41856" lon="5.26563">
        <ele>217.8</ele>
        <time>2022-03-10T14:05:24Z</time>
      </trkpt>
      <trkpt lat="46.41849" lon="5.2656">
        <ele>217.8</ele>
        <time>2022-03-10T14:05:25Z</time>
      </trkpt>
      <trkpt lat="46.41795" lon="5.26538">
        <ele>217.8</ele>
        <time>2022-03-10T14:05:33Z</time>
      </trkpt>
      <trkpt lat="46.41777" lon="5.2653">
        <ele>217.6</ele>
        <time>2022-03-10T14:05:36Z</time>
      </trkpt>
      <trkpt lat="46.41759" lon="5.26523">
        <ele>217</ele>
        <time>2022-03-10T14:05:39Z</time>
      </trkpt>
      <trkpt lat="46.41731" lon="5.26512">
        <ele>216.8</ele>
        <time>2022-03-10T14:05:44Z</time>
      </trkpt>
      <trkpt lat="46.41687" lon="5.26502">
        <ele>216.6</ele>
        <time>2022-03-10T14:05:52Z</time>
      </trkpt>
      <trkpt lat="46.41643" lon="5.26503">
        <ele>216.6</ele>
        <time>2022-03-10T14:06:00Z</time>
      </trkpt>
      <trkpt lat="46.41602" lon="5.26515">
        <ele>216.4</ele>
        <time>2022-03-10T14:06:07Z</time>
      </trkpt>
      <trkpt lat="46.41565" lon="5.26538">
        <ele>216.4</ele>
        <time>2022-03-10T14:06:14Z</time>
      </trkpt>
      <trkpt lat="46.4152" lon="5.2658">
        <ele>216.4</ele>
        <time>2022-03-10T14:06:23Z</time>
      </trkpt>
      <trkpt lat="46.41473" lon="5.26629">
        <ele>216.6</ele>
        <time>2022-03-10T14:06:33Z</time>
      </trkpt>
      <trkpt lat="46.41465" lon="5.26638">
        <ele>216.6</ele>
        <time>2022-03-10T14:06:35Z</time>
      </trkpt>
      <trkpt lat="46.41431" lon="5.26671">
        <ele>217.4</ele>
        <time>2022-03-10T14:06:43Z</time>
      </trkpt>
      <trkpt lat="46.41409" lon="5.26694">
        <ele>218.4</ele>
        <time>2022-03-10T14:06:49Z</time>
      </trkpt>
      <trkpt lat="46.41405" lon="5.26698">
        <ele>218.6</ele>
        <time>2022-03-10T14:06:50Z</time>
      </trkpt>
      <trkpt lat="46.41388" lon="5.26716">
        <ele>219.6</ele>
        <time>2022-03-10T14:06:55Z</time>
      </trkpt>
      <trkpt lat="46.41379" lon="5.26727">
        <ele>220.2</ele>
        <time>2022-03-10T14:06:58Z</time>
      </trkpt>
      <trkpt lat="46.41365" lon="5.26741">
        <ele>220.8</ele>
        <time>2022-03-10T14:07:02Z</time>
      </trkpt>
      <trkpt lat="46.41353" lon="5.26756">
        <ele>221.2</ele>
        <time>2022-03-10T14:07:06Z</time>
      </trkpt>
      <trkpt lat="46.41343" lon="5.26766">
        <ele>221.8</ele>
        <time>2022-03-10T14:07:09Z</time>
      </trkpt>
      <trkpt lat="46.41327" lon="5.26781">
        <ele>223.2</ele>
        <time>2022-03-10T14:07:14Z</time>
      </trkpt>
      <trkpt lat="46.41308" lon="5.26797">
        <ele>224.2</ele>
        <time>2022-03-10T14:07:20Z</time>
      </trkpt>
      <trkpt lat="46.41305" lon="5.26799">
        <ele>224.4</ele>
        <time>2022-03-10T14:07:21Z</time>
      </trkpt>
      <trkpt lat="46.41289" lon="5.26808">
        <ele>225.4</ele>
        <time>2022-03-10T14:07:26Z</time>
      </trkpt>
      <trkpt lat="46.4128" lon="5.26811">
        <ele>226.2</ele>
        <time>2022-03-10T14:07:29Z</time>
      </trkpt>
      <trkpt lat="46.41273" lon="5.26813">
        <ele>226.6</ele>
        <time>2022-03-10T14:07:31Z</time>
      </trkpt>
      <trkpt lat="46.41254" lon="5.26818">
        <ele>228</ele>
        <time>2022-03-10T14:07:37Z</time>
      </trkpt>
      <trkpt lat="46.41238" lon="5.26824">
        <ele>229.2</ele>
        <time>2022-03-10T14:07:42Z</time>
      </trkpt>
      <trkpt lat="46.41225" lon="5.26835">
        <ele>230</ele>
        <time>2022-03-10T14:07:46Z</time>
      </trkpt>
      <trkpt lat="46.41215" lon="5.26844">
        <ele>230.4</ele>
        <time>2022-03-10T14:07:49Z</time>
      </trkpt>
      <trkpt lat="46.412" lon="5.2685">
        <ele>230.8</ele>
        <time>2022-03-10T14:07:53Z</time>
      </trkpt>
      <trkpt lat="46.41187" lon="5.26852">
        <ele>231</ele>
        <time>2022-03-10T14:07:56Z</time>
      </trkpt>
      <trkpt lat="46.41179" lon="5.26859">
        <ele>231</ele>
        <time>2022-03-10T14:07:58Z</time>
      </trkpt>
      <trkpt lat="46.41166" lon="5.2688">
        <ele>231.2</ele>
        <time>2022-03-10T14:08:02Z</time>
      </trkpt>
      <trkpt lat="46.41162" lon="5.26884">
        <ele>231.4</ele>
        <time>2022-03-10T14:08:03Z</time>
      </trkpt>
      <trkpt lat="46.41158" lon="5.26887">
        <ele>231.4</ele>
        <time>2022-03-10T14:08:04Z</time>
      </trkpt>
      <trkpt lat="46.4114" lon="5.26894">
        <ele>231.8</ele>
        <time>2022-03-10T14:08:08Z</time>
      </trkpt>
      <trkpt lat="46.41086" lon="5.26905">
        <ele>232.4</ele>
        <time>2022-03-10T14:08:18Z</time>
      </trkpt>
      <trkpt lat="46.4108" lon="5.26905">
        <ele>232.6</ele>
        <time>2022-03-10T14:08:19Z</time>
      </trkpt>
      <trkpt lat="46.4104" lon="5.26902">
        <ele>232.2</ele>
        <time>2022-03-10T14:08:25Z</time>
      </trkpt>
      <trkpt lat="46.41001" lon="5.26906">
        <ele>231.4</ele>
        <time>2022-03-10T14:08:31Z</time>
      </trkpt>
      <trkpt lat="46.40994" lon="5.26907">
        <ele>231.4</ele>
        <time>2022-03-10T14:08:32Z</time>
      </trkpt>
      <trkpt lat="46.40959" lon="5.26913">
        <ele>230.4</ele>
        <time>2022-03-10T14:08:37Z</time>
      </trkpt>
      <trkpt lat="46.40918" lon="5.26922">
        <ele>229.6</ele>
        <time>2022-03-10T14:08:43Z</time>
      </trkpt>
      <trkpt lat="46.40886" lon="5.26936">
        <ele>229.2</ele>
        <time>2022-03-10T14:08:48Z</time>
      </trkpt>
      <trkpt lat="46.40879" lon="5.26939">
        <ele>229.2</ele>
        <time>2022-03-10T14:08:49Z</time>
      </trkpt>
      <trkpt lat="46.40826" lon="5.26968">
        <ele>228.6</ele>
        <time>2022-03-10T14:08:57Z</time>
      </trkpt>
      <trkpt lat="46.40807" lon="5.26977">
        <ele>228.2</ele>
        <time>2022-03-10T14:09:00Z</time>
      </trkpt>
      <trkpt lat="46.40773" lon="5.26982">
        <ele>227.4</ele>
        <time>2022-03-10T14:09:05Z</time>
      </trkpt>
      <trkpt lat="46.40744" lon="5.26977">
        <ele>227.2</ele>
        <time>2022-03-10T14:09:10Z</time>
      </trkpt>
      <trkpt lat="46.40707" lon="5.26969">
        <ele>227.4</ele>
        <time>2022-03-10T14:09:17Z</time>
      </trkpt>
      <trkpt lat="46.40661" lon="5.26957">
        <ele>228.2</ele>
        <time>2022-03-10T14:09:26Z</time>
      </trkpt>
      <trkpt lat="46.40618" lon="5.26936">
        <ele>228.6</ele>
        <time>2022-03-10T14:09:34Z</time>
      </trkpt>
      <trkpt lat="46.40569" lon="5.2691">
        <ele>228.4</ele>
        <time>2022-03-10T14:09:43Z</time>
      </trkpt>
      <trkpt lat="46.40521" lon="5.26891">
        <ele>227.8</ele>
        <time>2022-03-10T14:09:51Z</time>
      </trkpt>
      <trkpt lat="46.40474" lon="5.26884">
        <ele>227.2</ele>
        <time>2022-03-10T14:09:59Z</time>
      </trkpt>
      <trkpt lat="46.40425" lon="5.26877">
        <ele>227.8</ele>
        <time>2022-03-10T14:10:08Z</time>
      </trkpt>
      <trkpt lat="46.40373" lon="5.26878">
        <ele>228.2</ele>
        <time>2022-03-10T14:10:17Z</time>
      </trkpt>
      <trkpt lat="46.40323" lon="5.26887">
        <ele>228.6</ele>
        <time>2022-03-10T14:10:26Z</time>
      </trkpt>
      <trkpt lat="46.40286" lon="5.26888">
        <ele>229</ele>
        <time>2022-03-10T14:10:33Z</time>
      </trkpt>
      <trkpt lat="46.4023" lon="5.26891">
        <ele>229.2</ele>
        <time>2022-03-10T14:10:43Z</time>
      </trkpt>
      <trkpt lat="46.40209" lon="5.26892">
        <ele>229.4</ele>
        <time>2022-03-10T14:10:47Z</time>
      </trkpt>
      <trkpt lat="46.40198" lon="5.26893">
        <ele>229.4</ele>
        <time>2022-03-10T14:10:49Z</time>
      </trkpt>
      <trkpt lat="46.40163" lon="5.26896">
        <ele>230.4</ele>
        <time>2022-03-10T14:10:56Z</time>
      </trkpt>
      <trkpt lat="46.40153" lon="5.26897">
        <ele>230.6</ele>
        <time>2022-03-10T14:10:58Z</time>
      </trkpt>
      <trkpt lat="46.40112" lon="5.26899">
        <ele>231</ele>
        <time>2022-03-10T14:11:06Z</time>
      </trkpt>
      <trkpt lat="46.40079" lon="5.26891">
        <ele>231.2</ele>
        <time>2022-03-10T14:11:13Z</time>
      </trkpt>
      <trkpt lat="46.4005" lon="5.26881">
        <ele>231.6</ele>
        <time>2022-03-10T14:11:19Z</time>
      </trkpt>
      <trkpt lat="46.40037" lon="5.26876">
        <ele>232.2</ele>
        <time>2022-03-10T14:11:22Z</time>
      </trkpt>
      <trkpt lat="46.40024" lon="5.26871">
        <ele>232.8</ele>
        <time>2022-03-10T14:11:25Z</time>
      </trkpt>
      <trkpt lat="46.39991" lon="5.26856">
        <ele>233.4</ele>
        <time>2022-03-10T14:11:32Z</time>
      </trkpt>
      <trkpt lat="46.39982" lon="5.26852">
        <ele>233.8</ele>
        <time>2022-03-10T14:11:34Z</time>
      </trkpt>
      <trkpt lat="46.39954" lon="5.26841">
        <ele>233.6</ele>
        <time>2022-03-10T14:11:39Z</time>
      </trkpt>
      <trkpt lat="46.3993" lon="5.2683">
        <ele>232.6</ele>
        <time>2022-03-10T14:11:43Z</time>
      </trkpt>
      <trkpt lat="46.39917" lon="5.26823">
        <ele>231.8</ele>
        <time>2022-03-10T14:11:45Z</time>
      </trkpt>
      <trkpt lat="46.3991" lon="5.2682">
        <ele>231.6</ele>
        <time>2022-03-10T14:11:46Z</time>
      </trkpt>
      <trkpt lat="46.39881" lon="5.26809">
        <ele>230.4</ele>
        <time>2022-03-10T14:11:50Z</time>
      </trkpt>
      <trkpt lat="46.39873" lon="5.26808">
        <ele>230.2</ele>
        <time>2022-03-10T14:11:51Z</time>
      </trkpt>
      <trkpt lat="46.39833" lon="5.26809">
        <ele>229.4</ele>
        <time>2022-03-10T14:11:56Z</time>
      </trkpt>
      <trkpt lat="46.39825" lon="5.2681">
        <ele>229.2</ele>
        <time>2022-03-10T14:11:57Z</time>
      </trkpt>
      <trkpt lat="46.39781" lon="5.26818">
        <ele>228.2</ele>
        <time>2022-03-10T14:12:03Z</time>
      </trkpt>
      <trkpt lat="46.39739" lon="5.26833">
        <ele>228.2</ele>
        <time>2022-03-10T14:12:10Z</time>
      </trkpt>
      <trkpt lat="46.39702" lon="5.26838">
        <ele>228.8</ele>
        <time>2022-03-10T14:12:17Z</time>
      </trkpt>
      <trkpt lat="46.39663" lon="5.26832">
        <ele>229.4</ele>
        <time>2022-03-10T14:12:25Z</time>
      </trkpt>
      <trkpt lat="46.39645" lon="5.26827">
        <ele>230.4</ele>
        <time>2022-03-10T14:12:29Z</time>
      </trkpt>
      <trkpt lat="46.39626" lon="5.26823">
        <ele>231</ele>
        <time>2022-03-10T14:12:33Z</time>
      </trkpt>
      <trkpt lat="46.39621" lon="5.26824">
        <ele>231.2</ele>
        <time>2022-03-10T14:12:34Z</time>
      </trkpt>
      <trkpt lat="46.39611" lon="5.26826">
        <ele>231.4</ele>
        <time>2022-03-10T14:12:36Z</time>
      </trkpt>
      <trkpt lat="46.39601" lon="5.26831">
        <ele>231.4</ele>
        <time>2022-03-10T14:12:38Z</time>
      </trkpt>
      <trkpt lat="46.39596" lon="5.26834">
        <ele>231.6</ele>
        <time>2022-03-10T14:12:39Z</time>
      </trkpt>
      <trkpt lat="46.39592" lon="5.26839">
        <ele>231.6</ele>
        <time>2022-03-10T14:12:40Z</time>
      </trkpt>
      <trkpt lat="46.39586" lon="5.2685">
        <ele>231.8</ele>
        <time>2022-03-10T14:12:42Z</time>
      </trkpt>
      <trkpt lat="46.39584" lon="5.26856">
        <ele>231.8</ele>
        <time>2022-03-10T14:12:43Z</time>
      </trkpt>
      <trkpt lat="46.39581" lon="5.26868">
        <ele>232.4</ele>
        <time>2022-03-10T14:12:45Z</time>
      </trkpt>
      <trkpt lat="46.39579" lon="5.26874">
        <ele>232.4</ele>
        <time>2022-03-10T14:12:46Z</time>
      </trkpt>
      <trkpt lat="46.39576" lon="5.26878">
        <ele>232.8</ele>
        <time>2022-03-10T14:12:47Z</time>
      </trkpt>
      <trkpt lat="46.39572" lon="5.26885">
        <ele>233</ele>
        <time>2022-03-10T14:12:48Z</time>
      </trkpt>
      <trkpt lat="46.39568" lon="5.2689">
        <ele>233.2</ele>
        <time>2022-03-10T14:12:49Z</time>
      </trkpt>
      <trkpt lat="46.39561" lon="5.26897">
        <ele>233.6</ele>
        <time>2022-03-10T14:12:51Z</time>
      </trkpt>
      <trkpt lat="46.39552" lon="5.26904">
        <ele>234</ele>
        <time>2022-03-10T14:12:53Z</time>
      </trkpt>
      <trkpt lat="46.39517" lon="5.2692">
        <ele>234.4</ele>
        <time>2022-03-10T14:13:00Z</time>
      </trkpt>
      <trkpt lat="46.39507" lon="5.26926">
        <ele>234.4</ele>
        <time>2022-03-10T14:13:02Z</time>
      </trkpt>
      <trkpt lat="46.39497" lon="5.26935">
        <ele>234.4</ele>
        <time>2022-03-10T14:13:04Z</time>
      </trkpt>
      <trkpt lat="46.39493" lon="5.26941">
        <ele>234.2</ele>
        <time>2022-03-10T14:13:05Z</time>
      </trkpt>
      <trkpt lat="46.39489" lon="5.26948">
        <ele>234.2</ele>
        <time>2022-03-10T14:13:06Z</time>
      </trkpt>
      <trkpt lat="46.39475" lon="5.26978">
        <ele>234</ele>
        <time>2022-03-10T14:13:10Z</time>
      </trkpt>
      <trkpt lat="46.39451" lon="5.27041">
        <ele>233</ele>
        <time>2022-03-10T14:13:17Z</time>
      </trkpt>
      <trkpt lat="46.39436" lon="5.2709">
        <ele>232.6</ele>
        <time>2022-03-10T14:13:22Z</time>
      </trkpt>
      <trkpt lat="46.39432" lon="5.27097">
        <ele>232.6</ele>
        <time>2022-03-10T14:13:23Z</time>
      </trkpt>
      <trkpt lat="46.39428" lon="5.27103">
        <ele>232.6</ele>
        <time>2022-03-10T14:13:24Z</time>
      </trkpt>
      <trkpt lat="46.39415" lon="5.27115">
        <ele>232.4</ele>
        <time>2022-03-10T14:13:26Z</time>
      </trkpt>
      <trkpt lat="46.39368" lon="5.27146">
        <ele>232.6</ele>
        <time>2022-03-10T14:13:34Z</time>
      </trkpt>
      <trkpt lat="46.39341" lon="5.27165">
        <ele>232.6</ele>
        <time>2022-03-10T14:13:39Z</time>
      </trkpt>
      <trkpt lat="46.39335" lon="5.27168">
        <ele>232.6</ele>
        <time>2022-03-10T14:13:40Z</time>
      </trkpt>
      <trkpt lat="46.39328" lon="5.27171">
        <ele>232.6</ele>
        <time>2022-03-10T14:13:41Z</time>
      </trkpt>
      <trkpt lat="46.393" lon="5.27187">
        <ele>232.6</ele>
        <time>2022-03-10T14:13:46Z</time>
      </trkpt>
      <trkpt lat="46.39256" lon="5.27211">
        <ele>233.2</ele>
        <time>2022-03-10T14:13:54Z</time>
      </trkpt>
      <trkpt lat="46.39242" lon="5.27223">
        <ele>233.6</ele>
        <time>2022-03-10T14:13:57Z</time>
      </trkpt>
      <trkpt lat="46.39232" lon="5.27235">
        <ele>233.6</ele>
        <time>2022-03-10T14:13:59Z</time>
      </trkpt>
      <trkpt lat="46.39215" lon="5.27271">
        <ele>234.2</ele>
        <time>2022-03-10T14:14:04Z</time>
      </trkpt>
      <trkpt lat="46.39203" lon="5.27315">
        <ele>234.8</ele>
        <time>2022-03-10T14:14:10Z</time>
      </trkpt>
      <trkpt lat="46.39198" lon="5.2733">
        <ele>235.2</ele>
        <time>2022-03-10T14:14:12Z</time>
      </trkpt>
      <trkpt lat="46.39192" lon="5.27352">
        <ele>235.8</ele>
        <time>2022-03-10T14:14:15Z</time>
      </trkpt>
      <trkpt lat="46.39184" lon="5.27374">
        <ele>236</ele>
        <time>2022-03-10T14:14:18Z</time>
      </trkpt>
      <trkpt lat="46.3918" lon="5.2738">
        <ele>236</ele>
        <time>2022-03-10T14:14:19Z</time>
      </trkpt>
      <trkpt lat="46.39164" lon="5.27401">
        <ele>235.8</ele>
        <time>2022-03-10T14:14:23Z</time>
      </trkpt>
      <trkpt lat="46.39154" lon="5.2741">
        <ele>235.8</ele>
        <time>2022-03-10T14:14:25Z</time>
      </trkpt>
      <trkpt lat="46.39134" lon="5.27425">
        <ele>235.8</ele>
        <time>2022-03-10T14:14:29Z</time>
      </trkpt>
      <trkpt lat="46.39129" lon="5.27427">
        <ele>235.8</ele>
        <time>2022-03-10T14:14:30Z</time>
      </trkpt>
      <trkpt lat="46.39124" lon="5.27429">
        <ele>235.8</ele>
        <time>2022-03-10T14:14:31Z</time>
      </trkpt>
      <trkpt lat="46.39113" lon="5.27436">
        <ele>235.8</ele>
        <time>2022-03-10T14:14:33Z</time>
      </trkpt>
      <trkpt lat="46.39096" lon="5.27448">
        <ele>235.8</ele>
        <time>2022-03-10T14:14:36Z</time>
      </trkpt>
      <trkpt lat="46.39083" lon="5.2746">
        <ele>235.8</ele>
        <time>2022-03-10T14:14:39Z</time>
      </trkpt>
      <trkpt lat="46.39065" lon="5.27472">
        <ele>235.8</ele>
        <time>2022-03-10T14:14:42Z</time>
      </trkpt>
      <trkpt lat="46.39053" lon="5.27481">
        <ele>235.8</ele>
        <time>2022-03-10T14:14:44Z</time>
      </trkpt>
      <trkpt lat="46.39046" lon="5.27484">
        <ele>235.8</ele>
        <time>2022-03-10T14:14:45Z</time>
      </trkpt>
      <trkpt lat="46.39041" lon="5.27486">
        <ele>235.8</ele>
        <time>2022-03-10T14:14:46Z</time>
      </trkpt>
      <trkpt lat="46.39021" lon="5.27497">
        <ele>235.8</ele>
        <time>2022-03-10T14:14:49Z</time>
      </trkpt>
      <trkpt lat="46.39004" lon="5.27517">
        <ele>236</ele>
        <time>2022-03-10T14:14:52Z</time>
      </trkpt>
      <trkpt lat="46.38993" lon="5.27522">
        <ele>236</ele>
        <time>2022-03-10T14:14:54Z</time>
      </trkpt>
      <trkpt lat="46.38984" lon="5.27531">
        <ele>236.2</ele>
        <time>2022-03-10T14:14:56Z</time>
      </trkpt>
      <trkpt lat="46.38969" lon="5.27548">
        <ele>236.2</ele>
        <time>2022-03-10T14:14:59Z</time>
      </trkpt>
      <trkpt lat="46.38952" lon="5.27553">
        <ele>236.8</ele>
        <time>2022-03-10T14:15:02Z</time>
      </trkpt>
      <trkpt lat="46.38947" lon="5.27554">
        <ele>236.8</ele>
        <time>2022-03-10T14:15:03Z</time>
      </trkpt>
      <trkpt lat="46.38942" lon="5.27558">
        <ele>237</ele>
        <time>2022-03-10T14:15:04Z</time>
      </trkpt>
      <trkpt lat="46.38913" lon="5.27565">
        <ele>237.4</ele>
        <time>2022-03-10T14:15:09Z</time>
      </trkpt>
      <trkpt lat="46.38899" lon="5.27565">
        <ele>237.6</ele>
        <time>2022-03-10T14:15:11Z</time>
      </trkpt>
      <trkpt lat="46.38885" lon="5.27558">
        <ele>237.6</ele>
        <time>2022-03-10T14:15:13Z</time>
      </trkpt>
      <trkpt lat="46.38877" lon="5.27552">
        <ele>237.6</ele>
        <time>2022-03-10T14:15:15Z</time>
      </trkpt>
      <trkpt lat="46.38872" lon="5.27548">
        <ele>237.8</ele>
        <time>2022-03-10T14:15:16Z</time>
      </trkpt>
      <trkpt lat="46.38866" lon="5.27544">
        <ele>237.8</ele>
        <time>2022-03-10T14:15:17Z</time>
      </trkpt>
      <trkpt lat="46.38856" lon="5.27537">
        <ele>237.8</ele>
        <time>2022-03-10T14:15:19Z</time>
      </trkpt>
      <trkpt lat="46.38839" lon="5.27528">
        <ele>238</ele>
        <time>2022-03-10T14:15:22Z</time>
      </trkpt>
      <trkpt lat="46.38798" lon="5.2751">
        <ele>238.6</ele>
        <time>2022-03-10T14:15:29Z</time>
      </trkpt>
      <trkpt lat="46.38762" lon="5.27496">
        <ele>238.6</ele>
        <time>2022-03-10T14:15:35Z</time>
      </trkpt>
      <trkpt lat="46.38757" lon="5.27494">
        <ele>238.6</ele>
        <time>2022-03-10T14:15:36Z</time>
      </trkpt>
      <trkpt lat="46.38719" lon="5.2747">
        <ele>238.6</ele>
        <time>2022-03-10T14:15:43Z</time>
      </trkpt>
      <trkpt lat="46.3871" lon="5.27462">
        <ele>238.8</ele>
        <time>2022-03-10T14:15:45Z</time>
      </trkpt>
      <trkpt lat="46.38687" lon="5.27442">
        <ele>239</ele>
        <time>2022-03-10T14:15:50Z</time>
      </trkpt>
      <trkpt lat="46.38647" lon="5.27408">
        <ele>240</ele>
        <time>2022-03-10T14:15:59Z</time>
      </trkpt>
      <trkpt lat="46.38642" lon="5.27406">
        <ele>240.2</ele>
        <time>2022-03-10T14:16:00Z</time>
      </trkpt>
      <trkpt lat="46.38632" lon="5.27406">
        <ele>240.2</ele>
        <time>2022-03-10T14:16:02Z</time>
      </trkpt>
      <trkpt lat="46.38628" lon="5.27408">
        <ele>240.2</ele>
        <time>2022-03-10T14:16:03Z</time>
      </trkpt>
      <trkpt lat="46.38623" lon="5.27412">
        <ele>240.2</ele>
        <time>2022-03-10T14:16:04Z</time>
      </trkpt>
      <trkpt lat="46.38613" lon="5.27427">
        <ele>240</ele>
        <time>2022-03-10T14:16:07Z</time>
      </trkpt>
      <trkpt lat="46.38601" lon="5.27448">
        <ele>239.6</ele>
        <time>2022-03-10T14:16:10Z</time>
      </trkpt>
      <trkpt lat="46.3859" lon="5.27462">
        <ele>239.4</ele>
        <time>2022-03-10T14:16:12Z</time>
      </trkpt>
      <trkpt lat="46.38569" lon="5.2748">
        <ele>238.4</ele>
        <time>2022-03-10T14:16:15Z</time>
      </trkpt>
      <trkpt lat="46.38555" lon="5.27489">
        <ele>238</ele>
        <time>2022-03-10T14:16:17Z</time>
      </trkpt>
      <trkpt lat="46.38538" lon="5.27499">
        <ele>237.2</ele>
        <time>2022-03-10T14:16:19Z</time>
      </trkpt>
      <trkpt lat="46.3852" lon="5.2751">
        <ele>235.6</ele>
        <time>2022-03-10T14:16:21Z</time>
      </trkpt>
      <trkpt lat="46.38502" lon="5.27523">
        <ele>234.6</ele>
        <time>2022-03-10T14:16:23Z</time>
      </trkpt>
      <trkpt lat="46.38493" lon="5.27531">
        <ele>233.6</ele>
        <time>2022-03-10T14:16:24Z</time>
      </trkpt>
      <trkpt lat="46.38485" lon="5.2754">
        <ele>232.2</ele>
        <time>2022-03-10T14:16:25Z</time>
      </trkpt>
      <trkpt lat="46.38468" lon="5.27559">
        <ele>230.8</ele>
        <time>2022-03-10T14:16:27Z</time>
      </trkpt>
      <trkpt lat="46.38453" lon="5.27579">
        <ele>229.2</ele>
        <time>2022-03-10T14:16:29Z</time>
      </trkpt>
      <trkpt lat="46.38438" lon="5.27598">
        <ele>227.6</ele>
        <time>2022-03-10T14:16:31Z</time>
      </trkpt>
      <trkpt lat="46.3843" lon="5.27607">
        <ele>226.6</ele>
        <time>2022-03-10T14:16:32Z</time>
      </trkpt>
      <trkpt lat="46.38416" lon="5.27626">
        <ele>225.6</ele>
        <time>2022-03-10T14:16:34Z</time>
      </trkpt>
      <trkpt lat="46.38409" lon="5.27635">
        <ele>225.2</ele>
        <time>2022-03-10T14:16:35Z</time>
      </trkpt>
      <trkpt lat="46.38402" lon="5.27644">
        <ele>224.6</ele>
        <time>2022-03-10T14:16:36Z</time>
      </trkpt>
      <trkpt lat="46.38387" lon="5.2766">
        <ele>224.2</ele>
        <time>2022-03-10T14:16:38Z</time>
      </trkpt>
      <trkpt lat="46.3837" lon="5.27672">
        <ele>223.6</ele>
        <time>2022-03-10T14:16:40Z</time>
      </trkpt>
      <trkpt lat="46.38362" lon="5.27678">
        <ele>223</ele>
        <time>2022-03-10T14:16:41Z</time>
      </trkpt>
      <trkpt lat="46.38346" lon="5.27689">
        <ele>221.6</ele>
        <time>2022-03-10T14:16:43Z</time>
      </trkpt>
      <trkpt lat="46.38314" lon="5.27712">
        <ele>220.6</ele>
        <time>2022-03-10T14:16:47Z</time>
      </trkpt>
      <trkpt lat="46.38308" lon="5.27716">
        <ele>220</ele>
        <time>2022-03-10T14:16:48Z</time>
      </trkpt>
      <trkpt lat="46.383" lon="5.2772">
        <ele>220</ele>
        <time>2022-03-10T14:16:49Z</time>
      </trkpt>
      <trkpt lat="46.38277" lon="5.27728">
        <ele>219.4</ele>
        <time>2022-03-10T14:16:52Z</time>
      </trkpt>
      <trkpt lat="46.38225" lon="5.27747">
        <ele>218.6</ele>
        <time>2022-03-10T14:16:59Z</time>
      </trkpt>
      <trkpt lat="46.38212" lon="5.27756">
        <ele>218.4</ele>
        <time>2022-03-10T14:17:01Z</time>
      </trkpt>
      <trkpt lat="46.38188" lon="5.27777">
        <ele>217.6</ele>
        <time>2022-03-10T14:17:05Z</time>
      </trkpt>
      <trkpt lat="46.38178" lon="5.27792">
        <ele>217.4</ele>
        <time>2022-03-10T14:17:07Z</time>
      </trkpt>
      <trkpt lat="46.38175" lon="5.27804">
        <ele>217.2</ele>
        <time>2022-03-10T14:17:08Z</time>
      </trkpt>
      <trkpt lat="46.38171" lon="5.27863">
        <ele>216.4</ele>
        <time>2022-03-10T14:17:14Z</time>
      </trkpt>
      <trkpt lat="46.38162" lon="5.2793">
        <ele>216.8</ele>
        <time>2022-03-10T14:17:21Z</time>
      </trkpt>
      <trkpt lat="46.38156" lon="5.27975">
        <ele>216.8</ele>
        <time>2022-03-10T14:17:26Z</time>
      </trkpt>
      <trkpt lat="46.38151" lon="5.27991">
        <ele>216.8</ele>
        <time>2022-03-10T14:17:28Z</time>
      </trkpt>
      <trkpt lat="46.38144" lon="5.28003">
        <ele>216.8</ele>
        <time>2022-03-10T14:17:30Z</time>
      </trkpt>
      <trkpt lat="46.38116" lon="5.28038">
        <ele>217.4</ele>
        <time>2022-03-10T14:17:36Z</time>
      </trkpt>
      <trkpt lat="46.38084" lon="5.28088">
        <ele>217.8</ele>
        <time>2022-03-10T14:17:44Z</time>
      </trkpt>
      <trkpt lat="46.38065" lon="5.28116">
        <ele>218</ele>
        <time>2022-03-10T14:17:49Z</time>
      </trkpt>
      <trkpt lat="46.38058" lon="5.28126">
        <ele>218.2</ele>
        <time>2022-03-10T14:17:51Z</time>
      </trkpt>
      <trkpt lat="46.38055" lon="5.28131">
        <ele>218.4</ele>
        <time>2022-03-10T14:17:52Z</time>
      </trkpt>
      <trkpt lat="46.38039" lon="5.28154">
        <ele>219.2</ele>
        <time>2022-03-10T14:17:57Z</time>
      </trkpt>
      <trkpt lat="46.38033" lon="5.28162">
        <ele>219.4</ele>
        <time>2022-03-10T14:17:59Z</time>
      </trkpt>
      <trkpt lat="46.38024" lon="5.28171">
        <ele>220.2</ele>
        <time>2022-03-10T14:18:02Z</time>
      </trkpt>
      <trkpt lat="46.3802" lon="5.28174">
        <ele>220.4</ele>
        <time>2022-03-10T14:18:03Z</time>
      </trkpt>
      <trkpt lat="46.38017" lon="5.28177">
        <ele>220.6</ele>
        <time>2022-03-10T14:18:04Z</time>
      </trkpt>
      <trkpt lat="46.38005" lon="5.28186">
        <ele>221.8</ele>
        <time>2022-03-10T14:18:08Z</time>
      </trkpt>
      <trkpt lat="46.38002" lon="5.28187">
        <ele>222</ele>
        <time>2022-03-10T14:18:09Z</time>
      </trkpt>
      <trkpt lat="46.37996" lon="5.28191">
        <ele>223.2</ele>
        <time>2022-03-10T14:18:11Z</time>
      </trkpt>
      <trkpt lat="46.37978" lon="5.28209">
        <ele>224.2</ele>
        <time>2022-03-10T14:18:17Z</time>
      </trkpt>
      <trkpt lat="46.37975" lon="5.28212">
        <ele>224.4</ele>
        <time>2022-03-10T14:18:18Z</time>
      </trkpt>
      <trkpt lat="46.37965" lon="5.28229">
        <ele>225.4</ele>
        <time>2022-03-10T14:18:23Z</time>
      </trkpt>
      <trkpt lat="46.37962" lon="5.28232">
        <ele>225.8</ele>
        <time>2022-03-10T14:18:24Z</time>
      </trkpt>
      <trkpt lat="46.37958" lon="5.28238">
        <ele>226.6</ele>
        <time>2022-03-10T14:18:26Z</time>
      </trkpt>
      <trkpt lat="46.37951" lon="5.28251">
        <ele>228</ele>
        <time>2022-03-10T14:18:30Z</time>
      </trkpt>
      <trkpt lat="46.37945" lon="5.28262">
        <ele>229.4</ele>
        <time>2022-03-10T14:18:33Z</time>
      </trkpt>
      <trkpt lat="46.37943" lon="5.28265">
        <ele>229.8</ele>
        <time>2022-03-10T14:18:34Z</time>
      </trkpt>
      <trkpt lat="46.37935" lon="5.28282">
        <ele>230.6</ele>
        <time>2022-03-10T14:18:38Z</time>
      </trkpt>
      <trkpt lat="46.37931" lon="5.28291">
        <ele>231</ele>
        <time>2022-03-10T14:18:40Z</time>
      </trkpt>
      <trkpt lat="46.37925" lon="5.28304">
        <ele>231.8</ele>
        <time>2022-03-10T14:18:43Z</time>
      </trkpt>
      <trkpt lat="46.37912" lon="5.28329">
        <ele>232</ele>
        <time>2022-03-10T14:18:48Z</time>
      </trkpt>
      <trkpt lat="46.37891" lon="5.28365">
        <ele>231.6</ele>
        <time>2022-03-10T14:18:53Z</time>
      </trkpt>
      <trkpt lat="46.37873" lon="5.28405">
        <ele>230.4</ele>
        <time>2022-03-10T14:18:57Z</time>
      </trkpt>
      <trkpt lat="46.37868" lon="5.28418">
        <ele>229.8</ele>
        <time>2022-03-10T14:18:58Z</time>
      </trkpt>
      <trkpt lat="46.37864" lon="5.2843">
        <ele>229</ele>
        <time>2022-03-10T14:18:59Z</time>
      </trkpt>
      <trkpt lat="46.37855" lon="5.28458">
        <ele>228</ele>
        <time>2022-03-10T14:19:01Z</time>
      </trkpt>
      <trkpt lat="46.37848" lon="5.28487">
        <ele>226.8</ele>
        <time>2022-03-10T14:19:03Z</time>
      </trkpt>
      <trkpt lat="46.37845" lon="5.28502">
        <ele>225.8</ele>
        <time>2022-03-10T14:19:04Z</time>
      </trkpt>
      <trkpt lat="46.3784" lon="5.28532">
        <ele>224.2</ele>
        <time>2022-03-10T14:19:06Z</time>
      </trkpt>
      <trkpt lat="46.37836" lon="5.28562">
        <ele>222.6</ele>
        <time>2022-03-10T14:19:08Z</time>
      </trkpt>
      <trkpt lat="46.37834" lon="5.28577">
        <ele>222.2</ele>
        <time>2022-03-10T14:19:09Z</time>
      </trkpt>
      <trkpt lat="46.37832" lon="5.2859">
        <ele>221.6</ele>
        <time>2022-03-10T14:19:10Z</time>
      </trkpt>
      <trkpt lat="46.37828" lon="5.28606">
        <ele>220.8</ele>
        <time>2022-03-10T14:19:11Z</time>
      </trkpt>
      <trkpt lat="46.37824" lon="5.28615">
        <ele>220.6</ele>
        <time>2022-03-10T14:19:12Z</time>
      </trkpt>
      <trkpt lat="46.37802" lon="5.28666">
        <ele>219.4</ele>
        <time>2022-03-10T14:19:17Z</time>
      </trkpt>
      <trkpt lat="46.37785" lon="5.2872">
        <ele>219.4</ele>
        <time>2022-03-10T14:19:23Z</time>
      </trkpt>
      <trkpt lat="46.37777" lon="5.28753">
        <ele>220.2</ele>
        <time>2022-03-10T14:19:28Z</time>
      </trkpt>
      <trkpt lat="46.37775" lon="5.28763">
        <ele>220.6</ele>
        <time>2022-03-10T14:19:30Z</time>
      </trkpt>
      <trkpt lat="46.3777" lon="5.28779">
        <ele>222</ele>
        <time>2022-03-10T14:19:33Z</time>
      </trkpt>
      <trkpt lat="46.37767" lon="5.28788">
        <ele>223</ele>
        <time>2022-03-10T14:19:35Z</time>
      </trkpt>
      <trkpt lat="46.37766" lon="5.28793">
        <ele>223.4</ele>
        <time>2022-03-10T14:19:36Z</time>
      </trkpt>
      <trkpt lat="46.37758" lon="5.28817">
        <ele>224.4</ele>
        <time>2022-03-10T14:19:41Z</time>
      </trkpt>
      <trkpt lat="46.37756" lon="5.28822">
        <ele>224.6</ele>
        <time>2022-03-10T14:19:42Z</time>
      </trkpt>
      <trkpt lat="46.37741" lon="5.28857">
        <ele>225.6</ele>
        <time>2022-03-10T14:19:49Z</time>
      </trkpt>
      <trkpt lat="46.37725" lon="5.28883">
        <ele>226.6</ele>
        <time>2022-03-10T14:19:55Z</time>
      </trkpt>
      <trkpt lat="46.3772" lon="5.2889">
        <ele>227</ele>
        <time>2022-03-10T14:19:57Z</time>
      </trkpt>
      <trkpt lat="46.37717" lon="5.28892">
        <ele>227</ele>
        <time>2022-03-10T14:19:58Z</time>
      </trkpt>
      <trkpt lat="46.3771" lon="5.289">
        <ele>228</ele>
        <time>2022-03-10T14:20:01Z</time>
      </trkpt>
      <trkpt lat="46.37702" lon="5.28908">
        <ele>229.2</ele>
        <time>2022-03-10T14:20:04Z</time>
      </trkpt>
      <trkpt lat="46.37696" lon="5.2891">
        <ele>229.8</ele>
        <time>2022-03-10T14:20:06Z</time>
      </trkpt>
      <trkpt lat="46.37688" lon="5.28915">
        <ele>230.2</ele>
        <time>2022-03-10T14:20:09Z</time>
      </trkpt>
      <trkpt lat="46.37683" lon="5.28918">
        <ele>231.6</ele>
        <time>2022-03-10T14:20:11Z</time>
      </trkpt>
      <trkpt lat="46.37672" lon="5.28923">
        <ele>232.4</ele>
        <time>2022-03-10T14:20:15Z</time>
      </trkpt>
      <trkpt lat="46.37666" lon="5.28927">
        <ele>232.6</ele>
        <time>2022-03-10T14:20:17Z</time>
      </trkpt>
      <trkpt lat="46.37651" lon="5.28939">
        <ele>233.6</ele>
        <time>2022-03-10T14:20:22Z</time>
      </trkpt>
      <trkpt lat="46.37645" lon="5.28945">
        <ele>233.8</ele>
        <time>2022-03-10T14:20:24Z</time>
      </trkpt>
      <trkpt lat="46.37628" lon="5.28965">
        <ele>234.8</ele>
        <time>2022-03-10T14:20:29Z</time>
      </trkpt>
      <trkpt lat="46.37598" lon="5.29002">
        <ele>234.2</ele>
        <time>2022-03-10T14:20:36Z</time>
      </trkpt>
      <trkpt lat="46.37555" lon="5.2905">
        <ele>233.8</ele>
        <time>2022-03-10T14:20:45Z</time>
      </trkpt>
      <trkpt lat="46.3752" lon="5.2909">
        <ele>233</ele>
        <time>2022-03-10T14:20:52Z</time>
      </trkpt>
      <trkpt lat="46.37516" lon="5.29096">
        <ele>232.8</ele>
        <time>2022-03-10T14:20:53Z</time>
      </trkpt>
      <trkpt lat="46.37491" lon="5.29133">
        <ele>232.4</ele>
        <time>2022-03-10T14:20:59Z</time>
      </trkpt>
      <trkpt lat="46.37488" lon="5.29141">
        <ele>232.4</ele>
        <time>2022-03-10T14:21:00Z</time>
      </trkpt>
      <trkpt lat="46.37485" lon="5.29148">
        <ele>232.4</ele>
        <time>2022-03-10T14:21:01Z</time>
      </trkpt>
      <trkpt lat="46.37477" lon="5.29177">
        <ele>232.6</ele>
        <time>2022-03-10T14:21:05Z</time>
      </trkpt>
      <trkpt lat="46.37467" lon="5.29231">
        <ele>233.4</ele>
        <time>2022-03-10T14:21:13Z</time>
      </trkpt>
      <trkpt lat="46.37463" lon="5.29251">
        <ele>234</ele>
        <time>2022-03-10T14:21:16Z</time>
      </trkpt>
      <trkpt lat="46.37459" lon="5.29264">
        <ele>235.4</ele>
        <time>2022-03-10T14:21:18Z</time>
      </trkpt>
      <trkpt lat="46.37453" lon="5.29273">
        <ele>236</ele>
        <time>2022-03-10T14:21:20Z</time>
      </trkpt>
      <trkpt lat="46.37445" lon="5.29274">
        <ele>236.4</ele>
        <time>2022-03-10T14:21:22Z</time>
      </trkpt>
      <trkpt lat="46.37442" lon="5.2927">
        <ele>236.4</ele>
        <time>2022-03-10T14:21:23Z</time>
      </trkpt>
      <trkpt lat="46.37427" lon="5.29249">
        <ele>237.6</ele>
        <time>2022-03-10T14:21:27Z</time>
      </trkpt>
      <trkpt lat="46.37417" lon="5.2923">
        <ele>238.2</ele>
        <time>2022-03-10T14:21:30Z</time>
      </trkpt>
      <trkpt lat="46.37403" lon="5.29185">
        <ele>238.6</ele>
        <time>2022-03-10T14:21:36Z</time>
      </trkpt>
      <trkpt lat="46.374" lon="5.29178">
        <ele>238.6</ele>
        <time>2022-03-10T14:21:37Z</time>
      </trkpt>
      <trkpt lat="46.3738" lon="5.29148">
        <ele>238.6</ele>
        <time>2022-03-10T14:21:42Z</time>
      </trkpt>
      <trkpt lat="46.3736" lon="5.29112">
        <ele>239.2</ele>
        <time>2022-03-10T14:21:48Z</time>
      </trkpt>
      <trkpt lat="46.37351" lon="5.29076">
        <ele>239.6</ele>
        <time>2022-03-10T14:21:53Z</time>
      </trkpt>
      <trkpt lat="46.37349" lon="5.29069">
        <ele>239.8</ele>
        <time>2022-03-10T14:21:54Z</time>
      </trkpt>
      <trkpt lat="46.37346" lon="5.29062">
        <ele>239.8</ele>
        <time>2022-03-10T14:21:55Z</time>
      </trkpt>
      <trkpt lat="46.37338" lon="5.29051">
        <ele>239.8</ele>
        <time>2022-03-10T14:21:57Z</time>
      </trkpt>
      <trkpt lat="46.37334" lon="5.29047">
        <ele>239.8</ele>
        <time>2022-03-10T14:21:58Z</time>
      </trkpt>
      <trkpt lat="46.37299" lon="5.2903">
        <ele>240.2</ele>
        <time>2022-03-10T14:22:05Z</time>
      </trkpt>
      <trkpt lat="46.37284" lon="5.29028">
        <ele>240.6</ele>
        <time>2022-03-10T14:22:08Z</time>
      </trkpt>
      <trkpt lat="46.37274" lon="5.29029">
        <ele>240.8</ele>
        <time>2022-03-10T14:22:10Z</time>
      </trkpt>
      <trkpt lat="46.37269" lon="5.29031">
        <ele>240.8</ele>
        <time>2022-03-10T14:22:11Z</time>
      </trkpt>
      <trkpt lat="46.37264" lon="5.29034">
        <ele>240.8</ele>
        <time>2022-03-10T14:22:12Z</time>
      </trkpt>
      <trkpt lat="46.37246" lon="5.29049">
        <ele>241.2</ele>
        <time>2022-03-10T14:22:16Z</time>
      </trkpt>
      <trkpt lat="46.37237" lon="5.29056">
        <ele>241.4</ele>
        <time>2022-03-10T14:22:18Z</time>
      </trkpt>
      <trkpt lat="46.37227" lon="5.2906">
        <ele>241.8</ele>
        <time>2022-03-10T14:22:20Z</time>
      </trkpt>
      <trkpt lat="46.37222" lon="5.29061">
        <ele>242</ele>
        <time>2022-03-10T14:22:21Z</time>
      </trkpt>
      <trkpt lat="46.37182" lon="5.29061">
        <ele>242.6</ele>
        <time>2022-03-10T14:22:29Z</time>
      </trkpt>
      <trkpt lat="46.37172" lon="5.29059">
        <ele>243</ele>
        <time>2022-03-10T14:22:31Z</time>
      </trkpt>
      <trkpt lat="46.37163" lon="5.29051">
        <ele>243</ele>
        <time>2022-03-10T14:22:33Z</time>
      </trkpt>
      <trkpt lat="46.37156" lon="5.29029">
        <ele>242.8</ele>
        <time>2022-03-10T14:22:36Z</time>
      </trkpt>
      <trkpt lat="46.37149" lon="5.29015">
        <ele>242.8</ele>
        <time>2022-03-10T14:22:38Z</time>
      </trkpt>
      <trkpt lat="46.37144" lon="5.29011">
        <ele>243</ele>
        <time>2022-03-10T14:22:39Z</time>
      </trkpt>
      <trkpt lat="46.37138" lon="5.29008">
        <ele>243</ele>
        <time>2022-03-10T14:22:40Z</time>
      </trkpt>
      <trkpt lat="46.37126" lon="5.29005">
        <ele>242.8</ele>
        <time>2022-03-10T14:22:42Z</time>
      </trkpt>
      <trkpt lat="46.3712" lon="5.29005">
        <ele>242.6</ele>
        <time>2022-03-10T14:22:43Z</time>
      </trkpt>
      <trkpt lat="46.37085" lon="5.2901">
        <ele>242.8</ele>
        <time>2022-03-10T14:22:49Z</time>
      </trkpt>
      <trkpt lat="46.37045" lon="5.29017">
        <ele>243</ele>
        <time>2022-03-10T14:22:56Z</time>
      </trkpt>
      <trkpt lat="46.37039" lon="5.2902">
        <ele>243</ele>
        <time>2022-03-10T14:22:57Z</time>
      </trkpt>
      <trkpt lat="46.37035" lon="5.29025">
        <ele>243</ele>
        <time>2022-03-10T14:22:58Z</time>
      </trkpt>
      <trkpt lat="46.3703" lon="5.2904">
        <ele>243</ele>
        <time>2022-03-10T14:23:00Z</time>
      </trkpt>
      <trkpt lat="46.37032" lon="5.29057">
        <ele>243</ele>
        <time>2022-03-10T14:23:02Z</time>
      </trkpt>
      <trkpt lat="46.37033" lon="5.29065">
        <ele>243</ele>
        <time>2022-03-10T14:23:03Z</time>
      </trkpt>
      <trkpt lat="46.37049" lon="5.29143">
        <ele>242.2</ele>
        <time>2022-03-10T14:23:12Z</time>
      </trkpt>
      <trkpt lat="46.37047" lon="5.29152">
        <ele>242.2</ele>
        <time>2022-03-10T14:23:13Z</time>
      </trkpt>
      <trkpt lat="46.37044" lon="5.29159">
        <ele>242.2</ele>
        <time>2022-03-10T14:23:14Z</time>
      </trkpt>
      <trkpt lat="46.37039" lon="5.29162">
        <ele>242</ele>
        <time>2022-03-10T14:23:15Z</time>
      </trkpt>
      <trkpt lat="46.37032" lon="5.29164">
        <ele>242</ele>
        <time>2022-03-10T14:23:16Z</time>
      </trkpt>
      <trkpt lat="46.37026" lon="5.29164">
        <ele>242</ele>
        <time>2022-03-10T14:23:17Z</time>
      </trkpt>
      <trkpt lat="46.37005" lon="5.29166">
        <ele>241.8</ele>
        <time>2022-03-10T14:23:20Z</time>
      </trkpt>
      <trkpt lat="46.36969" lon="5.29164">
        <ele>241.6</ele>
        <time>2022-03-10T14:23:25Z</time>
      </trkpt>
      <trkpt lat="46.36947" lon="5.29157">
        <ele>241.8</ele>
        <time>2022-03-10T14:23:28Z</time>
      </trkpt>
      <trkpt lat="46.36934" lon="5.29148">
        <ele>241.8</ele>
        <time>2022-03-10T14:23:30Z</time>
      </trkpt>
      <trkpt lat="46.36906" lon="5.29115">
        <ele>242</ele>
        <time>2022-03-10T14:23:35Z</time>
      </trkpt>
      <trkpt lat="46.36881" lon="5.29087">
        <ele>242.2</ele>
        <time>2022-03-10T14:23:40Z</time>
      </trkpt>
      <trkpt lat="46.36875" lon="5.29083">
        <ele>242.2</ele>
        <time>2022-03-10T14:23:41Z</time>
      </trkpt>
      <trkpt lat="46.36863" lon="5.29075">
        <ele>242</ele>
        <time>2022-03-10T14:23:43Z</time>
      </trkpt>
      <trkpt lat="46.36843" lon="5.29068">
        <ele>241.4</ele>
        <time>2022-03-10T14:23:46Z</time>
      </trkpt>
      <trkpt lat="46.36836" lon="5.29067">
        <ele>241.2</ele>
        <time>2022-03-10T14:23:47Z</time>
      </trkpt>
      <trkpt lat="46.36829" lon="5.29067">
        <ele>241</ele>
        <time>2022-03-10T14:23:48Z</time>
      </trkpt>
      <trkpt lat="46.36809" lon="5.29068">
        <ele>240.8</ele>
        <time>2022-03-10T14:23:51Z</time>
      </trkpt>
      <trkpt lat="46.36802" lon="5.2907">
        <ele>240.6</ele>
        <time>2022-03-10T14:23:52Z</time>
      </trkpt>
      <trkpt lat="46.36784" lon="5.29075">
        <ele>240</ele>
        <time>2022-03-10T14:23:55Z</time>
      </trkpt>
      <trkpt lat="46.3678" lon="5.29076">
        <ele>239.8</ele>
        <time>2022-03-10T14:23:56Z</time>
      </trkpt>
      <trkpt lat="46.3677" lon="5.29073">
        <ele>239.2</ele>
        <time>2022-03-10T14:23:59Z</time>
      </trkpt>
      <trkpt lat="46.36767" lon="5.29069">
        <ele>239.2</ele>
        <time>2022-03-10T14:24:00Z</time>
      </trkpt>
      <trkpt lat="46.3676" lon="5.29059">
        <ele>239.2</ele>
        <time>2022-03-10T14:24:02Z</time>
      </trkpt>
      <trkpt lat="46.36755" lon="5.29054">
        <ele>239.2</ele>
        <time>2022-03-10T14:24:03Z</time>
      </trkpt>
      <trkpt lat="46.36732" lon="5.29026">
        <ele>239</ele>
        <time>2022-03-10T14:24:08Z</time>
      </trkpt>
      <trkpt lat="46.36719" lon="5.29019">
        <ele>239</ele>
        <time>2022-03-10T14:24:10Z</time>
      </trkpt>
      <trkpt lat="46.36712" lon="5.29017">
        <ele>238.8</ele>
        <time>2022-03-10T14:24:11Z</time>
      </trkpt>
      <trkpt lat="46.36698" lon="5.29017">
        <ele>238.6</ele>
        <time>2022-03-10T14:24:13Z</time>
      </trkpt>
      <trkpt lat="46.36677" lon="5.29019">
        <ele>238.4</ele>
        <time>2022-03-10T14:24:16Z</time>
      </trkpt>
      <trkpt lat="46.3662" lon="5.29026">
        <ele>238</ele>
        <time>2022-03-10T14:24:25Z</time>
      </trkpt>
      <trkpt lat="46.36564" lon="5.29035">
        <ele>238</ele>
        <time>2022-03-10T14:24:34Z</time>
      </trkpt>
      <trkpt lat="46.36551" lon="5.29037">
        <ele>238</ele>
        <time>2022-03-10T14:24:36Z</time>
      </trkpt>
      <trkpt lat="46.36538" lon="5.29038">
        <ele>237.8</ele>
        <time>2022-03-10T14:24:38Z</time>
      </trkpt>
      <trkpt lat="46.36493" lon="5.29042">
        <ele>237.8</ele>
        <time>2022-03-10T14:24:45Z</time>
      </trkpt>
      <trkpt lat="46.36435" lon="5.29046">
        <ele>238.4</ele>
        <time>2022-03-10T14:24:54Z</time>
      </trkpt>
      <trkpt lat="46.36423" lon="5.29047">
        <ele>238.6</ele>
        <time>2022-03-10T14:24:56Z</time>
      </trkpt>
      <trkpt lat="46.3637" lon="5.29053">
        <ele>238.8</ele>
        <time>2022-03-10T14:25:05Z</time>
      </trkpt>
      <trkpt lat="46.36353" lon="5.29056">
        <ele>239</ele>
        <time>2022-03-10T14:25:08Z</time>
      </trkpt>
      <trkpt lat="46.36318" lon="5.29063">
        <ele>239</ele>
        <time>2022-03-10T14:25:15Z</time>
      </trkpt>
      <trkpt lat="46.36298" lon="5.29067">
        <ele>239.2</ele>
        <time>2022-03-10T14:25:19Z</time>
      </trkpt>
      <trkpt lat="46.36278" lon="5.29071">
        <ele>239.6</ele>
        <time>2022-03-10T14:25:23Z</time>
      </trkpt>
      <trkpt lat="46.36258" lon="5.29077">
        <ele>239.8</ele>
        <time>2022-03-10T14:25:27Z</time>
      </trkpt>
      <trkpt lat="46.36254" lon="5.2908">
        <ele>240</ele>
        <time>2022-03-10T14:25:28Z</time>
      </trkpt>
      <trkpt lat="46.3625" lon="5.29085">
        <ele>240.2</ele>
        <time>2022-03-10T14:25:29Z</time>
      </trkpt>
      <trkpt lat="46.36243" lon="5.29097">
        <ele>240.2</ele>
        <time>2022-03-10T14:25:31Z</time>
      </trkpt>
      <trkpt lat="46.36238" lon="5.2911">
        <ele>240.4</ele>
        <time>2022-03-10T14:25:33Z</time>
      </trkpt>
      <trkpt lat="46.36234" lon="5.29116">
        <ele>240.4</ele>
        <time>2022-03-10T14:25:34Z</time>
      </trkpt>
      <trkpt lat="46.3623" lon="5.29119">
        <ele>240.4</ele>
        <time>2022-03-10T14:25:35Z</time>
      </trkpt>
      <trkpt lat="46.36221" lon="5.29123">
        <ele>240.6</ele>
        <time>2022-03-10T14:25:37Z</time>
      </trkpt>
      <trkpt lat="46.36212" lon="5.29126">
        <ele>240.8</ele>
        <time>2022-03-10T14:25:39Z</time>
      </trkpt>
      <trkpt lat="46.36208" lon="5.2913">
        <ele>241</ele>
        <time>2022-03-10T14:25:40Z</time>
      </trkpt>
      <trkpt lat="46.36204" lon="5.29135">
        <ele>241.2</ele>
        <time>2022-03-10T14:25:41Z</time>
      </trkpt>
      <trkpt lat="46.36201" lon="5.29149">
        <ele>241.4</ele>
        <time>2022-03-10T14:25:43Z</time>
      </trkpt>
      <trkpt lat="46.36201" lon="5.29157">
        <ele>241.4</ele>
        <time>2022-03-10T14:25:44Z</time>
      </trkpt>
      <trkpt lat="46.36204" lon="5.29183">
        <ele>241.6</ele>
        <time>2022-03-10T14:25:47Z</time>
      </trkpt>
      <trkpt lat="46.36209" lon="5.29201">
        <ele>241.4</ele>
        <time>2022-03-10T14:25:49Z</time>
      </trkpt>
      <trkpt lat="46.36225" lon="5.29257">
        <ele>240</ele>
        <time>2022-03-10T14:25:54Z</time>
      </trkpt>
      <trkpt lat="46.3623" lon="5.29285">
        <ele>238.6</ele>
        <time>2022-03-10T14:25:56Z</time>
      </trkpt>
      <trkpt lat="46.36234" lon="5.29312">
        <ele>237.4</ele>
        <time>2022-03-10T14:25:58Z</time>
      </trkpt>
      <trkpt lat="46.36236" lon="5.29338">
        <ele>236.8</ele>
        <time>2022-03-10T14:26:00Z</time>
      </trkpt>
      <trkpt lat="46.36238" lon="5.2936">
        <ele>236.4</ele>
        <time>2022-03-10T14:26:02Z</time>
      </trkpt>
      <trkpt lat="46.36245" lon="5.29406">
        <ele>235.6</ele>
        <time>2022-03-10T14:26:06Z</time>
      </trkpt>
      <trkpt lat="46.36248" lon="5.29447">
        <ele>235.6</ele>
        <time>2022-03-10T14:26:10Z</time>
      </trkpt>
      <trkpt lat="46.36246" lon="5.29455">
        <ele>235.6</ele>
        <time>2022-03-10T14:26:11Z</time>
      </trkpt>
      <trkpt lat="46.36243" lon="5.2946">
        <ele>235.6</ele>
        <time>2022-03-10T14:26:12Z</time>
      </trkpt>
      <trkpt lat="46.36238" lon="5.29464">
        <ele>235.8</ele>
        <time>2022-03-10T14:26:13Z</time>
      </trkpt>
      <trkpt lat="46.36233" lon="5.29466">
        <ele>236</ele>
        <time>2022-03-10T14:26:14Z</time>
      </trkpt>
      <trkpt lat="46.36223" lon="5.29471">
        <ele>236.6</ele>
        <time>2022-03-10T14:26:16Z</time>
      </trkpt>
      <trkpt lat="46.36218" lon="5.29474">
        <ele>237</ele>
        <time>2022-03-10T14:26:17Z</time>
      </trkpt>
      <trkpt lat="46.36214" lon="5.29478">
        <ele>237.6</ele>
        <time>2022-03-10T14:26:18Z</time>
      </trkpt>
      <trkpt lat="46.36198" lon="5.29496">
        <ele>238.6</ele>
        <time>2022-03-10T14:26:22Z</time>
      </trkpt>
      <trkpt lat="46.36191" lon="5.29505">
        <ele>239.2</ele>
        <time>2022-03-10T14:26:24Z</time>
      </trkpt>
      <trkpt lat="46.36179" lon="5.29516">
        <ele>239.8</ele>
        <time>2022-03-10T14:26:27Z</time>
      </trkpt>
      <trkpt lat="46.36161" lon="5.29525">
        <ele>240.6</ele>
        <time>2022-03-10T14:26:30Z</time>
      </trkpt>
      <trkpt lat="46.36128" lon="5.29531">
        <ele>240.8</ele>
        <time>2022-03-10T14:26:35Z</time>
      </trkpt>
      <trkpt lat="46.36086" lon="5.29536">
        <ele>240.4</ele>
        <time>2022-03-10T14:26:41Z</time>
      </trkpt>
      <trkpt lat="46.36032" lon="5.29542">
        <ele>240</ele>
        <time>2022-03-10T14:26:49Z</time>
      </trkpt>
      <trkpt lat="46.36025" lon="5.29543">
        <ele>239.8</ele>
        <time>2022-03-10T14:26:50Z</time>
      </trkpt>
      <trkpt lat="46.35967" lon="5.2955">
        <ele>239.6</ele>
        <time>2022-03-10T14:26:59Z</time>
      </trkpt>
      <trkpt lat="46.3596" lon="5.29551">
        <ele>239.6</ele>
        <time>2022-03-10T14:27:00Z</time>
      </trkpt>
      <trkpt lat="46.3591" lon="5.29554">
        <ele>239.6</ele>
        <time>2022-03-10T14:27:08Z</time>
      </trkpt>
      <trkpt lat="46.35898" lon="5.29554">
        <ele>239.8</ele>
        <time>2022-03-10T14:27:10Z</time>
      </trkpt>
      <trkpt lat="46.35886" lon="5.29551">
        <ele>240</ele>
        <time>2022-03-10T14:27:12Z</time>
      </trkpt>
      <trkpt lat="46.35844" lon="5.29543">
        <ele>241</ele>
        <time>2022-03-10T14:27:20Z</time>
      </trkpt>
      <trkpt lat="46.35838" lon="5.29542">
        <ele>241</ele>
        <time>2022-03-10T14:27:21Z</time>
      </trkpt>
      <trkpt lat="46.35826" lon="5.29541">
        <ele>241.4</ele>
        <time>2022-03-10T14:27:23Z</time>
      </trkpt>
      <trkpt lat="46.35804" lon="5.29541">
        <ele>242.2</ele>
        <time>2022-03-10T14:27:27Z</time>
      </trkpt>
      <trkpt lat="46.35799" lon="5.2954">
        <ele>242.4</ele>
        <time>2022-03-10T14:27:28Z</time>
      </trkpt>
      <trkpt lat="46.35784" lon="5.2954">
        <ele>243.2</ele>
        <time>2022-03-10T14:27:31Z</time>
      </trkpt>
      <trkpt lat="46.35771" lon="5.2954">
        <ele>243.6</ele>
        <time>2022-03-10T14:27:34Z</time>
      </trkpt>
      <trkpt lat="46.35748" lon="5.29539">
        <ele>244.2</ele>
        <time>2022-03-10T14:27:39Z</time>
      </trkpt>
      <trkpt lat="46.35734" lon="5.2954">
        <ele>244.4</ele>
        <time>2022-03-10T14:27:42Z</time>
      </trkpt>
      <trkpt lat="46.35712" lon="5.29546">
        <ele>244.8</ele>
        <time>2022-03-10T14:27:47Z</time>
      </trkpt>
      <trkpt lat="46.35702" lon="5.29551">
        <ele>244.8</ele>
        <time>2022-03-10T14:27:49Z</time>
      </trkpt>
      <trkpt lat="46.35677" lon="5.29573">
        <ele>245.2</ele>
        <time>2022-03-10T14:27:55Z</time>
      </trkpt>
      <trkpt lat="46.35672" lon="5.29578">
        <ele>245.2</ele>
        <time>2022-03-10T14:27:56Z</time>
      </trkpt>
      <trkpt lat="46.35637" lon="5.29604">
        <ele>245.2</ele>
        <time>2022-03-10T14:28:03Z</time>
      </trkpt>
      <trkpt lat="46.35591" lon="5.29627">
        <ele>245.4</ele>
        <time>2022-03-10T14:28:12Z</time>
      </trkpt>
      <trkpt lat="46.35581" lon="5.29632">
        <ele>245.4</ele>
        <time>2022-03-10T14:28:14Z</time>
      </trkpt>
      <trkpt lat="46.35561" lon="5.29639">
        <ele>245.4</ele>
        <time>2022-03-10T14:28:18Z</time>
      </trkpt>
      <trkpt lat="46.35527" lon="5.29646">
        <ele>245.6</ele>
        <time>2022-03-10T14:28:24Z</time>
      </trkpt>
      <trkpt lat="46.35504" lon="5.2965">
        <ele>245.6</ele>
        <time>2022-03-10T14:28:28Z</time>
      </trkpt>
      <trkpt lat="46.35493" lon="5.29657">
        <ele>245.4</ele>
        <time>2022-03-10T14:28:30Z</time>
      </trkpt>
      <trkpt lat="46.35485" lon="5.29671">
        <ele>245</ele>
        <time>2022-03-10T14:28:32Z</time>
      </trkpt>
      <trkpt lat="46.35478" lon="5.29684">
        <ele>245</ele>
        <time>2022-03-10T14:28:34Z</time>
      </trkpt>
      <trkpt lat="46.35469" lon="5.29693">
        <ele>244.8</ele>
        <time>2022-03-10T14:28:36Z</time>
      </trkpt>
      <trkpt lat="46.35464" lon="5.29694">
        <ele>244.8</ele>
        <time>2022-03-10T14:28:37Z</time>
      </trkpt>
      <trkpt lat="46.35436" lon="5.29686">
        <ele>244.6</ele>
        <time>2022-03-10T14:28:42Z</time>
      </trkpt>
      <trkpt lat="46.35396" lon="5.29674">
        <ele>245.2</ele>
        <time>2022-03-10T14:28:49Z</time>
      </trkpt>
      <trkpt lat="46.3535" lon="5.29659">
        <ele>246.4</ele>
        <time>2022-03-10T14:28:57Z</time>
      </trkpt>
      <trkpt lat="46.35302" lon="5.29647">
        <ele>246.6</ele>
        <time>2022-03-10T14:29:05Z</time>
      </trkpt>
      <trkpt lat="46.35244" lon="5.29643">
        <ele>246.2</ele>
        <time>2022-03-10T14:29:14Z</time>
      </trkpt>
      <trkpt lat="46.35194" lon="5.29649">
        <ele>245.6</ele>
        <time>2022-03-10T14:29:22Z</time>
      </trkpt>
      <trkpt lat="46.35174" lon="5.29652">
        <ele>245.4</ele>
        <time>2022-03-10T14:29:25Z</time>
      </trkpt>
      <trkpt lat="46.35145" lon="5.29656">
        <ele>245</ele>
        <time>2022-03-10T14:29:29Z</time>
      </trkpt>
      <trkpt lat="46.35116" lon="5.29661">
        <ele>243.8</ele>
        <time>2022-03-10T14:29:33Z</time>
      </trkpt>
      <trkpt lat="46.35109" lon="5.29661">
        <ele>243.4</ele>
        <time>2022-03-10T14:29:34Z</time>
      </trkpt>
      <trkpt lat="46.35087" lon="5.29662">
        <ele>242.8</ele>
        <time>2022-03-10T14:29:37Z</time>
      </trkpt>
      <trkpt lat="46.35074" lon="5.29659">
        <ele>242.6</ele>
        <time>2022-03-10T14:29:39Z</time>
      </trkpt>
      <trkpt lat="46.35067" lon="5.29657">
        <ele>242.4</ele>
        <time>2022-03-10T14:29:40Z</time>
      </trkpt>
      <trkpt lat="46.35038" lon="5.29642">
        <ele>242.4</ele>
        <time>2022-03-10T14:29:45Z</time>
      </trkpt>
      <trkpt lat="46.35022" lon="5.29636">
        <ele>242.6</ele>
        <time>2022-03-10T14:29:48Z</time>
      </trkpt>
      <trkpt lat="46.35001" lon="5.29632">
        <ele>242.8</ele>
        <time>2022-03-10T14:29:52Z</time>
      </trkpt>
      <trkpt lat="46.34977" lon="5.29631">
        <ele>244</ele>
        <time>2022-03-10T14:29:57Z</time>
      </trkpt>
      <trkpt lat="46.34972" lon="5.29633">
        <ele>244.2</ele>
        <time>2022-03-10T14:29:58Z</time>
      </trkpt>
      <trkpt lat="46.34962" lon="5.29638">
        <ele>244.6</ele>
        <time>2022-03-10T14:30:00Z</time>
      </trkpt>
      <trkpt lat="46.34948" lon="5.2965">
        <ele>245</ele>
        <time>2022-03-10T14:30:03Z</time>
      </trkpt>
      <trkpt lat="46.34938" lon="5.2966">
        <ele>245</ele>
        <time>2022-03-10T14:30:05Z</time>
      </trkpt>
      <trkpt lat="46.34925" lon="5.29664">
        <ele>244.8</ele>
        <time>2022-03-10T14:30:07Z</time>
      </trkpt>
      <trkpt lat="46.34908" lon="5.29658">
        <ele>244.6</ele>
        <time>2022-03-10T14:30:10Z</time>
      </trkpt>
      <trkpt lat="46.34903" lon="5.29654">
        <ele>244.6</ele>
        <time>2022-03-10T14:30:11Z</time>
      </trkpt>
      <trkpt lat="46.34874" lon="5.29634">
        <ele>245</ele>
        <time>2022-03-10T14:30:17Z</time>
      </trkpt>
      <trkpt lat="46.34869" lon="5.29631">
        <ele>245</ele>
        <time>2022-03-10T14:30:18Z</time>
      </trkpt>
      <trkpt lat="46.34836" lon="5.29616">
        <ele>245.4</ele>
        <time>2022-03-10T14:30:24Z</time>
      </trkpt>
      <trkpt lat="46.34824" lon="5.29614">
        <ele>245.4</ele>
        <time>2022-03-10T14:30:26Z</time>
      </trkpt>
      <trkpt lat="46.34799" lon="5.29614">
        <ele>245.2</ele>
        <time>2022-03-10T14:30:30Z</time>
      </trkpt>
      <trkpt lat="46.34761" lon="5.29618">
        <ele>245</ele>
        <time>2022-03-10T14:30:36Z</time>
      </trkpt>
      <trkpt lat="46.34747" lon="5.29622">
        <ele>244.8</ele>
        <time>2022-03-10T14:30:38Z</time>
      </trkpt>
      <trkpt lat="46.34735" lon="5.2963">
        <ele>244.8</ele>
        <time>2022-03-10T14:30:40Z</time>
      </trkpt>
      <trkpt lat="46.34716" lon="5.29642">
        <ele>244.4</ele>
        <time>2022-03-10T14:30:43Z</time>
      </trkpt>
      <trkpt lat="46.34703" lon="5.29644">
        <ele>244</ele>
        <time>2022-03-10T14:30:45Z</time>
      </trkpt>
      <trkpt lat="46.34689" lon="5.29641">
        <ele>243.8</ele>
        <time>2022-03-10T14:30:47Z</time>
      </trkpt>
      <trkpt lat="46.34669" lon="5.29637">
        <ele>243.6</ele>
        <time>2022-03-10T14:30:50Z</time>
      </trkpt>
      <trkpt lat="46.34637" lon="5.29633">
        <ele>243.2</ele>
        <time>2022-03-10T14:30:55Z</time>
      </trkpt>
      <trkpt lat="46.3459" lon="5.29621">
        <ele>242.8</ele>
        <time>2022-03-10T14:31:02Z</time>
      </trkpt>
      <trkpt lat="46.34583" lon="5.2962">
        <ele>242.8</ele>
        <time>2022-03-10T14:31:03Z</time>
      </trkpt>
      <trkpt lat="46.34532" lon="5.29612">
        <ele>242</ele>
        <time>2022-03-10T14:31:11Z</time>
      </trkpt>
      <trkpt lat="46.34519" lon="5.29608">
        <ele>242</ele>
        <time>2022-03-10T14:31:13Z</time>
      </trkpt>
      <trkpt lat="46.34485" lon="5.29601">
        <ele>242</ele>
        <time>2022-03-10T14:31:19Z</time>
      </trkpt>
      <trkpt lat="46.34473" lon="5.29598">
        <ele>242.2</ele>
        <time>2022-03-10T14:31:21Z</time>
      </trkpt>
      <trkpt lat="46.34464" lon="5.29591">
        <ele>242.4</ele>
        <time>2022-03-10T14:31:23Z</time>
      </trkpt>
      <trkpt lat="46.3446" lon="5.29585">
        <ele>242.4</ele>
        <time>2022-03-10T14:31:24Z</time>
      </trkpt>
      <trkpt lat="46.34458" lon="5.29578">
        <ele>242.4</ele>
        <time>2022-03-10T14:31:25Z</time>
      </trkpt>
      <trkpt lat="46.34457" lon="5.29563">
        <ele>242.4</ele>
        <time>2022-03-10T14:31:27Z</time>
      </trkpt>
      <trkpt lat="46.34462" lon="5.29534">
        <ele>243.2</ele>
        <time>2022-03-10T14:31:31Z</time>
      </trkpt>
      <trkpt lat="46.34464" lon="5.29518">
        <ele>243.8</ele>
        <time>2022-03-10T14:31:33Z</time>
      </trkpt>
      <trkpt lat="46.34468" lon="5.29487">
        <ele>244.4</ele>
        <time>2022-03-10T14:31:37Z</time>
      </trkpt>
      <trkpt lat="46.34469" lon="5.29471">
        <ele>244.6</ele>
        <time>2022-03-10T14:31:39Z</time>
      </trkpt>
      <trkpt lat="46.34468" lon="5.29464">
        <ele>244.8</ele>
        <time>2022-03-10T14:31:40Z</time>
      </trkpt>
      <trkpt lat="46.34466" lon="5.29456">
        <ele>244.8</ele>
        <time>2022-03-10T14:31:41Z</time>
      </trkpt>
      <trkpt lat="46.3446" lon="5.29443">
        <ele>245.4</ele>
        <time>2022-03-10T14:31:43Z</time>
      </trkpt>
      <trkpt lat="46.34452" lon="5.29432">
        <ele>246</ele>
        <time>2022-03-10T14:31:45Z</time>
      </trkpt>
      <trkpt lat="46.34437" lon="5.29409">
        <ele>246.2</ele>
        <time>2022-03-10T14:31:49Z</time>
      </trkpt>
      <trkpt lat="46.34417" lon="5.29366">
        <ele>246.2</ele>
        <time>2022-03-10T14:31:55Z</time>
      </trkpt>
      <trkpt lat="46.34413" lon="5.29359">
        <ele>246</ele>
        <time>2022-03-10T14:31:56Z</time>
      </trkpt>
      <trkpt lat="46.34402" lon="5.29348">
        <ele>246</ele>
        <time>2022-03-10T14:31:58Z</time>
      </trkpt>
      <trkpt lat="46.34396" lon="5.29344">
        <ele>246</ele>
        <time>2022-03-10T14:31:59Z</time>
      </trkpt>
      <trkpt lat="46.34383" lon="5.29338">
        <ele>245.8</ele>
        <time>2022-03-10T14:32:01Z</time>
      </trkpt>
      <trkpt lat="46.34364" lon="5.29333">
        <ele>245.8</ele>
        <time>2022-03-10T14:32:04Z</time>
      </trkpt>
      <trkpt lat="46.34357" lon="5.2933">
        <ele>245.6</ele>
        <time>2022-03-10T14:32:05Z</time>
      </trkpt>
      <trkpt lat="46.34337" lon="5.29317">
        <ele>245.4</ele>
        <time>2022-03-10T14:32:08Z</time>
      </trkpt>
      <trkpt lat="46.34297" lon="5.29294">
        <ele>244.8</ele>
        <time>2022-03-10T14:32:14Z</time>
      </trkpt>
      <trkpt lat="46.34247" lon="5.29282">
        <ele>244.4</ele>
        <time>2022-03-10T14:32:21Z</time>
      </trkpt>
      <trkpt lat="46.34201" lon="5.29262">
        <ele>244.2</ele>
        <time>2022-03-10T14:32:28Z</time>
      </trkpt>
      <trkpt lat="46.34195" lon="5.2926">
        <ele>244.2</ele>
        <time>2022-03-10T14:32:29Z</time>
      </trkpt>
      <trkpt lat="46.3418" lon="5.2926">
        <ele>244</ele>
        <time>2022-03-10T14:32:31Z</time>
      </trkpt>
      <trkpt lat="46.34136" lon="5.29267">
        <ele>243.4</ele>
        <time>2022-03-10T14:32:37Z</time>
      </trkpt>
      <trkpt lat="46.34122" lon="5.2927">
        <ele>243</ele>
        <time>2022-03-10T14:32:39Z</time>
      </trkpt>
      <trkpt lat="46.34115" lon="5.29273">
        <ele>243</ele>
        <time>2022-03-10T14:32:40Z</time>
      </trkpt>
      <trkpt lat="46.34101" lon="5.29283">
        <ele>242.8</ele>
        <time>2022-03-10T14:32:42Z</time>
      </trkpt>
      <trkpt lat="46.34096" lon="5.2929">
        <ele>242.8</ele>
        <time>2022-03-10T14:32:43Z</time>
      </trkpt>
      <trkpt lat="46.34092" lon="5.29299">
        <ele>242.8</ele>
        <time>2022-03-10T14:32:44Z</time>
      </trkpt>
      <trkpt lat="46.34075" lon="5.29334">
        <ele>242.8</ele>
        <time>2022-03-10T14:32:48Z</time>
      </trkpt>
      <trkpt lat="46.3407" lon="5.29343">
        <ele>242.6</ele>
        <time>2022-03-10T14:32:49Z</time>
      </trkpt>
      <trkpt lat="46.34054" lon="5.29363">
        <ele>242.8</ele>
        <time>2022-03-10T14:32:52Z</time>
      </trkpt>
      <trkpt lat="46.34042" lon="5.2937">
        <ele>242.8</ele>
        <time>2022-03-10T14:32:54Z</time>
      </trkpt>
      <trkpt lat="46.34029" lon="5.29374">
        <ele>242.8</ele>
        <time>2022-03-10T14:32:56Z</time>
      </trkpt>
      <trkpt lat="46.34006" lon="5.29385">
        <ele>243</ele>
        <time>2022-03-10T14:33:00Z</time>
      </trkpt>
      <trkpt lat="46.34001" lon="5.2939">
        <ele>243.2</ele>
        <time>2022-03-10T14:33:01Z</time>
      </trkpt>
      <trkpt lat="46.33974" lon="5.29423">
        <ele>244</ele>
        <time>2022-03-10T14:33:07Z</time>
      </trkpt>
      <trkpt lat="46.33964" lon="5.29442">
        <ele>244.4</ele>
        <time>2022-03-10T14:33:10Z</time>
      </trkpt>
      <trkpt lat="46.33959" lon="5.29457">
        <ele>244.6</ele>
        <time>2022-03-10T14:33:12Z</time>
      </trkpt>
      <trkpt lat="46.3395" lon="5.2949">
        <ele>245.2</ele>
        <time>2022-03-10T14:33:16Z</time>
      </trkpt>
      <trkpt lat="46.33942" lon="5.29504">
        <ele>245.4</ele>
        <time>2022-03-10T14:33:18Z</time>
      </trkpt>
      <trkpt lat="46.3393" lon="5.29512">
        <ele>246</ele>
        <time>2022-03-10T14:33:20Z</time>
      </trkpt>
      <trkpt lat="46.33924" lon="5.29514">
        <ele>246</ele>
        <time>2022-03-10T14:33:21Z</time>
      </trkpt>
      <trkpt lat="46.33897" lon="5.29517">
        <ele>246.2</ele>
        <time>2022-03-10T14:33:26Z</time>
      </trkpt>
      <trkpt lat="46.33851" lon="5.29517">
        <ele>245.8</ele>
        <time>2022-03-10T14:33:34Z</time>
      </trkpt>
      <trkpt lat="46.33812" lon="5.29516">
        <ele>245.4</ele>
        <time>2022-03-10T14:33:40Z</time>
      </trkpt>
      <trkpt lat="46.33781" lon="5.295">
        <ele>245.4</ele>
        <time>2022-03-10T14:33:45Z</time>
      </trkpt>
      <trkpt lat="46.33743" lon="5.29463">
        <ele>245.8</ele>
        <time>2022-03-10T14:33:52Z</time>
      </trkpt>
      <trkpt lat="46.33701" lon="5.29405">
        <ele>246.4</ele>
        <time>2022-03-10T14:34:01Z</time>
      </trkpt>
      <trkpt lat="46.33693" lon="5.29393">
        <ele>246.6</ele>
        <time>2022-03-10T14:34:03Z</time>
      </trkpt>
      <trkpt lat="46.33674" lon="5.29372">
        <ele>247</ele>
        <time>2022-03-10T14:34:07Z</time>
      </trkpt>
      <trkpt lat="46.33657" lon="5.29364">
        <ele>247.2</ele>
        <time>2022-03-10T14:34:10Z</time>
      </trkpt>
      <trkpt lat="46.33651" lon="5.29363">
        <ele>247.2</ele>
        <time>2022-03-10T14:34:11Z</time>
      </trkpt>
      <trkpt lat="46.33645" lon="5.29363">
        <ele>247.2</ele>
        <time>2022-03-10T14:34:12Z</time>
      </trkpt>
      <trkpt lat="46.33622" lon="5.29369">
        <ele>247</ele>
        <time>2022-03-10T14:34:16Z</time>
      </trkpt>
      <trkpt lat="46.3359" lon="5.2937">
        <ele>247.4</ele>
        <time>2022-03-10T14:34:22Z</time>
      </trkpt>
      <trkpt lat="46.33577" lon="5.29367">
        <ele>247.6</ele>
        <time>2022-03-10T14:34:25Z</time>
      </trkpt>
      <trkpt lat="46.33554" lon="5.2936">
        <ele>248.4</ele>
        <time>2022-03-10T14:34:30Z</time>
      </trkpt>
      <trkpt lat="46.33545" lon="5.29357">
        <ele>248.6</ele>
        <time>2022-03-10T14:34:32Z</time>
      </trkpt>
      <trkpt lat="46.33512" lon="5.29345">
        <ele>249</ele>
        <time>2022-03-10T14:34:39Z</time>
      </trkpt>
      <trkpt lat="46.33461" lon="5.2932">
        <ele>248.8</ele>
        <time>2022-03-10T14:34:49Z</time>
      </trkpt>
      <trkpt lat="46.33428" lon="5.29291">
        <ele>247.8</ele>
        <time>2022-03-10T14:34:56Z</time>
      </trkpt>
      <trkpt lat="46.33425" lon="5.29286">
        <ele>247.4</ele>
        <time>2022-03-10T14:34:57Z</time>
      </trkpt>
      <trkpt lat="46.33419" lon="5.2928">
        <ele>246.8</ele>
        <time>2022-03-10T14:34:59Z</time>
      </trkpt>
      <trkpt lat="46.33412" lon="5.29283">
        <ele>246.4</ele>
        <time>2022-03-10T14:35:01Z</time>
      </trkpt>
      <trkpt lat="46.33409" lon="5.29288">
        <ele>246.4</ele>
        <time>2022-03-10T14:35:02Z</time>
      </trkpt>
      <trkpt lat="46.33406" lon="5.29295">
        <ele>246.4</ele>
        <time>2022-03-10T14:35:03Z</time>
      </trkpt>
      <trkpt lat="46.33397" lon="5.29319">
        <ele>246</ele>
        <time>2022-03-10T14:35:06Z</time>
      </trkpt>
      <trkpt lat="46.3337" lon="5.29395">
        <ele>246.2</ele>
        <time>2022-03-10T14:35:15Z</time>
      </trkpt>
      <trkpt lat="46.33351" lon="5.29472">
        <ele>246</ele>
        <time>2022-03-10T14:35:23Z</time>
      </trkpt>
      <trkpt lat="46.33339" lon="5.29545">
        <ele>245.8</ele>
        <time>2022-03-10T14:35:30Z</time>
      </trkpt>
      <trkpt lat="46.33337" lon="5.29555">
        <ele>245.6</ele>
        <time>2022-03-10T14:35:31Z</time>
      </trkpt>
      <trkpt lat="46.33326" lon="5.29624">
        <ele>245.2</ele>
        <time>2022-03-10T14:35:38Z</time>
      </trkpt>
      <trkpt lat="46.33321" lon="5.29655">
        <ele>244.6</ele>
        <time>2022-03-10T14:35:41Z</time>
      </trkpt>
      <trkpt lat="46.33311" lon="5.29716">
        <ele>244</ele>
        <time>2022-03-10T14:35:47Z</time>
      </trkpt>
      <trkpt lat="46.33302" lon="5.29777">
        <ele>243.4</ele>
        <time>2022-03-10T14:35:53Z</time>
      </trkpt>
      <trkpt lat="46.33297" lon="5.29807">
        <ele>243.2</ele>
        <time>2022-03-10T14:35:56Z</time>
      </trkpt>
      <trkpt lat="46.33284" lon="5.29889">
        <ele>242.4</ele>
        <time>2022-03-10T14:36:04Z</time>
      </trkpt>
      <trkpt lat="46.33282" lon="5.299">
        <ele>241.8</ele>
        <time>2022-03-10T14:36:05Z</time>
      </trkpt>
      <trkpt lat="46.3328" lon="5.2991">
        <ele>241.6</ele>
        <time>2022-03-10T14:36:06Z</time>
      </trkpt>
      <trkpt lat="46.33271" lon="5.29964">
        <ele>240.6</ele>
        <time>2022-03-10T14:36:11Z</time>
      </trkpt>
      <trkpt lat="46.33267" lon="5.29985">
        <ele>240.4</ele>
        <time>2022-03-10T14:36:13Z</time>
      </trkpt>
      <trkpt lat="46.33254" lon="5.30068">
        <ele>240.2</ele>
        <time>2022-03-10T14:36:21Z</time>
      </trkpt>
      <trkpt lat="46.33251" lon="5.30088">
        <ele>240.2</ele>
        <time>2022-03-10T14:36:23Z</time>
      </trkpt>
      <trkpt lat="46.33241" lon="5.30153">
        <ele>240.2</ele>
        <time>2022-03-10T14:36:30Z</time>
      </trkpt>
      <trkpt lat="46.33228" lon="5.30235">
        <ele>240</ele>
        <time>2022-03-10T14:36:39Z</time>
      </trkpt>
      <trkpt lat="46.33227" lon="5.30245">
        <ele>239.6</ele>
        <time>2022-03-10T14:36:40Z</time>
      </trkpt>
      <trkpt lat="46.33218" lon="5.30286">
        <ele>238.4</ele>
        <time>2022-03-10T14:36:44Z</time>
      </trkpt>
      <trkpt lat="46.33213" lon="5.30308">
        <ele>237.8</ele>
        <time>2022-03-10T14:36:46Z</time>
      </trkpt>
      <trkpt lat="46.33209" lon="5.30332">
        <ele>237.4</ele>
        <time>2022-03-10T14:36:48Z</time>
      </trkpt>
      <trkpt lat="46.33201" lon="5.3037">
        <ele>236</ele>
        <time>2022-03-10T14:36:51Z</time>
      </trkpt>
      <trkpt lat="46.33199" lon="5.30383">
        <ele>235.8</ele>
        <time>2022-03-10T14:36:52Z</time>
      </trkpt>
      <trkpt lat="46.33188" lon="5.30436">
        <ele>234.6</ele>
        <time>2022-03-10T14:36:56Z</time>
      </trkpt>
      <trkpt lat="46.3318" lon="5.30477">
        <ele>233.8</ele>
        <time>2022-03-10T14:36:59Z</time>
      </trkpt>
      <trkpt lat="46.33177" lon="5.3049">
        <ele>233.4</ele>
        <time>2022-03-10T14:37:00Z</time>
      </trkpt>
      <trkpt lat="46.33169" lon="5.30532">
        <ele>232.4</ele>
        <time>2022-03-10T14:37:03Z</time>
      </trkpt>
      <trkpt lat="46.3316" lon="5.30576">
        <ele>231.4</ele>
        <time>2022-03-10T14:37:06Z</time>
      </trkpt>
      <trkpt lat="46.33155" lon="5.30605">
        <ele>230.4</ele>
        <time>2022-03-10T14:37:08Z</time>
      </trkpt>
      <trkpt lat="46.33149" lon="5.30634">
        <ele>229.4</ele>
        <time>2022-03-10T14:37:10Z</time>
      </trkpt>
      <trkpt lat="46.33143" lon="5.30664">
        <ele>228</ele>
        <time>2022-03-10T14:37:12Z</time>
      </trkpt>
      <trkpt lat="46.3314" lon="5.30678">
        <ele>227.8</ele>
        <time>2022-03-10T14:37:13Z</time>
      </trkpt>
      <trkpt lat="46.33137" lon="5.30692">
        <ele>227</ele>
        <time>2022-03-10T14:37:14Z</time>
      </trkpt>
      <trkpt lat="46.33123" lon="5.3076">
        <ele>226</ele>
        <time>2022-03-10T14:37:19Z</time>
      </trkpt>
      <trkpt lat="46.33119" lon="5.30786">
        <ele>226</ele>
        <time>2022-03-10T14:37:21Z</time>
      </trkpt>
      <trkpt lat="46.33107" lon="5.3085">
        <ele>225.8</ele>
        <time>2022-03-10T14:37:26Z</time>
      </trkpt>
      <trkpt lat="46.3309" lon="5.30936">
        <ele>225</ele>
        <time>2022-03-10T14:37:33Z</time>
      </trkpt>
      <trkpt lat="46.33085" lon="5.30961">
        <ele>224.8</ele>
        <time>2022-03-10T14:37:35Z</time>
      </trkpt>
      <trkpt lat="46.33068" lon="5.31046">
        <ele>224</ele>
        <time>2022-03-10T14:37:42Z</time>
      </trkpt>
      <trkpt lat="46.33063" lon="5.31071">
        <ele>223.6</ele>
        <time>2022-03-10T14:37:44Z</time>
      </trkpt>
      <trkpt lat="46.3306" lon="5.31083">
        <ele>223.4</ele>
        <time>2022-03-10T14:37:45Z</time>
      </trkpt>
      <trkpt lat="46.33044" lon="5.31155">
        <ele>222.6</ele>
        <time>2022-03-10T14:37:51Z</time>
      </trkpt>
      <trkpt lat="46.33042" lon="5.31168">
        <ele>222.4</ele>
        <time>2022-03-10T14:37:52Z</time>
      </trkpt>
      <trkpt lat="46.33026" lon="5.31245">
        <ele>221.2</ele>
        <time>2022-03-10T14:37:58Z</time>
      </trkpt>
      <trkpt lat="46.33019" lon="5.3128">
        <ele>220.6</ele>
        <time>2022-03-10T14:38:01Z</time>
      </trkpt>
      <trkpt lat="46.33015" lon="5.31301">
        <ele>220</ele>
        <time>2022-03-10T14:38:03Z</time>
      </trkpt>
      <trkpt lat="46.33012" lon="5.3131">
        <ele>219.8</ele>
        <time>2022-03-10T14:38:04Z</time>
      </trkpt>
      <trkpt lat="46.33004" lon="5.31326">
        <ele>219.6</ele>
        <time>2022-03-10T14:38:06Z</time>
      </trkpt>
      <trkpt lat="46.32989" lon="5.31345">
        <ele>219.6</ele>
        <time>2022-03-10T14:38:09Z</time>
      </trkpt>
      <trkpt lat="46.32978" lon="5.31356">
        <ele>219.6</ele>
        <time>2022-03-10T14:38:11Z</time>
      </trkpt>
      <trkpt lat="46.32974" lon="5.31363">
        <ele>219.6</ele>
        <time>2022-03-10T14:38:12Z</time>
      </trkpt>
      <trkpt lat="46.32971" lon="5.3137">
        <ele>219.6</ele>
        <time>2022-03-10T14:38:13Z</time>
      </trkpt>
      <trkpt lat="46.32971" lon="5.31388">
        <ele>219.8</ele>
        <time>2022-03-10T14:38:15Z</time>
      </trkpt>
      <trkpt lat="46.32983" lon="5.31412">
        <ele>219.8</ele>
        <time>2022-03-10T14:38:18Z</time>
      </trkpt>
      <trkpt lat="46.32992" lon="5.31441">
        <ele>219.8</ele>
        <time>2022-03-10T14:38:21Z</time>
      </trkpt>
      <trkpt lat="46.33" lon="5.31507">
        <ele>219.4</ele>
        <time>2022-03-10T14:38:27Z</time>
      </trkpt>
      <trkpt lat="46.33006" lon="5.31563">
        <ele>219.4</ele>
        <time>2022-03-10T14:38:32Z</time>
      </trkpt>
      <trkpt lat="46.33025" lon="5.31626">
        <ele>219.4</ele>
        <time>2022-03-10T14:38:38Z</time>
      </trkpt>
      <trkpt lat="46.33047" lon="5.31686">
        <ele>219.6</ele>
        <time>2022-03-10T14:38:44Z</time>
      </trkpt>
      <trkpt lat="46.33064" lon="5.31749">
        <ele>219.6</ele>
        <time>2022-03-10T14:38:50Z</time>
      </trkpt>
      <trkpt lat="46.33082" lon="5.31824">
        <ele>219.2</ele>
        <time>2022-03-10T14:38:57Z</time>
      </trkpt>
      <trkpt lat="46.33085" lon="5.31834">
        <ele>219.2</ele>
        <time>2022-03-10T14:38:58Z</time>
      </trkpt>
      <trkpt lat="46.33107" lon="5.31917">
        <ele>219.6</ele>
        <time>2022-03-10T14:39:06Z</time>
      </trkpt>
      <trkpt lat="46.33124" lon="5.3199">
        <ele>219.6</ele>
        <time>2022-03-10T14:39:13Z</time>
      </trkpt>
      <trkpt lat="46.33143" lon="5.32065">
        <ele>219.8</ele>
        <time>2022-03-10T14:39:20Z</time>
      </trkpt>
      <trkpt lat="46.33146" lon="5.32075">
        <ele>219.8</ele>
        <time>2022-03-10T14:39:21Z</time>
      </trkpt>
      <trkpt lat="46.33164" lon="5.32149">
        <ele>219.8</ele>
        <time>2022-03-10T14:39:28Z</time>
      </trkpt>
      <trkpt lat="46.33172" lon="5.3218">
        <ele>220</ele>
        <time>2022-03-10T14:39:31Z</time>
      </trkpt>
      <trkpt lat="46.33182" lon="5.32209">
        <ele>220.2</ele>
        <time>2022-03-10T14:39:34Z</time>
      </trkpt>
      <trkpt lat="46.33198" lon="5.32246">
        <ele>220.6</ele>
        <time>2022-03-10T14:39:38Z</time>
      </trkpt>
      <trkpt lat="46.33234" lon="5.32318">
        <ele>221</ele>
        <time>2022-03-10T14:39:46Z</time>
      </trkpt>
      <trkpt lat="46.33239" lon="5.32326">
        <ele>221</ele>
        <time>2022-03-10T14:39:47Z</time>
      </trkpt>
      <trkpt lat="46.33275" lon="5.32396">
        <ele>221</ele>
        <time>2022-03-10T14:39:55Z</time>
      </trkpt>
      <trkpt lat="46.33285" lon="5.32413">
        <ele>221.4</ele>
        <time>2022-03-10T14:39:57Z</time>
      </trkpt>
      <trkpt lat="46.33321" lon="5.32483">
        <ele>221.8</ele>
        <time>2022-03-10T14:40:05Z</time>
      </trkpt>
      <trkpt lat="46.33334" lon="5.32508">
        <ele>222</ele>
        <time>2022-03-10T14:40:08Z</time>
      </trkpt>
      <trkpt lat="46.33356" lon="5.32549">
        <ele>222.4</ele>
        <time>2022-03-10T14:40:13Z</time>
      </trkpt>
      <trkpt lat="46.33364" lon="5.32565">
        <ele>222.8</ele>
        <time>2022-03-10T14:40:15Z</time>
      </trkpt>
      <trkpt lat="46.33377" lon="5.32589">
        <ele>223.6</ele>
        <time>2022-03-10T14:40:18Z</time>
      </trkpt>
      <trkpt lat="46.33395" lon="5.32622">
        <ele>224</ele>
        <time>2022-03-10T14:40:22Z</time>
      </trkpt>
      <trkpt lat="46.33433" lon="5.32678">
        <ele>224</ele>
        <time>2022-03-10T14:40:29Z</time>
      </trkpt>
      <trkpt lat="46.33471" lon="5.32715">
        <ele>224.2</ele>
        <time>2022-03-10T14:40:35Z</time>
      </trkpt>
      <trkpt lat="46.33524" lon="5.32753">
        <ele>224.6</ele>
        <time>2022-03-10T14:40:43Z</time>
      </trkpt>
      <trkpt lat="46.33531" lon="5.32757">
        <ele>224.6</ele>
        <time>2022-03-10T14:40:44Z</time>
      </trkpt>
      <trkpt lat="46.3356" lon="5.32775">
        <ele>224.6</ele>
        <time>2022-03-10T14:40:48Z</time>
      </trkpt>
      <trkpt lat="46.33567" lon="5.32779">
        <ele>224.6</ele>
        <time>2022-03-10T14:40:49Z</time>
      </trkpt>
      <trkpt lat="46.33619" lon="5.32814">
        <ele>224.2</ele>
        <time>2022-03-10T14:40:56Z</time>
      </trkpt>
      <trkpt lat="46.33626" lon="5.32821">
        <ele>224.2</ele>
        <time>2022-03-10T14:40:57Z</time>
      </trkpt>
      <trkpt lat="46.33638" lon="5.32839">
        <ele>224.2</ele>
        <time>2022-03-10T14:40:59Z</time>
      </trkpt>
      <trkpt lat="46.33648" lon="5.3286">
        <ele>224</ele>
        <time>2022-03-10T14:41:01Z</time>
      </trkpt>
      <trkpt lat="46.33665" lon="5.32915">
        <ele>224</ele>
        <time>2022-03-10T14:41:06Z</time>
      </trkpt>
      <trkpt lat="46.33672" lon="5.32949">
        <ele>224</ele>
        <time>2022-03-10T14:41:09Z</time>
      </trkpt>
      <trkpt lat="46.33673" lon="5.32974">
        <ele>223.8</ele>
        <time>2022-03-10T14:41:11Z</time>
      </trkpt>
      <trkpt lat="46.33672" lon="5.3306">
        <ele>223.8</ele>
        <time>2022-03-10T14:41:18Z</time>
      </trkpt>
      <trkpt lat="46.33671" lon="5.33072">
        <ele>223.6</ele>
        <time>2022-03-10T14:41:19Z</time>
      </trkpt>
      <trkpt lat="46.33669" lon="5.3314">
        <ele>223.4</ele>
        <time>2022-03-10T14:41:25Z</time>
      </trkpt>
      <trkpt lat="46.33673" lon="5.33185">
        <ele>223.4</ele>
        <time>2022-03-10T14:41:29Z</time>
      </trkpt>
      <trkpt lat="46.33676" lon="5.33196">
        <ele>223.2</ele>
        <time>2022-03-10T14:41:30Z</time>
      </trkpt>
      <trkpt lat="46.33699" lon="5.33258">
        <ele>222.8</ele>
        <time>2022-03-10T14:41:36Z</time>
      </trkpt>
      <trkpt lat="46.33715" lon="5.33287">
        <ele>222.6</ele>
        <time>2022-03-10T14:41:39Z</time>
      </trkpt>
      <trkpt lat="46.33728" lon="5.33302">
        <ele>222.2</ele>
        <time>2022-03-10T14:41:41Z</time>
      </trkpt>
      <trkpt lat="46.33778" lon="5.3335">
        <ele>221.8</ele>
        <time>2022-03-10T14:41:48Z</time>
      </trkpt>
      <trkpt lat="46.33793" lon="5.33364">
        <ele>221.6</ele>
        <time>2022-03-10T14:41:50Z</time>
      </trkpt>
      <trkpt lat="46.33836" lon="5.33405">
        <ele>221.6</ele>
        <time>2022-03-10T14:41:56Z</time>
      </trkpt>
      <trkpt lat="46.33864" lon="5.33432">
        <ele>221.4</ele>
        <time>2022-03-10T14:42:00Z</time>
      </trkpt>
      <trkpt lat="46.33913" lon="5.33479">
        <ele>221</ele>
        <time>2022-03-10T14:42:07Z</time>
      </trkpt>
      <trkpt lat="46.33934" lon="5.33499">
        <ele>221.4</ele>
        <time>2022-03-10T14:42:10Z</time>
      </trkpt>
      <trkpt lat="46.33983" lon="5.33546">
        <ele>222</ele>
        <time>2022-03-10T14:42:17Z</time>
      </trkpt>
      <trkpt lat="46.33997" lon="5.33559">
        <ele>222</ele>
        <time>2022-03-10T14:42:19Z</time>
      </trkpt>
      <trkpt lat="46.34024" lon="5.33585">
        <ele>222.8</ele>
        <time>2022-03-10T14:42:23Z</time>
      </trkpt>
      <trkpt lat="46.34049" lon="5.3361">
        <ele>223</ele>
        <time>2022-03-10T14:42:27Z</time>
      </trkpt>
      <trkpt lat="46.34099" lon="5.33657">
        <ele>223</ele>
        <time>2022-03-10T14:42:35Z</time>
      </trkpt>
      <trkpt lat="46.34112" lon="5.33668">
        <ele>223</ele>
        <time>2022-03-10T14:42:37Z</time>
      </trkpt>
      <trkpt lat="46.34124" lon="5.33681">
        <ele>222.8</ele>
        <time>2022-03-10T14:42:39Z</time>
      </trkpt>
      <trkpt lat="46.34134" lon="5.33698">
        <ele>222.8</ele>
        <time>2022-03-10T14:42:41Z</time>
      </trkpt>
      <trkpt lat="46.3414" lon="5.33717">
        <ele>222.6</ele>
        <time>2022-03-10T14:42:43Z</time>
      </trkpt>
      <trkpt lat="46.34143" lon="5.33738">
        <ele>222.8</ele>
        <time>2022-03-10T14:42:45Z</time>
      </trkpt>
      <trkpt lat="46.34151" lon="5.33824">
        <ele>223.8</ele>
        <time>2022-03-10T14:42:53Z</time>
      </trkpt>
      <trkpt lat="46.34152" lon="5.33834">
        <ele>224</ele>
        <time>2022-03-10T14:42:54Z</time>
      </trkpt>
      <trkpt lat="46.34153" lon="5.33844">
        <ele>224</ele>
        <time>2022-03-10T14:42:55Z</time>
      </trkpt>
      <trkpt lat="46.34159" lon="5.33919">
        <ele>224.4</ele>
        <time>2022-03-10T14:43:03Z</time>
      </trkpt>
      <trkpt lat="46.34167" lon="5.33986">
        <ele>225</ele>
        <time>2022-03-10T14:43:11Z</time>
      </trkpt>
      <trkpt lat="46.3418" lon="5.34046">
        <ele>226</ele>
        <time>2022-03-10T14:43:18Z</time>
      </trkpt>
      <trkpt lat="46.34182" lon="5.34055">
        <ele>226</ele>
        <time>2022-03-10T14:43:19Z</time>
      </trkpt>
      <trkpt lat="46.34196" lon="5.34116">
        <ele>226.2</ele>
        <time>2022-03-10T14:43:26Z</time>
      </trkpt>
      <trkpt lat="46.34214" lon="5.34194">
        <ele>226.2</ele>
        <time>2022-03-10T14:43:35Z</time>
      </trkpt>
      <trkpt lat="46.34216" lon="5.34202">
        <ele>226.2</ele>
        <time>2022-03-10T14:43:36Z</time>
      </trkpt>
      <trkpt lat="46.34237" lon="5.34279">
        <ele>226.6</ele>
        <time>2022-03-10T14:43:45Z</time>
      </trkpt>
      <trkpt lat="46.34241" lon="5.34295">
        <ele>226.8</ele>
        <time>2022-03-10T14:43:47Z</time>
      </trkpt>
      <trkpt lat="46.34248" lon="5.3432">
        <ele>227.2</ele>
        <time>2022-03-10T14:43:50Z</time>
      </trkpt>
      <trkpt lat="46.34262" lon="5.34378">
        <ele>227.4</ele>
        <time>2022-03-10T14:43:57Z</time>
      </trkpt>
      <trkpt lat="46.34269" lon="5.3444">
        <ele>227.4</ele>
        <time>2022-03-10T14:44:04Z</time>
      </trkpt>
      <trkpt lat="46.34275" lon="5.34518">
        <ele>227.2</ele>
        <time>2022-03-10T14:44:12Z</time>
      </trkpt>
      <trkpt lat="46.34289" lon="5.34563">
        <ele>227.4</ele>
        <time>2022-03-10T14:44:17Z</time>
      </trkpt>
      <trkpt lat="46.34317" lon="5.34639">
        <ele>227.8</ele>
        <time>2022-03-10T14:44:26Z</time>
      </trkpt>
      <trkpt lat="46.34324" lon="5.34655">
        <ele>228</ele>
        <time>2022-03-10T14:44:28Z</time>
      </trkpt>
      <trkpt lat="46.3435" lon="5.34726">
        <ele>227.8</ele>
        <time>2022-03-10T14:44:36Z</time>
      </trkpt>
      <trkpt lat="46.34357" lon="5.34745">
        <ele>227.6</ele>
        <time>2022-03-10T14:44:38Z</time>
      </trkpt>
      <trkpt lat="46.34386" lon="5.34821">
        <ele>227.2</ele>
        <time>2022-03-10T14:44:46Z</time>
      </trkpt>
      <trkpt lat="46.34389" lon="5.3483">
        <ele>227.2</ele>
        <time>2022-03-10T14:44:47Z</time>
      </trkpt>
      <trkpt lat="46.34417" lon="5.34904">
        <ele>227.2</ele>
        <time>2022-03-10T14:44:55Z</time>
      </trkpt>
      <trkpt lat="46.34421" lon="5.34913">
        <ele>227</ele>
        <time>2022-03-10T14:44:56Z</time>
      </trkpt>
      <trkpt lat="46.34446" lon="5.34983">
        <ele>226.8</ele>
        <time>2022-03-10T14:45:04Z</time>
      </trkpt>
      <trkpt lat="46.34466" lon="5.35045">
        <ele>227</ele>
        <time>2022-03-10T14:45:11Z</time>
      </trkpt>
      <trkpt lat="46.34487" lon="5.35107">
        <ele>226.8</ele>
        <time>2022-03-10T14:45:18Z</time>
      </trkpt>
      <trkpt lat="46.34501" lon="5.35159">
        <ele>227</ele>
        <time>2022-03-10T14:45:24Z</time>
      </trkpt>
      <trkpt lat="46.34516" lon="5.35205">
        <ele>227.4</ele>
        <time>2022-03-10T14:45:30Z</time>
      </trkpt>
      <trkpt lat="46.34529" lon="5.35244">
        <ele>227.8</ele>
        <time>2022-03-10T14:45:35Z</time>
      </trkpt>
      <trkpt lat="46.34533" lon="5.35249">
        <ele>227.8</ele>
        <time>2022-03-10T14:45:36Z</time>
      </trkpt>
      <trkpt lat="46.34538" lon="5.35251">
        <ele>227.8</ele>
        <time>2022-03-10T14:45:37Z</time>
      </trkpt>
      <trkpt lat="46.34544" lon="5.3525">
        <ele>227.8</ele>
        <time>2022-03-10T14:45:38Z</time>
      </trkpt>
      <trkpt lat="46.34549" lon="5.35247">
        <ele>227.8</ele>
        <time>2022-03-10T14:45:39Z</time>
      </trkpt>
      <trkpt lat="46.34564" lon="5.35235">
        <ele>228</ele>
        <time>2022-03-10T14:45:42Z</time>
      </trkpt>
      <trkpt lat="46.34569" lon="5.35231">
        <ele>228</ele>
        <time>2022-03-10T14:45:43Z</time>
      </trkpt>
      <trkpt lat="46.346" lon="5.35207">
        <ele>229.2</ele>
        <time>2022-03-10T14:45:50Z</time>
      </trkpt>
      <trkpt lat="46.34604" lon="5.35204">
        <ele>229.4</ele>
        <time>2022-03-10T14:45:51Z</time>
      </trkpt>
      <trkpt lat="46.34618" lon="5.35191">
        <ele>230.2</ele>
        <time>2022-03-10T14:45:55Z</time>
      </trkpt>
      <trkpt lat="46.34628" lon="5.35183">
        <ele>230.8</ele>
        <time>2022-03-10T14:45:58Z</time>
      </trkpt>
      <trkpt lat="46.34639" lon="5.35177">
        <ele>231.6</ele>
        <time>2022-03-10T14:46:01Z</time>
      </trkpt>
      <trkpt lat="46.34653" lon="5.35168">
        <ele>232.8</ele>
        <time>2022-03-10T14:46:05Z</time>
      </trkpt>
      <trkpt lat="46.34656" lon="5.35165">
        <ele>233.2</ele>
        <time>2022-03-10T14:46:06Z</time>
      </trkpt>
      <trkpt lat="46.34665" lon="5.35158">
        <ele>233.8</ele>
        <time>2022-03-10T14:46:09Z</time>
      </trkpt>
      <trkpt lat="46.34678" lon="5.35149">
        <ele>235</ele>
        <time>2022-03-10T14:46:13Z</time>
      </trkpt>
      <trkpt lat="46.34687" lon="5.35142">
        <ele>236</ele>
        <time>2022-03-10T14:46:16Z</time>
      </trkpt>
      <trkpt lat="46.34693" lon="5.35137">
        <ele>236.4</ele>
        <time>2022-03-10T14:46:18Z</time>
      </trkpt>
      <trkpt lat="46.34699" lon="5.35132">
        <ele>237</ele>
        <time>2022-03-10T14:46:20Z</time>
      </trkpt>
      <trkpt lat="46.34719" lon="5.35117">
        <ele>238.2</ele>
        <time>2022-03-10T14:46:26Z</time>
      </trkpt>
      <trkpt lat="46.34732" lon="5.35108">
        <ele>239.2</ele>
        <time>2022-03-10T14:46:30Z</time>
      </trkpt>
      <trkpt lat="46.34735" lon="5.35105">
        <ele>239.6</ele>
        <time>2022-03-10T14:46:31Z</time>
      </trkpt>
      <trkpt lat="46.34751" lon="5.35093">
        <ele>240.6</ele>
        <time>2022-03-10T14:46:36Z</time>
      </trkpt>
      <trkpt lat="46.34761" lon="5.35086">
        <ele>241.4</ele>
        <time>2022-03-10T14:46:39Z</time>
      </trkpt>
      <trkpt lat="46.34764" lon="5.35084">
        <ele>241.8</ele>
        <time>2022-03-10T14:46:40Z</time>
      </trkpt>
      <trkpt lat="46.34784" lon="5.3507">
        <ele>243</ele>
        <time>2022-03-10T14:46:46Z</time>
      </trkpt>
      <trkpt lat="46.34797" lon="5.35062">
        <ele>243.8</ele>
        <time>2022-03-10T14:46:50Z</time>
      </trkpt>
      <trkpt lat="46.34804" lon="5.35058">
        <ele>244</ele>
        <time>2022-03-10T14:46:52Z</time>
      </trkpt>
      <trkpt lat="46.3482" lon="5.35048">
        <ele>245</ele>
        <time>2022-03-10T14:46:57Z</time>
      </trkpt>
      <trkpt lat="46.34834" lon="5.3504">
        <ele>245.8</ele>
        <time>2022-03-10T14:47:01Z</time>
      </trkpt>
      <trkpt lat="46.34841" lon="5.35036">
        <ele>246.4</ele>
        <time>2022-03-10T14:47:03Z</time>
      </trkpt>
      <trkpt lat="46.34858" lon="5.35026">
        <ele>247.6</ele>
        <time>2022-03-10T14:47:08Z</time>
      </trkpt>
      <trkpt lat="46.34868" lon="5.3502">
        <ele>248.2</ele>
        <time>2022-03-10T14:47:11Z</time>
      </trkpt>
      <trkpt lat="46.34875" lon="5.35017">
        <ele>248.6</ele>
        <time>2022-03-10T14:47:13Z</time>
      </trkpt>
      <trkpt lat="46.34891" lon="5.35008">
        <ele>249.4</ele>
        <time>2022-03-10T14:47:18Z</time>
      </trkpt>
      <trkpt lat="46.34894" lon="5.35006">
        <ele>249.6</ele>
        <time>2022-03-10T14:47:19Z</time>
      </trkpt>
      <trkpt lat="46.34907" lon="5.34998">
        <ele>250.8</ele>
        <time>2022-03-10T14:47:23Z</time>
      </trkpt>
      <trkpt lat="46.34921" lon="5.34991">
        <ele>251.8</ele>
        <time>2022-03-10T14:47:27Z</time>
      </trkpt>
      <trkpt lat="46.34939" lon="5.34982">
        <ele>252.6</ele>
        <time>2022-03-10T14:47:32Z</time>
      </trkpt>
      <trkpt lat="46.34941" lon="5.3498">
        <ele>253</ele>
        <time>2022-03-10T14:47:33Z</time>
      </trkpt>
      <trkpt lat="46.34961" lon="5.34969">
        <ele>254.2</ele>
        <time>2022-03-10T14:47:39Z</time>
      </trkpt>
      <trkpt lat="46.34972" lon="5.34964">
        <ele>255.4</ele>
        <time>2022-03-10T14:47:42Z</time>
      </trkpt>
      <trkpt lat="46.34975" lon="5.34962">
        <ele>255.8</ele>
        <time>2022-03-10T14:47:43Z</time>
      </trkpt>
      <trkpt lat="46.3499" lon="5.34954">
        <ele>256.4</ele>
        <time>2022-03-10T14:47:47Z</time>
      </trkpt>
      <trkpt lat="46.35009" lon="5.34943">
        <ele>257.6</ele>
        <time>2022-03-10T14:47:52Z</time>
      </trkpt>
      <trkpt lat="46.35013" lon="5.34941">
        <ele>257.8</ele>
        <time>2022-03-10T14:47:53Z</time>
      </trkpt>
      <trkpt lat="46.35036" lon="5.3493">
        <ele>258.8</ele>
        <time>2022-03-10T14:47:59Z</time>
      </trkpt>
      <trkpt lat="46.35055" lon="5.3492">
        <ele>259.8</ele>
        <time>2022-03-10T14:48:04Z</time>
      </trkpt>
      <trkpt lat="46.35064" lon="5.34916">
        <ele>260</ele>
        <time>2022-03-10T14:48:06Z</time>
      </trkpt>
      <trkpt lat="46.3509" lon="5.34902">
        <ele>260.8</ele>
        <time>2022-03-10T14:48:12Z</time>
      </trkpt>
      <trkpt lat="46.35095" lon="5.349">
        <ele>261</ele>
        <time>2022-03-10T14:48:13Z</time>
      </trkpt>
      <trkpt lat="46.35127" lon="5.34889">
        <ele>262.2</ele>
        <time>2022-03-10T14:48:20Z</time>
      </trkpt>
      <trkpt lat="46.35142" lon="5.34885">
        <ele>262.6</ele>
        <time>2022-03-10T14:48:23Z</time>
      </trkpt>
      <trkpt lat="46.35156" lon="5.34881">
        <ele>263.2</ele>
        <time>2022-03-10T14:48:26Z</time>
      </trkpt>
      <trkpt lat="46.3518" lon="5.34875">
        <ele>263.8</ele>
        <time>2022-03-10T14:48:31Z</time>
      </trkpt>
      <trkpt lat="46.35189" lon="5.34872">
        <ele>263.8</ele>
        <time>2022-03-10T14:48:33Z</time>
      </trkpt>
      <trkpt lat="46.35208" lon="5.34866">
        <ele>264.2</ele>
        <time>2022-03-10T14:48:37Z</time>
      </trkpt>
      <trkpt lat="46.35232" lon="5.34859">
        <ele>265.2</ele>
        <time>2022-03-10T14:48:42Z</time>
      </trkpt>
      <trkpt lat="46.35255" lon="5.34852">
        <ele>266.2</ele>
        <time>2022-03-10T14:48:47Z</time>
      </trkpt>
      <trkpt lat="46.35275" lon="5.34848">
        <ele>267</ele>
        <time>2022-03-10T14:48:51Z</time>
      </trkpt>
      <trkpt lat="46.35279" lon="5.34847">
        <ele>267.4</ele>
        <time>2022-03-10T14:48:52Z</time>
      </trkpt>
      <trkpt lat="46.35303" lon="5.34841">
        <ele>268.4</ele>
        <time>2022-03-10T14:48:57Z</time>
      </trkpt>
      <trkpt lat="46.35312" lon="5.34838">
        <ele>268.8</ele>
        <time>2022-03-10T14:48:59Z</time>
      </trkpt>
      <trkpt lat="46.35321" lon="5.34834">
        <ele>269.2</ele>
        <time>2022-03-10T14:49:01Z</time>
      </trkpt>
      <trkpt lat="46.35329" lon="5.3483">
        <ele>269.6</ele>
        <time>2022-03-10T14:49:03Z</time>
      </trkpt>
      <trkpt lat="46.35338" lon="5.34826">
        <ele>270</ele>
        <time>2022-03-10T14:49:05Z</time>
      </trkpt>
      <trkpt lat="46.35354" lon="5.34824">
        <ele>270.6</ele>
        <time>2022-03-10T14:49:08Z</time>
      </trkpt>
      <trkpt lat="46.35375" lon="5.34821">
        <ele>271.2</ele>
        <time>2022-03-10T14:49:12Z</time>
      </trkpt>
      <trkpt lat="46.35385" lon="5.3482">
        <ele>271.8</ele>
        <time>2022-03-10T14:49:14Z</time>
      </trkpt>
      <trkpt lat="46.35423" lon="5.3482">
        <ele>272.6</ele>
        <time>2022-03-10T14:49:21Z</time>
      </trkpt>
      <trkpt lat="46.35434" lon="5.34821">
        <ele>272.8</ele>
        <time>2022-03-10T14:49:23Z</time>
      </trkpt>
      <trkpt lat="46.35461" lon="5.34822">
        <ele>273.2</ele>
        <time>2022-03-10T14:49:28Z</time>
      </trkpt>
      <trkpt lat="46.35466" lon="5.34824">
        <ele>273.4</ele>
        <time>2022-03-10T14:49:29Z</time>
      </trkpt>
      <trkpt lat="46.35476" lon="5.34825">
        <ele>273.8</ele>
        <time>2022-03-10T14:49:31Z</time>
      </trkpt>
      <trkpt lat="46.35486" lon="5.34826">
        <ele>274</ele>
        <time>2022-03-10T14:49:33Z</time>
      </trkpt>
      <trkpt lat="46.35497" lon="5.34827">
        <ele>274.2</ele>
        <time>2022-03-10T14:49:35Z</time>
      </trkpt>
      <trkpt lat="46.35522" lon="5.34828">
        <ele>275</ele>
        <time>2022-03-10T14:49:40Z</time>
      </trkpt>
      <trkpt lat="46.35548" lon="5.34828">
        <ele>276.2</ele>
        <time>2022-03-10T14:49:45Z</time>
      </trkpt>
      <trkpt lat="46.35586" lon="5.34822">
        <ele>277.2</ele>
        <time>2022-03-10T14:49:53Z</time>
      </trkpt>
      <trkpt lat="46.356" lon="5.3482">
        <ele>278.4</ele>
        <time>2022-03-10T14:49:56Z</time>
      </trkpt>
      <trkpt lat="46.35612" lon="5.34819">
        <ele>279.6</ele>
        <time>2022-03-10T14:49:59Z</time>
      </trkpt>
      <trkpt lat="46.35624" lon="5.34817">
        <ele>280.4</ele>
        <time>2022-03-10T14:50:02Z</time>
      </trkpt>
      <trkpt lat="46.35629" lon="5.34817">
        <ele>280.6</ele>
        <time>2022-03-10T14:50:03Z</time>
      </trkpt>
      <trkpt lat="46.35649" lon="5.34812">
        <ele>281.8</ele>
        <time>2022-03-10T14:50:08Z</time>
      </trkpt>
      <trkpt lat="46.35656" lon="5.3481">
        <ele>282.4</ele>
        <time>2022-03-10T14:50:10Z</time>
      </trkpt>
      <trkpt lat="46.35659" lon="5.3481">
        <ele>282.6</ele>
        <time>2022-03-10T14:50:11Z</time>
      </trkpt>
      <trkpt lat="46.3566" lon="5.34811">
        <ele>283</ele>
        <time>2022-03-10T14:50:13Z</time>
      </trkpt>
      <trkpt lat="46.3566" lon="5.34812">
        <ele>283.4</ele>
        <time>2022-03-10T14:50:16Z</time>
      </trkpt>
      <trkpt lat="46.35662" lon="5.34809">
        <ele>284.6</ele>
        <time>2022-03-10T14:51:02Z</time>
      </trkpt>
      <trkpt lat="46.35663" lon="5.34808">
        <ele>284.6</ele>
        <time>2022-03-10T14:51:03Z</time>
      </trkpt>
      <trkpt lat="46.35678" lon="5.34797">
        <ele>284.6</ele>
        <time>2022-03-10T14:51:08Z</time>
      </trkpt>
      <trkpt lat="46.35702" lon="5.3478">
        <ele>284.8</ele>
        <time>2022-03-10T14:51:13Z</time>
      </trkpt>
      <trkpt lat="46.35743" lon="5.34752">
        <ele>285</ele>
        <time>2022-03-10T14:51:20Z</time>
      </trkpt>
      <trkpt lat="46.35798" lon="5.34715">
        <ele>284.4</ele>
        <time>2022-03-10T14:51:28Z</time>
      </trkpt>
      <trkpt lat="46.35848" lon="5.3468">
        <ele>284</ele>
        <time>2022-03-10T14:51:35Z</time>
      </trkpt>
      <trkpt lat="46.35861" lon="5.34671">
        <ele>284</ele>
        <time>2022-03-10T14:51:37Z</time>
      </trkpt>
      <trkpt lat="46.35913" lon="5.34635">
        <ele>285.2</ele>
        <time>2022-03-10T14:51:45Z</time>
      </trkpt>
      <trkpt lat="46.35946" lon="5.34615">
        <ele>285.6</ele>
        <time>2022-03-10T14:51:50Z</time>
      </trkpt>
      <trkpt lat="46.35964" lon="5.34603">
        <ele>286.6</ele>
        <time>2022-03-10T14:51:53Z</time>
      </trkpt>
      <trkpt lat="46.3597" lon="5.34599">
        <ele>286.8</ele>
        <time>2022-03-10T14:51:54Z</time>
      </trkpt>
      <trkpt lat="46.3601" lon="5.34569">
        <ele>287</ele>
        <time>2022-03-10T14:52:00Z</time>
      </trkpt>
      <trkpt lat="46.36035" lon="5.34556">
        <ele>286.2</ele>
        <time>2022-03-10T14:52:03Z</time>
      </trkpt>
      <trkpt lat="46.36044" lon="5.34554">
        <ele>286.2</ele>
        <time>2022-03-10T14:52:04Z</time>
      </trkpt>
      <trkpt lat="46.36063" lon="5.34551">
        <ele>285.8</ele>
        <time>2022-03-10T14:52:06Z</time>
      </trkpt>
      <trkpt lat="46.36093" lon="5.34549">
        <ele>284.8</ele>
        <time>2022-03-10T14:52:09Z</time>
      </trkpt>
      <trkpt lat="46.36103" lon="5.34548">
        <ele>284.4</ele>
        <time>2022-03-10T14:52:10Z</time>
      </trkpt>
      <trkpt lat="46.36124" lon="5.34543">
        <ele>283.4</ele>
        <time>2022-03-10T14:52:12Z</time>
      </trkpt>
      <trkpt lat="46.36135" lon="5.34541">
        <ele>283.2</ele>
        <time>2022-03-10T14:52:13Z</time>
      </trkpt>
      <trkpt lat="46.36146" lon="5.34539">
        <ele>282.6</ele>
        <time>2022-03-10T14:52:14Z</time>
      </trkpt>
      <trkpt lat="46.36157" lon="5.34539">
        <ele>282.2</ele>
        <time>2022-03-10T14:52:15Z</time>
      </trkpt>
      <trkpt lat="46.36169" lon="5.34541">
        <ele>281.6</ele>
        <time>2022-03-10T14:52:16Z</time>
      </trkpt>
      <trkpt lat="46.36183" lon="5.34546">
        <ele>281.2</ele>
        <time>2022-03-10T14:52:17Z</time>
      </trkpt>
      <trkpt lat="46.36203" lon="5.34556">
        <ele>280.6</ele>
        <time>2022-03-10T14:52:19Z</time>
      </trkpt>
      <trkpt lat="46.36212" lon="5.34564">
        <ele>280.2</ele>
        <time>2022-03-10T14:52:20Z</time>
      </trkpt>
      <trkpt lat="46.36219" lon="5.34574">
        <ele>279.4</ele>
        <time>2022-03-10T14:52:21Z</time>
      </trkpt>
      <trkpt lat="46.36224" lon="5.34587">
        <ele>279</ele>
        <time>2022-03-10T14:52:22Z</time>
      </trkpt>
      <trkpt lat="46.36224" lon="5.34602">
        <ele>277.6</ele>
        <time>2022-03-10T14:52:23Z</time>
      </trkpt>
      <trkpt lat="46.3622" lon="5.34617">
        <ele>276.6</ele>
        <time>2022-03-10T14:52:24Z</time>
      </trkpt>
      <trkpt lat="46.36206" lon="5.34644">
        <ele>276</ele>
        <time>2022-03-10T14:52:25Z</time>
      </trkpt>
      <trkpt lat="46.36206" lon="5.34644">
        <ele>274.8</ele>
        <time>2022-03-10T14:52:26Z</time>
      </trkpt>
      <trkpt lat="46.36189" lon="5.34669">
        <ele>273.6</ele>
        <time>2022-03-10T14:52:28Z</time>
      </trkpt>
      <trkpt lat="46.36179" lon="5.34696">
        <ele>271.8</ele>
        <time>2022-03-10T14:52:30Z</time>
      </trkpt>
      <trkpt lat="46.36184" lon="5.34726">
        <ele>270.6</ele>
        <time>2022-03-10T14:52:32Z</time>
      </trkpt>
      <trkpt lat="46.36192" lon="5.34736">
        <ele>270.2</ele>
        <time>2022-03-10T14:52:33Z</time>
      </trkpt>
      <trkpt lat="46.36203" lon="5.34741">
        <ele>269.8</ele>
        <time>2022-03-10T14:52:34Z</time>
      </trkpt>
      <trkpt lat="46.36214" lon="5.34743">
        <ele>268.4</ele>
        <time>2022-03-10T14:52:35Z</time>
      </trkpt>
      <trkpt lat="46.36233" lon="5.34736">
        <ele>267</ele>
        <time>2022-03-10T14:52:37Z</time>
      </trkpt>
      <trkpt lat="46.36265" lon="5.34724">
        <ele>265.2</ele>
        <time>2022-03-10T14:52:40Z</time>
      </trkpt>
      <trkpt lat="46.36276" lon="5.34722">
        <ele>264.8</ele>
        <time>2022-03-10T14:52:41Z</time>
      </trkpt>
      <trkpt lat="46.36288" lon="5.34721">
        <ele>264</ele>
        <time>2022-03-10T14:52:42Z</time>
      </trkpt>
      <trkpt lat="46.3631" lon="5.34725">
        <ele>263</ele>
        <time>2022-03-10T14:52:44Z</time>
      </trkpt>
      <trkpt lat="46.36332" lon="5.34729">
        <ele>261.6</ele>
        <time>2022-03-10T14:52:46Z</time>
      </trkpt>
      <trkpt lat="46.36343" lon="5.34731">
        <ele>261</ele>
        <time>2022-03-10T14:52:47Z</time>
      </trkpt>
      <trkpt lat="46.36366" lon="5.34735">
        <ele>259.8</ele>
        <time>2022-03-10T14:52:49Z</time>
      </trkpt>
      <trkpt lat="46.36388" lon="5.34736">
        <ele>258.2</ele>
        <time>2022-03-10T14:52:51Z</time>
      </trkpt>
      <trkpt lat="46.36399" lon="5.34737">
        <ele>257.8</ele>
        <time>2022-03-10T14:52:52Z</time>
      </trkpt>
      <trkpt lat="46.3642" lon="5.3474">
        <ele>257.2</ele>
        <time>2022-03-10T14:52:54Z</time>
      </trkpt>
      <trkpt lat="46.36441" lon="5.34742">
        <ele>256.4</ele>
        <time>2022-03-10T14:52:56Z</time>
      </trkpt>
      <trkpt lat="46.36452" lon="5.34742">
        <ele>255.6</ele>
        <time>2022-03-10T14:52:57Z</time>
      </trkpt>
      <trkpt lat="46.36471" lon="5.34741">
        <ele>254.4</ele>
        <time>2022-03-10T14:52:59Z</time>
      </trkpt>
      <trkpt lat="46.36488" lon="5.34736">
        <ele>254</ele>
        <time>2022-03-10T14:53:01Z</time>
      </trkpt>
      <trkpt lat="46.36524" lon="5.34721">
        <ele>254.2</ele>
        <time>2022-03-10T14:53:06Z</time>
      </trkpt>
      <trkpt lat="46.36537" lon="5.34713">
        <ele>254.6</ele>
        <time>2022-03-10T14:53:08Z</time>
      </trkpt>
      <trkpt lat="46.36548" lon="5.34701">
        <ele>255.4</ele>
        <time>2022-03-10T14:53:10Z</time>
      </trkpt>
      <trkpt lat="46.36553" lon="5.34694">
        <ele>255.6</ele>
        <time>2022-03-10T14:53:11Z</time>
      </trkpt>
      <trkpt lat="46.36573" lon="5.34663">
        <ele>256.6</ele>
        <time>2022-03-10T14:53:15Z</time>
      </trkpt>
      <trkpt lat="46.36579" lon="5.34656">
        <ele>256.8</ele>
        <time>2022-03-10T14:53:16Z</time>
      </trkpt>
      <trkpt lat="46.36598" lon="5.34639">
        <ele>257.2</ele>
        <time>2022-03-10T14:53:19Z</time>
      </trkpt>
      <trkpt lat="46.36635" lon="5.34628">
        <ele>257.4</ele>
        <time>2022-03-10T14:53:24Z</time>
      </trkpt>
      <trkpt lat="46.36664" lon="5.34626">
        <ele>257.8</ele>
        <time>2022-03-10T14:53:28Z</time>
      </trkpt>
      <trkpt lat="46.36679" lon="5.34625">
        <ele>258.2</ele>
        <time>2022-03-10T14:53:30Z</time>
      </trkpt>
      <trkpt lat="46.36699" lon="5.34624">
        <ele>259</ele>
        <time>2022-03-10T14:53:33Z</time>
      </trkpt>
      <trkpt lat="46.36732" lon="5.3462">
        <ele>259.2</ele>
        <time>2022-03-10T14:53:38Z</time>
      </trkpt>
      <trkpt lat="46.3677" lon="5.34608">
        <ele>260.2</ele>
        <time>2022-03-10T14:53:44Z</time>
      </trkpt>
      <trkpt lat="46.36776" lon="5.34605">
        <ele>260.2</ele>
        <time>2022-03-10T14:53:45Z</time>
      </trkpt>
      <trkpt lat="46.36806" lon="5.34588">
        <ele>261.2</ele>
        <time>2022-03-10T14:53:50Z</time>
      </trkpt>
      <trkpt lat="46.3683" lon="5.34575">
        <ele>262.2</ele>
        <time>2022-03-10T14:53:54Z</time>
      </trkpt>
      <trkpt lat="46.36836" lon="5.34571">
        <ele>262.2</ele>
        <time>2022-03-10T14:53:55Z</time>
      </trkpt>
      <trkpt lat="46.36865" lon="5.34554">
        <ele>263.2</ele>
        <time>2022-03-10T14:54:00Z</time>
      </trkpt>
      <trkpt lat="46.36902" lon="5.34536">
        <ele>264</ele>
        <time>2022-03-10T14:54:06Z</time>
      </trkpt>
      <trkpt lat="46.3692" lon="5.34527">
        <ele>264.4</ele>
        <time>2022-03-10T14:54:09Z</time>
      </trkpt>
      <trkpt lat="46.36962" lon="5.34506">
        <ele>265.2</ele>
        <time>2022-03-10T14:54:16Z</time>
      </trkpt>
      <trkpt lat="46.36974" lon="5.345">
        <ele>265.8</ele>
        <time>2022-03-10T14:54:18Z</time>
      </trkpt>
      <trkpt lat="46.37009" lon="5.34476">
        <ele>266.6</ele>
        <time>2022-03-10T14:54:24Z</time>
      </trkpt>
      <trkpt lat="46.37047" lon="5.34458">
        <ele>267.2</ele>
        <time>2022-03-10T14:54:30Z</time>
      </trkpt>
      <trkpt lat="46.37097" lon="5.34451">
        <ele>267.6</ele>
        <time>2022-03-10T14:54:37Z</time>
      </trkpt>
      <trkpt lat="46.37153" lon="5.34454">
        <ele>266</ele>
        <time>2022-03-10T14:54:44Z</time>
      </trkpt>
      <trkpt lat="46.37169" lon="5.34462">
        <ele>265.8</ele>
        <time>2022-03-10T14:54:46Z</time>
      </trkpt>
      <trkpt lat="46.37208" lon="5.34481">
        <ele>265</ele>
        <time>2022-03-10T14:54:51Z</time>
      </trkpt>
      <trkpt lat="46.37238" lon="5.34494">
        <ele>264.6</ele>
        <time>2022-03-10T14:54:55Z</time>
      </trkpt>
      <trkpt lat="46.37253" lon="5.34494">
        <ele>264.6</ele>
        <time>2022-03-10T14:54:57Z</time>
      </trkpt>
      <trkpt lat="46.37287" lon="5.34482">
        <ele>265.2</ele>
        <time>2022-03-10T14:55:02Z</time>
      </trkpt>
      <trkpt lat="46.3732" lon="5.34469">
        <ele>266.8</ele>
        <time>2022-03-10T14:55:08Z</time>
      </trkpt>
      <trkpt lat="46.37341" lon="5.34455">
        <ele>268</ele>
        <time>2022-03-10T14:55:13Z</time>
      </trkpt>
      <trkpt lat="46.37344" lon="5.34452">
        <ele>268.2</ele>
        <time>2022-03-10T14:55:14Z</time>
      </trkpt>
      <trkpt lat="46.37358" lon="5.34438">
        <ele>269.2</ele>
        <time>2022-03-10T14:55:18Z</time>
      </trkpt>
      <trkpt lat="46.37369" lon="5.34432">
        <ele>270.4</ele>
        <time>2022-03-10T14:55:21Z</time>
      </trkpt>
      <trkpt lat="46.37377" lon="5.3443">
        <ele>270.8</ele>
        <time>2022-03-10T14:55:23Z</time>
      </trkpt>
      <trkpt lat="46.37389" lon="5.34433">
        <ele>271.4</ele>
        <time>2022-03-10T14:55:26Z</time>
      </trkpt>
      <trkpt lat="46.37405" lon="5.34442">
        <ele>272.6</ele>
        <time>2022-03-10T14:55:30Z</time>
      </trkpt>
      <trkpt lat="46.37421" lon="5.34451">
        <ele>273.6</ele>
        <time>2022-03-10T14:55:34Z</time>
      </trkpt>
      <trkpt lat="46.37425" lon="5.34453">
        <ele>274</ele>
        <time>2022-03-10T14:55:35Z</time>
      </trkpt>
      <trkpt lat="46.37436" lon="5.34458">
        <ele>274.6</ele>
        <time>2022-03-10T14:55:38Z</time>
      </trkpt>
      <trkpt lat="46.37452" lon="5.34466">
        <ele>275.6</ele>
        <time>2022-03-10T14:55:42Z</time>
      </trkpt>
      <trkpt lat="46.37465" lon="5.3447">
        <ele>276</ele>
        <time>2022-03-10T14:55:45Z</time>
      </trkpt>
      <trkpt lat="46.37483" lon="5.34474">
        <ele>276.8</ele>
        <time>2022-03-10T14:55:49Z</time>
      </trkpt>
      <trkpt lat="46.37501" lon="5.34478">
        <ele>277.2</ele>
        <time>2022-03-10T14:55:53Z</time>
      </trkpt>
      <trkpt lat="46.37524" lon="5.34484">
        <ele>277.8</ele>
        <time>2022-03-10T14:55:58Z</time>
      </trkpt>
      <trkpt lat="46.37538" lon="5.34487">
        <ele>278.2</ele>
        <time>2022-03-10T14:56:01Z</time>
      </trkpt>
      <trkpt lat="46.37562" lon="5.34493">
        <ele>278.8</ele>
        <time>2022-03-10T14:56:06Z</time>
      </trkpt>
      <trkpt lat="46.37591" lon="5.345">
        <ele>279.6</ele>
        <time>2022-03-10T14:56:12Z</time>
      </trkpt>
      <trkpt lat="46.376" lon="5.34502">
        <ele>279.8</ele>
        <time>2022-03-10T14:56:14Z</time>
      </trkpt>
      <trkpt lat="46.37632" lon="5.34513">
        <ele>280.8</ele>
        <time>2022-03-10T14:56:20Z</time>
      </trkpt>
      <trkpt lat="46.37637" lon="5.34515">
        <ele>281</ele>
        <time>2022-03-10T14:56:21Z</time>
      </trkpt>
      <trkpt lat="46.37671" lon="5.34532">
        <ele>282</ele>
        <time>2022-03-10T14:56:29Z</time>
      </trkpt>
      <trkpt lat="46.37683" lon="5.34537">
        <ele>282.6</ele>
        <time>2022-03-10T14:56:32Z</time>
      </trkpt>
      <trkpt lat="46.37687" lon="5.34538">
        <ele>283.6</ele>
        <time>2022-03-10T14:56:34Z</time>
      </trkpt>
      <trkpt lat="46.37715" lon="5.34545">
        <ele>284.6</ele>
        <time>2022-03-10T14:56:40Z</time>
      </trkpt>
      <trkpt lat="46.37723" lon="5.34546">
        <ele>285.2</ele>
        <time>2022-03-10T14:56:42Z</time>
      </trkpt>
      <trkpt lat="46.37733" lon="5.34549">
        <ele>285.8</ele>
        <time>2022-03-10T14:56:45Z</time>
      </trkpt>
      <trkpt lat="46.37744" lon="5.3455">
        <ele>286.8</ele>
        <time>2022-03-10T14:56:49Z</time>
      </trkpt>
      <trkpt lat="46.37758" lon="5.34552">
        <ele>287.4</ele>
        <time>2022-03-10T14:56:52Z</time>
      </trkpt>
      <trkpt lat="46.37769" lon="5.34554">
        <ele>288</ele>
        <time>2022-03-10T14:56:55Z</time>
      </trkpt>
      <trkpt lat="46.37787" lon="5.34556">
        <ele>289</ele>
        <time>2022-03-10T14:57:00Z</time>
      </trkpt>
      <trkpt lat="46.37795" lon="5.34556">
        <ele>289.8</ele>
        <time>2022-03-10T14:57:03Z</time>
      </trkpt>
      <trkpt lat="46.37805" lon="5.34557">
        <ele>290.2</ele>
        <time>2022-03-10T14:57:06Z</time>
      </trkpt>
      <trkpt lat="46.37825" lon="5.3456">
        <ele>291.4</ele>
        <time>2022-03-10T14:57:11Z</time>
      </trkpt>
      <trkpt lat="46.37835" lon="5.3456">
        <ele>292</ele>
        <time>2022-03-10T14:57:14Z</time>
      </trkpt>
      <trkpt lat="46.37842" lon="5.3456">
        <ele>292.6</ele>
        <time>2022-03-10T14:57:16Z</time>
      </trkpt>
      <trkpt lat="46.37856" lon="5.34561">
        <ele>293.6</ele>
        <time>2022-03-10T14:57:20Z</time>
      </trkpt>
      <trkpt lat="46.37868" lon="5.34561">
        <ele>294.6</ele>
        <time>2022-03-10T14:57:24Z</time>
      </trkpt>
      <trkpt lat="46.37872" lon="5.34561">
        <ele>294.8</ele>
        <time>2022-03-10T14:57:25Z</time>
      </trkpt>
      <trkpt lat="46.37888" lon="5.34561">
        <ele>296</ele>
        <time>2022-03-10T14:57:30Z</time>
      </trkpt>
      <trkpt lat="46.37907" lon="5.3456">
        <ele>297.2</ele>
        <time>2022-03-10T14:57:35Z</time>
      </trkpt>
      <trkpt lat="46.37909" lon="5.3456">
        <ele>297.4</ele>
        <time>2022-03-10T14:57:36Z</time>
      </trkpt>
      <trkpt lat="46.37928" lon="5.3456">
        <ele>298.4</ele>
        <time>2022-03-10T14:57:41Z</time>
      </trkpt>
      <trkpt lat="46.37961" lon="5.34558">
        <ele>299.2</ele>
        <time>2022-03-10T14:57:50Z</time>
      </trkpt>
      <trkpt lat="46.37965" lon="5.34559">
        <ele>299.4</ele>
        <time>2022-03-10T14:57:51Z</time>
      </trkpt>
      <trkpt lat="46.37988" lon="5.34567">
        <ele>300.4</ele>
        <time>2022-03-10T14:57:57Z</time>
      </trkpt>
      <trkpt lat="46.37992" lon="5.34568">
        <ele>300.4</ele>
        <time>2022-03-10T14:57:58Z</time>
      </trkpt>
      <trkpt lat="46.38008" lon="5.34574">
        <ele>301</ele>
        <time>2022-03-10T14:58:02Z</time>
      </trkpt>
      <trkpt lat="46.38013" lon="5.34581">
        <ele>301</ele>
        <time>2022-03-10T14:58:04Z</time>
      </trkpt>
      <trkpt lat="46.38008" lon="5.34603">
        <ele>301.2</ele>
        <time>2022-03-10T14:58:07Z</time>
      </trkpt>
      <trkpt lat="46.37994" lon="5.34657">
        <ele>301.2</ele>
        <time>2022-03-10T14:58:13Z</time>
      </trkpt>
      <trkpt lat="46.37973" lon="5.34739">
        <ele>299.6</ele>
        <time>2022-03-10T14:58:21Z</time>
      </trkpt>
      <trkpt lat="46.37971" lon="5.34747">
        <ele>299.6</ele>
        <time>2022-03-10T14:58:22Z</time>
      </trkpt>
      <trkpt lat="46.37969" lon="5.34756">
        <ele>299.4</ele>
        <time>2022-03-10T14:58:23Z</time>
      </trkpt>
      <trkpt lat="46.37961" lon="5.34789">
        <ele>299.2</ele>
        <time>2022-03-10T14:58:27Z</time>
      </trkpt>
      <trkpt lat="46.37949" lon="5.34832">
        <ele>299.8</ele>
        <time>2022-03-10T14:58:34Z</time>
      </trkpt>
      <trkpt lat="46.37945" lon="5.34844">
        <ele>300.2</ele>
        <time>2022-03-10T14:58:36Z</time>
      </trkpt>
      <trkpt lat="46.37944" lon="5.34849">
        <ele>300.6</ele>
        <time>2022-03-10T14:58:37Z</time>
      </trkpt>
      <trkpt lat="46.3794" lon="5.34864">
        <ele>301.2</ele>
        <time>2022-03-10T14:58:40Z</time>
      </trkpt>
      <trkpt lat="46.37936" lon="5.34873">
        <ele>301.6</ele>
        <time>2022-03-10T14:58:42Z</time>
      </trkpt>
      <trkpt lat="46.3793" lon="5.34887">
        <ele>303</ele>
        <time>2022-03-10T14:58:46Z</time>
      </trkpt>
      <trkpt lat="46.37925" lon="5.34895">
        <ele>303.2</ele>
        <time>2022-03-10T14:58:47Z</time>
      </trkpt>
      <trkpt lat="46.37917" lon="5.34904">
        <ele>304.2</ele>
        <time>2022-03-10T14:58:50Z</time>
      </trkpt>
      <trkpt lat="46.37902" lon="5.34918">
        <ele>305.2</ele>
        <time>2022-03-10T14:58:55Z</time>
      </trkpt>
      <trkpt lat="46.37896" lon="5.34924">
        <ele>305.4</ele>
        <time>2022-03-10T14:58:57Z</time>
      </trkpt>
      <trkpt lat="46.37882" lon="5.34939">
        <ele>306.8</ele>
        <time>2022-03-10T14:59:02Z</time>
      </trkpt>
      <trkpt lat="46.37874" lon="5.34949">
        <ele>308.2</ele>
        <time>2022-03-10T14:59:05Z</time>
      </trkpt>
      <trkpt lat="46.37861" lon="5.34969">
        <ele>309.2</ele>
        <time>2022-03-10T14:59:11Z</time>
      </trkpt>
      <trkpt lat="46.37859" lon="5.34973">
        <ele>309.4</ele>
        <time>2022-03-10T14:59:12Z</time>
      </trkpt>
      <trkpt lat="46.37847" lon="5.35001">
        <ele>310.2</ele>
        <time>2022-03-10T14:59:19Z</time>
      </trkpt>
      <trkpt lat="46.37843" lon="5.35015">
        <ele>310.8</ele>
        <time>2022-03-10T14:59:22Z</time>
      </trkpt>
      <trkpt lat="46.37839" lon="5.35029">
        <ele>311.4</ele>
        <time>2022-03-10T14:59:25Z</time>
      </trkpt>
      <trkpt lat="46.37835" lon="5.35044">
        <ele>312.4</ele>
        <time>2022-03-10T14:59:28Z</time>
      </trkpt>
      <trkpt lat="46.37829" lon="5.35061">
        <ele>313.4</ele>
        <time>2022-03-10T14:59:32Z</time>
      </trkpt>
      <trkpt lat="46.37828" lon="5.35065">
        <ele>313.6</ele>
        <time>2022-03-10T14:59:33Z</time>
      </trkpt>
      <trkpt lat="46.37819" lon="5.35086">
        <ele>314.6</ele>
        <time>2022-03-10T14:59:38Z</time>
      </trkpt>
      <trkpt lat="46.37816" lon="5.35096">
        <ele>315.6</ele>
        <time>2022-03-10T14:59:41Z</time>
      </trkpt>
      <trkpt lat="46.37815" lon="5.35106">
        <ele>316</ele>
        <time>2022-03-10T14:59:42Z</time>
      </trkpt>
      <trkpt lat="46.37808" lon="5.35131">
        <ele>317</ele>
        <time>2022-03-10T14:59:47Z</time>
      </trkpt>
      <trkpt lat="46.37807" lon="5.3514">
        <ele>317.8</ele>
        <time>2022-03-10T14:59:50Z</time>
      </trkpt>
      <trkpt lat="46.37804" lon="5.35155">
        <ele>318</ele>
        <time>2022-03-10T14:59:52Z</time>
      </trkpt>
      <trkpt lat="46.37799" lon="5.3518">
        <ele>319</ele>
        <time>2022-03-10T14:59:57Z</time>
      </trkpt>
      <trkpt lat="46.37797" lon="5.35184">
        <ele>319.4</ele>
        <time>2022-03-10T14:59:58Z</time>
      </trkpt>
      <trkpt lat="46.37787" lon="5.35212">
        <ele>320.6</ele>
        <time>2022-03-10T15:00:04Z</time>
      </trkpt>
      <trkpt lat="46.37782" lon="5.35225">
        <ele>321.2</ele>
        <time>2022-03-10T15:00:07Z</time>
      </trkpt>
      <trkpt lat="46.37778" lon="5.35234">
        <ele>321.6</ele>
        <time>2022-03-10T15:00:09Z</time>
      </trkpt>
      <trkpt lat="46.37776" lon="5.35252">
        <ele>322.6</ele>
        <time>2022-03-10T15:00:13Z</time>
      </trkpt>
      <trkpt lat="46.37776" lon="5.35257">
        <ele>323.2</ele>
        <time>2022-03-10T15:00:14Z</time>
      </trkpt>
      <trkpt lat="46.37778" lon="5.35267">
        <ele>323.8</ele>
        <time>2022-03-10T15:00:16Z</time>
      </trkpt>
      <trkpt lat="46.37786" lon="5.35298">
        <ele>324.4</ele>
        <time>2022-03-10T15:00:22Z</time>
      </trkpt>
      <trkpt lat="46.37791" lon="5.35318">
        <ele>325</ele>
        <time>2022-03-10T15:00:27Z</time>
      </trkpt>
      <trkpt lat="46.37794" lon="5.35345">
        <ele>325.6</ele>
        <time>2022-03-10T15:00:31Z</time>
      </trkpt>
      <trkpt lat="46.37791" lon="5.3536">
        <ele>326</ele>
        <time>2022-03-10T15:00:34Z</time>
      </trkpt>
      <trkpt lat="46.37785" lon="5.35376">
        <ele>326.6</ele>
        <time>2022-03-10T15:00:38Z</time>
      </trkpt>
      <trkpt lat="46.3778" lon="5.35384">
        <ele>327</ele>
        <time>2022-03-10T15:00:40Z</time>
      </trkpt>
      <trkpt lat="46.3777" lon="5.35391">
        <ele>327.8</ele>
        <time>2022-03-10T15:00:43Z</time>
      </trkpt>
      <trkpt lat="46.37758" lon="5.3539">
        <ele>328.2</ele>
        <time>2022-03-10T15:00:46Z</time>
      </trkpt>
      <trkpt lat="46.37756" lon="5.35389">
        <ele>328.4</ele>
        <time>2022-03-10T15:00:47Z</time>
      </trkpt>
      <trkpt lat="46.37744" lon="5.3538">
        <ele>329.2</ele>
        <time>2022-03-10T15:00:51Z</time>
      </trkpt>
      <trkpt lat="46.37734" lon="5.35375">
        <ele>329.6</ele>
        <time>2022-03-10T15:00:54Z</time>
      </trkpt>
      <trkpt lat="46.3773" lon="5.35375">
        <ele>330.2</ele>
        <time>2022-03-10T15:00:56Z</time>
      </trkpt>
      <trkpt lat="46.37722" lon="5.35376">
        <ele>330.6</ele>
        <time>2022-03-10T15:00:57Z</time>
      </trkpt>
      <trkpt lat="46.37717" lon="5.3538">
        <ele>330.8</ele>
        <time>2022-03-10T15:00:59Z</time>
      </trkpt>
      <trkpt lat="46.37714" lon="5.35384">
        <ele>331.2</ele>
        <time>2022-03-10T15:01:00Z</time>
      </trkpt>
      <trkpt lat="46.37708" lon="5.35402">
        <ele>332.2</ele>
        <time>2022-03-10T15:01:04Z</time>
      </trkpt>
      <trkpt lat="46.37708" lon="5.35423">
        <ele>333.4</ele>
        <time>2022-03-10T15:01:08Z</time>
      </trkpt>
      <trkpt lat="46.37708" lon="5.35433">
        <ele>333.8</ele>
        <time>2022-03-10T15:01:10Z</time>
      </trkpt>
      <trkpt lat="46.37709" lon="5.35454">
        <ele>334.4</ele>
        <time>2022-03-10T15:01:14Z</time>
      </trkpt>
      <trkpt lat="46.3771" lon="5.35474">
        <ele>335</ele>
        <time>2022-03-10T15:01:18Z</time>
      </trkpt>
      <trkpt lat="46.3771" lon="5.35484">
        <ele>335.4</ele>
        <time>2022-03-10T15:01:20Z</time>
      </trkpt>
      <trkpt lat="46.37709" lon="5.35505">
        <ele>336.6</ele>
        <time>2022-03-10T15:01:24Z</time>
      </trkpt>
      <trkpt lat="46.37708" lon="5.3551">
        <ele>336.8</ele>
        <time>2022-03-10T15:01:25Z</time>
      </trkpt>
      <trkpt lat="46.377" lon="5.35533">
        <ele>337.8</ele>
        <time>2022-03-10T15:01:30Z</time>
      </trkpt>
      <trkpt lat="46.37696" lon="5.35541">
        <ele>338</ele>
        <time>2022-03-10T15:01:32Z</time>
      </trkpt>
      <trkpt lat="46.37687" lon="5.35557">
        <ele>338.8</ele>
        <time>2022-03-10T15:01:37Z</time>
      </trkpt>
      <trkpt lat="46.37676" lon="5.3557">
        <ele>339.2</ele>
        <time>2022-03-10T15:01:40Z</time>
      </trkpt>
      <trkpt lat="46.37665" lon="5.35577">
        <ele>339.8</ele>
        <time>2022-03-10T15:01:43Z</time>
      </trkpt>
      <trkpt lat="46.37655" lon="5.35581">
        <ele>340.4</ele>
        <time>2022-03-10T15:01:47Z</time>
      </trkpt>
      <trkpt lat="46.37648" lon="5.35584">
        <ele>340.8</ele>
        <time>2022-03-10T15:01:48Z</time>
      </trkpt>
      <trkpt lat="46.37633" lon="5.3559">
        <ele>342</ele>
        <time>2022-03-10T15:01:53Z</time>
      </trkpt>
      <trkpt lat="46.37622" lon="5.35593">
        <ele>342.8</ele>
        <time>2022-03-10T15:01:56Z</time>
      </trkpt>
      <trkpt lat="46.37615" lon="5.35595">
        <ele>343.2</ele>
        <time>2022-03-10T15:01:59Z</time>
      </trkpt>
      <trkpt lat="46.37594" lon="5.35603">
        <ele>344.2</ele>
        <time>2022-03-10T15:02:05Z</time>
      </trkpt>
      <trkpt lat="46.37587" lon="5.35608">
        <ele>344.4</ele>
        <time>2022-03-10T15:02:06Z</time>
      </trkpt>
      <trkpt lat="46.37577" lon="5.35624">
        <ele>345.2</ele>
        <time>2022-03-10T15:02:10Z</time>
      </trkpt>
      <trkpt lat="46.37575" lon="5.35628">
        <ele>345.6</ele>
        <time>2022-03-10T15:02:11Z</time>
      </trkpt>
      <trkpt lat="46.37566" lon="5.35646">
        <ele>346.6</ele>
        <time>2022-03-10T15:02:15Z</time>
      </trkpt>
      <trkpt lat="46.3756" lon="5.35659">
        <ele>347.4</ele>
        <time>2022-03-10T15:02:18Z</time>
      </trkpt>
      <trkpt lat="46.37556" lon="5.35668">
        <ele>347.8</ele>
        <time>2022-03-10T15:02:20Z</time>
      </trkpt>
      <trkpt lat="46.37549" lon="5.35686">
        <ele>348.8</ele>
        <time>2022-03-10T15:02:24Z</time>
      </trkpt>
      <trkpt lat="46.37539" lon="5.35712">
        <ele>349.8</ele>
        <time>2022-03-10T15:02:30Z</time>
      </trkpt>
      <trkpt lat="46.37537" lon="5.35716">
        <ele>350</ele>
        <time>2022-03-10T15:02:31Z</time>
      </trkpt>
      <trkpt lat="46.37529" lon="5.35738">
        <ele>351.2</ele>
        <time>2022-03-10T15:02:36Z</time>
      </trkpt>
      <trkpt lat="46.37521" lon="5.35758">
        <ele>352.4</ele>
        <time>2022-03-10T15:02:41Z</time>
      </trkpt>
      <trkpt lat="46.375" lon="5.35793">
        <ele>353.8</ele>
        <time>2022-03-10T15:02:50Z</time>
      </trkpt>
      <trkpt lat="46.3748" lon="5.35812">
        <ele>354.8</ele>
        <time>2022-03-10T15:02:57Z</time>
      </trkpt>
      <trkpt lat="46.37464" lon="5.35824">
        <ele>355.8</ele>
        <time>2022-03-10T15:03:02Z</time>
      </trkpt>
      <trkpt lat="46.37461" lon="5.35827">
        <ele>356</ele>
        <time>2022-03-10T15:03:04Z</time>
      </trkpt>
      <trkpt lat="46.37442" lon="5.3584">
        <ele>357</ele>
        <time>2022-03-10T15:03:09Z</time>
      </trkpt>
      <trkpt lat="46.3743" lon="5.35848">
        <ele>358</ele>
        <time>2022-03-10T15:03:13Z</time>
      </trkpt>
      <trkpt lat="46.37411" lon="5.35859">
        <ele>359.4</ele>
        <time>2022-03-10T15:03:19Z</time>
      </trkpt>
      <trkpt lat="46.37396" lon="5.35872">
        <ele>360.4</ele>
        <time>2022-03-10T15:03:24Z</time>
      </trkpt>
      <trkpt lat="46.3738" lon="5.3589">
        <ele>361.6</ele>
        <time>2022-03-10T15:03:30Z</time>
      </trkpt>
      <trkpt lat="46.37376" lon="5.35898">
        <ele>361.6</ele>
        <time>2022-03-10T15:03:32Z</time>
      </trkpt>
      <trkpt lat="46.3737" lon="5.35917">
        <ele>362.4</ele>
        <time>2022-03-10T15:03:36Z</time>
      </trkpt>
      <trkpt lat="46.37367" lon="5.35932">
        <ele>363</ele>
        <time>2022-03-10T15:03:39Z</time>
      </trkpt>
      <trkpt lat="46.37365" lon="5.35941">
        <ele>363.4</ele>
        <time>2022-03-10T15:03:41Z</time>
      </trkpt>
      <trkpt lat="46.37355" lon="5.35985">
        <ele>364.6</ele>
        <time>2022-03-10T15:03:50Z</time>
      </trkpt>
      <trkpt lat="46.37354" lon="5.35989">
        <ele>364.6</ele>
        <time>2022-03-10T15:03:51Z</time>
      </trkpt>
      <trkpt lat="46.37346" lon="5.36013">
        <ele>365.8</ele>
        <time>2022-03-10T15:03:56Z</time>
      </trkpt>
      <trkpt lat="46.37344" lon="5.36017">
        <ele>366.2</ele>
        <time>2022-03-10T15:03:58Z</time>
      </trkpt>
      <trkpt lat="46.37338" lon="5.36023">
        <ele>366.6</ele>
        <time>2022-03-10T15:03:59Z</time>
      </trkpt>
      <trkpt lat="46.37331" lon="5.36022">
        <ele>367</ele>
        <time>2022-03-10T15:04:01Z</time>
      </trkpt>
      <trkpt lat="46.37322" lon="5.36014">
        <ele>367.6</ele>
        <time>2022-03-10T15:04:04Z</time>
      </trkpt>
      <trkpt lat="46.37318" lon="5.36007">
        <ele>368</ele>
        <time>2022-03-10T15:04:06Z</time>
      </trkpt>
      <trkpt lat="46.37316" lon="5.36004">
        <ele>368.2</ele>
        <time>2022-03-10T15:04:07Z</time>
      </trkpt>
      <trkpt lat="46.37307" lon="5.35995">
        <ele>369.2</ele>
        <time>2022-03-10T15:04:10Z</time>
      </trkpt>
      <trkpt lat="46.37301" lon="5.35991">
        <ele>369.6</ele>
        <time>2022-03-10T15:04:12Z</time>
      </trkpt>
      <trkpt lat="46.37297" lon="5.35989">
        <ele>370.4</ele>
        <time>2022-03-10T15:04:13Z</time>
      </trkpt>
      <trkpt lat="46.37287" lon="5.35988">
        <ele>370.8</ele>
        <time>2022-03-10T15:04:16Z</time>
      </trkpt>
      <trkpt lat="46.3728" lon="5.35991">
        <ele>371.4</ele>
        <time>2022-03-10T15:04:18Z</time>
      </trkpt>
      <trkpt lat="46.37268" lon="5.36001">
        <ele>372.6</ele>
        <time>2022-03-10T15:04:22Z</time>
      </trkpt>
      <trkpt lat="46.37265" lon="5.36004">
        <ele>372.8</ele>
        <time>2022-03-10T15:04:23Z</time>
      </trkpt>
      <trkpt lat="46.37257" lon="5.36014">
        <ele>373.6</ele>
        <time>2022-03-10T15:04:26Z</time>
      </trkpt>
      <trkpt lat="46.37244" lon="5.3603">
        <ele>374.4</ele>
        <time>2022-03-10T15:04:31Z</time>
      </trkpt>
      <trkpt lat="46.37242" lon="5.36033">
        <ele>374.8</ele>
        <time>2022-03-10T15:04:33Z</time>
      </trkpt>
      <trkpt lat="46.37226" lon="5.36048">
        <ele>375.2</ele>
        <time>2022-03-10T15:04:37Z</time>
      </trkpt>
      <trkpt lat="46.37209" lon="5.36058">
        <ele>376</ele>
        <time>2022-03-10T15:04:42Z</time>
      </trkpt>
      <trkpt lat="46.372" lon="5.36063">
        <ele>376.6</ele>
        <time>2022-03-10T15:04:45Z</time>
      </trkpt>
      <trkpt lat="46.37194" lon="5.36071">
        <ele>377.2</ele>
        <time>2022-03-10T15:04:47Z</time>
      </trkpt>
      <trkpt lat="46.37182" lon="5.36083">
        <ele>378.4</ele>
        <time>2022-03-10T15:04:51Z</time>
      </trkpt>
      <trkpt lat="46.37176" lon="5.36105">
        <ele>379.6</ele>
        <time>2022-03-10T15:04:56Z</time>
      </trkpt>
      <trkpt lat="46.37173" lon="5.36126">
        <ele>380.6</ele>
        <time>2022-03-10T15:05:00Z</time>
      </trkpt>
      <trkpt lat="46.37173" lon="5.3615">
        <ele>381.8</ele>
        <time>2022-03-10T15:05:04Z</time>
      </trkpt>
      <trkpt lat="46.37173" lon="5.36155">
        <ele>382.2</ele>
        <time>2022-03-10T15:05:05Z</time>
      </trkpt>
      <trkpt lat="46.37176" lon="5.36171">
        <ele>383</ele>
        <time>2022-03-10T15:05:08Z</time>
      </trkpt>
      <trkpt lat="46.37181" lon="5.36196">
        <ele>383.6</ele>
        <time>2022-03-10T15:05:13Z</time>
      </trkpt>
      <trkpt lat="46.37182" lon="5.36201">
        <ele>383.8</ele>
        <time>2022-03-10T15:05:14Z</time>
      </trkpt>
      <trkpt lat="46.37188" lon="5.36227">
        <ele>384.8</ele>
        <time>2022-03-10T15:05:19Z</time>
      </trkpt>
      <trkpt lat="46.37191" lon="5.36237">
        <ele>385.4</ele>
        <time>2022-03-10T15:05:21Z</time>
      </trkpt>
      <trkpt lat="46.37196" lon="5.36252">
        <ele>386.2</ele>
        <time>2022-03-10T15:05:24Z</time>
      </trkpt>
      <trkpt lat="46.37209" lon="5.36285">
        <ele>387.2</ele>
        <time>2022-03-10T15:05:31Z</time>
      </trkpt>
      <trkpt lat="46.37212" lon="5.36295">
        <ele>387.6</ele>
        <time>2022-03-10T15:05:33Z</time>
      </trkpt>
      <trkpt lat="46.3722" lon="5.3631">
        <ele>388.2</ele>
        <time>2022-03-10T15:05:37Z</time>
      </trkpt>
      <trkpt lat="46.37221" lon="5.36314">
        <ele>388.4</ele>
        <time>2022-03-10T15:05:38Z</time>
      </trkpt>
      <trkpt lat="46.37224" lon="5.36324">
        <ele>389</ele>
        <time>2022-03-10T15:05:42Z</time>
      </trkpt>
      <trkpt lat="46.37228" lon="5.36332">
        <ele>389</ele>
        <time>2022-03-10T15:05:43Z</time>
      </trkpt>
      <trkpt lat="46.3723" lon="5.36336">
        <ele>389.4</ele>
        <time>2022-03-10T15:05:44Z</time>
      </trkpt>
      <trkpt lat="46.3723" lon="5.36336">
        <ele>389.6</ele>
        <time>2022-03-10T15:05:45Z</time>
      </trkpt>
      <trkpt lat="46.37242" lon="5.36357">
        <ele>390.4</ele>
        <time>2022-03-10T15:05:50Z</time>
      </trkpt>
      <trkpt lat="46.37258" lon="5.36385">
        <ele>391.6</ele>
        <time>2022-03-10T15:05:56Z</time>
      </trkpt>
      <trkpt lat="46.37262" lon="5.36393">
        <ele>391.8</ele>
        <time>2022-03-10T15:05:58Z</time>
      </trkpt>
      <trkpt lat="46.37276" lon="5.36414">
        <ele>392.8</ele>
        <time>2022-03-10T15:06:03Z</time>
      </trkpt>
      <trkpt lat="46.37283" lon="5.36441">
        <ele>393.6</ele>
        <time>2022-03-10T15:06:08Z</time>
      </trkpt>
      <trkpt lat="46.37284" lon="5.36446">
        <ele>393.8</ele>
        <time>2022-03-10T15:06:09Z</time>
      </trkpt>
      <trkpt lat="46.37289" lon="5.36472">
        <ele>394.8</ele>
        <time>2022-03-10T15:06:14Z</time>
      </trkpt>
      <trkpt lat="46.37288" lon="5.36479">
        <ele>395</ele>
        <time>2022-03-10T15:06:15Z</time>
      </trkpt>
      <trkpt lat="46.37285" lon="5.36485">
        <ele>395.4</ele>
        <time>2022-03-10T15:06:17Z</time>
      </trkpt>
      <trkpt lat="46.37277" lon="5.3649">
        <ele>395.8</ele>
        <time>2022-03-10T15:06:20Z</time>
      </trkpt>
      <trkpt lat="46.3727" lon="5.36492">
        <ele>396.6</ele>
        <time>2022-03-10T15:06:23Z</time>
      </trkpt>
      <trkpt lat="46.37267" lon="5.36492">
        <ele>397.2</ele>
        <time>2022-03-10T15:06:24Z</time>
      </trkpt>
      <trkpt lat="46.37257" lon="5.36491">
        <ele>398.6</ele>
        <time>2022-03-10T15:06:28Z</time>
      </trkpt>
      <trkpt lat="46.37241" lon="5.36495">
        <ele>399.6</ele>
        <time>2022-03-10T15:06:32Z</time>
      </trkpt>
      <trkpt lat="46.37238" lon="5.36496">
        <ele>400</ele>
        <time>2022-03-10T15:06:33Z</time>
      </trkpt>
      <trkpt lat="46.37217" lon="5.36506">
        <ele>400.8</ele>
        <time>2022-03-10T15:06:39Z</time>
      </trkpt>
      <trkpt lat="46.37213" lon="5.36509">
        <ele>401.2</ele>
        <time>2022-03-10T15:06:40Z</time>
      </trkpt>
      <trkpt lat="46.37194" lon="5.36523">
        <ele>402</ele>
        <time>2022-03-10T15:06:46Z</time>
      </trkpt>
      <trkpt lat="46.3718" lon="5.36538">
        <ele>403</ele>
        <time>2022-03-10T15:06:51Z</time>
      </trkpt>
      <trkpt lat="46.37174" lon="5.36544">
        <ele>403.4</ele>
        <time>2022-03-10T15:06:53Z</time>
      </trkpt>
      <trkpt lat="46.37161" lon="5.36558">
        <ele>404</ele>
        <time>2022-03-10T15:06:59Z</time>
      </trkpt>
      <trkpt lat="46.37157" lon="5.36563">
        <ele>404.4</ele>
        <time>2022-03-10T15:07:01Z</time>
      </trkpt>
      <trkpt lat="46.37153" lon="5.3657">
        <ele>405</ele>
        <time>2022-03-10T15:07:03Z</time>
      </trkpt>
      <trkpt lat="46.37151" lon="5.36573">
        <ele>405.2</ele>
        <time>2022-03-10T15:07:04Z</time>
      </trkpt>
      <trkpt lat="46.37141" lon="5.36586">
        <ele>406</ele>
        <time>2022-03-10T15:07:08Z</time>
      </trkpt>
      <trkpt lat="46.37138" lon="5.36589">
        <ele>406.2</ele>
        <time>2022-03-10T15:07:09Z</time>
      </trkpt>
      <trkpt lat="46.37127" lon="5.36617">
        <ele>407.2</ele>
        <time>2022-03-10T15:07:15Z</time>
      </trkpt>
      <trkpt lat="46.37118" lon="5.36637">
        <ele>408.2</ele>
        <time>2022-03-10T15:07:20Z</time>
      </trkpt>
      <trkpt lat="46.37115" lon="5.36642">
        <ele>408.4</ele>
        <time>2022-03-10T15:07:21Z</time>
      </trkpt>
      <trkpt lat="46.37105" lon="5.36665">
        <ele>409.4</ele>
        <time>2022-03-10T15:07:26Z</time>
      </trkpt>
      <trkpt lat="46.37101" lon="5.36675">
        <ele>409.6</ele>
        <time>2022-03-10T15:07:28Z</time>
      </trkpt>
      <trkpt lat="46.37094" lon="5.36695">
        <ele>410.4</ele>
        <time>2022-03-10T15:07:32Z</time>
      </trkpt>
      <trkpt lat="46.37086" lon="5.36716">
        <ele>411.4</ele>
        <time>2022-03-10T15:07:36Z</time>
      </trkpt>
      <trkpt lat="46.37078" lon="5.36742">
        <ele>412.6</ele>
        <time>2022-03-10T15:07:41Z</time>
      </trkpt>
      <trkpt lat="46.37073" lon="5.36763">
        <ele>413.2</ele>
        <time>2022-03-10T15:07:45Z</time>
      </trkpt>
      <trkpt lat="46.37071" lon="5.36773">
        <ele>413.6</ele>
        <time>2022-03-10T15:07:47Z</time>
      </trkpt>
      <trkpt lat="46.37067" lon="5.36804">
        <ele>414.8</ele>
        <time>2022-03-10T15:07:53Z</time>
      </trkpt>
      <trkpt lat="46.37067" lon="5.36821">
        <ele>415.2</ele>
        <time>2022-03-10T15:07:56Z</time>
      </trkpt>
      <trkpt lat="46.37067" lon="5.36831">
        <ele>415.8</ele>
        <time>2022-03-10T15:07:58Z</time>
      </trkpt>
      <trkpt lat="46.37068" lon="5.36863">
        <ele>416.6</ele>
        <time>2022-03-10T15:08:04Z</time>
      </trkpt>
      <trkpt lat="46.37069" lon="5.36868">
        <ele>417</ele>
        <time>2022-03-10T15:08:05Z</time>
      </trkpt>
      <trkpt lat="46.37075" lon="5.36899">
        <ele>418.2</ele>
        <time>2022-03-10T15:08:11Z</time>
      </trkpt>
      <trkpt lat="46.37079" lon="5.36909">
        <ele>418.6</ele>
        <time>2022-03-10T15:08:13Z</time>
      </trkpt>
      <trkpt lat="46.37082" lon="5.36918">
        <ele>419.2</ele>
        <time>2022-03-10T15:08:15Z</time>
      </trkpt>
      <trkpt lat="46.37093" lon="5.36942">
        <ele>420.2</ele>
        <time>2022-03-10T15:08:20Z</time>
      </trkpt>
      <trkpt lat="46.37098" lon="5.36952">
        <ele>420.6</ele>
        <time>2022-03-10T15:08:22Z</time>
      </trkpt>
      <trkpt lat="46.37107" lon="5.3697">
        <ele>421.4</ele>
        <time>2022-03-10T15:08:26Z</time>
      </trkpt>
      <trkpt lat="46.37116" lon="5.36988">
        <ele>422.4</ele>
        <time>2022-03-10T15:08:30Z</time>
      </trkpt>
      <trkpt lat="46.37125" lon="5.37004">
        <ele>423.4</ele>
        <time>2022-03-10T15:08:34Z</time>
      </trkpt>
      <trkpt lat="46.37128" lon="5.37009">
        <ele>423.6</ele>
        <time>2022-03-10T15:08:35Z</time>
      </trkpt>
      <trkpt lat="46.37141" lon="5.37027">
        <ele>424.8</ele>
        <time>2022-03-10T15:08:40Z</time>
      </trkpt>
      <trkpt lat="46.37147" lon="5.37035">
        <ele>425</ele>
        <time>2022-03-10T15:08:42Z</time>
      </trkpt>
      <trkpt lat="46.3716" lon="5.37049">
        <ele>425.8</ele>
        <time>2022-03-10T15:08:46Z</time>
      </trkpt>
      <trkpt lat="46.37174" lon="5.37062">
        <ele>426.6</ele>
        <time>2022-03-10T15:08:50Z</time>
      </trkpt>
      <trkpt lat="46.37178" lon="5.37065">
        <ele>426.8</ele>
        <time>2022-03-10T15:08:51Z</time>
      </trkpt>
      <trkpt lat="46.37204" lon="5.37085">
        <ele>428</ele>
        <time>2022-03-10T15:08:58Z</time>
      </trkpt>
      <trkpt lat="46.37227" lon="5.37102">
        <ele>429</ele>
        <time>2022-03-10T15:09:04Z</time>
      </trkpt>
      <trkpt lat="46.37238" lon="5.37109">
        <ele>429.8</ele>
        <time>2022-03-10T15:09:07Z</time>
      </trkpt>
      <trkpt lat="46.37245" lon="5.37114">
        <ele>430.2</ele>
        <time>2022-03-10T15:09:09Z</time>
      </trkpt>
      <trkpt lat="46.37261" lon="5.37125">
        <ele>431.2</ele>
        <time>2022-03-10T15:09:13Z</time>
      </trkpt>
      <trkpt lat="46.37268" lon="5.3713">
        <ele>431.8</ele>
        <time>2022-03-10T15:09:15Z</time>
      </trkpt>
      <trkpt lat="46.37276" lon="5.37134">
        <ele>432.2</ele>
        <time>2022-03-10T15:09:17Z</time>
      </trkpt>
      <trkpt lat="46.37293" lon="5.37146">
        <ele>433.4</ele>
        <time>2022-03-10T15:09:22Z</time>
      </trkpt>
      <trkpt lat="46.373" lon="5.37151">
        <ele>433.8</ele>
        <time>2022-03-10T15:09:24Z</time>
      </trkpt>
      <trkpt lat="46.37317" lon="5.37166">
        <ele>434.8</ele>
        <time>2022-03-10T15:09:29Z</time>
      </trkpt>
      <trkpt lat="46.37327" lon="5.37176">
        <ele>435.6</ele>
        <time>2022-03-10T15:09:32Z</time>
      </trkpt>
      <trkpt lat="46.37329" lon="5.3718">
        <ele>435.8</ele>
        <time>2022-03-10T15:09:33Z</time>
      </trkpt>
      <trkpt lat="46.3734" lon="5.37196">
        <ele>437</ele>
        <time>2022-03-10T15:09:37Z</time>
      </trkpt>
      <trkpt lat="46.3735" lon="5.37213">
        <ele>437.8</ele>
        <time>2022-03-10T15:09:41Z</time>
      </trkpt>
      <trkpt lat="46.37355" lon="5.37222">
        <ele>438</ele>
        <time>2022-03-10T15:09:43Z</time>
      </trkpt>
      <trkpt lat="46.37369" lon="5.37244">
        <ele>439</ele>
        <time>2022-03-10T15:09:49Z</time>
      </trkpt>
      <trkpt lat="46.37372" lon="5.37247">
        <ele>439.4</ele>
        <time>2022-03-10T15:09:50Z</time>
      </trkpt>
      <trkpt lat="46.37389" lon="5.37265">
        <ele>440.6</ele>
        <time>2022-03-10T15:09:56Z</time>
      </trkpt>
      <trkpt lat="46.37395" lon="5.37272">
        <ele>440.8</ele>
        <time>2022-03-10T15:09:58Z</time>
      </trkpt>
      <trkpt lat="46.37404" lon="5.37282">
        <ele>441.8</ele>
        <time>2022-03-10T15:10:01Z</time>
      </trkpt>
      <trkpt lat="46.3742" lon="5.37302">
        <ele>442.8</ele>
        <time>2022-03-10T15:10:06Z</time>
      </trkpt>
      <trkpt lat="46.37425" lon="5.37309">
        <ele>443</ele>
        <time>2022-03-10T15:10:08Z</time>
      </trkpt>
      <trkpt lat="46.3744" lon="5.37329">
        <ele>444</ele>
        <time>2022-03-10T15:10:13Z</time>
      </trkpt>
      <trkpt lat="46.37445" lon="5.37337">
        <ele>444.4</ele>
        <time>2022-03-10T15:10:15Z</time>
      </trkpt>
      <trkpt lat="46.37458" lon="5.37351">
        <ele>445.2</ele>
        <time>2022-03-10T15:10:19Z</time>
      </trkpt>
      <trkpt lat="46.37477" lon="5.37373">
        <ele>446</ele>
        <time>2022-03-10T15:10:25Z</time>
      </trkpt>
      <trkpt lat="46.37484" lon="5.37383">
        <ele>446.4</ele>
        <time>2022-03-10T15:10:27Z</time>
      </trkpt>
      <trkpt lat="46.37489" lon="5.37394">
        <ele>446.8</ele>
        <time>2022-03-10T15:10:29Z</time>
      </trkpt>
      <trkpt lat="46.3749" lon="5.37399">
        <ele>446.8</ele>
        <time>2022-03-10T15:10:30Z</time>
      </trkpt>
      <trkpt lat="46.37491" lon="5.37406">
        <ele>446.8</ele>
        <time>2022-03-10T15:10:31Z</time>
      </trkpt>
      <trkpt lat="46.37489" lon="5.37418">
        <ele>447</ele>
        <time>2022-03-10T15:10:33Z</time>
      </trkpt>
      <trkpt lat="46.37484" lon="5.3743">
        <ele>447</ele>
        <time>2022-03-10T15:10:35Z</time>
      </trkpt>
      <trkpt lat="46.37477" lon="5.37439">
        <ele>447.2</ele>
        <time>2022-03-10T15:10:37Z</time>
      </trkpt>
      <trkpt lat="46.37473" lon="5.37444">
        <ele>447.6</ele>
        <time>2022-03-10T15:10:38Z</time>
      </trkpt>
      <trkpt lat="46.37449" lon="5.37467">
        <ele>448.4</ele>
        <time>2022-03-10T15:10:45Z</time>
      </trkpt>
      <trkpt lat="46.37446" lon="5.3747">
        <ele>448.6</ele>
        <time>2022-03-10T15:10:46Z</time>
      </trkpt>
      <trkpt lat="46.37432" lon="5.37482">
        <ele>449.6</ele>
        <time>2022-03-10T15:10:50Z</time>
      </trkpt>
      <trkpt lat="46.37423" lon="5.37489">
        <ele>450.4</ele>
        <time>2022-03-10T15:10:53Z</time>
      </trkpt>
      <trkpt lat="46.3742" lon="5.37492">
        <ele>450.6</ele>
        <time>2022-03-10T15:10:54Z</time>
      </trkpt>
      <trkpt lat="46.37413" lon="5.37504">
        <ele>451.4</ele>
        <time>2022-03-10T15:10:57Z</time>
      </trkpt>
      <trkpt lat="46.37413" lon="5.37508">
        <ele>451.4</ele>
        <time>2022-03-10T15:10:58Z</time>
      </trkpt>
      <trkpt lat="46.37415" lon="5.37514">
        <ele>451.6</ele>
        <time>2022-03-10T15:10:59Z</time>
      </trkpt>
      <trkpt lat="46.37417" lon="5.37517">
        <ele>451.8</ele>
        <time>2022-03-10T15:11:00Z</time>
      </trkpt>
      <trkpt lat="46.37421" lon="5.37519">
        <ele>452.2</ele>
        <time>2022-03-10T15:11:01Z</time>
      </trkpt>
      <trkpt lat="46.37439" lon="5.37517">
        <ele>452.8</ele>
        <time>2022-03-10T15:11:05Z</time>
      </trkpt>
      <trkpt lat="46.37443" lon="5.37516">
        <ele>452.8</ele>
        <time>2022-03-10T15:11:06Z</time>
      </trkpt>
      <trkpt lat="46.37452" lon="5.37513">
        <ele>453.6</ele>
        <time>2022-03-10T15:11:08Z</time>
      </trkpt>
      <trkpt lat="46.3746" lon="5.37511">
        <ele>454</ele>
        <time>2022-03-10T15:11:10Z</time>
      </trkpt>
      <trkpt lat="46.37476" lon="5.37509">
        <ele>454.2</ele>
        <time>2022-03-10T15:11:14Z</time>
      </trkpt>
      <trkpt lat="46.3748" lon="5.3751">
        <ele>454.4</ele>
        <time>2022-03-10T15:11:15Z</time>
      </trkpt>
      <trkpt lat="46.37492" lon="5.37512">
        <ele>455</ele>
        <time>2022-03-10T15:11:18Z</time>
      </trkpt>
      <trkpt lat="46.37499" lon="5.37513">
        <ele>455.8</ele>
        <time>2022-03-10T15:11:20Z</time>
      </trkpt>
      <trkpt lat="46.37506" lon="5.37515">
        <ele>456.2</ele>
        <time>2022-03-10T15:11:22Z</time>
      </trkpt>
      <trkpt lat="46.37529" lon="5.37519">
        <ele>457.2</ele>
        <time>2022-03-10T15:11:29Z</time>
      </trkpt>
      <trkpt lat="46.37533" lon="5.3752">
        <ele>457.2</ele>
        <time>2022-03-10T15:11:30Z</time>
      </trkpt>
      <trkpt lat="46.37549" lon="5.37522">
        <ele>458.4</ele>
        <time>2022-03-10T15:11:35Z</time>
      </trkpt>
      <trkpt lat="46.37567" lon="5.37525">
        <ele>459.6</ele>
        <time>2022-03-10T15:11:40Z</time>
      </trkpt>
      <trkpt lat="46.3759" lon="5.3753">
        <ele>460.8</ele>
        <time>2022-03-10T15:11:47Z</time>
      </trkpt>
      <trkpt lat="46.37599" lon="5.37531">
        <ele>461.4</ele>
        <time>2022-03-10T15:11:50Z</time>
      </trkpt>
      <trkpt lat="46.37606" lon="5.37532">
        <ele>461.8</ele>
        <time>2022-03-10T15:11:52Z</time>
      </trkpt>
      <trkpt lat="46.3762" lon="5.37535">
        <ele>463</ele>
        <time>2022-03-10T15:11:56Z</time>
      </trkpt>
      <trkpt lat="46.37634" lon="5.37538">
        <ele>464</ele>
        <time>2022-03-10T15:12:00Z</time>
      </trkpt>
      <trkpt lat="46.37647" lon="5.37541">
        <ele>465.2</ele>
        <time>2022-03-10T15:12:04Z</time>
      </trkpt>
      <trkpt lat="46.37671" lon="5.37544">
        <ele>466.2</ele>
        <time>2022-03-10T15:12:11Z</time>
      </trkpt>
      <trkpt lat="46.37676" lon="5.37545">
        <ele>466.6</ele>
        <time>2022-03-10T15:12:12Z</time>
      </trkpt>
      <trkpt lat="46.37685" lon="5.37546">
        <ele>467.4</ele>
        <time>2022-03-10T15:12:15Z</time>
      </trkpt>
      <trkpt lat="46.37707" lon="5.37548">
        <ele>468.4</ele>
        <time>2022-03-10T15:12:21Z</time>
      </trkpt>
      <trkpt lat="46.37723" lon="5.37548">
        <ele>469.8</ele>
        <time>2022-03-10T15:12:26Z</time>
      </trkpt>
      <trkpt lat="46.37744" lon="5.37547">
        <ele>470.6</ele>
        <time>2022-03-10T15:12:32Z</time>
      </trkpt>
      <trkpt lat="46.37748" lon="5.37546">
        <ele>470.8</ele>
        <time>2022-03-10T15:12:33Z</time>
      </trkpt>
      <trkpt lat="46.37762" lon="5.37543">
        <ele>471.8</ele>
        <time>2022-03-10T15:12:37Z</time>
      </trkpt>
      <trkpt lat="46.37775" lon="5.3754">
        <ele>473</ele>
        <time>2022-03-10T15:12:41Z</time>
      </trkpt>
      <trkpt lat="46.37785" lon="5.37537">
        <ele>474</ele>
        <time>2022-03-10T15:12:44Z</time>
      </trkpt>
      <trkpt lat="46.37802" lon="5.37528">
        <ele>475.2</ele>
        <time>2022-03-10T15:12:49Z</time>
      </trkpt>
      <trkpt lat="46.37806" lon="5.37525">
        <ele>475.4</ele>
        <time>2022-03-10T15:12:50Z</time>
      </trkpt>
      <trkpt lat="46.37812" lon="5.37521">
        <ele>476.4</ele>
        <time>2022-03-10T15:12:52Z</time>
      </trkpt>
      <trkpt lat="46.37826" lon="5.37508">
        <ele>477.6</ele>
        <time>2022-03-10T15:12:57Z</time>
      </trkpt>
      <trkpt lat="46.37835" lon="5.375">
        <ele>478.6</ele>
        <time>2022-03-10T15:13:00Z</time>
      </trkpt>
      <trkpt lat="46.3784" lon="5.37495">
        <ele>479.2</ele>
        <time>2022-03-10T15:13:02Z</time>
      </trkpt>
      <trkpt lat="46.37849" lon="5.37487">
        <ele>480</ele>
        <time>2022-03-10T15:13:05Z</time>
      </trkpt>
      <trkpt lat="46.37864" lon="5.37478">
        <ele>481.2</ele>
        <time>2022-03-10T15:13:10Z</time>
      </trkpt>
      <trkpt lat="46.37884" lon="5.3747">
        <ele>482.2</ele>
        <time>2022-03-10T15:13:16Z</time>
      </trkpt>
      <trkpt lat="46.37892" lon="5.3747">
        <ele>482.4</ele>
        <time>2022-03-10T15:13:18Z</time>
      </trkpt>
      <trkpt lat="46.37907" lon="5.37476">
        <ele>483.4</ele>
        <time>2022-03-10T15:13:22Z</time>
      </trkpt>
      <trkpt lat="46.37917" lon="5.37479">
        <ele>483.8</ele>
        <time>2022-03-10T15:13:24Z</time>
      </trkpt>
      <trkpt lat="46.37954" lon="5.37492">
        <ele>484</ele>
        <time>2022-03-10T15:13:32Z</time>
      </trkpt>
      <trkpt lat="46.37984" lon="5.37508">
        <ele>483.6</ele>
        <time>2022-03-10T15:13:37Z</time>
      </trkpt>
      <trkpt lat="46.37996" lon="5.37518">
        <ele>483.4</ele>
        <time>2022-03-10T15:13:39Z</time>
      </trkpt>
      <trkpt lat="46.38008" lon="5.37532">
        <ele>483</ele>
        <time>2022-03-10T15:13:41Z</time>
      </trkpt>
      <trkpt lat="46.38027" lon="5.37557">
        <ele>481.8</ele>
        <time>2022-03-10T15:13:44Z</time>
      </trkpt>
      <trkpt lat="46.38048" lon="5.37583">
        <ele>480.2</ele>
        <time>2022-03-10T15:13:47Z</time>
      </trkpt>
      <trkpt lat="46.38055" lon="5.37592">
        <ele>479.8</ele>
        <time>2022-03-10T15:13:48Z</time>
      </trkpt>
      <trkpt lat="46.38067" lon="5.37609">
        <ele>478.8</ele>
        <time>2022-03-10T15:13:50Z</time>
      </trkpt>
      <trkpt lat="46.38088" lon="5.37636">
        <ele>477.6</ele>
        <time>2022-03-10T15:13:53Z</time>
      </trkpt>
      <trkpt lat="46.38102" lon="5.37654">
        <ele>477.4</ele>
        <time>2022-03-10T15:13:55Z</time>
      </trkpt>
      <trkpt lat="46.3814" lon="5.37701">
        <ele>476.6</ele>
        <time>2022-03-10T15:14:00Z</time>
      </trkpt>
      <trkpt lat="46.38165" lon="5.37729">
        <ele>475</ele>
        <time>2022-03-10T15:14:03Z</time>
      </trkpt>
      <trkpt lat="46.38192" lon="5.37759">
        <ele>473.8</ele>
        <time>2022-03-10T15:14:06Z</time>
      </trkpt>
      <trkpt lat="46.38201" lon="5.37769">
        <ele>473.4</ele>
        <time>2022-03-10T15:14:07Z</time>
      </trkpt>
      <trkpt lat="46.38219" lon="5.37789">
        <ele>472.6</ele>
        <time>2022-03-10T15:14:09Z</time>
      </trkpt>
      <trkpt lat="46.38251" lon="5.3782">
        <ele>471.6</ele>
        <time>2022-03-10T15:14:12Z</time>
      </trkpt>
      <trkpt lat="46.38262" lon="5.37828">
        <ele>471.4</ele>
        <time>2022-03-10T15:14:13Z</time>
      </trkpt>
      <trkpt lat="46.38282" lon="5.37839">
        <ele>470.2</ele>
        <time>2022-03-10T15:14:15Z</time>
      </trkpt>
      <trkpt lat="46.38305" lon="5.37853">
        <ele>468.8</ele>
        <time>2022-03-10T15:14:17Z</time>
      </trkpt>
      <trkpt lat="46.38328" lon="5.37869">
        <ele>468.2</ele>
        <time>2022-03-10T15:14:19Z</time>
      </trkpt>
      <trkpt lat="46.38339" lon="5.37878">
        <ele>468</ele>
        <time>2022-03-10T15:14:20Z</time>
      </trkpt>
      <trkpt lat="46.38353" lon="5.37889">
        <ele>467.4</ele>
        <time>2022-03-10T15:14:21Z</time>
      </trkpt>
      <trkpt lat="46.38384" lon="5.37916">
        <ele>466</ele>
        <time>2022-03-10T15:14:24Z</time>
      </trkpt>
      <trkpt lat="46.38408" lon="5.37939">
        <ele>464.8</ele>
        <time>2022-03-10T15:14:26Z</time>
      </trkpt>
      <trkpt lat="46.38428" lon="5.37957">
        <ele>463.4</ele>
        <time>2022-03-10T15:14:28Z</time>
      </trkpt>
      <trkpt lat="46.38449" lon="5.3798">
        <ele>461.4</ele>
        <time>2022-03-10T15:14:30Z</time>
      </trkpt>
      <trkpt lat="46.3847" lon="5.38004">
        <ele>459.8</ele>
        <time>2022-03-10T15:14:32Z</time>
      </trkpt>
      <trkpt lat="46.38481" lon="5.38016">
        <ele>458.8</ele>
        <time>2022-03-10T15:14:33Z</time>
      </trkpt>
      <trkpt lat="46.38501" lon="5.3804">
        <ele>457.4</ele>
        <time>2022-03-10T15:14:35Z</time>
      </trkpt>
      <trkpt lat="46.38523" lon="5.38065">
        <ele>455.6</ele>
        <time>2022-03-10T15:14:37Z</time>
      </trkpt>
      <trkpt lat="46.38531" lon="5.38075">
        <ele>454.6</ele>
        <time>2022-03-10T15:14:38Z</time>
      </trkpt>
      <trkpt lat="46.38542" lon="5.38086">
        <ele>453.2</ele>
        <time>2022-03-10T15:14:39Z</time>
      </trkpt>
      <trkpt lat="46.38562" lon="5.38108">
        <ele>452.4</ele>
        <time>2022-03-10T15:14:41Z</time>
      </trkpt>
      <trkpt lat="46.38572" lon="5.38119">
        <ele>451.6</ele>
        <time>2022-03-10T15:14:42Z</time>
      </trkpt>
      <trkpt lat="46.386" lon="5.38152">
        <ele>450.6</ele>
        <time>2022-03-10T15:14:45Z</time>
      </trkpt>
      <trkpt lat="46.38619" lon="5.38173">
        <ele>450.2</ele>
        <time>2022-03-10T15:14:47Z</time>
      </trkpt>
      <trkpt lat="46.38629" lon="5.38182">
        <ele>448.8</ele>
        <time>2022-03-10T15:14:48Z</time>
      </trkpt>
      <trkpt lat="46.38659" lon="5.38207">
        <ele>447.6</ele>
        <time>2022-03-10T15:14:51Z</time>
      </trkpt>
      <trkpt lat="46.38703" lon="5.38224">
        <ele>446.8</ele>
        <time>2022-03-10T15:14:55Z</time>
      </trkpt>
      <trkpt lat="46.38715" lon="5.38226">
        <ele>446.6</ele>
        <time>2022-03-10T15:14:56Z</time>
      </trkpt>
      <trkpt lat="46.38768" lon="5.38233">
        <ele>446.2</ele>
        <time>2022-03-10T15:15:01Z</time>
      </trkpt>
      <trkpt lat="46.38829" lon="5.38241">
        <ele>445.6</ele>
        <time>2022-03-10T15:15:07Z</time>
      </trkpt>
      <trkpt lat="46.38839" lon="5.38243">
        <ele>445.6</ele>
        <time>2022-03-10T15:15:08Z</time>
      </trkpt>
      <trkpt lat="46.38899" lon="5.38252">
        <ele>445.4</ele>
        <time>2022-03-10T15:15:14Z</time>
      </trkpt>
      <trkpt lat="46.38938" lon="5.38258">
        <ele>445.6</ele>
        <time>2022-03-10T15:15:18Z</time>
      </trkpt>
      <trkpt lat="46.38994" lon="5.38267">
        <ele>445.4</ele>
        <time>2022-03-10T15:15:24Z</time>
      </trkpt>
      <trkpt lat="46.39022" lon="5.38272">
        <ele>445.4</ele>
        <time>2022-03-10T15:15:27Z</time>
      </trkpt>
      <trkpt lat="46.39069" lon="5.38278">
        <ele>445</ele>
        <time>2022-03-10T15:15:32Z</time>
      </trkpt>
      <trkpt lat="46.39107" lon="5.38284">
        <ele>444.8</ele>
        <time>2022-03-10T15:15:36Z</time>
      </trkpt>
      <trkpt lat="46.39161" lon="5.38301">
        <ele>445.2</ele>
        <time>2022-03-10T15:15:42Z</time>
      </trkpt>
      <trkpt lat="46.3922" lon="5.38327">
        <ele>445.4</ele>
        <time>2022-03-10T15:15:49Z</time>
      </trkpt>
      <trkpt lat="46.39238" lon="5.38335">
        <ele>445.4</ele>
        <time>2022-03-10T15:15:51Z</time>
      </trkpt>
      <trkpt lat="46.39293" lon="5.38357">
        <ele>445</ele>
        <time>2022-03-10T15:15:57Z</time>
      </trkpt>
      <trkpt lat="46.39303" lon="5.38361">
        <ele>444.8</ele>
        <time>2022-03-10T15:15:58Z</time>
      </trkpt>
      <trkpt lat="46.39342" lon="5.38379">
        <ele>443.6</ele>
        <time>2022-03-10T15:16:02Z</time>
      </trkpt>
      <trkpt lat="46.39371" lon="5.38398">
        <ele>443</ele>
        <time>2022-03-10T15:16:05Z</time>
      </trkpt>
      <trkpt lat="46.3939" lon="5.3841">
        <ele>442.4</ele>
        <time>2022-03-10T15:16:07Z</time>
      </trkpt>
      <trkpt lat="46.39434" lon="5.38434">
        <ele>442</ele>
        <time>2022-03-10T15:16:12Z</time>
      </trkpt>
      <trkpt lat="46.39486" lon="5.38456">
        <ele>442.2</ele>
        <time>2022-03-10T15:16:18Z</time>
      </trkpt>
      <trkpt lat="46.39494" lon="5.3846">
        <ele>442.2</ele>
        <time>2022-03-10T15:16:19Z</time>
      </trkpt>
      <trkpt lat="46.39554" lon="5.38486">
        <ele>443</ele>
        <time>2022-03-10T15:16:26Z</time>
      </trkpt>
      <trkpt lat="46.39599" lon="5.38515">
        <ele>442.8</ele>
        <time>2022-03-10T15:16:31Z</time>
      </trkpt>
      <trkpt lat="46.39625" lon="5.38537">
        <ele>442.2</ele>
        <time>2022-03-10T15:16:34Z</time>
      </trkpt>
      <trkpt lat="46.39632" lon="5.38545">
        <ele>442</ele>
        <time>2022-03-10T15:16:35Z</time>
      </trkpt>
      <trkpt lat="46.39644" lon="5.38563">
        <ele>442.2</ele>
        <time>2022-03-10T15:16:37Z</time>
      </trkpt>
      <trkpt lat="46.39652" lon="5.38583">
        <ele>442.2</ele>
        <time>2022-03-10T15:16:39Z</time>
      </trkpt>
      <trkpt lat="46.3968" lon="5.38655">
        <ele>443.4</ele>
        <time>2022-03-10T15:16:46Z</time>
      </trkpt>
      <trkpt lat="46.3969" lon="5.38676">
        <ele>443.6</ele>
        <time>2022-03-10T15:16:48Z</time>
      </trkpt>
      <trkpt lat="46.39709" lon="5.38715">
        <ele>444</ele>
        <time>2022-03-10T15:16:52Z</time>
      </trkpt>
      <trkpt lat="46.39749" lon="5.38774">
        <ele>444.4</ele>
        <time>2022-03-10T15:16:59Z</time>
      </trkpt>
      <trkpt lat="46.39789" lon="5.38828">
        <ele>443.8</ele>
        <time>2022-03-10T15:17:05Z</time>
      </trkpt>
      <trkpt lat="46.39824" lon="5.38878">
        <ele>442.4</ele>
        <time>2022-03-10T15:17:10Z</time>
      </trkpt>
      <trkpt lat="46.39846" lon="5.38909">
        <ele>441.2</ele>
        <time>2022-03-10T15:17:13Z</time>
      </trkpt>
      <trkpt lat="46.39867" lon="5.3894">
        <ele>440.2</ele>
        <time>2022-03-10T15:17:16Z</time>
      </trkpt>
      <trkpt lat="46.3989" lon="5.38971">
        <ele>439.2</ele>
        <time>2022-03-10T15:17:19Z</time>
      </trkpt>
      <trkpt lat="46.39897" lon="5.38982">
        <ele>438.8</ele>
        <time>2022-03-10T15:17:20Z</time>
      </trkpt>
      <trkpt lat="46.39928" lon="5.39025">
        <ele>437.6</ele>
        <time>2022-03-10T15:17:24Z</time>
      </trkpt>
      <trkpt lat="46.39951" lon="5.39057">
        <ele>436.4</ele>
        <time>2022-03-10T15:17:27Z</time>
      </trkpt>
      <trkpt lat="46.39958" lon="5.39068">
        <ele>436.2</ele>
        <time>2022-03-10T15:17:28Z</time>
      </trkpt>
      <trkpt lat="46.39979" lon="5.39099">
        <ele>435.2</ele>
        <time>2022-03-10T15:17:31Z</time>
      </trkpt>
      <trkpt lat="46.4001" lon="5.39139">
        <ele>434.8</ele>
        <time>2022-03-10T15:17:35Z</time>
      </trkpt>
      <trkpt lat="46.40035" lon="5.39166">
        <ele>434.2</ele>
        <time>2022-03-10T15:17:38Z</time>
      </trkpt>
      <trkpt lat="46.40084" lon="5.39216">
        <ele>434</ele>
        <time>2022-03-10T15:17:44Z</time>
      </trkpt>
      <trkpt lat="46.40092" lon="5.39225">
        <ele>433.6</ele>
        <time>2022-03-10T15:17:45Z</time>
      </trkpt>
      <trkpt lat="46.40116" lon="5.39251">
        <ele>433</ele>
        <time>2022-03-10T15:17:48Z</time>
      </trkpt>
      <trkpt lat="46.40159" lon="5.39297">
        <ele>432.2</ele>
        <time>2022-03-10T15:17:53Z</time>
      </trkpt>
      <trkpt lat="46.4021" lon="5.39353">
        <ele>431</ele>
        <time>2022-03-10T15:17:59Z</time>
      </trkpt>
      <trkpt lat="46.40234" lon="5.39379">
        <ele>430.4</ele>
        <time>2022-03-10T15:18:02Z</time>
      </trkpt>
      <trkpt lat="46.40242" lon="5.39386">
        <ele>430.4</ele>
        <time>2022-03-10T15:18:03Z</time>
      </trkpt>
      <trkpt lat="46.40259" lon="5.39396">
        <ele>430.4</ele>
        <time>2022-03-10T15:18:05Z</time>
      </trkpt>
      <trkpt lat="46.40268" lon="5.39399">
        <ele>430.2</ele>
        <time>2022-03-10T15:18:06Z</time>
      </trkpt>
      <trkpt lat="46.40311" lon="5.39404">
        <ele>430.8</ele>
        <time>2022-03-10T15:18:11Z</time>
      </trkpt>
      <trkpt lat="46.40343" lon="5.39411">
        <ele>432.2</ele>
        <time>2022-03-10T15:18:15Z</time>
      </trkpt>
      <trkpt lat="46.40351" lon="5.39414">
        <ele>432.4</ele>
        <time>2022-03-10T15:18:16Z</time>
      </trkpt>
      <trkpt lat="46.40366" lon="5.39421">
        <ele>433.4</ele>
        <time>2022-03-10T15:18:18Z</time>
      </trkpt>
      <trkpt lat="46.40396" lon="5.39437">
        <ele>434.2</ele>
        <time>2022-03-10T15:18:22Z</time>
      </trkpt>
      <trkpt lat="46.40411" lon="5.39445">
        <ele>434.4</ele>
        <time>2022-03-10T15:18:24Z</time>
      </trkpt>
      <trkpt lat="46.40431" lon="5.39459">
        <ele>435.6</ele>
        <time>2022-03-10T15:18:27Z</time>
      </trkpt>
      <trkpt lat="46.40443" lon="5.3947">
        <ele>436</ele>
        <time>2022-03-10T15:18:29Z</time>
      </trkpt>
      <trkpt lat="46.4047" lon="5.39495">
        <ele>436.6</ele>
        <time>2022-03-10T15:18:33Z</time>
      </trkpt>
      <trkpt lat="46.40497" lon="5.39521">
        <ele>436.8</ele>
        <time>2022-03-10T15:18:37Z</time>
      </trkpt>
      <trkpt lat="46.40547" lon="5.39566">
        <ele>436.2</ele>
        <time>2022-03-10T15:18:44Z</time>
      </trkpt>
      <trkpt lat="46.40561" lon="5.39579">
        <ele>436.2</ele>
        <time>2022-03-10T15:18:46Z</time>
      </trkpt>
      <trkpt lat="46.40581" lon="5.39602">
        <ele>436.2</ele>
        <time>2022-03-10T15:18:49Z</time>
      </trkpt>
      <trkpt lat="46.40587" lon="5.39611">
        <ele>436.2</ele>
        <time>2022-03-10T15:18:50Z</time>
      </trkpt>
      <trkpt lat="46.40592" lon="5.39622">
        <ele>436</ele>
        <time>2022-03-10T15:18:51Z</time>
      </trkpt>
      <trkpt lat="46.40607" lon="5.3966">
        <ele>435.8</ele>
        <time>2022-03-10T15:18:54Z</time>
      </trkpt>
      <trkpt lat="46.40617" lon="5.3969">
        <ele>435.4</ele>
        <time>2022-03-10T15:18:56Z</time>
      </trkpt>
      <trkpt lat="46.40623" lon="5.39706">
        <ele>435.2</ele>
        <time>2022-03-10T15:18:57Z</time>
      </trkpt>
      <trkpt lat="46.40631" lon="5.39719">
        <ele>434.6</ele>
        <time>2022-03-10T15:18:58Z</time>
      </trkpt>
      <trkpt lat="46.40639" lon="5.39733">
        <ele>433.6</ele>
        <time>2022-03-10T15:18:59Z</time>
      </trkpt>
      <trkpt lat="46.40657" lon="5.39758">
        <ele>432</ele>
        <time>2022-03-10T15:19:01Z</time>
      </trkpt>
      <trkpt lat="46.40676" lon="5.39784">
        <ele>430</ele>
        <time>2022-03-10T15:19:03Z</time>
      </trkpt>
      <trkpt lat="46.40695" lon="5.39806">
        <ele>428.4</ele>
        <time>2022-03-10T15:19:05Z</time>
      </trkpt>
      <trkpt lat="46.40706" lon="5.39816">
        <ele>427.2</ele>
        <time>2022-03-10T15:19:06Z</time>
      </trkpt>
      <trkpt lat="46.40716" lon="5.39823">
        <ele>426.8</ele>
        <time>2022-03-10T15:19:07Z</time>
      </trkpt>
      <trkpt lat="46.40727" lon="5.3983">
        <ele>425.6</ele>
        <time>2022-03-10T15:19:08Z</time>
      </trkpt>
      <trkpt lat="46.40767" lon="5.39859">
        <ele>424.4</ele>
        <time>2022-03-10T15:19:12Z</time>
      </trkpt>
      <trkpt lat="46.40813" lon="5.39888">
        <ele>424</ele>
        <time>2022-03-10T15:19:17Z</time>
      </trkpt>
      <trkpt lat="46.40831" lon="5.39898">
        <ele>424.2</ele>
        <time>2022-03-10T15:19:19Z</time>
      </trkpt>
      <trkpt lat="46.40844" lon="5.39914">
        <ele>424.6</ele>
        <time>2022-03-10T15:19:21Z</time>
      </trkpt>
      <trkpt lat="46.4085" lon="5.39923">
        <ele>424.8</ele>
        <time>2022-03-10T15:19:22Z</time>
      </trkpt>
      <trkpt lat="46.40866" lon="5.39956">
        <ele>424.8</ele>
        <time>2022-03-10T15:19:25Z</time>
      </trkpt>
      <trkpt lat="46.40882" lon="5.40012">
        <ele>424.8</ele>
        <time>2022-03-10T15:19:29Z</time>
      </trkpt>
      <trkpt lat="46.40898" lon="5.40074">
        <ele>423.4</ele>
        <time>2022-03-10T15:19:33Z</time>
      </trkpt>
      <trkpt lat="46.40905" lon="5.40106">
        <ele>422.2</ele>
        <time>2022-03-10T15:19:35Z</time>
      </trkpt>
      <trkpt lat="46.40909" lon="5.40121">
        <ele>422</ele>
        <time>2022-03-10T15:19:36Z</time>
      </trkpt>
      <trkpt lat="46.40914" lon="5.40135">
        <ele>421</ele>
        <time>2022-03-10T15:19:37Z</time>
      </trkpt>
      <trkpt lat="46.40923" lon="5.40148">
        <ele>420</ele>
        <time>2022-03-10T15:19:38Z</time>
      </trkpt>
      <trkpt lat="46.40937" lon="5.40159">
        <ele>419.2</ele>
        <time>2022-03-10T15:19:40Z</time>
      </trkpt>
      <trkpt lat="46.40945" lon="5.40162">
        <ele>418.8</ele>
        <time>2022-03-10T15:19:41Z</time>
      </trkpt>
      <trkpt lat="46.40953" lon="5.40164">
        <ele>418.2</ele>
        <time>2022-03-10T15:19:42Z</time>
      </trkpt>
      <trkpt lat="46.40979" lon="5.40169">
        <ele>417.8</ele>
        <time>2022-03-10T15:19:45Z</time>
      </trkpt>
      <trkpt lat="46.41035" lon="5.4018">
        <ele>418</ele>
        <time>2022-03-10T15:19:51Z</time>
      </trkpt>
      <trkpt lat="46.41051" lon="5.40184">
        <ele>418.2</ele>
        <time>2022-03-10T15:19:53Z</time>
      </trkpt>
      <trkpt lat="46.41104" lon="5.40188">
        <ele>418.6</ele>
        <time>2022-03-10T15:19:59Z</time>
      </trkpt>
      <trkpt lat="46.41138" lon="5.40175">
        <ele>418.8</ele>
        <time>2022-03-10T15:20:03Z</time>
      </trkpt>
      <trkpt lat="46.41192" lon="5.40147">
        <ele>419.8</ele>
        <time>2022-03-10T15:20:10Z</time>
      </trkpt>
      <trkpt lat="46.41208" lon="5.40138">
        <ele>420</ele>
        <time>2022-03-10T15:20:12Z</time>
      </trkpt>
      <trkpt lat="46.41215" lon="5.40135">
        <ele>420.2</ele>
        <time>2022-03-10T15:20:13Z</time>
      </trkpt>
      <trkpt lat="46.41254" lon="5.40122">
        <ele>420.6</ele>
        <time>2022-03-10T15:20:18Z</time>
      </trkpt>
      <trkpt lat="46.41292" lon="5.40117">
        <ele>421.2</ele>
        <time>2022-03-10T15:20:23Z</time>
      </trkpt>
      <trkpt lat="46.41306" lon="5.40116">
        <ele>421.6</ele>
        <time>2022-03-10T15:20:25Z</time>
      </trkpt>
      <trkpt lat="46.41354" lon="5.40116">
        <ele>422.6</ele>
        <time>2022-03-10T15:20:32Z</time>
      </trkpt>
      <trkpt lat="46.41367" lon="5.40116">
        <ele>422.8</ele>
        <time>2022-03-10T15:20:34Z</time>
      </trkpt>
      <trkpt lat="46.41406" lon="5.40117">
        <ele>423.8</ele>
        <time>2022-03-10T15:20:40Z</time>
      </trkpt>
      <trkpt lat="46.41429" lon="5.40116">
        <ele>424.2</ele>
        <time>2022-03-10T15:20:44Z</time>
      </trkpt>
      <trkpt lat="46.41452" lon="5.40114">
        <ele>424.8</ele>
        <time>2022-03-10T15:20:48Z</time>
      </trkpt>
      <trkpt lat="46.41479" lon="5.40113">
        <ele>425.6</ele>
        <time>2022-03-10T15:20:53Z</time>
      </trkpt>
      <trkpt lat="46.4149" lon="5.40112">
        <ele>426.2</ele>
        <time>2022-03-10T15:20:55Z</time>
      </trkpt>
      <trkpt lat="46.41516" lon="5.4011">
        <ele>427.4</ele>
        <time>2022-03-10T15:21:00Z</time>
      </trkpt>
      <trkpt lat="46.41521" lon="5.40109">
        <ele>427.4</ele>
        <time>2022-03-10T15:21:01Z</time>
      </trkpt>
      <trkpt lat="46.41562" lon="5.40105">
        <ele>428.4</ele>
        <time>2022-03-10T15:21:09Z</time>
      </trkpt>
      <trkpt lat="46.41567" lon="5.40104">
        <ele>428.4</ele>
        <time>2022-03-10T15:21:10Z</time>
      </trkpt>
      <trkpt lat="46.41587" lon="5.40099">
        <ele>429.4</ele>
        <time>2022-03-10T15:21:14Z</time>
      </trkpt>
      <trkpt lat="46.4162" lon="5.40088">
        <ele>430.8</ele>
        <time>2022-03-10T15:21:21Z</time>
      </trkpt>
      <trkpt lat="46.41645" lon="5.40074">
        <ele>431.8</ele>
        <time>2022-03-10T15:21:27Z</time>
      </trkpt>
      <trkpt lat="46.41652" lon="5.40068">
        <ele>432.2</ele>
        <time>2022-03-10T15:21:29Z</time>
      </trkpt>
      <trkpt lat="46.41663" lon="5.4006">
        <ele>433.4</ele>
        <time>2022-03-10T15:21:32Z</time>
      </trkpt>
      <trkpt lat="46.4168" lon="5.40046">
        <ele>434.6</ele>
        <time>2022-03-10T15:21:37Z</time>
      </trkpt>
      <trkpt lat="46.41687" lon="5.40041">
        <ele>435</ele>
        <time>2022-03-10T15:21:39Z</time>
      </trkpt>
      <trkpt lat="46.41695" lon="5.40036">
        <ele>435.6</ele>
        <time>2022-03-10T15:21:41Z</time>
      </trkpt>
      <trkpt lat="46.41714" lon="5.40027">
        <ele>436.6</ele>
        <time>2022-03-10T15:21:46Z</time>
      </trkpt>
      <trkpt lat="46.41721" lon="5.40025">
        <ele>437</ele>
        <time>2022-03-10T15:21:48Z</time>
      </trkpt>
      <trkpt lat="46.41732" lon="5.40023">
        <ele>437.8</ele>
        <time>2022-03-10T15:21:51Z</time>
      </trkpt>
      <trkpt lat="46.41746" lon="5.4002">
        <ele>439</ele>
        <time>2022-03-10T15:21:55Z</time>
      </trkpt>
      <trkpt lat="46.4175" lon="5.40021">
        <ele>439.2</ele>
        <time>2022-03-10T15:21:56Z</time>
      </trkpt>
      <trkpt lat="46.41768" lon="5.40024">
        <ele>440</ele>
        <time>2022-03-10T15:22:01Z</time>
      </trkpt>
      <trkpt lat="46.41775" lon="5.40028">
        <ele>440.6</ele>
        <time>2022-03-10T15:22:03Z</time>
      </trkpt>
      <trkpt lat="46.41785" lon="5.40031">
        <ele>441</ele>
        <time>2022-03-10T15:22:06Z</time>
      </trkpt>
      <trkpt lat="46.41799" lon="5.40035">
        <ele>441.8</ele>
        <time>2022-03-10T15:22:10Z</time>
      </trkpt>
      <trkpt lat="46.41811" lon="5.40039">
        <ele>442</ele>
        <time>2022-03-10T15:22:13Z</time>
      </trkpt>
      <trkpt lat="46.4183" lon="5.40045">
        <ele>442.6</ele>
        <time>2022-03-10T15:22:18Z</time>
      </trkpt>
      <trkpt lat="46.41845" lon="5.40049">
        <ele>443.2</ele>
        <time>2022-03-10T15:22:22Z</time>
      </trkpt>
      <trkpt lat="46.41868" lon="5.40055">
        <ele>443.8</ele>
        <time>2022-03-10T15:22:28Z</time>
      </trkpt>
      <trkpt lat="46.41876" lon="5.40056">
        <ele>444.4</ele>
        <time>2022-03-10T15:22:30Z</time>
      </trkpt>
      <trkpt lat="46.41891" lon="5.40059">
        <ele>445.6</ele>
        <time>2022-03-10T15:22:34Z</time>
      </trkpt>
      <trkpt lat="46.41901" lon="5.40061">
        <ele>446.2</ele>
        <time>2022-03-10T15:22:37Z</time>
      </trkpt>
      <trkpt lat="46.41922" lon="5.40061">
        <ele>446.8</ele>
        <time>2022-03-10T15:22:42Z</time>
      </trkpt>
      <trkpt lat="46.41926" lon="5.4006">
        <ele>447</ele>
        <time>2022-03-10T15:22:43Z</time>
      </trkpt>
      <trkpt lat="46.4194" lon="5.40059">
        <ele>447.8</ele>
        <time>2022-03-10T15:22:46Z</time>
      </trkpt>
      <trkpt lat="46.41962" lon="5.40057">
        <ele>448.8</ele>
        <time>2022-03-10T15:22:51Z</time>
      </trkpt>
      <trkpt lat="46.41966" lon="5.40057">
        <ele>449.2</ele>
        <time>2022-03-10T15:22:52Z</time>
      </trkpt>
      <trkpt lat="46.41979" lon="5.40058">
        <ele>449.8</ele>
        <time>2022-03-10T15:22:55Z</time>
      </trkpt>
      <trkpt lat="46.42003" lon="5.40062">
        <ele>451.2</ele>
        <time>2022-03-10T15:23:01Z</time>
      </trkpt>
      <trkpt lat="46.42006" lon="5.40062">
        <ele>451.6</ele>
        <time>2022-03-10T15:23:02Z</time>
      </trkpt>
      <trkpt lat="46.42018" lon="5.40064">
        <ele>452.2</ele>
        <time>2022-03-10T15:23:05Z</time>
      </trkpt>
      <trkpt lat="46.42042" lon="5.40071">
        <ele>453.2</ele>
        <time>2022-03-10T15:23:11Z</time>
      </trkpt>
      <trkpt lat="46.42064" lon="5.40079">
        <ele>454.4</ele>
        <time>2022-03-10T15:23:17Z</time>
      </trkpt>
      <trkpt lat="46.42068" lon="5.4008">
        <ele>454.6</ele>
        <time>2022-03-10T15:23:18Z</time>
      </trkpt>
      <trkpt lat="46.42083" lon="5.40085">
        <ele>455.6</ele>
        <time>2022-03-10T15:23:22Z</time>
      </trkpt>
      <trkpt lat="46.42101" lon="5.40088">
        <ele>456.8</ele>
        <time>2022-03-10T15:23:27Z</time>
      </trkpt>
      <trkpt lat="46.42123" lon="5.40086">
        <ele>458</ele>
        <time>2022-03-10T15:23:32Z</time>
      </trkpt>
      <trkpt lat="46.42128" lon="5.40085">
        <ele>458.2</ele>
        <time>2022-03-10T15:23:33Z</time>
      </trkpt>
      <trkpt lat="46.4215" lon="5.40079">
        <ele>459.2</ele>
        <time>2022-03-10T15:23:38Z</time>
      </trkpt>
      <trkpt lat="46.42167" lon="5.40074">
        <ele>460</ele>
        <time>2022-03-10T15:23:42Z</time>
      </trkpt>
      <trkpt lat="46.42175" lon="5.40072">
        <ele>460.2</ele>
        <time>2022-03-10T15:23:44Z</time>
      </trkpt>
      <trkpt lat="46.42192" lon="5.40067">
        <ele>461.4</ele>
        <time>2022-03-10T15:23:48Z</time>
      </trkpt>
      <trkpt lat="46.42206" lon="5.40063">
        <ele>461.8</ele>
        <time>2022-03-10T15:23:51Z</time>
      </trkpt>
      <trkpt lat="46.42211" lon="5.40062">
        <ele>462.4</ele>
        <time>2022-03-10T15:23:52Z</time>
      </trkpt>
      <trkpt lat="46.42241" lon="5.40054">
        <ele>463</ele>
        <time>2022-03-10T15:23:58Z</time>
      </trkpt>
      <trkpt lat="46.42293" lon="5.40038">
        <ele>463.4</ele>
        <time>2022-03-10T15:24:08Z</time>
      </trkpt>
      <trkpt lat="46.42304" lon="5.40034">
        <ele>463.6</ele>
        <time>2022-03-10T15:24:10Z</time>
      </trkpt>
      <trkpt lat="46.4235" lon="5.4002">
        <ele>464</ele>
        <time>2022-03-10T15:24:18Z</time>
      </trkpt>
      <trkpt lat="46.4238" lon="5.40006">
        <ele>464.6</ele>
        <time>2022-03-10T15:24:24Z</time>
      </trkpt>
      <trkpt lat="46.42384" lon="5.40001">
        <ele>464.6</ele>
        <time>2022-03-10T15:24:25Z</time>
      </trkpt>
      <trkpt lat="46.42388" lon="5.39996">
        <ele>465</ele>
        <time>2022-03-10T15:24:26Z</time>
      </trkpt>
      <trkpt lat="46.42393" lon="5.39979">
        <ele>465.6</ele>
        <time>2022-03-10T15:24:28Z</time>
      </trkpt>
      <trkpt lat="46.42395" lon="5.39954">
        <ele>466.2</ele>
        <time>2022-03-10T15:24:31Z</time>
      </trkpt>
      <trkpt lat="46.42396" lon="5.39936">
        <ele>466.8</ele>
        <time>2022-03-10T15:24:33Z</time>
      </trkpt>
      <trkpt lat="46.42396" lon="5.39909">
        <ele>467.2</ele>
        <time>2022-03-10T15:24:36Z</time>
      </trkpt>
      <trkpt lat="46.42397" lon="5.39869">
        <ele>467.8</ele>
        <time>2022-03-10T15:24:41Z</time>
      </trkpt>
      <trkpt lat="46.42397" lon="5.39848">
        <ele>468.4</ele>
        <time>2022-03-10T15:24:44Z</time>
      </trkpt>
      <trkpt lat="46.42398" lon="5.39827">
        <ele>468.8</ele>
        <time>2022-03-10T15:24:47Z</time>
      </trkpt>
      <trkpt lat="46.42399" lon="5.39813">
        <ele>469</ele>
        <time>2022-03-10T15:24:49Z</time>
      </trkpt>
      <trkpt lat="46.42403" lon="5.39801">
        <ele>469.2</ele>
        <time>2022-03-10T15:24:51Z</time>
      </trkpt>
      <trkpt lat="46.42411" lon="5.39794">
        <ele>469.2</ele>
        <time>2022-03-10T15:24:53Z</time>
      </trkpt>
      <trkpt lat="46.42415" lon="5.39794">
        <ele>469.6</ele>
        <time>2022-03-10T15:24:54Z</time>
      </trkpt>
      <trkpt lat="46.4242" lon="5.39794">
        <ele>469.6</ele>
        <time>2022-03-10T15:24:55Z</time>
      </trkpt>
      <trkpt lat="46.42444" lon="5.39801">
        <ele>470</ele>
        <time>2022-03-10T15:24:59Z</time>
      </trkpt>
      <trkpt lat="46.42457" lon="5.3981">
        <ele>470</ele>
        <time>2022-03-10T15:25:01Z</time>
      </trkpt>
      <trkpt lat="46.42468" lon="5.39823">
        <ele>470</ele>
        <time>2022-03-10T15:25:03Z</time>
      </trkpt>
      <trkpt lat="46.42502" lon="5.39869">
        <ele>469.2</ele>
        <time>2022-03-10T15:25:09Z</time>
      </trkpt>
      <trkpt lat="46.42545" lon="5.39903">
        <ele>469</ele>
        <time>2022-03-10T15:25:15Z</time>
      </trkpt>
      <trkpt lat="46.42595" lon="5.39941">
        <ele>468.8</ele>
        <time>2022-03-10T15:25:22Z</time>
      </trkpt>
      <trkpt lat="46.42602" lon="5.39945">
        <ele>468.8</ele>
        <time>2022-03-10T15:25:23Z</time>
      </trkpt>
      <trkpt lat="46.42659" lon="5.39972">
        <ele>470</ele>
        <time>2022-03-10T15:25:31Z</time>
      </trkpt>
      <trkpt lat="46.42689" lon="5.39986">
        <ele>470.6</ele>
        <time>2022-03-10T15:25:35Z</time>
      </trkpt>
      <trkpt lat="46.42736" lon="5.40006">
        <ele>471</ele>
        <time>2022-03-10T15:25:41Z</time>
      </trkpt>
      <trkpt lat="46.42795" lon="5.4003">
        <ele>471.4</ele>
        <time>2022-03-10T15:25:49Z</time>
      </trkpt>
      <trkpt lat="46.42854" lon="5.4005">
        <ele>471.6</ele>
        <time>2022-03-10T15:25:56Z</time>
      </trkpt>
      <trkpt lat="46.42905" lon="5.40058">
        <ele>471.2</ele>
        <time>2022-03-10T15:26:02Z</time>
      </trkpt>
      <trkpt lat="46.42952" lon="5.40061">
        <ele>471.8</ele>
        <time>2022-03-10T15:26:08Z</time>
      </trkpt>
      <trkpt lat="46.42992" lon="5.4007">
        <ele>473</ele>
        <time>2022-03-10T15:26:13Z</time>
      </trkpt>
      <trkpt lat="46.43008" lon="5.40073">
        <ele>473.8</ele>
        <time>2022-03-10T15:26:15Z</time>
      </trkpt>
      <trkpt lat="46.43025" lon="5.40075">
        <ele>474.2</ele>
        <time>2022-03-10T15:26:17Z</time>
      </trkpt>
      <trkpt lat="46.43074" lon="5.40077">
        <ele>474.8</ele>
        <time>2022-03-10T15:26:23Z</time>
      </trkpt>
      <trkpt lat="46.43082" lon="5.40078">
        <ele>475</ele>
        <time>2022-03-10T15:26:24Z</time>
      </trkpt>
      <trkpt lat="46.43109" lon="5.40085">
        <ele>475</ele>
        <time>2022-03-10T15:26:27Z</time>
      </trkpt>
      <trkpt lat="46.43166" lon="5.40094">
        <ele>474.4</ele>
        <time>2022-03-10T15:26:33Z</time>
      </trkpt>
      <trkpt lat="46.43185" lon="5.40099">
        <ele>474.2</ele>
        <time>2022-03-10T15:26:35Z</time>
      </trkpt>
      <trkpt lat="46.43202" lon="5.40107">
        <ele>474</ele>
        <time>2022-03-10T15:26:37Z</time>
      </trkpt>
      <trkpt lat="46.4322" lon="5.40117">
        <ele>473.6</ele>
        <time>2022-03-10T15:26:39Z</time>
      </trkpt>
      <trkpt lat="46.43238" lon="5.40122">
        <ele>473.4</ele>
        <time>2022-03-10T15:26:41Z</time>
      </trkpt>
      <trkpt lat="46.43248" lon="5.40123">
        <ele>473.2</ele>
        <time>2022-03-10T15:26:42Z</time>
      </trkpt>
      <trkpt lat="46.43284" lon="5.40119">
        <ele>473</ele>
        <time>2022-03-10T15:26:46Z</time>
      </trkpt>
      <trkpt lat="46.43331" lon="5.40116">
        <ele>472.6</ele>
        <time>2022-03-10T15:26:51Z</time>
      </trkpt>
      <trkpt lat="46.43386" lon="5.40123">
        <ele>472.4</ele>
        <time>2022-03-10T15:26:57Z</time>
      </trkpt>
      <trkpt lat="46.43395" lon="5.40126">
        <ele>472.2</ele>
        <time>2022-03-10T15:26:58Z</time>
      </trkpt>
      <trkpt lat="46.43413" lon="5.40134">
        <ele>472.2</ele>
        <time>2022-03-10T15:27:00Z</time>
      </trkpt>
      <trkpt lat="46.43458" lon="5.40153">
        <ele>472</ele>
        <time>2022-03-10T15:27:05Z</time>
      </trkpt>
      <trkpt lat="46.43474" lon="5.40162">
        <ele>472</ele>
        <time>2022-03-10T15:27:07Z</time>
      </trkpt>
      <trkpt lat="46.43509" lon="5.40173">
        <ele>472</ele>
        <time>2022-03-10T15:27:11Z</time>
      </trkpt>
      <trkpt lat="46.4357" lon="5.4018">
        <ele>472.2</ele>
        <time>2022-03-10T15:27:18Z</time>
      </trkpt>
      <trkpt lat="46.43624" lon="5.40189">
        <ele>472.4</ele>
        <time>2022-03-10T15:27:24Z</time>
      </trkpt>
      <trkpt lat="46.43673" lon="5.40183">
        <ele>473</ele>
        <time>2022-03-10T15:27:30Z</time>
      </trkpt>
      <trkpt lat="46.43681" lon="5.40182">
        <ele>473.4</ele>
        <time>2022-03-10T15:27:31Z</time>
      </trkpt>
      <trkpt lat="46.43721" lon="5.40177">
        <ele>473.8</ele>
        <time>2022-03-10T15:27:36Z</time>
      </trkpt>
      <trkpt lat="46.43743" lon="5.40173">
        <ele>474.4</ele>
        <time>2022-03-10T15:27:39Z</time>
      </trkpt>
      <trkpt lat="46.43785" lon="5.40163">
        <ele>474.8</ele>
        <time>2022-03-10T15:27:44Z</time>
      </trkpt>
      <trkpt lat="46.43839" lon="5.40145">
        <ele>475.2</ele>
        <time>2022-03-10T15:27:51Z</time>
      </trkpt>
      <trkpt lat="46.43848" lon="5.40142">
        <ele>475.2</ele>
        <time>2022-03-10T15:27:52Z</time>
      </trkpt>
      <trkpt lat="46.43865" lon="5.40136">
        <ele>475.2</ele>
        <time>2022-03-10T15:27:54Z</time>
      </trkpt>
      <trkpt lat="46.43882" lon="5.40125">
        <ele>475.2</ele>
        <time>2022-03-10T15:27:56Z</time>
      </trkpt>
      <trkpt lat="46.43919" lon="5.40093">
        <ele>475</ele>
        <time>2022-03-10T15:28:01Z</time>
      </trkpt>
      <trkpt lat="46.43934" lon="5.40087">
        <ele>475</ele>
        <time>2022-03-10T15:28:03Z</time>
      </trkpt>
      <trkpt lat="46.43942" lon="5.40086">
        <ele>475</ele>
        <time>2022-03-10T15:28:04Z</time>
      </trkpt>
      <trkpt lat="46.43995" lon="5.40084">
        <ele>474.6</ele>
        <time>2022-03-10T15:28:10Z</time>
      </trkpt>
      <trkpt lat="46.44035" lon="5.40076">
        <ele>473.8</ele>
        <time>2022-03-10T15:28:15Z</time>
      </trkpt>
      <trkpt lat="46.44088" lon="5.40061">
        <ele>474.6</ele>
        <time>2022-03-10T15:28:22Z</time>
      </trkpt>
      <trkpt lat="46.44096" lon="5.4006">
        <ele>474.6</ele>
        <time>2022-03-10T15:28:23Z</time>
      </trkpt>
      <trkpt lat="46.44139" lon="5.40043">
        <ele>475</ele>
        <time>2022-03-10T15:28:29Z</time>
      </trkpt>
      <trkpt lat="46.44174" lon="5.40011">
        <ele>475.6</ele>
        <time>2022-03-10T15:28:35Z</time>
      </trkpt>
      <trkpt lat="46.44227" lon="5.39966">
        <ele>476.6</ele>
        <time>2022-03-10T15:28:44Z</time>
      </trkpt>
      <trkpt lat="46.44234" lon="5.39961">
        <ele>476.6</ele>
        <time>2022-03-10T15:28:45Z</time>
      </trkpt>
      <trkpt lat="46.44256" lon="5.39953">
        <ele>476.6</ele>
        <time>2022-03-10T15:28:48Z</time>
      </trkpt>
      <trkpt lat="46.44296" lon="5.39953">
        <ele>476.6</ele>
        <time>2022-03-10T15:28:54Z</time>
      </trkpt>
      <trkpt lat="46.44333" lon="5.39955">
        <ele>476.8</ele>
        <time>2022-03-10T15:29:00Z</time>
      </trkpt>
      <trkpt lat="46.4435" lon="5.39953">
        <ele>477.4</ele>
        <time>2022-03-10T15:29:03Z</time>
      </trkpt>
      <trkpt lat="46.44356" lon="5.39954">
        <ele>477.8</ele>
        <time>2022-03-10T15:29:04Z</time>
      </trkpt>
      <trkpt lat="46.44368" lon="5.39954">
        <ele>478.6</ele>
        <time>2022-03-10T15:29:06Z</time>
      </trkpt>
      <trkpt lat="46.44381" lon="5.39953">
        <ele>479</ele>
        <time>2022-03-10T15:29:08Z</time>
      </trkpt>
      <trkpt lat="46.4441" lon="5.39951">
        <ele>479.6</ele>
        <time>2022-03-10T15:29:12Z</time>
      </trkpt>
      <trkpt lat="46.44434" lon="5.39947">
        <ele>479.8</ele>
        <time>2022-03-10T15:29:15Z</time>
      </trkpt>
      <trkpt lat="46.4445" lon="5.39941">
        <ele>479.6</ele>
        <time>2022-03-10T15:29:17Z</time>
      </trkpt>
      <trkpt lat="46.44493" lon="5.39918">
        <ele>479.4</ele>
        <time>2022-03-10T15:29:23Z</time>
      </trkpt>
      <trkpt lat="46.44528" lon="5.39902">
        <ele>480</ele>
        <time>2022-03-10T15:29:28Z</time>
      </trkpt>
      <trkpt lat="46.44548" lon="5.39893">
        <ele>480.4</ele>
        <time>2022-03-10T15:29:31Z</time>
      </trkpt>
      <trkpt lat="46.44601" lon="5.3986">
        <ele>480.4</ele>
        <time>2022-03-10T15:29:39Z</time>
      </trkpt>
      <trkpt lat="46.44627" lon="5.39828">
        <ele>480.8</ele>
        <time>2022-03-10T15:29:44Z</time>
      </trkpt>
      <trkpt lat="46.44633" lon="5.39822">
        <ele>481</ele>
        <time>2022-03-10T15:29:45Z</time>
      </trkpt>
      <trkpt lat="46.44646" lon="5.3981">
        <ele>481.2</ele>
        <time>2022-03-10T15:29:47Z</time>
      </trkpt>
      <trkpt lat="46.44662" lon="5.39801">
        <ele>481.2</ele>
        <time>2022-03-10T15:29:49Z</time>
      </trkpt>
      <trkpt lat="46.4468" lon="5.39797">
        <ele>481</ele>
        <time>2022-03-10T15:29:51Z</time>
      </trkpt>
      <trkpt lat="46.44697" lon="5.39798">
        <ele>480.2</ele>
        <time>2022-03-10T15:29:53Z</time>
      </trkpt>
      <trkpt lat="46.44735" lon="5.39799">
        <ele>479.6</ele>
        <time>2022-03-10T15:29:58Z</time>
      </trkpt>
      <trkpt lat="46.4478" lon="5.398">
        <ele>481</ele>
        <time>2022-03-10T15:30:05Z</time>
      </trkpt>
      <trkpt lat="46.44787" lon="5.398">
        <ele>481.4</ele>
        <time>2022-03-10T15:30:06Z</time>
      </trkpt>
      <trkpt lat="46.44813" lon="5.39791">
        <ele>482.4</ele>
        <time>2022-03-10T15:30:10Z</time>
      </trkpt>
      <trkpt lat="46.44848" lon="5.39767">
        <ele>482.6</ele>
        <time>2022-03-10T15:30:15Z</time>
      </trkpt>
      <trkpt lat="46.44856" lon="5.39763">
        <ele>482.6</ele>
        <time>2022-03-10T15:30:16Z</time>
      </trkpt>
      <trkpt lat="46.4487" lon="5.39757">
        <ele>482.4</ele>
        <time>2022-03-10T15:30:18Z</time>
      </trkpt>
      <trkpt lat="46.44885" lon="5.39754">
        <ele>482.2</ele>
        <time>2022-03-10T15:30:20Z</time>
      </trkpt>
      <trkpt lat="46.44917" lon="5.39746">
        <ele>482.2</ele>
        <time>2022-03-10T15:30:25Z</time>
      </trkpt>
      <trkpt lat="46.44965" lon="5.39732">
        <ele>483.4</ele>
        <time>2022-03-10T15:30:32Z</time>
      </trkpt>
      <trkpt lat="46.44973" lon="5.39729">
        <ele>483.4</ele>
        <time>2022-03-10T15:30:33Z</time>
      </trkpt>
      <trkpt lat="46.44979" lon="5.39724">
        <ele>483.4</ele>
        <time>2022-03-10T15:30:34Z</time>
      </trkpt>
      <trkpt lat="46.44998" lon="5.39707">
        <ele>483.6</ele>
        <time>2022-03-10T15:30:37Z</time>
      </trkpt>
      <trkpt lat="46.45035" lon="5.39669">
        <ele>484</ele>
        <time>2022-03-10T15:30:44Z</time>
      </trkpt>
      <trkpt lat="46.45051" lon="5.39656">
        <ele>484.6</ele>
        <time>2022-03-10T15:30:47Z</time>
      </trkpt>
      <trkpt lat="46.45079" lon="5.39635">
        <ele>485.2</ele>
        <time>2022-03-10T15:30:52Z</time>
      </trkpt>
      <trkpt lat="46.45085" lon="5.39631">
        <ele>485.6</ele>
        <time>2022-03-10T15:30:53Z</time>
      </trkpt>
      <trkpt lat="46.45109" lon="5.39615">
        <ele>486.6</ele>
        <time>2022-03-10T15:30:57Z</time>
      </trkpt>
      <trkpt lat="46.45128" lon="5.39604">
        <ele>487.2</ele>
        <time>2022-03-10T15:31:00Z</time>
      </trkpt>
      <trkpt lat="46.45173" lon="5.39583">
        <ele>487.2</ele>
        <time>2022-03-10T15:31:06Z</time>
      </trkpt>
      <trkpt lat="46.45216" lon="5.39566">
        <ele>487</ele>
        <time>2022-03-10T15:31:11Z</time>
      </trkpt>
      <trkpt lat="46.45259" lon="5.39538">
        <ele>486</ele>
        <time>2022-03-10T15:31:16Z</time>
      </trkpt>
      <trkpt lat="46.45266" lon="5.39531">
        <ele>485.4</ele>
        <time>2022-03-10T15:31:17Z</time>
      </trkpt>
      <trkpt lat="46.45295" lon="5.39498">
        <ele>484.2</ele>
        <time>2022-03-10T15:31:21Z</time>
      </trkpt>
      <trkpt lat="46.45301" lon="5.39489">
        <ele>483.8</ele>
        <time>2022-03-10T15:31:22Z</time>
      </trkpt>
      <trkpt lat="46.45318" lon="5.39461">
        <ele>483</ele>
        <time>2022-03-10T15:31:25Z</time>
      </trkpt>
      <trkpt lat="46.45327" lon="5.39441">
        <ele>482.8</ele>
        <time>2022-03-10T15:31:27Z</time>
      </trkpt>
      <trkpt lat="46.45352" lon="5.39372">
        <ele>482.4</ele>
        <time>2022-03-10T15:31:33Z</time>
      </trkpt>
      <trkpt lat="46.45366" lon="5.39334">
        <ele>481.8</ele>
        <time>2022-03-10T15:31:36Z</time>
      </trkpt>
      <trkpt lat="46.45379" lon="5.39295">
        <ele>480.6</ele>
        <time>2022-03-10T15:31:39Z</time>
      </trkpt>
      <trkpt lat="46.45393" lon="5.39257">
        <ele>479.4</ele>
        <time>2022-03-10T15:31:42Z</time>
      </trkpt>
      <trkpt lat="46.45406" lon="5.39222">
        <ele>478.6</ele>
        <time>2022-03-10T15:31:45Z</time>
      </trkpt>
      <trkpt lat="46.45411" lon="5.39211">
        <ele>477.8</ele>
        <time>2022-03-10T15:31:46Z</time>
      </trkpt>
      <trkpt lat="46.45423" lon="5.39178">
        <ele>476.4</ele>
        <time>2022-03-10T15:31:49Z</time>
      </trkpt>
      <trkpt lat="46.45426" lon="5.39167">
        <ele>476.2</ele>
        <time>2022-03-10T15:31:50Z</time>
      </trkpt>
      <trkpt lat="46.45446" lon="5.39111">
        <ele>475.6</ele>
        <time>2022-03-10T15:31:55Z</time>
      </trkpt>
      <trkpt lat="46.45453" lon="5.39101">
        <ele>475.6</ele>
        <time>2022-03-10T15:31:56Z</time>
      </trkpt>
      <trkpt lat="46.45461" lon="5.39096">
        <ele>475.6</ele>
        <time>2022-03-10T15:31:57Z</time>
      </trkpt>
      <trkpt lat="46.45469" lon="5.39094">
        <ele>475.4</ele>
        <time>2022-03-10T15:31:58Z</time>
      </trkpt>
      <trkpt lat="46.45477" lon="5.39094">
        <ele>475</ele>
        <time>2022-03-10T15:31:59Z</time>
      </trkpt>
      <trkpt lat="46.45489" lon="5.39104">
        <ele>474</ele>
        <time>2022-03-10T15:32:01Z</time>
      </trkpt>
      <trkpt lat="46.45495" lon="5.3911">
        <ele>473</ele>
        <time>2022-03-10T15:32:02Z</time>
      </trkpt>
      <trkpt lat="46.45514" lon="5.39128">
        <ele>472</ele>
        <time>2022-03-10T15:32:05Z</time>
      </trkpt>
      <trkpt lat="46.45538" lon="5.39152">
        <ele>471.6</ele>
        <time>2022-03-10T15:32:09Z</time>
      </trkpt>
      <trkpt lat="46.45578" lon="5.39189">
        <ele>473</ele>
        <time>2022-03-10T15:32:16Z</time>
      </trkpt>
      <trkpt lat="46.45584" lon="5.39194">
        <ele>473.2</ele>
        <time>2022-03-10T15:32:17Z</time>
      </trkpt>
      <trkpt lat="46.45589" lon="5.39199">
        <ele>473.4</ele>
        <time>2022-03-10T15:32:18Z</time>
      </trkpt>
      <trkpt lat="46.45599" lon="5.3921">
        <ele>474.2</ele>
        <time>2022-03-10T15:32:20Z</time>
      </trkpt>
      <trkpt lat="46.45613" lon="5.39225">
        <ele>475</ele>
        <time>2022-03-10T15:32:23Z</time>
      </trkpt>
      <trkpt lat="46.45622" lon="5.39234">
        <ele>475.6</ele>
        <time>2022-03-10T15:32:25Z</time>
      </trkpt>
      <trkpt lat="46.4563" lon="5.39243">
        <ele>476.8</ele>
        <time>2022-03-10T15:32:27Z</time>
      </trkpt>
      <trkpt lat="46.45641" lon="5.39256">
        <ele>477.6</ele>
        <time>2022-03-10T15:32:30Z</time>
      </trkpt>
      <trkpt lat="46.45645" lon="5.3926">
        <ele>477.8</ele>
        <time>2022-03-10T15:32:31Z</time>
      </trkpt>
      <trkpt lat="46.4566" lon="5.39276">
        <ele>479</ele>
        <time>2022-03-10T15:32:35Z</time>
      </trkpt>
      <trkpt lat="46.45675" lon="5.39293">
        <ele>479.4</ele>
        <time>2022-03-10T15:32:39Z</time>
      </trkpt>
      <trkpt lat="46.45686" lon="5.39304">
        <ele>480.2</ele>
        <time>2022-03-10T15:32:42Z</time>
      </trkpt>
      <trkpt lat="46.45694" lon="5.39315">
        <ele>481.2</ele>
        <time>2022-03-10T15:32:45Z</time>
      </trkpt>
      <trkpt lat="46.45706" lon="5.39328">
        <ele>481.6</ele>
        <time>2022-03-10T15:32:49Z</time>
      </trkpt>
      <trkpt lat="46.45719" lon="5.3934">
        <ele>482.4</ele>
        <time>2022-03-10T15:32:53Z</time>
      </trkpt>
      <trkpt lat="46.45738" lon="5.39363">
        <ele>483.4</ele>
        <time>2022-03-10T15:33:00Z</time>
      </trkpt>
      <trkpt lat="46.4574" lon="5.39366">
        <ele>483.6</ele>
        <time>2022-03-10T15:33:01Z</time>
      </trkpt>
      <trkpt lat="46.45743" lon="5.39369">
        <ele>484.2</ele>
        <time>2022-03-10T15:33:02Z</time>
      </trkpt>
      <trkpt lat="46.45748" lon="5.39376">
        <ele>484.8</ele>
        <time>2022-03-10T15:33:04Z</time>
      </trkpt>
      <trkpt lat="46.45757" lon="5.39394">
        <ele>485.6</ele>
        <time>2022-03-10T15:33:08Z</time>
      </trkpt>
      <trkpt lat="46.45758" lon="5.39398">
        <ele>486</ele>
        <time>2022-03-10T15:33:09Z</time>
      </trkpt>
      <trkpt lat="46.45765" lon="5.39418">
        <ele>487.2</ele>
        <time>2022-03-10T15:33:13Z</time>
      </trkpt>
      <trkpt lat="46.45769" lon="5.39432">
        <ele>488</ele>
        <time>2022-03-10T15:33:16Z</time>
      </trkpt>
      <trkpt lat="46.45769" lon="5.39437">
        <ele>488.2</ele>
        <time>2022-03-10T15:33:17Z</time>
      </trkpt>
      <trkpt lat="46.45772" lon="5.39463">
        <ele>489.6</ele>
        <time>2022-03-10T15:33:22Z</time>
      </trkpt>
      <trkpt lat="46.45772" lon="5.39474">
        <ele>490</ele>
        <time>2022-03-10T15:33:24Z</time>
      </trkpt>
      <trkpt lat="46.45771" lon="5.39489">
        <ele>490.8</ele>
        <time>2022-03-10T15:33:27Z</time>
      </trkpt>
      <trkpt lat="46.45767" lon="5.39518">
        <ele>491.4</ele>
        <time>2022-03-10T15:33:32Z</time>
      </trkpt>
      <trkpt lat="46.45761" lon="5.39556">
        <ele>491.8</ele>
        <time>2022-03-10T15:33:38Z</time>
      </trkpt>
      <trkpt lat="46.45761" lon="5.39563">
        <ele>492</ele>
        <time>2022-03-10T15:33:39Z</time>
      </trkpt>
      <trkpt lat="46.45759" lon="5.396">
        <ele>492.6</ele>
        <time>2022-03-10T15:33:44Z</time>
      </trkpt>
      <trkpt lat="46.45761" lon="5.39614">
        <ele>492.8</ele>
        <time>2022-03-10T15:33:46Z</time>
      </trkpt>
      <trkpt lat="46.45762" lon="5.39621">
        <ele>492.8</ele>
        <time>2022-03-10T15:33:47Z</time>
      </trkpt>
      <trkpt lat="46.45764" lon="5.39635">
        <ele>493</ele>
        <time>2022-03-10T15:33:49Z</time>
      </trkpt>
      <trkpt lat="46.45769" lon="5.39654">
        <ele>493.4</ele>
        <time>2022-03-10T15:33:52Z</time>
      </trkpt>
      <trkpt lat="46.45774" lon="5.39666">
        <ele>494</ele>
        <time>2022-03-10T15:33:54Z</time>
      </trkpt>
      <trkpt lat="46.45788" lon="5.39692">
        <ele>494.6</ele>
        <time>2022-03-10T15:33:59Z</time>
      </trkpt>
      <trkpt lat="46.45798" lon="5.39705">
        <ele>495</ele>
        <time>2022-03-10T15:34:02Z</time>
      </trkpt>
      <trkpt lat="46.45813" lon="5.39721">
        <ele>496</ele>
        <time>2022-03-10T15:34:06Z</time>
      </trkpt>
      <trkpt lat="46.45817" lon="5.39724">
        <ele>496</ele>
        <time>2022-03-10T15:34:07Z</time>
      </trkpt>
      <trkpt lat="46.45846" lon="5.39748">
        <ele>497</ele>
        <time>2022-03-10T15:34:14Z</time>
      </trkpt>
      <trkpt lat="46.45851" lon="5.39751">
        <ele>497.2</ele>
        <time>2022-03-10T15:34:15Z</time>
      </trkpt>
      <trkpt lat="46.45874" lon="5.39773">
        <ele>498</ele>
        <time>2022-03-10T15:34:21Z</time>
      </trkpt>
      <trkpt lat="46.45883" lon="5.3978">
        <ele>498.2</ele>
        <time>2022-03-10T15:34:23Z</time>
      </trkpt>
      <trkpt lat="46.45912" lon="5.39806">
        <ele>499</ele>
        <time>2022-03-10T15:34:29Z</time>
      </trkpt>
      <trkpt lat="46.45945" lon="5.39832">
        <ele>499</ele>
        <time>2022-03-10T15:34:35Z</time>
      </trkpt>
      <trkpt lat="46.45951" lon="5.39837">
        <ele>499.2</ele>
        <time>2022-03-10T15:34:36Z</time>
      </trkpt>
      <trkpt lat="46.45988" lon="5.39866">
        <ele>499.6</ele>
        <time>2022-03-10T15:34:43Z</time>
      </trkpt>
      <trkpt lat="46.46024" lon="5.39896">
        <ele>500.2</ele>
        <time>2022-03-10T15:34:50Z</time>
      </trkpt>
      <trkpt lat="46.4603" lon="5.399">
        <ele>500.2</ele>
        <time>2022-03-10T15:34:51Z</time>
      </trkpt>
      <trkpt lat="46.46066" lon="5.39931">
        <ele>501</ele>
        <time>2022-03-10T15:34:58Z</time>
      </trkpt>
      <trkpt lat="46.46091" lon="5.39954">
        <ele>501.2</ele>
        <time>2022-03-10T15:35:03Z</time>
      </trkpt>
      <trkpt lat="46.46107" lon="5.39968">
        <ele>501.6</ele>
        <time>2022-03-10T15:35:06Z</time>
      </trkpt>
      <trkpt lat="46.46151" lon="5.40004">
        <ele>502.2</ele>
        <time>2022-03-10T15:35:14Z</time>
      </trkpt>
      <trkpt lat="46.46156" lon="5.40009">
        <ele>502.4</ele>
        <time>2022-03-10T15:35:15Z</time>
      </trkpt>
      <trkpt lat="46.46182" lon="5.40044">
        <ele>502.6</ele>
        <time>2022-03-10T15:35:21Z</time>
      </trkpt>
      <trkpt lat="46.46185" lon="5.40052">
        <ele>502.8</ele>
        <time>2022-03-10T15:35:22Z</time>
      </trkpt>
      <trkpt lat="46.46194" lon="5.40081">
        <ele>503.2</ele>
        <time>2022-03-10T15:35:26Z</time>
      </trkpt>
      <trkpt lat="46.46195" lon="5.40088">
        <ele>503.4</ele>
        <time>2022-03-10T15:35:27Z</time>
      </trkpt>
      <trkpt lat="46.46197" lon="5.40116">
        <ele>504.2</ele>
        <time>2022-03-10T15:35:31Z</time>
      </trkpt>
      <trkpt lat="46.46197" lon="5.40122">
        <ele>504.4</ele>
        <time>2022-03-10T15:35:32Z</time>
      </trkpt>
      <trkpt lat="46.46197" lon="5.40128">
        <ele>504.8</ele>
        <time>2022-03-10T15:35:33Z</time>
      </trkpt>
      <trkpt lat="46.46201" lon="5.40138">
        <ele>505.2</ele>
        <time>2022-03-10T15:35:35Z</time>
      </trkpt>
      <trkpt lat="46.4621" lon="5.40139">
        <ele>505.2</ele>
        <time>2022-03-10T15:35:37Z</time>
      </trkpt>
      <trkpt lat="46.46214" lon="5.40136">
        <ele>505.4</ele>
        <time>2022-03-10T15:35:38Z</time>
      </trkpt>
      <trkpt lat="46.46219" lon="5.40132">
        <ele>505.4</ele>
        <time>2022-03-10T15:35:39Z</time>
      </trkpt>
      <trkpt lat="46.46222" lon="5.40128">
        <ele>505.4</ele>
        <time>2022-03-10T15:35:40Z</time>
      </trkpt>
      <trkpt lat="46.46235" lon="5.40115">
        <ele>505.8</ele>
        <time>2022-03-10T15:35:43Z</time>
      </trkpt>
      <trkpt lat="46.46239" lon="5.4011">
        <ele>505.8</ele>
        <time>2022-03-10T15:35:44Z</time>
      </trkpt>
      <trkpt lat="46.4625" lon="5.40099">
        <ele>506.2</ele>
        <time>2022-03-10T15:35:47Z</time>
      </trkpt>
      <trkpt lat="46.4626" lon="5.40095">
        <ele>506.4</ele>
        <time>2022-03-10T15:35:49Z</time>
      </trkpt>
      <trkpt lat="46.46275" lon="5.40092">
        <ele>506.6</ele>
        <time>2022-03-10T15:35:52Z</time>
      </trkpt>
      <trkpt lat="46.46288" lon="5.40093">
        <ele>507</ele>
        <time>2022-03-10T15:35:55Z</time>
      </trkpt>
      <trkpt lat="46.46302" lon="5.40094">
        <ele>507.8</ele>
        <time>2022-03-10T15:35:58Z</time>
      </trkpt>
      <trkpt lat="46.46322" lon="5.40096">
        <ele>508.8</ele>
        <time>2022-03-10T15:36:02Z</time>
      </trkpt>
      <trkpt lat="46.46346" lon="5.40095">
        <ele>510.2</ele>
        <time>2022-03-10T15:36:07Z</time>
      </trkpt>
      <trkpt lat="46.46367" lon="5.40091">
        <ele>511.2</ele>
        <time>2022-03-10T15:36:11Z</time>
      </trkpt>
      <trkpt lat="46.46398" lon="5.40087">
        <ele>512.4</ele>
        <time>2022-03-10T15:36:18Z</time>
      </trkpt>
      <trkpt lat="46.46428" lon="5.4008">
        <ele>513.4</ele>
        <time>2022-03-10T15:36:25Z</time>
      </trkpt>
      <trkpt lat="46.46437" lon="5.40078">
        <ele>513.6</ele>
        <time>2022-03-10T15:36:27Z</time>
      </trkpt>
      <trkpt lat="46.46455" lon="5.40075">
        <ele>514.4</ele>
        <time>2022-03-10T15:36:31Z</time>
      </trkpt>
      <trkpt lat="46.46483" lon="5.40072">
        <ele>515.4</ele>
        <time>2022-03-10T15:36:37Z</time>
      </trkpt>
      <trkpt lat="46.46492" lon="5.40071">
        <ele>515.8</ele>
        <time>2022-03-10T15:36:39Z</time>
      </trkpt>
      <trkpt lat="46.46507" lon="5.40073">
        <ele>516.2</ele>
        <time>2022-03-10T15:36:42Z</time>
      </trkpt>
      <trkpt lat="46.46517" lon="5.40076">
        <ele>516.4</ele>
        <time>2022-03-10T15:36:44Z</time>
      </trkpt>
      <trkpt lat="46.46526" lon="5.40081">
        <ele>516.8</ele>
        <time>2022-03-10T15:36:46Z</time>
      </trkpt>
      <trkpt lat="46.46548" lon="5.40092">
        <ele>518</ele>
        <time>2022-03-10T15:36:51Z</time>
      </trkpt>
      <trkpt lat="46.46556" lon="5.40096">
        <ele>518.2</ele>
        <time>2022-03-10T15:36:53Z</time>
      </trkpt>
      <trkpt lat="46.46586" lon="5.40113">
        <ele>519.2</ele>
        <time>2022-03-10T15:37:00Z</time>
      </trkpt>
      <trkpt lat="46.46597" lon="5.40119">
        <ele>519.6</ele>
        <time>2022-03-10T15:37:03Z</time>
      </trkpt>
      <trkpt lat="46.46613" lon="5.40127">
        <ele>520.2</ele>
        <time>2022-03-10T15:37:07Z</time>
      </trkpt>
      <trkpt lat="46.46627" lon="5.40135">
        <ele>521.2</ele>
        <time>2022-03-10T15:37:11Z</time>
      </trkpt>
      <trkpt lat="46.4663" lon="5.40137">
        <ele>521.4</ele>
        <time>2022-03-10T15:37:12Z</time>
      </trkpt>
      <trkpt lat="46.46651" lon="5.40147">
        <ele>522.6</ele>
        <time>2022-03-10T15:37:18Z</time>
      </trkpt>
      <trkpt lat="46.4666" lon="5.40152">
        <ele>522.8</ele>
        <time>2022-03-10T15:37:21Z</time>
      </trkpt>
      <trkpt lat="46.46669" lon="5.40157">
        <ele>523.6</ele>
        <time>2022-03-10T15:37:24Z</time>
      </trkpt>
      <trkpt lat="46.46685" lon="5.40165">
        <ele>524.6</ele>
        <time>2022-03-10T15:37:29Z</time>
      </trkpt>
      <trkpt lat="46.46688" lon="5.40166">
        <ele>525</ele>
        <time>2022-03-10T15:37:30Z</time>
      </trkpt>
      <trkpt lat="46.46701" lon="5.40173">
        <ele>525.8</ele>
        <time>2022-03-10T15:37:34Z</time>
      </trkpt>
      <trkpt lat="46.46719" lon="5.40181">
        <ele>526.8</ele>
        <time>2022-03-10T15:37:40Z</time>
      </trkpt>
      <trkpt lat="46.46722" lon="5.40183">
        <ele>527</ele>
        <time>2022-03-10T15:37:41Z</time>
      </trkpt>
      <trkpt lat="46.46736" lon="5.40189">
        <ele>528.2</ele>
        <time>2022-03-10T15:37:46Z</time>
      </trkpt>
      <trkpt lat="46.46739" lon="5.40191">
        <ele>528.2</ele>
        <time>2022-03-10T15:37:47Z</time>
      </trkpt>
      <trkpt lat="46.46752" lon="5.40198">
        <ele>529.2</ele>
        <time>2022-03-10T15:37:51Z</time>
      </trkpt>
      <trkpt lat="46.46758" lon="5.40202">
        <ele>529.6</ele>
        <time>2022-03-10T15:37:53Z</time>
      </trkpt>
      <trkpt lat="46.46771" lon="5.40209">
        <ele>530.4</ele>
        <time>2022-03-10T15:37:57Z</time>
      </trkpt>
      <trkpt lat="46.46785" lon="5.4022">
        <ele>531.2</ele>
        <time>2022-03-10T15:38:01Z</time>
      </trkpt>
      <trkpt lat="46.46791" lon="5.40224">
        <ele>531.6</ele>
        <time>2022-03-10T15:38:03Z</time>
      </trkpt>
      <trkpt lat="46.46807" lon="5.40229">
        <ele>532.6</ele>
        <time>2022-03-10T15:38:07Z</time>
      </trkpt>
      <trkpt lat="46.46813" lon="5.40233">
        <ele>533</ele>
        <time>2022-03-10T15:38:09Z</time>
      </trkpt>
      <trkpt lat="46.46824" lon="5.40239">
        <ele>533.6</ele>
        <time>2022-03-10T15:38:12Z</time>
      </trkpt>
      <trkpt lat="46.46841" lon="5.40247">
        <ele>534.8</ele>
        <time>2022-03-10T15:38:17Z</time>
      </trkpt>
      <trkpt lat="46.46859" lon="5.40255">
        <ele>536</ele>
        <time>2022-03-10T15:38:22Z</time>
      </trkpt>
      <trkpt lat="46.46886" lon="5.40269">
        <ele>537.2</ele>
        <time>2022-03-10T15:38:29Z</time>
      </trkpt>
      <trkpt lat="46.46919" lon="5.40285">
        <ele>538.2</ele>
        <time>2022-03-10T15:38:36Z</time>
      </trkpt>
      <trkpt lat="46.46924" lon="5.40287">
        <ele>538.4</ele>
        <time>2022-03-10T15:38:37Z</time>
      </trkpt>
      <trkpt lat="46.46943" lon="5.40297">
        <ele>539</ele>
        <time>2022-03-10T15:38:41Z</time>
      </trkpt>
      <trkpt lat="46.46958" lon="5.40303">
        <ele>539.4</ele>
        <time>2022-03-10T15:38:44Z</time>
      </trkpt>
      <trkpt lat="46.46984" lon="5.40313">
        <ele>540.4</ele>
        <time>2022-03-10T15:38:49Z</time>
      </trkpt>
      <trkpt lat="46.47001" lon="5.40319">
        <ele>541</ele>
        <time>2022-03-10T15:38:52Z</time>
      </trkpt>
      <trkpt lat="46.47012" lon="5.40322">
        <ele>541.6</ele>
        <time>2022-03-10T15:38:54Z</time>
      </trkpt>
      <trkpt lat="46.4704" lon="5.40323">
        <ele>542.6</ele>
        <time>2022-03-10T15:38:59Z</time>
      </trkpt>
      <trkpt lat="46.47046" lon="5.40324">
        <ele>542.6</ele>
        <time>2022-03-10T15:39:00Z</time>
      </trkpt>
      <trkpt lat="46.47074" lon="5.40326">
        <ele>543</ele>
        <time>2022-03-10T15:39:04Z</time>
      </trkpt>
      <trkpt lat="46.47109" lon="5.40329">
        <ele>542</ele>
        <time>2022-03-10T15:39:08Z</time>
      </trkpt>
      <trkpt lat="46.47128" lon="5.40332">
        <ele>541.2</ele>
        <time>2022-03-10T15:39:10Z</time>
      </trkpt>
      <trkpt lat="46.47157" lon="5.4034">
        <ele>540</ele>
        <time>2022-03-10T15:39:13Z</time>
      </trkpt>
      <trkpt lat="46.47177" lon="5.40349">
        <ele>539</ele>
        <time>2022-03-10T15:39:15Z</time>
      </trkpt>
      <trkpt lat="46.47187" lon="5.40354">
        <ele>538.6</ele>
        <time>2022-03-10T15:39:16Z</time>
      </trkpt>
      <trkpt lat="46.47205" lon="5.40373">
        <ele>537.6</ele>
        <time>2022-03-10T15:39:18Z</time>
      </trkpt>
      <trkpt lat="46.47214" lon="5.40385">
        <ele>537.4</ele>
        <time>2022-03-10T15:39:19Z</time>
      </trkpt>
      <trkpt lat="46.47233" lon="5.40406">
        <ele>536.6</ele>
        <time>2022-03-10T15:39:21Z</time>
      </trkpt>
      <trkpt lat="46.47245" lon="5.40414">
        <ele>536</ele>
        <time>2022-03-10T15:39:22Z</time>
      </trkpt>
      <trkpt lat="46.47257" lon="5.40421">
        <ele>536</ele>
        <time>2022-03-10T15:39:23Z</time>
      </trkpt>
      <trkpt lat="46.47269" lon="5.40427">
        <ele>535.4</ele>
        <time>2022-03-10T15:39:24Z</time>
      </trkpt>
      <trkpt lat="46.47294" lon="5.40437">
        <ele>533.6</ele>
        <time>2022-03-10T15:39:26Z</time>
      </trkpt>
      <trkpt lat="46.47306" lon="5.4044">
        <ele>532.6</ele>
        <time>2022-03-10T15:39:27Z</time>
      </trkpt>
      <trkpt lat="46.47331" lon="5.40445">
        <ele>531.6</ele>
        <time>2022-03-10T15:39:29Z</time>
      </trkpt>
      <trkpt lat="46.47355" lon="5.40448">
        <ele>530</ele>
        <time>2022-03-10T15:39:31Z</time>
      </trkpt>
      <trkpt lat="46.47366" lon="5.4045">
        <ele>529.8</ele>
        <time>2022-03-10T15:39:32Z</time>
      </trkpt>
      <trkpt lat="46.47389" lon="5.40449">
        <ele>528.6</ele>
        <time>2022-03-10T15:39:34Z</time>
      </trkpt>
      <trkpt lat="46.47414" lon="5.40444">
        <ele>527.8</ele>
        <time>2022-03-10T15:39:36Z</time>
      </trkpt>
      <trkpt lat="46.47422" lon="5.40442">
        <ele>527.6</ele>
        <time>2022-03-10T15:39:37Z</time>
      </trkpt>
      <trkpt lat="46.47453" lon="5.40442">
        <ele>525.8</ele>
        <time>2022-03-10T15:39:40Z</time>
      </trkpt>
      <trkpt lat="46.47478" lon="5.40451">
        <ele>524.2</ele>
        <time>2022-03-10T15:39:42Z</time>
      </trkpt>
      <trkpt lat="46.47488" lon="5.40455">
        <ele>523.6</ele>
        <time>2022-03-10T15:39:43Z</time>
      </trkpt>
      <trkpt lat="46.47496" lon="5.40462">
        <ele>523.4</ele>
        <time>2022-03-10T15:39:44Z</time>
      </trkpt>
      <trkpt lat="46.47503" lon="5.4047">
        <ele>522.2</ele>
        <time>2022-03-10T15:39:45Z</time>
      </trkpt>
      <trkpt lat="46.4752" lon="5.40482">
        <ele>520.6</ele>
        <time>2022-03-10T15:39:47Z</time>
      </trkpt>
      <trkpt lat="46.47538" lon="5.40474">
        <ele>519.6</ele>
        <time>2022-03-10T15:39:49Z</time>
      </trkpt>
      <trkpt lat="46.47545" lon="5.40448">
        <ele>518</ele>
        <time>2022-03-10T15:39:51Z</time>
      </trkpt>
      <trkpt lat="46.47544" lon="5.40437">
        <ele>516.6</ele>
        <time>2022-03-10T15:39:52Z</time>
      </trkpt>
      <trkpt lat="46.47541" lon="5.4041">
        <ele>515.4</ele>
        <time>2022-03-10T15:39:54Z</time>
      </trkpt>
      <trkpt lat="46.47537" lon="5.40397">
        <ele>515</ele>
        <time>2022-03-10T15:39:55Z</time>
      </trkpt>
      <trkpt lat="46.47529" lon="5.40369">
        <ele>514</ele>
        <time>2022-03-10T15:39:57Z</time>
      </trkpt>
      <trkpt lat="46.47524" lon="5.40339">
        <ele>513.4</ele>
        <time>2022-03-10T15:39:59Z</time>
      </trkpt>
      <trkpt lat="46.47527" lon="5.40324">
        <ele>512.8</ele>
        <time>2022-03-10T15:40:00Z</time>
      </trkpt>
      <trkpt lat="46.47532" lon="5.4031">
        <ele>512</ele>
        <time>2022-03-10T15:40:01Z</time>
      </trkpt>
      <trkpt lat="46.47538" lon="5.40298">
        <ele>511.6</ele>
        <time>2022-03-10T15:40:02Z</time>
      </trkpt>
      <trkpt lat="46.47546" lon="5.40287">
        <ele>511.2</ele>
        <time>2022-03-10T15:40:03Z</time>
      </trkpt>
      <trkpt lat="46.47564" lon="5.40268">
        <ele>510.2</ele>
        <time>2022-03-10T15:40:05Z</time>
      </trkpt>
      <trkpt lat="46.47586" lon="5.40257">
        <ele>509</ele>
        <time>2022-03-10T15:40:07Z</time>
      </trkpt>
      <trkpt lat="46.47598" lon="5.40255">
        <ele>508.4</ele>
        <time>2022-03-10T15:40:08Z</time>
      </trkpt>
      <trkpt lat="46.4761" lon="5.40253">
        <ele>508</ele>
        <time>2022-03-10T15:40:09Z</time>
      </trkpt>
      <trkpt lat="46.47634" lon="5.40248">
        <ele>506.8</ele>
        <time>2022-03-10T15:40:11Z</time>
      </trkpt>
      <trkpt lat="46.47649" lon="5.40246">
        <ele>506.2</ele>
        <time>2022-03-10T15:40:12Z</time>
      </trkpt>
      <trkpt lat="46.47659" lon="5.40246">
        <ele>505.4</ele>
        <time>2022-03-10T15:40:13Z</time>
      </trkpt>
      <trkpt lat="46.47682" lon="5.40246">
        <ele>504</ele>
        <time>2022-03-10T15:40:15Z</time>
      </trkpt>
      <trkpt lat="46.47695" lon="5.40242">
        <ele>503.6</ele>
        <time>2022-03-10T15:40:16Z</time>
      </trkpt>
      <trkpt lat="46.47703" lon="5.40236">
        <ele>503</ele>
        <time>2022-03-10T15:40:17Z</time>
      </trkpt>
      <trkpt lat="46.47711" lon="5.40224">
        <ele>502.8</ele>
        <time>2022-03-10T15:40:18Z</time>
      </trkpt>
      <trkpt lat="46.47716" lon="5.40208">
        <ele>502.2</ele>
        <time>2022-03-10T15:40:19Z</time>
      </trkpt>
      <trkpt lat="46.47715" lon="5.4019">
        <ele>501.8</ele>
        <time>2022-03-10T15:40:20Z</time>
      </trkpt>
      <trkpt lat="46.47719" lon="5.40175">
        <ele>501.2</ele>
        <time>2022-03-10T15:40:21Z</time>
      </trkpt>
      <trkpt lat="46.47726" lon="5.4016">
        <ele>500.6</ele>
        <time>2022-03-10T15:40:22Z</time>
      </trkpt>
      <trkpt lat="46.47733" lon="5.40153">
        <ele>500.4</ele>
        <time>2022-03-10T15:40:23Z</time>
      </trkpt>
      <trkpt lat="46.47741" lon="5.40144">
        <ele>500</ele>
        <time>2022-03-10T15:40:24Z</time>
      </trkpt>
      <trkpt lat="46.47749" lon="5.40133">
        <ele>499.4</ele>
        <time>2022-03-10T15:40:25Z</time>
      </trkpt>
      <trkpt lat="46.47756" lon="5.40117">
        <ele>498.4</ele>
        <time>2022-03-10T15:40:26Z</time>
      </trkpt>
      <trkpt lat="46.4776" lon="5.40105">
        <ele>498</ele>
        <time>2022-03-10T15:40:27Z</time>
      </trkpt>
      <trkpt lat="46.47763" lon="5.40091">
        <ele>497.4</ele>
        <time>2022-03-10T15:40:28Z</time>
      </trkpt>
      <trkpt lat="46.47766" lon="5.40075">
        <ele>496.4</ele>
        <time>2022-03-10T15:40:29Z</time>
      </trkpt>
      <trkpt lat="46.47764" lon="5.40056">
        <ele>496</ele>
        <time>2022-03-10T15:40:30Z</time>
      </trkpt>
      <trkpt lat="46.47763" lon="5.40042">
        <ele>495.4</ele>
        <time>2022-03-10T15:40:31Z</time>
      </trkpt>
      <trkpt lat="46.47763" lon="5.4003">
        <ele>495</ele>
        <time>2022-03-10T15:40:32Z</time>
      </trkpt>
      <trkpt lat="46.47765" lon="5.40017">
        <ele>494.4</ele>
        <time>2022-03-10T15:40:33Z</time>
      </trkpt>
      <trkpt lat="46.47776" lon="5.4">
        <ele>493.6</ele>
        <time>2022-03-10T15:40:35Z</time>
      </trkpt>
      <trkpt lat="46.47793" lon="5.39989">
        <ele>492.6</ele>
        <time>2022-03-10T15:40:37Z</time>
      </trkpt>
      <trkpt lat="46.47803" lon="5.39985">
        <ele>491.4</ele>
        <time>2022-03-10T15:40:38Z</time>
      </trkpt>
      <trkpt lat="46.47824" lon="5.39974">
        <ele>489.8</ele>
        <time>2022-03-10T15:40:40Z</time>
      </trkpt>
      <trkpt lat="46.47846" lon="5.39962">
        <ele>489</ele>
        <time>2022-03-10T15:40:42Z</time>
      </trkpt>
      <trkpt lat="46.47858" lon="5.39956">
        <ele>488.6</ele>
        <time>2022-03-10T15:40:43Z</time>
      </trkpt>
      <trkpt lat="46.47881" lon="5.39945">
        <ele>487.6</ele>
        <time>2022-03-10T15:40:45Z</time>
      </trkpt>
      <trkpt lat="46.47892" lon="5.39938">
        <ele>486.6</ele>
        <time>2022-03-10T15:40:46Z</time>
      </trkpt>
      <trkpt lat="46.47915" lon="5.39926">
        <ele>485.4</ele>
        <time>2022-03-10T15:40:48Z</time>
      </trkpt>
      <trkpt lat="46.47938" lon="5.39914">
        <ele>484.8</ele>
        <time>2022-03-10T15:40:50Z</time>
      </trkpt>
      <trkpt lat="46.47949" lon="5.39909">
        <ele>484.2</ele>
        <time>2022-03-10T15:40:51Z</time>
      </trkpt>
      <trkpt lat="46.47971" lon="5.39898">
        <ele>482.8</ele>
        <time>2022-03-10T15:40:53Z</time>
      </trkpt>
      <trkpt lat="46.47993" lon="5.39889">
        <ele>481.6</ele>
        <time>2022-03-10T15:40:55Z</time>
      </trkpt>
      <trkpt lat="46.48015" lon="5.39885">
        <ele>480.8</ele>
        <time>2022-03-10T15:40:57Z</time>
      </trkpt>
      <trkpt lat="46.48025" lon="5.39887">
        <ele>480.4</ele>
        <time>2022-03-10T15:40:58Z</time>
      </trkpt>
      <trkpt lat="46.48035" lon="5.39892">
        <ele>480</ele>
        <time>2022-03-10T15:40:59Z</time>
      </trkpt>
      <trkpt lat="46.48064" lon="5.39908">
        <ele>479.4</ele>
        <time>2022-03-10T15:41:02Z</time>
      </trkpt>
      <trkpt lat="46.48074" lon="5.39911">
        <ele>479.4</ele>
        <time>2022-03-10T15:41:03Z</time>
      </trkpt>
      <trkpt lat="46.48084" lon="5.39912">
        <ele>479.4</ele>
        <time>2022-03-10T15:41:04Z</time>
      </trkpt>
      <trkpt lat="46.48094" lon="5.39911">
        <ele>479.2</ele>
        <time>2022-03-10T15:41:05Z</time>
      </trkpt>
      <trkpt lat="46.48134" lon="5.39905">
        <ele>479.4</ele>
        <time>2022-03-10T15:41:09Z</time>
      </trkpt>
      <trkpt lat="46.48144" lon="5.39902">
        <ele>479.4</ele>
        <time>2022-03-10T15:41:10Z</time>
      </trkpt>
      <trkpt lat="46.4818" lon="5.39881">
        <ele>479.4</ele>
        <time>2022-03-10T15:41:14Z</time>
      </trkpt>
      <trkpt lat="46.48189" lon="5.39873">
        <ele>479.4</ele>
        <time>2022-03-10T15:41:15Z</time>
      </trkpt>
      <trkpt lat="46.482" lon="5.39853">
        <ele>479.4</ele>
        <time>2022-03-10T15:41:17Z</time>
      </trkpt>
      <trkpt lat="46.48199" lon="5.39826">
        <ele>479.2</ele>
        <time>2022-03-10T15:41:19Z</time>
      </trkpt>
      <trkpt lat="46.48184" lon="5.39746">
        <ele>478.8</ele>
        <time>2022-03-10T15:41:25Z</time>
      </trkpt>
      <trkpt lat="46.48179" lon="5.39709">
        <ele>478.8</ele>
        <time>2022-03-10T15:41:28Z</time>
      </trkpt>
      <trkpt lat="46.48179" lon="5.39685">
        <ele>478.6</ele>
        <time>2022-03-10T15:41:30Z</time>
      </trkpt>
      <trkpt lat="46.48183" lon="5.39649">
        <ele>478</ele>
        <time>2022-03-10T15:41:33Z</time>
      </trkpt>
      <trkpt lat="46.48187" lon="5.39636">
        <ele>478</ele>
        <time>2022-03-10T15:41:34Z</time>
      </trkpt>
      <trkpt lat="46.48202" lon="5.39599">
        <ele>476.4</ele>
        <time>2022-03-10T15:41:37Z</time>
      </trkpt>
      <trkpt lat="46.48207" lon="5.39586">
        <ele>476</ele>
        <time>2022-03-10T15:41:38Z</time>
      </trkpt>
      <trkpt lat="46.48211" lon="5.39573">
        <ele>475</ele>
        <time>2022-03-10T15:41:39Z</time>
      </trkpt>
      <trkpt lat="46.48217" lon="5.39544">
        <ele>473</ele>
        <time>2022-03-10T15:41:41Z</time>
      </trkpt>
      <trkpt lat="46.4822" lon="5.3953">
        <ele>472</ele>
        <time>2022-03-10T15:41:42Z</time>
      </trkpt>
      <trkpt lat="46.48227" lon="5.39504">
        <ele>471</ele>
        <time>2022-03-10T15:41:44Z</time>
      </trkpt>
      <trkpt lat="46.48232" lon="5.39494">
        <ele>470.8</ele>
        <time>2022-03-10T15:41:45Z</time>
      </trkpt>
      <trkpt lat="46.48239" lon="5.39485">
        <ele>469.2</ele>
        <time>2022-03-10T15:41:46Z</time>
      </trkpt>
      <trkpt lat="46.48252" lon="5.39472">
        <ele>466.6</ele>
        <time>2022-03-10T15:41:48Z</time>
      </trkpt>
      <trkpt lat="46.4826" lon="5.39468">
        <ele>465.4</ele>
        <time>2022-03-10T15:41:49Z</time>
      </trkpt>
      <trkpt lat="46.48268" lon="5.39467">
        <ele>465</ele>
        <time>2022-03-10T15:41:50Z</time>
      </trkpt>
      <trkpt lat="46.48276" lon="5.39468">
        <ele>463.8</ele>
        <time>2022-03-10T15:41:51Z</time>
      </trkpt>
      <trkpt lat="46.48284" lon="5.39466">
        <ele>463.4</ele>
        <time>2022-03-10T15:41:52Z</time>
      </trkpt>
      <trkpt lat="46.48298" lon="5.39457">
        <ele>462.2</ele>
        <time>2022-03-10T15:41:54Z</time>
      </trkpt>
      <trkpt lat="46.48306" lon="5.39435">
        <ele>460.6</ele>
        <time>2022-03-10T15:41:56Z</time>
      </trkpt>
      <trkpt lat="46.48313" lon="5.39406">
        <ele>459.6</ele>
        <time>2022-03-10T15:41:58Z</time>
      </trkpt>
      <trkpt lat="46.48319" lon="5.39391">
        <ele>459.2</ele>
        <time>2022-03-10T15:41:59Z</time>
      </trkpt>
      <trkpt lat="46.48325" lon="5.39377">
        <ele>458.2</ele>
        <time>2022-03-10T15:42:00Z</time>
      </trkpt>
      <trkpt lat="46.4834" lon="5.39352">
        <ele>457</ele>
        <time>2022-03-10T15:42:02Z</time>
      </trkpt>
      <trkpt lat="46.48357" lon="5.39334">
        <ele>455.2</ele>
        <time>2022-03-10T15:42:04Z</time>
      </trkpt>
      <trkpt lat="46.48366" lon="5.39328">
        <ele>454</ele>
        <time>2022-03-10T15:42:05Z</time>
      </trkpt>
      <trkpt lat="46.48377" lon="5.39326">
        <ele>453.6</ele>
        <time>2022-03-10T15:42:06Z</time>
      </trkpt>
      <trkpt lat="46.48388" lon="5.39325">
        <ele>452.6</ele>
        <time>2022-03-10T15:42:07Z</time>
      </trkpt>
      <trkpt lat="46.48399" lon="5.39327">
        <ele>452.2</ele>
        <time>2022-03-10T15:42:08Z</time>
      </trkpt>
      <trkpt lat="46.48411" lon="5.39329">
        <ele>450.2</ele>
        <time>2022-03-10T15:42:09Z</time>
      </trkpt>
      <trkpt lat="46.48425" lon="5.39329">
        <ele>449.6</ele>
        <time>2022-03-10T15:42:10Z</time>
      </trkpt>
      <trkpt lat="46.48437" lon="5.39327">
        <ele>448.4</ele>
        <time>2022-03-10T15:42:11Z</time>
      </trkpt>
      <trkpt lat="46.48476" lon="5.39316">
        <ele>446.6</ele>
        <time>2022-03-10T15:42:14Z</time>
      </trkpt>
      <trkpt lat="46.48503" lon="5.39309">
        <ele>445.2</ele>
        <time>2022-03-10T15:42:16Z</time>
      </trkpt>
      <trkpt lat="46.48529" lon="5.39301">
        <ele>443</ele>
        <time>2022-03-10T15:42:18Z</time>
      </trkpt>
      <trkpt lat="46.48558" lon="5.39295">
        <ele>441</ele>
        <time>2022-03-10T15:42:20Z</time>
      </trkpt>
      <trkpt lat="46.48572" lon="5.39292">
        <ele>440</ele>
        <time>2022-03-10T15:42:21Z</time>
      </trkpt>
      <trkpt lat="46.48601" lon="5.39286">
        <ele>438.2</ele>
        <time>2022-03-10T15:42:23Z</time>
      </trkpt>
      <trkpt lat="46.48628" lon="5.39281">
        <ele>435.8</ele>
        <time>2022-03-10T15:42:25Z</time>
      </trkpt>
      <trkpt lat="46.48654" lon="5.3928">
        <ele>433.6</ele>
        <time>2022-03-10T15:42:27Z</time>
      </trkpt>
      <trkpt lat="46.48667" lon="5.39282">
        <ele>432</ele>
        <time>2022-03-10T15:42:28Z</time>
      </trkpt>
      <trkpt lat="46.48689" lon="5.39289">
        <ele>429.8</ele>
        <time>2022-03-10T15:42:30Z</time>
      </trkpt>
      <trkpt lat="46.48699" lon="5.39295">
        <ele>429</ele>
        <time>2022-03-10T15:42:31Z</time>
      </trkpt>
      <trkpt lat="46.48707" lon="5.39301">
        <ele>427.6</ele>
        <time>2022-03-10T15:42:32Z</time>
      </trkpt>
      <trkpt lat="46.48722" lon="5.39308">
        <ele>425.6</ele>
        <time>2022-03-10T15:42:34Z</time>
      </trkpt>
      <trkpt lat="46.4873" lon="5.39307">
        <ele>424</ele>
        <time>2022-03-10T15:42:35Z</time>
      </trkpt>
      <trkpt lat="46.48735" lon="5.39302">
        <ele>423.4</ele>
        <time>2022-03-10T15:42:36Z</time>
      </trkpt>
      <trkpt lat="46.4874" lon="5.39297">
        <ele>422.4</ele>
        <time>2022-03-10T15:42:37Z</time>
      </trkpt>
      <trkpt lat="46.48742" lon="5.39288">
        <ele>422</ele>
        <time>2022-03-10T15:42:38Z</time>
      </trkpt>
      <trkpt lat="46.48742" lon="5.39279">
        <ele>421</ele>
        <time>2022-03-10T15:42:39Z</time>
      </trkpt>
      <trkpt lat="46.48734" lon="5.39268">
        <ele>420.6</ele>
        <time>2022-03-10T15:42:40Z</time>
      </trkpt>
      <trkpt lat="46.48724" lon="5.39257">
        <ele>419.2</ele>
        <time>2022-03-10T15:42:41Z</time>
      </trkpt>
      <trkpt lat="46.487" lon="5.3923">
        <ele>418</ele>
        <time>2022-03-10T15:42:43Z</time>
      </trkpt>
      <trkpt lat="46.4869" lon="5.39216">
        <ele>416.2</ele>
        <time>2022-03-10T15:42:44Z</time>
      </trkpt>
      <trkpt lat="46.48669" lon="5.39188">
        <ele>414</ele>
        <time>2022-03-10T15:42:46Z</time>
      </trkpt>
      <trkpt lat="46.48648" lon="5.39159">
        <ele>412.8</ele>
        <time>2022-03-10T15:42:48Z</time>
      </trkpt>
      <trkpt lat="46.48625" lon="5.39136">
        <ele>410.8</ele>
        <time>2022-03-10T15:42:50Z</time>
      </trkpt>
      <trkpt lat="46.48612" lon="5.39126">
        <ele>409.6</ele>
        <time>2022-03-10T15:42:51Z</time>
      </trkpt>
      <trkpt lat="46.48586" lon="5.39106">
        <ele>407.8</ele>
        <time>2022-03-10T15:42:53Z</time>
      </trkpt>
      <trkpt lat="46.48561" lon="5.39088">
        <ele>405.4</ele>
        <time>2022-03-10T15:42:55Z</time>
      </trkpt>
      <trkpt lat="46.48534" lon="5.39072">
        <ele>403.4</ele>
        <time>2022-03-10T15:42:57Z</time>
      </trkpt>
      <trkpt lat="46.48521" lon="5.39063">
        <ele>403</ele>
        <time>2022-03-10T15:42:58Z</time>
      </trkpt>
      <trkpt lat="46.48511" lon="5.39049">
        <ele>401.8</ele>
        <time>2022-03-10T15:42:59Z</time>
      </trkpt>
      <trkpt lat="46.48502" lon="5.39032">
        <ele>399.8</ele>
        <time>2022-03-10T15:43:00Z</time>
      </trkpt>
      <trkpt lat="46.48492" lon="5.38993">
        <ele>398</ele>
        <time>2022-03-10T15:43:02Z</time>
      </trkpt>
      <trkpt lat="46.48486" lon="5.38975">
        <ele>397.4</ele>
        <time>2022-03-10T15:43:03Z</time>
      </trkpt>
      <trkpt lat="46.48479" lon="5.38958">
        <ele>395.6</ele>
        <time>2022-03-10T15:43:04Z</time>
      </trkpt>
      <trkpt lat="46.48464" lon="5.38928">
        <ele>393</ele>
        <time>2022-03-10T15:43:06Z</time>
      </trkpt>
      <trkpt lat="46.48458" lon="5.38915">
        <ele>391.6</ele>
        <time>2022-03-10T15:43:07Z</time>
      </trkpt>
      <trkpt lat="46.48452" lon="5.38886">
        <ele>389.6</ele>
        <time>2022-03-10T15:43:09Z</time>
      </trkpt>
      <trkpt lat="46.4846" lon="5.38861">
        <ele>388.4</ele>
        <time>2022-03-10T15:43:11Z</time>
      </trkpt>
      <trkpt lat="46.48476" lon="5.38845">
        <ele>387.2</ele>
        <time>2022-03-10T15:43:13Z</time>
      </trkpt>
      <trkpt lat="46.48485" lon="5.38837">
        <ele>386.2</ele>
        <time>2022-03-10T15:43:14Z</time>
      </trkpt>
      <trkpt lat="46.48503" lon="5.38826">
        <ele>384.8</ele>
        <time>2022-03-10T15:43:16Z</time>
      </trkpt>
      <trkpt lat="46.48525" lon="5.38813">
        <ele>383.4</ele>
        <time>2022-03-10T15:43:18Z</time>
      </trkpt>
      <trkpt lat="46.48556" lon="5.38792">
        <ele>382</ele>
        <time>2022-03-10T15:43:21Z</time>
      </trkpt>
      <trkpt lat="46.48565" lon="5.38786">
        <ele>380.6</ele>
        <time>2022-03-10T15:43:22Z</time>
      </trkpt>
      <trkpt lat="46.48573" lon="5.38781">
        <ele>379.2</ele>
        <time>2022-03-10T15:43:23Z</time>
      </trkpt>
      <trkpt lat="46.48588" lon="5.38776">
        <ele>378</ele>
        <time>2022-03-10T15:43:25Z</time>
      </trkpt>
      <trkpt lat="46.48594" lon="5.38778">
        <ele>377.4</ele>
        <time>2022-03-10T15:43:26Z</time>
      </trkpt>
      <trkpt lat="46.48601" lon="5.3878">
        <ele>376.2</ele>
        <time>2022-03-10T15:43:27Z</time>
      </trkpt>
      <trkpt lat="46.48608" lon="5.38778">
        <ele>375.8</ele>
        <time>2022-03-10T15:43:28Z</time>
      </trkpt>
      <trkpt lat="46.48614" lon="5.38775">
        <ele>374.2</ele>
        <time>2022-03-10T15:43:29Z</time>
      </trkpt>
      <trkpt lat="46.48621" lon="5.38768">
        <ele>373.2</ele>
        <time>2022-03-10T15:43:30Z</time>
      </trkpt>
      <trkpt lat="46.48627" lon="5.38758">
        <ele>372.6</ele>
        <time>2022-03-10T15:43:31Z</time>
      </trkpt>
      <trkpt lat="46.48632" lon="5.38746">
        <ele>371.4</ele>
        <time>2022-03-10T15:43:32Z</time>
      </trkpt>
      <trkpt lat="46.48636" lon="5.38732">
        <ele>371.2</ele>
        <time>2022-03-10T15:43:33Z</time>
      </trkpt>
      <trkpt lat="46.48639" lon="5.38717">
        <ele>370.6</ele>
        <time>2022-03-10T15:43:34Z</time>
      </trkpt>
      <trkpt lat="46.48641" lon="5.38704">
        <ele>370</ele>
        <time>2022-03-10T15:43:35Z</time>
      </trkpt>
      <trkpt lat="46.48642" lon="5.38685">
        <ele>369</ele>
        <time>2022-03-10T15:43:36Z</time>
      </trkpt>
      <trkpt lat="46.48641" lon="5.38668">
        <ele>368.6</ele>
        <time>2022-03-10T15:43:37Z</time>
      </trkpt>
      <trkpt lat="46.48638" lon="5.38653">
        <ele>368</ele>
        <time>2022-03-10T15:43:38Z</time>
      </trkpt>
      <trkpt lat="46.48631" lon="5.38622">
        <ele>366.8</ele>
        <time>2022-03-10T15:43:40Z</time>
      </trkpt>
      <trkpt lat="46.48627" lon="5.38606">
        <ele>366</ele>
        <time>2022-03-10T15:43:41Z</time>
      </trkpt>
      <trkpt lat="46.48623" lon="5.3859">
        <ele>365.6</ele>
        <time>2022-03-10T15:43:42Z</time>
      </trkpt>
      <trkpt lat="46.48619" lon="5.38574">
        <ele>364.8</ele>
        <time>2022-03-10T15:43:43Z</time>
      </trkpt>
      <trkpt lat="46.48609" lon="5.38543">
        <ele>363.6</ele>
        <time>2022-03-10T15:43:45Z</time>
      </trkpt>
      <trkpt lat="46.48606" lon="5.3853">
        <ele>362.4</ele>
        <time>2022-03-10T15:43:46Z</time>
      </trkpt>
      <trkpt lat="46.48596" lon="5.38496">
        <ele>361.2</ele>
        <time>2022-03-10T15:43:48Z</time>
      </trkpt>
    </trkseg>
  </trk>
</gpx>